<?xml version='1.0' encoding='UTF-8'?><gpx version="1.1" creator="JPX - https://github.com/jenetics/jpx" xmlns="http://www.topografix.com/GPX/1/1"><trk><trkseg><trkpt lat="44.89123855609275" lon="7.77956824436949"><ele>242.0</ele><time>2026-05-02T12:33:35.999Z</time></trkpt><trkpt lat="44.89113680624875" lon="7.7795022163629435"><ele>242.0</ele><time>2026-05-02T12:33:36.999Z</time></trkpt><trkpt lat="44.89106185529812" lon="7.7794428539083595"><ele>242.0</ele><time>2026-05-02T12:33:38Z</time></trkpt><trkpt lat="44.890989659754794" lon="7.779362205438138"><ele>242.0</ele><time>2026-05-02T12:33:39Z</time></trkpt><trkpt lat="44.89089893154753" lon="7.779301441866687"><ele>242.0</ele><time>2026-05-02T12:33:40Z</time></trkpt><trkpt lat="44.89080500912292" lon="7.779238539032212"><ele>241.6</ele><time>2026-05-02T12:33:41Z</time></trkpt><trkpt lat="44.89070908362601" lon="7.7791742946783975"><ele>241.2</ele><time>2026-05-02T12:33:42Z</time></trkpt><trkpt lat="44.890609970468965" lon="7.779107915442095"><ele>240.8</ele><time>2026-05-02T12:33:43Z</time></trkpt><trkpt lat="44.89050877049745" lon="7.779040138603836"><ele>240.4</ele><time>2026-05-02T12:33:44Z</time></trkpt><trkpt lat="44.890412721731195" lon="7.778975811692765"><ele>240.0</ele><time>2026-05-02T12:33:45Z</time></trkpt><trkpt lat="44.89032386917261" lon="7.7789159547274895"><ele>240.0</ele><time>2026-05-02T12:33:46Z</time></trkpt><trkpt lat="44.890252842961104" lon="7.778863085016536"><ele>240.0</ele><time>2026-05-02T12:33:47Z</time></trkpt><trkpt lat="44.8901806010808" lon="7.778814363558366"><ele>240.0</ele><time>2026-05-02T12:33:48Z</time></trkpt><trkpt lat="44.8900955939599" lon="7.778785069256377"><ele>240.0</ele><time>2026-05-02T12:33:49Z</time></trkpt><trkpt lat="44.89000394914298" lon="7.77883750659975"><ele>240.0</ele><time>2026-05-02T12:33:50Z</time></trkpt><trkpt lat="44.88993872841843" lon="7.77893818061529"><ele>240.0</ele><time>2026-05-02T12:33:51Z</time></trkpt><trkpt lat="44.88983701718068" lon="7.778991176002497"><ele>239.75</ele><time>2026-05-02T12:33:52Z</time></trkpt><trkpt lat="44.889727668344335" lon="7.779067678927301"><ele>239.5</ele><time>2026-05-02T12:33:53Z</time></trkpt><trkpt lat="44.889608036326955" lon="7.779151641479224"><ele>239.25</ele><time>2026-05-02T12:33:54Z</time></trkpt><trkpt lat="44.88948210826809" lon="7.779240022845051"><ele>239.0</ele><time>2026-05-02T12:33:55Z</time></trkpt><trkpt lat="44.889352210354836" lon="7.779332273021189"><ele>238.66666666666669</ele><time>2026-05-02T12:33:56Z</time></trkpt><trkpt lat="44.889213593994576" lon="7.779431612571059"><ele>238.33333333333331</ele><time>2026-05-02T12:33:57Z</time></trkpt><trkpt lat="44.88906595500473" lon="7.779537418198208"><ele>238.0</ele><time>2026-05-02T12:33:58Z</time></trkpt><trkpt lat="44.888911787838516" lon="7.779647902257078"><ele>238.0</ele><time>2026-05-02T12:33:59Z</time></trkpt><trkpt lat="44.888750115016165" lon="7.779763765244165"><ele>238.0</ele><time>2026-05-02T12:34:00Z</time></trkpt><trkpt lat="44.8885833777868" lon="7.779883257644092"><ele>238.0</ele><time>2026-05-02T12:34:01Z</time></trkpt><trkpt lat="44.888413328826566" lon="7.780005123397705"><ele>237.66666666666666</ele><time>2026-05-02T12:34:02Z</time></trkpt><trkpt lat="44.88823940507592" lon="7.7801297660281525"><ele>237.33333333333331</ele><time>2026-05-02T12:34:03Z</time></trkpt><trkpt lat="44.88806527059969" lon="7.780254559670886"><ele>237.0</ele><time>2026-05-02T12:34:04Z</time></trkpt><trkpt lat="44.88788828711595" lon="7.780381395058674"><ele>237.33333333333331</ele><time>2026-05-02T12:34:05Z</time></trkpt><trkpt lat="44.88770631742274" lon="7.780510693955117"><ele>237.66666666666666</ele><time>2026-05-02T12:34:06Z</time></trkpt><trkpt lat="44.887516981305694" lon="7.780644693524524"><ele>238.0</ele><time>2026-05-02T12:34:07Z</time></trkpt><trkpt lat="44.8873260944812" lon="7.780782782503986"><ele>238.0</ele><time>2026-05-02T12:34:08Z</time></trkpt><trkpt lat="44.887136011189284" lon="7.780919902399046"><ele>238.0</ele><time>2026-05-02T12:34:09Z</time></trkpt><trkpt lat="44.886948591492015" lon="7.7810556177217425"><ele>238.0</ele><time>2026-05-02T12:34:10Z</time></trkpt><trkpt lat="44.886771940661426" lon="7.781183998414057"><ele>238.33333333333331</ele><time>2026-05-02T12:34:11Z</time></trkpt><trkpt lat="44.88660552959451" lon="7.7813049369984695"><ele>238.66666666666669</ele><time>2026-05-02T12:34:12Z</time></trkpt><trkpt lat="44.88643509394493" lon="7.78142880036955"><ele>239.0</ele><time>2026-05-02T12:34:13Z</time></trkpt><trkpt lat="44.88626168658136" lon="7.7815540230343965"><ele>239.0</ele><time>2026-05-02T12:34:14Z</time></trkpt><trkpt lat="44.886092935849994" lon="7.781675282513671"><ele>239.0</ele><time>2026-05-02T12:34:15Z</time></trkpt><trkpt lat="44.88593612637954" lon="7.781787930037406"><ele>239.0</ele><time>2026-05-02T12:34:16Z</time></trkpt><trkpt lat="44.885787324117445" lon="7.781893536061423"><ele>238.66666666666669</ele><time>2026-05-02T12:34:17Z</time></trkpt><trkpt lat="44.88564817866475" lon="7.781992290169509"><ele>238.33333333333331</ele><time>2026-05-02T12:34:18Z</time></trkpt><trkpt lat="44.88550950891017" lon="7.782089317844306"><ele>238.0</ele><time>2026-05-02T12:34:19Z</time></trkpt><trkpt lat="44.885360720254674" lon="7.782192840924698"><ele>238.0</ele><time>2026-05-02T12:34:20Z</time></trkpt><trkpt lat="44.885193343524065" lon="7.782309297048837"><ele>238.0</ele><time>2026-05-02T12:34:21Z</time></trkpt><trkpt lat="44.88501276177648" lon="7.782435607788832"><ele>238.0</ele><time>2026-05-02T12:34:22Z</time></trkpt><trkpt lat="44.88488467471564" lon="7.782526291536195"><ele>238.0</ele><time>2026-05-02T12:34:23Z</time></trkpt><trkpt lat="44.884715254518674" lon="7.782646449586814"><ele>238.0</ele><time>2026-05-02T12:34:24Z</time></trkpt><trkpt lat="44.88453949430014" lon="7.782771588495383"><ele>238.0</ele><time>2026-05-02T12:34:25Z</time></trkpt><trkpt lat="44.88435810584484" lon="7.782900734623135"><ele>238.66666666666666</ele><time>2026-05-02T12:34:26Z</time></trkpt><trkpt lat="44.884172622466025" lon="7.783034910291923"><ele>239.33333333333331</ele><time>2026-05-02T12:34:27Z</time></trkpt><trkpt lat="44.88398713211778" lon="7.783169167418122"><ele>240.0</ele><time>2026-05-02T12:34:28Z</time></trkpt><trkpt lat="44.88380889660247" lon="7.783297578122077"><ele>240.0</ele><time>2026-05-02T12:34:29Z</time></trkpt><trkpt lat="44.883630168278316" lon="7.783425138273527"><ele>240.0</ele><time>2026-05-02T12:34:30Z</time></trkpt><trkpt lat="44.88344722321642" lon="7.783554313093626"><ele>240.0</ele><time>2026-05-02T12:34:31Z</time></trkpt><trkpt lat="44.88326567882886" lon="7.783682417500158"><ele>239.66666666666669</ele><time>2026-05-02T12:34:32Z</time></trkpt><trkpt lat="44.88308059390332" lon="7.78381329000187"><ele>239.33333333333334</ele><time>2026-05-02T12:34:33Z</time></trkpt><trkpt lat="44.882893243084986" lon="7.78394632813192"><ele>239.0</ele><time>2026-05-02T12:34:34Z</time></trkpt><trkpt lat="44.882704236973304" lon="7.784080541694067"><ele>239.33333333333334</ele><time>2026-05-02T12:34:35Z</time></trkpt><trkpt lat="44.88251463116485" lon="7.784215181099964"><ele>239.66666666666669</ele><time>2026-05-02T12:34:36Z</time></trkpt><trkpt lat="44.882326863471214" lon="7.784348515262891"><ele>240.0</ele><time>2026-05-02T12:34:37Z</time></trkpt><trkpt lat="44.882138522353046" lon="7.784481342441853"><ele>241.0</ele><time>2026-05-02T12:34:38Z</time></trkpt><trkpt lat="44.881956789318906" lon="7.784604189262495"><ele>242.0</ele><time>2026-05-02T12:34:39Z</time></trkpt><trkpt lat="44.881766177070666" lon="7.7847352171364355"><ele>243.0</ele><time>2026-05-02T12:34:40Z</time></trkpt><trkpt lat="44.881572650646376" lon="7.784878754566851"><ele>243.0</ele><time>2026-05-02T12:34:41Z</time></trkpt><trkpt lat="44.88138028729196" lon="7.785029809681031"><ele>243.0</ele><time>2026-05-02T12:34:42Z</time></trkpt><trkpt lat="44.881187589689205" lon="7.785179465709096"><ele>243.0</ele><time>2026-05-02T12:34:43Z</time></trkpt><trkpt lat="44.88099076610786" lon="7.785326039276898"><ele>244.0</ele><time>2026-05-02T12:34:44Z</time></trkpt><trkpt lat="44.88078945764187" lon="7.785468797930238"><ele>245.0</ele><time>2026-05-02T12:34:45Z</time></trkpt><trkpt lat="44.880585456394826" lon="7.785611015815762"><ele>245.0</ele><time>2026-05-02T12:34:46Z</time></trkpt><trkpt lat="44.880377907264126" lon="7.78575570699229"><ele>245.0</ele><time>2026-05-02T12:34:47Z</time></trkpt><trkpt lat="44.88017553027741" lon="7.785896792427481"><ele>245.0</ele><time>2026-05-02T12:34:48Z</time></trkpt><trkpt lat="44.879977291427615" lon="7.786034993002585"><ele>245.0</ele><time>2026-05-02T12:34:49Z</time></trkpt><trkpt lat="44.87978211041835" lon="7.7861717762465"><ele>245.0</ele><time>2026-05-02T12:34:50Z</time></trkpt><trkpt lat="44.87958618172834" lon="7.786311077066261"><ele>245.0</ele><time>2026-05-02T12:34:51Z</time></trkpt><trkpt lat="44.879406583515234" lon="7.786438767234602"><ele>245.0</ele><time>2026-05-02T12:34:52Z</time></trkpt><trkpt lat="44.87924294729053" lon="7.786555108849271"><ele>245.0</ele><time>2026-05-02T12:34:53Z</time></trkpt><trkpt lat="44.87909500941119" lon="7.78666133173445"><ele>245.25</ele><time>2026-05-02T12:34:54Z</time></trkpt><trkpt lat="44.878966605655805" lon="7.786753690044635"><ele>245.5</ele><time>2026-05-02T12:34:55Z</time></trkpt><trkpt lat="44.87885173498043" lon="7.78683767233231"><ele>245.75</ele><time>2026-05-02T12:34:56Z</time></trkpt><trkpt lat="44.87874916517379" lon="7.786913328380749"><ele>246.0</ele><time>2026-05-02T12:34:57Z</time></trkpt><trkpt lat="44.87866449899803" lon="7.7869757786307385"><ele>246.0</ele><time>2026-05-02T12:34:58Z</time></trkpt><trkpt lat="44.878583376581474" lon="7.7870356149703275"><ele>246.00000000000003</ele><time>2026-05-02T12:34:59Z</time></trkpt><trkpt lat="44.87849723949189" lon="7.787099150141088"><ele>246.00000000000003</ele><time>2026-05-02T12:35:00Z</time></trkpt><trkpt lat="44.87840316769384" lon="7.787167109283918"><ele>246.0</ele><time>2026-05-02T12:35:01Z</time></trkpt><trkpt lat="44.878297566245806" lon="7.787242519854809"><ele>246.0</ele><time>2026-05-02T12:35:02Z</time></trkpt><trkpt lat="44.878182734307806" lon="7.787324521974404"><ele>246.0</ele><time>2026-05-02T12:35:03Z</time></trkpt><trkpt lat="44.878058266131056" lon="7.787413405435575"><ele>246.0</ele><time>2026-05-02T12:35:04Z</time></trkpt><trkpt lat="44.87793197743502" lon="7.787502432671824"><ele>246.0</ele><time>2026-05-02T12:35:05Z</time></trkpt><trkpt lat="44.87779118884142" lon="7.787601772168756"><ele>246.0</ele><time>2026-05-02T12:35:06Z</time></trkpt><trkpt lat="44.87763974495348" lon="7.7877086299743405"><ele>246.0</ele><time>2026-05-02T12:35:07Z</time></trkpt><trkpt lat="44.87748247733574" lon="7.787819596943721"><ele>246.0</ele><time>2026-05-02T12:35:08Z</time></trkpt><trkpt lat="44.87731627153402" lon="7.7879366613450465"><ele>246.0</ele><time>2026-05-02T12:35:09Z</time></trkpt><trkpt lat="44.87714418716825" lon="7.788057479418895"><ele>246.0</ele><time>2026-05-02T12:35:10Z</time></trkpt><trkpt lat="44.876970109306185" lon="7.788179697099842"><ele>246.0</ele><time>2026-05-02T12:35:10.999Z</time></trkpt><trkpt lat="44.8767960751738" lon="7.7883020090323685"><ele>246.0</ele><time>2026-05-02T12:35:11.999Z</time></trkpt><trkpt lat="44.87662286002486" lon="7.788425139603928"><ele>247.0</ele><time>2026-05-02T12:35:12.999Z</time></trkpt><trkpt lat="44.876461391469846" lon="7.788541020948321"><ele>248.0</ele><time>2026-05-02T12:35:13.999Z</time></trkpt><trkpt lat="44.87630353191934" lon="7.788654853209066"><ele>249.0</ele><time>2026-05-02T12:35:14.999Z</time></trkpt><trkpt lat="44.876145976241425" lon="7.788767710194633"><ele>249.0</ele><time>2026-05-02T12:35:15.999Z</time></trkpt><trkpt lat="44.875991629289885" lon="7.7888774929987346"><ele>249.0</ele><time>2026-05-02T12:35:16.999Z</time></trkpt><trkpt lat="44.875835802735196" lon="7.788988326562895"><ele>249.0</ele><time>2026-05-02T12:35:17.999Z</time></trkpt><trkpt lat="44.875675263643465" lon="7.789102537515735"><ele>249.66666666666669</ele><time>2026-05-02T12:35:18.999Z</time></trkpt><trkpt lat="44.87551341430161" lon="7.789217723117846"><ele>250.33333333333334</ele><time>2026-05-02T12:35:19.999Z</time></trkpt><trkpt lat="44.875355964169266" lon="7.7893300354467705"><ele>251.0</ele><time>2026-05-02T12:35:20.999Z</time></trkpt><trkpt lat="44.8751975291092" lon="7.789435275998081"><ele>250.33333333333334</ele><time>2026-05-02T12:35:21.999Z</time></trkpt><trkpt lat="44.87504691345038" lon="7.789534772986613"><ele>249.66666666666669</ele><time>2026-05-02T12:35:22.999Z</time></trkpt><trkpt lat="44.87491125564282" lon="7.789627275043783"><ele>249.0</ele><time>2026-05-02T12:35:23.999Z</time></trkpt><trkpt lat="44.87477851810789" lon="7.789717786192012"><ele>249.0</ele><time>2026-05-02T12:35:24.999Z</time></trkpt><trkpt lat="44.87464950221709" lon="7.789807822172221"><ele>249.0</ele><time>2026-05-02T12:35:25.999Z</time></trkpt><trkpt lat="44.87451807235173" lon="7.789900925945066"><ele>249.0</ele><time>2026-05-02T12:35:26.999Z</time></trkpt><trkpt lat="44.8743825758288" lon="7.789998929530534"><ele>249.0</ele><time>2026-05-02T12:35:27.999Z</time></trkpt><trkpt lat="44.87425625289742" lon="7.790090297903417"><ele>249.25</ele><time>2026-05-02T12:35:28.999Z</time></trkpt><trkpt lat="44.87413741041151" lon="7.790176255737792"><ele>249.5</ele><time>2026-05-02T12:35:29.999Z</time></trkpt><trkpt lat="44.87402190911186" lon="7.790285204128302"><ele>249.75</ele><time>2026-05-02T12:35:30.999Z</time></trkpt><trkpt lat="44.87389535074098" lon="7.790371317829532"><ele>250.0</ele><time>2026-05-02T12:35:31.999Z</time></trkpt><trkpt lat="44.87377919148496" lon="7.7904311056310895"><ele>249.99999999999997</ele><time>2026-05-02T12:35:32.999Z</time></trkpt><trkpt lat="44.87367991153476" lon="7.790497620301258"><ele>250.0</ele><time>2026-05-02T12:35:33.999Z</time></trkpt><trkpt lat="44.87359909014819" lon="7.7905502710076595"><ele>250.0</ele><time>2026-05-02T12:35:34.999Z</time></trkpt><trkpt lat="44.873539519919376" lon="7.7905890777610765"><ele>250.0</ele><time>2026-05-02T12:35:35.999Z</time></trkpt><trkpt lat="44.873464046969346" lon="7.790650666736016"><ele>249.99999999999997</ele><time>2026-05-02T12:35:37.999Z</time></trkpt><trkpt lat="44.8733950513513" lon="7.790642481669824"><ele>250.0</ele><time>2026-05-02T12:35:39.999Z</time></trkpt><trkpt lat="44.87329720378472" lon="7.790535873424789"><ele>250.2</ele><time>2026-05-02T12:35:42Z</time></trkpt><trkpt lat="44.87323341773043" lon="7.790456223119732"><ele>250.4</ele><time>2026-05-02T12:35:43Z</time></trkpt><trkpt lat="44.87316164871999" lon="7.790368400531836"><ele>250.60000000000002</ele><time>2026-05-02T12:35:44Z</time></trkpt><trkpt lat="44.87308468052304" lon="7.790280528801252"><ele>250.8</ele><time>2026-05-02T12:35:45Z</time></trkpt><trkpt lat="44.872989588119886" lon="7.790178882325261"><ele>251.0</ele><time>2026-05-02T12:35:46Z</time></trkpt><trkpt lat="44.87287930034518" lon="7.790069083189666"><ele>251.0</ele><time>2026-05-02T12:35:47Z</time></trkpt><trkpt lat="44.87275296332918" lon="7.789954428218772"><ele>251.0</ele><time>2026-05-02T12:35:48Z</time></trkpt><trkpt lat="44.87262703611479" lon="7.789831040685004"><ele>251.0</ele><time>2026-05-02T12:35:49Z</time></trkpt><trkpt lat="44.87247305355681" lon="7.789742237315252"><ele>251.33333333333334</ele><time>2026-05-02T12:35:50Z</time></trkpt><trkpt lat="44.87231936554035" lon="7.789631761389439"><ele>251.66666666666669</ele><time>2026-05-02T12:35:51Z</time></trkpt><trkpt lat="44.87216286697254" lon="7.789521228420819"><ele>252.0</ele><time>2026-05-02T12:35:52Z</time></trkpt><trkpt lat="44.87200239840246" lon="7.789382337254796"><ele>252.0</ele><time>2026-05-02T12:35:53Z</time></trkpt><trkpt lat="44.87182423979717" lon="7.789254581687059"><ele>252.0</ele><time>2026-05-02T12:35:54Z</time></trkpt><trkpt lat="44.87163956179194" lon="7.789122148799913"><ele>252.0</ele><time>2026-05-02T12:35:55Z</time></trkpt><trkpt lat="44.87144911637142" lon="7.7889857510877585"><ele>252.0</ele><time>2026-05-02T12:35:56Z</time></trkpt><trkpt lat="44.87124544786155" lon="7.788838803145234"><ele>252.0</ele><time>2026-05-02T12:35:57Z</time></trkpt><trkpt lat="44.871032746824284" lon="7.788685998134841"><ele>251.0</ele><time>2026-05-02T12:35:58Z</time></trkpt><trkpt lat="44.87080677965666" lon="7.788526574071343"><ele>250.0</ele><time>2026-05-02T12:35:59Z</time></trkpt><trkpt lat="44.87057563366074" lon="7.788360064962846"><ele>250.0</ele><time>2026-05-02T12:36:00Z</time></trkpt><trkpt lat="44.87033974709832" lon="7.788186854683706"><ele>250.0</ele><time>2026-05-02T12:36:01Z</time></trkpt><trkpt lat="44.870092095537146" lon="7.787994671926365"><ele>249.5</ele><time>2026-05-02T12:36:02Z</time></trkpt><trkpt lat="44.86984318573846" lon="7.787788126032566"><ele>249.0</ele><time>2026-05-02T12:36:03Z</time></trkpt><trkpt lat="44.86958970856792" lon="7.787574927783099"><ele>249.0</ele><time>2026-05-02T12:36:04Z</time></trkpt><trkpt lat="44.869327164658564" lon="7.787376688030521"><ele>249.0</ele><time>2026-05-02T12:36:05Z</time></trkpt><trkpt lat="44.869069828406296" lon="7.78715203393928"><ele>249.0</ele><time>2026-05-02T12:36:06Z</time></trkpt><trkpt lat="44.86881207250931" lon="7.786926425070615"><ele>249.0</ele><time>2026-05-02T12:36:07Z</time></trkpt><trkpt lat="44.868547532167284" lon="7.786693367829627"><ele>249.0</ele><time>2026-05-02T12:36:08Z</time></trkpt><trkpt lat="44.86828207462384" lon="7.786454989114903"><ele>249.0</ele><time>2026-05-02T12:36:09Z</time></trkpt><trkpt lat="44.8680126009307" lon="7.786214928191498"><ele>248.0</ele><time>2026-05-02T12:36:10Z</time></trkpt><trkpt lat="44.86775564880233" lon="7.7859497365115296"><ele>247.0</ele><time>2026-05-02T12:36:11Z</time></trkpt><trkpt lat="44.86749349867224" lon="7.785708675917796"><ele>247.0</ele><time>2026-05-02T12:36:12Z</time></trkpt><trkpt lat="44.867230602415304" lon="7.785461167858592"><ele>247.0</ele><time>2026-05-02T12:36:13Z</time></trkpt><trkpt lat="44.86695240055107" lon="7.785254251782268"><ele>247.5</ele><time>2026-05-02T12:36:14Z</time></trkpt><trkpt lat="44.866671148066345" lon="7.7850560983928805"><ele>248.0</ele><time>2026-05-02T12:36:15Z</time></trkpt><trkpt lat="44.86639735500499" lon="7.784843050236911"><ele>248.0</ele><time>2026-05-02T12:36:16Z</time></trkpt><trkpt lat="44.86610956070972" lon="7.7846631319944"><ele>248.0</ele><time>2026-05-02T12:36:17Z</time></trkpt><trkpt lat="44.865831203489165" lon="7.78445901787936"><ele>247.0</ele><time>2026-05-02T12:36:18Z</time></trkpt><trkpt lat="44.865547511360866" lon="7.784256879168741"><ele>246.0</ele><time>2026-05-02T12:36:19Z</time></trkpt><trkpt lat="44.865265441804326" lon="7.784054648605024"><ele>248.0</ele><time>2026-05-02T12:36:20Z</time></trkpt><trkpt lat="44.86498630324627" lon="7.783852905217663"><ele>250.0</ele><time>2026-05-02T12:36:21Z</time></trkpt><trkpt lat="44.86471201448513" lon="7.783657511078383"><ele>249.5</ele><time>2026-05-02T12:36:22Z</time></trkpt><trkpt lat="44.86446277004129" lon="7.783476218142324"><ele>249.0</ele><time>2026-05-02T12:36:23Z</time></trkpt><trkpt lat="44.864233256440215" lon="7.78331132826293"><ele>250.5</ele><time>2026-05-02T12:36:24Z</time></trkpt><trkpt lat="44.864008935454784" lon="7.783151189276123"><ele>252.0</ele><time>2026-05-02T12:36:25Z</time></trkpt><trkpt lat="44.86377403828297" lon="7.7829837087073805"><ele>252.0</ele><time>2026-05-02T12:36:26Z</time></trkpt><trkpt lat="44.863532872662724" lon="7.782809729345907"><ele>252.0</ele><time>2026-05-02T12:36:27Z</time></trkpt><trkpt lat="44.86328878165789" lon="7.782631643931423"><ele>252.0</ele><time>2026-05-02T12:36:28Z</time></trkpt><trkpt lat="44.86304560591424" lon="7.782454504544102"><ele>252.0</ele><time>2026-05-02T12:36:29Z</time></trkpt><trkpt lat="44.862803994748845" lon="7.782279572027383"><ele>252.5</ele><time>2026-05-02T12:36:30Z</time></trkpt><trkpt lat="44.86255962603778" lon="7.782103639610707"><ele>253.0</ele><time>2026-05-02T12:36:31Z</time></trkpt><trkpt lat="44.86232562097809" lon="7.7819339869210795"><ele>252.0</ele><time>2026-05-02T12:36:32Z</time></trkpt><trkpt lat="44.862108360443784" lon="7.781775385237063"><ele>251.0</ele><time>2026-05-02T12:36:33Z</time></trkpt><trkpt lat="44.86188959644899" lon="7.78161779341712"><ele>252.0</ele><time>2026-05-02T12:36:34Z</time></trkpt><trkpt lat="44.86166657480702" lon="7.781456101711502"><ele>253.0</ele><time>2026-05-02T12:36:35Z</time></trkpt><trkpt lat="44.861456560506326" lon="7.781300649791194"><ele>253.0</ele><time>2026-05-02T12:36:36Z</time></trkpt><trkpt lat="44.861267015018974" lon="7.781158915302509"><ele>253.0</ele><time>2026-05-02T12:36:37Z</time></trkpt><trkpt lat="44.86108359890818" lon="7.78103595138525"><ele>253.0</ele><time>2026-05-02T12:36:38Z</time></trkpt><trkpt lat="44.86088640566613" lon="7.780921114226195"><ele>252.66666666666666</ele><time>2026-05-02T12:36:39Z</time></trkpt><trkpt lat="44.86067967394432" lon="7.780820535750241"><ele>252.33333333333331</ele><time>2026-05-02T12:36:40Z</time></trkpt><trkpt lat="44.860468226378714" lon="7.780719411753767"><ele>252.0</ele><time>2026-05-02T12:36:41Z</time></trkpt><trkpt lat="44.86024812662644" lon="7.780603304990354"><ele>252.0</ele><time>2026-05-02T12:36:42Z</time></trkpt><trkpt lat="44.86002283265883" lon="7.7804826263201425"><ele>252.0</ele><time>2026-05-02T12:36:43Z</time></trkpt><trkpt lat="44.85979091394843" lon="7.780358400663854"><ele>252.0</ele><time>2026-05-02T12:36:44Z</time></trkpt><trkpt lat="44.85955828053642" lon="7.780237760813702"><ele>252.0</ele><time>2026-05-02T12:36:45Z</time></trkpt><trkpt lat="44.859330698574276" lon="7.780116689297067"><ele>252.0</ele><time>2026-05-02T12:36:46Z</time></trkpt><trkpt lat="44.85910232826533" lon="7.77999839701838"><ele>252.0</ele><time>2026-05-02T12:36:47Z</time></trkpt><trkpt lat="44.8588740863628" lon="7.7798813787534895"><ele>252.0</ele><time>2026-05-02T12:36:48Z</time></trkpt><trkpt lat="44.85865092353301" lon="7.779764449045731"><ele>252.0</ele><time>2026-05-02T12:36:49Z</time></trkpt><trkpt lat="44.85843669457664" lon="7.779649965769745"><ele>252.0</ele><time>2026-05-02T12:36:50Z</time></trkpt><trkpt lat="44.858229434959846" lon="7.7795380728689905"><ele>252.0</ele><time>2026-05-02T12:36:51Z</time></trkpt><trkpt lat="44.85803705505532" lon="7.779437730518765"><ele>252.0</ele><time>2026-05-02T12:36:52Z</time></trkpt><trkpt lat="44.85785644767315" lon="7.779340329569661"><ele>252.33333333333331</ele><time>2026-05-02T12:36:53Z</time></trkpt><trkpt lat="44.85769044755933" lon="7.77923896102095"><ele>252.66666666666666</ele><time>2026-05-02T12:36:54Z</time></trkpt><trkpt lat="44.857526228482826" lon="7.779117765377321"><ele>253.0</ele><time>2026-05-02T12:36:55Z</time></trkpt><trkpt lat="44.857367292458584" lon="7.778954804350339"><ele>253.0</ele><time>2026-05-02T12:36:56Z</time></trkpt><trkpt lat="44.857227495472685" lon="7.778757712097818"><ele>253.0</ele><time>2026-05-02T12:36:57Z</time></trkpt><trkpt lat="44.85709930902151" lon="7.7785416765824245"><ele>253.0</ele><time>2026-05-02T12:36:58Z</time></trkpt><trkpt lat="44.85698702045857" lon="7.778306233352564"><ele>253.0</ele><time>2026-05-02T12:36:59Z</time></trkpt><trkpt lat="44.85687769065685" lon="7.778063259207958"><ele>253.0</ele><time>2026-05-02T12:37:00Z</time></trkpt><trkpt lat="44.856766256562686" lon="7.777827251471596"><ele>253.0</ele><time>2026-05-02T12:37:01Z</time></trkpt><trkpt lat="44.85665301938281" lon="7.777591364055926"><ele>253.0</ele><time>2026-05-02T12:37:02Z</time></trkpt><trkpt lat="44.85653796804204" lon="7.777351861653576"><ele>253.0</ele><time>2026-05-02T12:37:03Z</time></trkpt><trkpt lat="44.856421513689085" lon="7.7771162361212705"><ele>253.0</ele><time>2026-05-02T12:37:04Z</time></trkpt><trkpt lat="44.85630290805592" lon="7.776875419741387"><ele>253.0</ele><time>2026-05-02T12:37:05Z</time></trkpt><trkpt lat="44.856184610906986" lon="7.776630666449589"><ele>253.0</ele><time>2026-05-02T12:37:06Z</time></trkpt><trkpt lat="44.856063239675215" lon="7.776381739541644"><ele>253.0</ele><time>2026-05-02T12:37:07Z</time></trkpt><trkpt lat="44.85593971675983" lon="7.776129692279338"><ele>252.66666666666666</ele><time>2026-05-02T12:37:08Z</time></trkpt><trkpt lat="44.8558127416745" lon="7.775874642526909"><ele>252.33333333333331</ele><time>2026-05-02T12:37:09Z</time></trkpt><trkpt lat="44.85568816322862" lon="7.775619355750666"><ele>252.0</ele><time>2026-05-02T12:37:10Z</time></trkpt><trkpt lat="44.85557015307411" lon="7.775377938243759"><ele>252.33333333333331</ele><time>2026-05-02T12:37:11Z</time></trkpt><trkpt lat="44.85546909801798" lon="7.775166514026894"><ele>252.66666666666666</ele><time>2026-05-02T12:37:12Z</time></trkpt><trkpt lat="44.85538307184595" lon="7.774981081955404"><ele>253.0</ele><time>2026-05-02T12:37:13Z</time></trkpt><trkpt lat="44.85532146475501" lon="7.774821029052705"><ele>253.0</ele><time>2026-05-02T12:37:14Z</time></trkpt><trkpt lat="44.855278712895334" lon="7.77466078809085"><ele>253.0</ele><time>2026-05-02T12:37:15Z</time></trkpt><trkpt lat="44.85525845262925" lon="7.774512409544172"><ele>253.0</ele><time>2026-05-02T12:37:16Z</time></trkpt><trkpt lat="44.85523085358717" lon="7.7743774866034485"><ele>253.0</ele><time>2026-05-02T12:37:17Z</time></trkpt><trkpt lat="44.85515947073809" lon="7.774269626331591"><ele>253.0</ele><time>2026-05-02T12:37:18Z</time></trkpt><trkpt lat="44.855068872406896" lon="7.774158184502944"><ele>254.0</ele><time>2026-05-02T12:37:19Z</time></trkpt><trkpt lat="44.854977701342456" lon="7.774009980627739"><ele>255.0</ele><time>2026-05-02T12:37:20Z</time></trkpt><trkpt lat="44.854897597051405" lon="7.7738196836470665"><ele>256.0</ele><time>2026-05-02T12:37:21Z</time></trkpt><trkpt lat="44.85483207865825" lon="7.773583802864805"><ele>255.33333333333331</ele><time>2026-05-02T12:37:22Z</time></trkpt><trkpt lat="44.85477770060559" lon="7.7733444406439585"><ele>254.66666666666669</ele><time>2026-05-02T12:37:23Z</time></trkpt><trkpt lat="44.8547301777115" lon="7.7730822535839135"><ele>254.0</ele><time>2026-05-02T12:37:24Z</time></trkpt><trkpt lat="44.85469047920638" lon="7.7728171878045424"><ele>253.66666666666669</ele><time>2026-05-02T12:37:25Z</time></trkpt><trkpt lat="44.8546481389752" lon="7.772568797357527"><ele>253.33333333333331</ele><time>2026-05-02T12:37:26Z</time></trkpt><trkpt lat="44.85460249947176" lon="7.772339975415895"><ele>253.0</ele><time>2026-05-02T12:37:27Z</time></trkpt><trkpt lat="44.85455774072404" lon="7.772132675606851"><ele>253.0</ele><time>2026-05-02T12:37:28Z</time></trkpt><trkpt lat="44.85450439431889" lon="7.771934048771465"><ele>253.0</ele><time>2026-05-02T12:37:29Z</time></trkpt><trkpt lat="44.85443460068602" lon="7.771764653094475"><ele>253.0</ele><time>2026-05-02T12:37:30Z</time></trkpt><trkpt lat="44.85437161928631" lon="7.771648675896424"><ele>253.0</ele><time>2026-05-02T12:37:31Z</time></trkpt><trkpt lat="44.85430455643735" lon="7.771519958890506"><ele>252.0</ele><time>2026-05-02T12:37:32Z</time></trkpt><trkpt lat="44.854243362070044" lon="7.771410911904412"><ele>251.0</ele><time>2026-05-02T12:37:33Z</time></trkpt><trkpt lat="44.8541808891781" lon="7.771298867437663"><ele>250.0</ele><time>2026-05-02T12:37:34Z</time></trkpt><trkpt lat="44.85410984419943" lon="7.771186558508228"><ele>249.0</ele><time>2026-05-02T12:37:35Z</time></trkpt><trkpt lat="44.854035880246094" lon="7.771073464185558"><ele>248.0</ele><time>2026-05-02T12:37:36Z</time></trkpt><trkpt lat="44.85397885961581" lon="7.770937319734556"><ele>247.5</ele><time>2026-05-02T12:37:37Z</time></trkpt><trkpt lat="44.85390381714669" lon="7.770814338360617"><ele>247.0</ele><time>2026-05-02T12:37:38Z</time></trkpt><trkpt lat="44.85380946723495" lon="7.770704078917652"><ele>246.5</ele><time>2026-05-02T12:37:39Z</time></trkpt><trkpt lat="44.85372638658306" lon="7.770570174419806"><ele>246.0</ele><time>2026-05-02T12:37:40Z</time></trkpt><trkpt lat="44.85363634322666" lon="7.770416420647865"><ele>246.0</ele><time>2026-05-02T12:37:41Z</time></trkpt><trkpt lat="44.85353946062568" lon="7.770248225512856"><ele>246.0</ele><time>2026-05-02T12:37:42Z</time></trkpt><trkpt lat="44.853456286261526" lon="7.770045701112878"><ele>246.0</ele><time>2026-05-02T12:37:43Z</time></trkpt><trkpt lat="44.85335308726244" lon="7.76981093412887"><ele>246.66666666666669</ele><time>2026-05-02T12:37:44Z</time></trkpt><trkpt lat="44.85323622786607" lon="7.769552822899864"><ele>247.33333333333334</ele><time>2026-05-02T12:37:45Z</time></trkpt><trkpt lat="44.85310459888528" lon="7.769292043392292"><ele>248.0</ele><time>2026-05-02T12:37:46Z</time></trkpt><trkpt lat="44.85299327482197" lon="7.76899310865931"><ele>248.0</ele><time>2026-05-02T12:37:47Z</time></trkpt><trkpt lat="44.85290057149052" lon="7.7687069438871745"><ele>248.0</ele><time>2026-05-02T12:37:48Z</time></trkpt><trkpt lat="44.85282801096136" lon="7.768434413743379"><ele>248.0</ele><time>2026-05-02T12:37:49Z</time></trkpt><trkpt lat="44.85275514668708" lon="7.7681665794774535"><ele>247.33333333333334</ele><time>2026-05-02T12:37:50Z</time></trkpt><trkpt lat="44.852686590008" lon="7.767904983033058"><ele>246.66666666666669</ele><time>2026-05-02T12:37:51Z</time></trkpt><trkpt lat="44.852620332556754" lon="7.767643992957465"><ele>246.0</ele><time>2026-05-02T12:37:52Z</time></trkpt><trkpt lat="44.85255241703069" lon="7.767375255299472"><ele>245.33333333333331</ele><time>2026-05-02T12:37:53Z</time></trkpt><trkpt lat="44.85248603882401" lon="7.767106783064487"><ele>244.66666666666666</ele><time>2026-05-02T12:37:54Z</time></trkpt><trkpt lat="44.852421329340736" lon="7.766837213684057"><ele>244.0</ele><time>2026-05-02T12:37:55Z</time></trkpt><trkpt lat="44.852360299613" lon="7.766567383157904"><ele>243.33333333333331</ele><time>2026-05-02T12:37:56Z</time></trkpt><trkpt lat="44.85230442501574" lon="7.766295345620056"><ele>242.66666666666669</ele><time>2026-05-02T12:37:57Z</time></trkpt><trkpt lat="44.852256174985335" lon="7.7660207370028"><ele>242.0</ele><time>2026-05-02T12:37:58Z</time></trkpt><trkpt lat="44.85222007923343" lon="7.765738450271327"><ele>242.0</ele><time>2026-05-02T12:37:59Z</time></trkpt><trkpt lat="44.85220170361808" lon="7.765456878229019"><ele>242.0</ele><time>2026-05-02T12:38:00Z</time></trkpt><trkpt lat="44.85220255419613" lon="7.765182004179262"><ele>242.0</ele><time>2026-05-02T12:38:01Z</time></trkpt><trkpt lat="44.85221858179143" lon="7.764919120723775"><ele>242.33333333333334</ele><time>2026-05-02T12:38:02Z</time></trkpt><trkpt lat="44.85224809592723" lon="7.7646581853848184"><ele>242.66666666666669</ele><time>2026-05-02T12:38:03Z</time></trkpt><trkpt lat="44.85228622182098" lon="7.764402118196973"><ele>243.0</ele><time>2026-05-02T12:38:04Z</time></trkpt><trkpt lat="44.85232226262795" lon="7.7641460583485555"><ele>243.0</ele><time>2026-05-02T12:38:05Z</time></trkpt><trkpt lat="44.85235141070729" lon="7.763881066898452"><ele>243.0</ele><time>2026-05-02T12:38:06Z</time></trkpt><trkpt lat="44.85236530693691" lon="7.763618335022242"><ele>243.0</ele><time>2026-05-02T12:38:07Z</time></trkpt><trkpt lat="44.85236924206084" lon="7.763358430921099"><ele>243.0</ele><time>2026-05-02T12:38:08Z</time></trkpt><trkpt lat="44.852366610669414" lon="7.763093584762491"><ele>243.0</ele><time>2026-05-02T12:38:09Z</time></trkpt><trkpt lat="44.852357568370344" lon="7.7628345629696724"><ele>243.0</ele><time>2026-05-02T12:38:10Z</time></trkpt><trkpt lat="44.852334500769395" lon="7.7625702535614645"><ele>242.66666666666669</ele><time>2026-05-02T12:38:11Z</time></trkpt><trkpt lat="44.85230582937245" lon="7.762292769743219"><ele>242.33333333333334</ele><time>2026-05-02T12:38:12Z</time></trkpt><trkpt lat="44.852287824802985" lon="7.7619956124166904"><ele>242.0</ele><time>2026-05-02T12:38:13Z</time></trkpt><trkpt lat="44.8522562324216" lon="7.76169067842426"><ele>242.0</ele><time>2026-05-02T12:38:14Z</time></trkpt><trkpt lat="44.85222376360676" lon="7.761377284985837"><ele>242.0</ele><time>2026-05-02T12:38:15Z</time></trkpt><trkpt lat="44.852192234234394" lon="7.761050909174958"><ele>241.5</ele><time>2026-05-02T12:38:16Z</time></trkpt><trkpt lat="44.85215344446454" lon="7.760720513344671"><ele>241.0</ele><time>2026-05-02T12:38:17Z</time></trkpt><trkpt lat="44.85214226167318" lon="7.760377805267409"><ele>241.5</ele><time>2026-05-02T12:38:18Z</time></trkpt><trkpt lat="44.85215306568514" lon="7.760028380359666"><ele>242.0</ele><time>2026-05-02T12:38:19Z</time></trkpt><trkpt lat="44.85218643244765" lon="7.75967316970985"><ele>242.0</ele><time>2026-05-02T12:38:20Z</time></trkpt><trkpt lat="44.85222835685476" lon="7.759310934609984"><ele>242.0</ele><time>2026-05-02T12:38:21Z</time></trkpt><trkpt lat="44.85226115173106" lon="7.758943177535659"><ele>242.0</ele><time>2026-05-02T12:38:22Z</time></trkpt><trkpt lat="44.85228397924507" lon="7.758569836702303"><ele>242.0</ele><time>2026-05-02T12:38:23Z</time></trkpt><trkpt lat="44.85230348273595" lon="7.758192142737091"><ele>242.0</ele><time>2026-05-02T12:38:24Z</time></trkpt><trkpt lat="44.852322308376856" lon="7.757813830228159"><ele>242.0</ele><time>2026-05-02T12:38:25Z</time></trkpt><trkpt lat="44.852341866213195" lon="7.757445002011186"><ele>242.5</ele><time>2026-05-02T12:38:26Z</time></trkpt><trkpt lat="44.8523610788541" lon="7.75707717262485"><ele>243.0</ele><time>2026-05-02T12:38:27Z</time></trkpt><trkpt lat="44.85237284873049" lon="7.756711782231057"><ele>243.0</ele><time>2026-05-02T12:38:28Z</time></trkpt><trkpt lat="44.85236758623148" lon="7.756349330111345"><ele>243.0</ele><time>2026-05-02T12:38:29Z</time></trkpt><trkpt lat="44.852366020254664" lon="7.756005752913634"><ele>243.0</ele><time>2026-05-02T12:38:30Z</time></trkpt><trkpt lat="44.852354196912835" lon="7.755688640581988"><ele>243.0</ele><time>2026-05-02T12:38:31Z</time></trkpt><trkpt lat="44.85230383489743" lon="7.755393530071067"><ele>243.0</ele><time>2026-05-02T12:38:32Z</time></trkpt><trkpt lat="44.852290711546345" lon="7.755099965712292"><ele>242.66666666666669</ele><time>2026-05-02T12:38:33Z</time></trkpt><trkpt lat="44.85227384067659" lon="7.7548023652634255"><ele>242.33333333333334</ele><time>2026-05-02T12:38:34Z</time></trkpt><trkpt lat="44.85225937312874" lon="7.754518812815866"><ele>242.0</ele><time>2026-05-02T12:38:35Z</time></trkpt><trkpt lat="44.85224038429825" lon="7.754235933965521"><ele>242.0</ele><time>2026-05-02T12:38:36Z</time></trkpt><trkpt lat="44.852237240894006" lon="7.75396698987348"><ele>242.0</ele><time>2026-05-02T12:38:37Z</time></trkpt><trkpt lat="44.85222843838086" lon="7.753718310458216"><ele>242.0</ele><time>2026-05-02T12:38:38Z</time></trkpt><trkpt lat="44.85222009762846" lon="7.753473247937376"><ele>242.33333333333334</ele><time>2026-05-02T12:38:39Z</time></trkpt><trkpt lat="44.8522100530822" lon="7.7532261803713185"><ele>242.66666666666669</ele><time>2026-05-02T12:38:40Z</time></trkpt><trkpt lat="44.85220094552009" lon="7.75298003890288"><ele>243.0</ele><time>2026-05-02T12:38:41Z</time></trkpt><trkpt lat="44.85219351720066" lon="7.752728723507144"><ele>243.33333333333331</ele><time>2026-05-02T12:38:42Z</time></trkpt><trkpt lat="44.85218160429424" lon="7.752471964585492"><ele>243.66666666666666</ele><time>2026-05-02T12:38:43Z</time></trkpt><trkpt lat="44.85216522970542" lon="7.752212687003594"><ele>244.0</ele><time>2026-05-02T12:38:44Z</time></trkpt><trkpt lat="44.85214458554473" lon="7.751942973676564"><ele>244.0</ele><time>2026-05-02T12:38:45Z</time></trkpt><trkpt lat="44.85211324722331" lon="7.751671579107341"><ele>244.0</ele><time>2026-05-02T12:38:46Z</time></trkpt><trkpt lat="44.852074257007544" lon="7.751405067926159"><ele>244.0</ele><time>2026-05-02T12:38:47Z</time></trkpt><trkpt lat="44.8520304266992" lon="7.751149525162542"><ele>243.66666666666666</ele><time>2026-05-02T12:38:48Z</time></trkpt><trkpt lat="44.851975826426205" lon="7.750885582731368"><ele>243.33333333333331</ele><time>2026-05-02T12:38:49Z</time></trkpt><trkpt lat="44.851907085068966" lon="7.750611594651657"><ele>243.0</ele><time>2026-05-02T12:38:50Z</time></trkpt><trkpt lat="44.85183212641139" lon="7.750318584985645"><ele>243.33333333333331</ele><time>2026-05-02T12:38:51Z</time></trkpt><trkpt lat="44.85174980586854" lon="7.750043013873622"><ele>243.66666666666666</ele><time>2026-05-02T12:38:52Z</time></trkpt><trkpt lat="44.85166003620985" lon="7.7497920019277196"><ele>244.0</ele><time>2026-05-02T12:38:53Z</time></trkpt><trkpt lat="44.8515663871596" lon="7.749536899573582"><ele>244.0</ele><time>2026-05-02T12:38:54Z</time></trkpt><trkpt lat="44.85146575735488" lon="7.749271637019451"><ele>244.0</ele><time>2026-05-02T12:38:55Z</time></trkpt><trkpt lat="44.851428861700086" lon="7.7488772021870735"><ele>244.0</ele><time>2026-05-02T12:38:56Z</time></trkpt><trkpt lat="44.85134346814214" lon="7.748564744567273"><ele>244.0</ele><time>2026-05-02T12:38:57Z</time></trkpt><trkpt lat="44.851254315820896" lon="7.748237281980538"><ele>244.0</ele><time>2026-05-02T12:38:58Z</time></trkpt><trkpt lat="44.851157221466565" lon="7.7479036422891046"><ele>244.0</ele><time>2026-05-02T12:38:59Z</time></trkpt><trkpt lat="44.85106486109607" lon="7.747577647504103"><ele>244.0</ele><time>2026-05-02T12:39:00Z</time></trkpt><trkpt lat="44.850975928314284" lon="7.747254909097436"><ele>244.0</ele><time>2026-05-02T12:39:01Z</time></trkpt><trkpt lat="44.85088821390523" lon="7.746953350238157"><ele>243.33333333333331</ele><time>2026-05-02T12:39:02Z</time></trkpt><trkpt lat="44.850811474332716" lon="7.746672625524812"><ele>242.66666666666669</ele><time>2026-05-02T12:39:03Z</time></trkpt><trkpt lat="44.850738212360284" lon="7.746406373385776"><ele>242.0</ele><time>2026-05-02T12:39:04Z</time></trkpt><trkpt lat="44.850668799996974" lon="7.746151788780271"><ele>241.33333333333334</ele><time>2026-05-02T12:39:05Z</time></trkpt><trkpt lat="44.850600010696795" lon="7.745912229778104"><ele>240.66666666666669</ele><time>2026-05-02T12:39:06Z</time></trkpt><trkpt lat="44.85053550958373" lon="7.745678341320545"><ele>240.0</ele><time>2026-05-02T12:39:07Z</time></trkpt><trkpt lat="44.85047809605842" lon="7.745453837713789"><ele>240.0</ele><time>2026-05-02T12:39:08Z</time></trkpt><trkpt lat="44.85042239823957" lon="7.745228927738953"><ele>240.0</ele><time>2026-05-02T12:39:09Z</time></trkpt><trkpt lat="44.85036830577966" lon="7.744982964526257"><ele>240.0</ele><time>2026-05-02T12:39:10Z</time></trkpt><trkpt lat="44.85031380349659" lon="7.7447316892748255"><ele>240.66666666666669</ele><time>2026-05-02T12:39:11Z</time></trkpt><trkpt lat="44.85026390361103" lon="7.7444834283089214"><ele>241.33333333333334</ele><time>2026-05-02T12:39:12Z</time></trkpt><trkpt lat="44.85021529331165" lon="7.744236055227723"><ele>242.0</ele><time>2026-05-02T12:39:13Z</time></trkpt><trkpt lat="44.85017152219265" lon="7.743995884557695"><ele>242.0</ele><time>2026-05-02T12:39:14Z</time></trkpt><trkpt lat="44.85013102544288" lon="7.743760647588256"><ele>242.0</ele><time>2026-05-02T12:39:15Z</time></trkpt><trkpt lat="44.85009053548433" lon="7.743518864072782"><ele>242.0</ele><time>2026-05-02T12:39:16Z</time></trkpt><trkpt lat="44.85004477782026" lon="7.743278019044606"><ele>242.0</ele><time>2026-05-02T12:39:17Z</time></trkpt><trkpt lat="44.84999780701383" lon="7.743039104573965"><ele>242.0</ele><time>2026-05-02T12:39:18Z</time></trkpt><trkpt lat="44.84995003314833" lon="7.742800567746717"><ele>242.0</ele><time>2026-05-02T12:39:19Z</time></trkpt><trkpt lat="44.84990813542303" lon="7.742573234873223"><ele>242.33333333333334</ele><time>2026-05-02T12:39:20Z</time></trkpt><trkpt lat="44.849871318060934" lon="7.74235680965858"><ele>242.66666666666669</ele><time>2026-05-02T12:39:21Z</time></trkpt><trkpt lat="44.84984106617619" lon="7.742130934627007"><ele>243.0</ele><time>2026-05-02T12:39:22Z</time></trkpt><trkpt lat="44.849822581164844" lon="7.741900665379557"><ele>242.66666666666669</ele><time>2026-05-02T12:39:23Z</time></trkpt><trkpt lat="44.84980689668703" lon="7.741670801978591"><ele>242.33333333333334</ele><time>2026-05-02T12:39:24Z</time></trkpt><trkpt lat="44.84979085763928" lon="7.741446724753185"><ele>242.0</ele><time>2026-05-02T12:39:25Z</time></trkpt><trkpt lat="44.84977706122678" lon="7.741217784767078"><ele>242.33333333333334</ele><time>2026-05-02T12:39:26Z</time></trkpt><trkpt lat="44.84976902044931" lon="7.7410018367906215"><ele>242.66666666666669</ele><time>2026-05-02T12:39:27Z</time></trkpt><trkpt lat="44.84975351553484" lon="7.74078550910062"><ele>243.0</ele><time>2026-05-02T12:39:28Z</time></trkpt><trkpt lat="44.849732455786025" lon="7.740568479614974"><ele>243.0</ele><time>2026-05-02T12:39:29Z</time></trkpt><trkpt lat="44.84971875281331" lon="7.74034633313058"><ele>243.0</ele><time>2026-05-02T12:39:30Z</time></trkpt><trkpt lat="44.84970272194695" lon="7.74013018903864"><ele>243.0</ele><time>2026-05-02T12:39:31Z</time></trkpt><trkpt lat="44.849682981941086" lon="7.739915406713388"><ele>242.66666666666669</ele><time>2026-05-02T12:39:32Z</time></trkpt><trkpt lat="44.84965979529822" lon="7.739694389582471"><ele>242.33333333333334</ele><time>2026-05-02T12:39:33Z</time></trkpt><trkpt lat="44.84963046565761" lon="7.739485783169902"><ele>242.0</ele><time>2026-05-02T12:39:34Z</time></trkpt><trkpt lat="44.84959290945781" lon="7.7392764696083916"><ele>242.0</ele><time>2026-05-02T12:39:35Z</time></trkpt><trkpt lat="44.84955409238988" lon="7.739078912400375"><ele>242.0</ele><time>2026-05-02T12:39:36Z</time></trkpt><trkpt lat="44.84951904896314" lon="7.738880338949473"><ele>242.0</ele><time>2026-05-02T12:39:37Z</time></trkpt><trkpt lat="44.849484102558414" lon="7.73869230029696"><ele>242.0</ele><time>2026-05-02T12:39:38Z</time></trkpt><trkpt lat="44.849451650910254" lon="7.738517155543058"><ele>241.8</ele><time>2026-05-02T12:39:39Z</time></trkpt><trkpt lat="44.84941921017981" lon="7.738354740435157"><ele>241.6</ele><time>2026-05-02T12:39:40Z</time></trkpt><trkpt lat="44.84939448011173" lon="7.738197182516911"><ele>241.40000000000003</ele><time>2026-05-02T12:39:41Z</time></trkpt><trkpt lat="44.849364861275575" lon="7.7380537772377265"><ele>241.20000000000002</ele><time>2026-05-02T12:39:42Z</time></trkpt><trkpt lat="44.849338124836386" lon="7.737924709538409"><ele>241.0</ele><time>2026-05-02T12:39:43Z</time></trkpt><trkpt lat="44.84931478130121" lon="7.737802578646968"><ele>240.99999999999997</ele><time>2026-05-02T12:39:44Z</time></trkpt><trkpt lat="44.84929561775081" lon="7.737680755628821"><ele>241.0</ele><time>2026-05-02T12:39:45Z</time></trkpt><trkpt lat="44.84928471329824" lon="7.737560862634674"><ele>241.0</ele><time>2026-05-02T12:39:46Z</time></trkpt><trkpt lat="44.84928679525426" lon="7.737441644938545"><ele>241.0</ele><time>2026-05-02T12:39:47Z</time></trkpt><trkpt lat="44.84928981022065" lon="7.7373186170922255"><ele>240.99999999999997</ele><time>2026-05-02T12:39:48Z</time></trkpt><trkpt lat="44.84926429455512" lon="7.737185329080218"><ele>241.0</ele><time>2026-05-02T12:39:49Z</time></trkpt><trkpt lat="44.849207261209294" lon="7.7370636437434595"><ele>241.0</ele><time>2026-05-02T12:39:50Z</time></trkpt><trkpt lat="44.84914389888368" lon="7.736927671821983"><ele>241.0</ele><time>2026-05-02T12:39:51Z</time></trkpt><trkpt lat="44.84912219899379" lon="7.736769808338291"><ele>241.0</ele><time>2026-05-02T12:39:52Z</time></trkpt><trkpt lat="44.84907811595321" lon="7.736614006276456"><ele>241.0</ele><time>2026-05-02T12:39:53Z</time></trkpt><trkpt lat="44.84904814954643" lon="7.736440549980864"><ele>240.75</ele><time>2026-05-02T12:39:54Z</time></trkpt><trkpt lat="44.84902278302238" lon="7.736258043266402"><ele>240.5</ele><time>2026-05-02T12:39:55Z</time></trkpt><trkpt lat="44.84900581011809" lon="7.736066850851564"><ele>240.25</ele><time>2026-05-02T12:39:56Z</time></trkpt><trkpt lat="44.84900296933363" lon="7.73586757720957"><ele>240.0</ele><time>2026-05-02T12:39:57Z</time></trkpt><trkpt lat="44.84901401764339" lon="7.735660843056065"><ele>240.66666666666669</ele><time>2026-05-02T12:39:58Z</time></trkpt><trkpt lat="44.849028261663946" lon="7.735447938503801"><ele>241.33333333333334</ele><time>2026-05-02T12:39:59Z</time></trkpt><trkpt lat="44.84904101533712" lon="7.735226034252782"><ele>242.0</ele><time>2026-05-02T12:40:00Z</time></trkpt><trkpt lat="44.84905155784572" lon="7.734999345467289"><ele>242.33333333333334</ele><time>2026-05-02T12:40:01Z</time></trkpt><trkpt lat="44.84905969498272" lon="7.734773340857921"><ele>242.66666666666669</ele><time>2026-05-02T12:40:02Z</time></trkpt><trkpt lat="44.84906311608333" lon="7.734546865282066"><ele>243.0</ele><time>2026-05-02T12:40:03Z</time></trkpt><trkpt lat="44.84905835004203" lon="7.734333573158068"><ele>243.0</ele><time>2026-05-02T12:40:04Z</time></trkpt><trkpt lat="44.84905535867603" lon="7.734136532097336"><ele>243.0</ele><time>2026-05-02T12:40:05Z</time></trkpt><trkpt lat="44.84905354634625" lon="7.733948488597726"><ele>243.0</ele><time>2026-05-02T12:40:06Z</time></trkpt><trkpt lat="44.849046399198905" lon="7.733757644031912"><ele>243.0</ele><time>2026-05-02T12:40:07Z</time></trkpt><trkpt lat="44.849032015723544" lon="7.733567871334456"><ele>242.75</ele><time>2026-05-02T12:40:08Z</time></trkpt><trkpt lat="44.849012144460595" lon="7.733379201681596"><ele>242.5</ele><time>2026-05-02T12:40:09Z</time></trkpt><trkpt lat="44.84899382724238" lon="7.733187269754117"><ele>242.25</ele><time>2026-05-02T12:40:10Z</time></trkpt><trkpt lat="44.84898028651894" lon="7.7329958077633245"><ele>242.0</ele><time>2026-05-02T12:40:11Z</time></trkpt><trkpt lat="44.848964929042424" lon="7.7328028610252195"><ele>241.5</ele><time>2026-05-02T12:40:12Z</time></trkpt><trkpt lat="44.8489530387197" lon="7.732623310463995"><ele>241.0</ele><time>2026-05-02T12:40:13Z</time></trkpt><trkpt lat="44.848952949507286" lon="7.732455513864228"><ele>240.5</ele><time>2026-05-02T12:40:14Z</time></trkpt><trkpt lat="44.84896010840225" lon="7.732285327059204"><ele>240.0</ele><time>2026-05-02T12:40:15Z</time></trkpt><trkpt lat="44.84897021513582" lon="7.732117123869004"><ele>240.0</ele><time>2026-05-02T12:40:16Z</time></trkpt><trkpt lat="44.848984919347224" lon="7.731946002896266"><ele>240.0</ele><time>2026-05-02T12:40:17Z</time></trkpt><trkpt lat="44.84900365777208" lon="7.7317759736230025"><ele>240.0</ele><time>2026-05-02T12:40:18Z</time></trkpt><trkpt lat="44.849027603805396" lon="7.7316059656247145"><ele>240.0</ele><time>2026-05-02T12:40:19Z</time></trkpt><trkpt lat="44.84905746956422" lon="7.731438601704408"><ele>240.2</ele><time>2026-05-02T12:40:20Z</time></trkpt><trkpt lat="44.84909476053329" lon="7.731288542190217"><ele>240.4</ele><time>2026-05-02T12:40:21Z</time></trkpt><trkpt lat="44.849136136811694" lon="7.73115874079913"><ele>240.60000000000002</ele><time>2026-05-02T12:40:22Z</time></trkpt><trkpt lat="44.84918403011068" lon="7.731046006060073"><ele>240.8</ele><time>2026-05-02T12:40:23Z</time></trkpt><trkpt lat="44.84923174216006" lon="7.730947490671001"><ele>241.0</ele><time>2026-05-02T12:40:24Z</time></trkpt><trkpt lat="44.849267540647084" lon="7.730860220935449"><ele>241.20000000000002</ele><time>2026-05-02T12:40:25Z</time></trkpt><trkpt lat="44.84927279459219" lon="7.730756720301394"><ele>241.40000000000003</ele><time>2026-05-02T12:40:26Z</time></trkpt><trkpt lat="44.84922921748836" lon="7.7306632442023115"><ele>241.6</ele><time>2026-05-02T12:40:27Z</time></trkpt><trkpt lat="44.84914299307734" lon="7.730598995147081"><ele>241.8</ele><time>2026-05-02T12:40:28Z</time></trkpt><trkpt lat="44.84903858436227" lon="7.730575646301663"><ele>242.0</ele><time>2026-05-02T12:40:29Z</time></trkpt><trkpt lat="44.84892871040376" lon="7.730541640446116"><ele>242.0</ele><time>2026-05-02T12:40:30Z</time></trkpt><trkpt lat="44.848808610723864" lon="7.730482958494322"><ele>242.0</ele><time>2026-05-02T12:40:31Z</time></trkpt><trkpt lat="44.84868844911552" lon="7.730414808005049"><ele>242.0</ele><time>2026-05-02T12:40:32Z</time></trkpt><trkpt lat="44.848561548471274" lon="7.7303463530674925"><ele>242.0</ele><time>2026-05-02T12:40:33Z</time></trkpt><trkpt lat="44.84843591112174" lon="7.730278861611244"><ele>241.5</ele><time>2026-05-02T12:40:34Z</time></trkpt><trkpt lat="44.84830909685742" lon="7.7302096843389965"><ele>241.0</ele><time>2026-05-02T12:40:35Z</time></trkpt><trkpt lat="44.84817680838496" lon="7.730136025766661"><ele>240.5</ele><time>2026-05-02T12:40:36Z</time></trkpt><trkpt lat="44.84804602524134" lon="7.730063253798245"><ele>240.0</ele><time>2026-05-02T12:40:37Z</time></trkpt><trkpt lat="44.847916896319504" lon="7.729992256301557"><ele>240.0</ele><time>2026-05-02T12:40:38Z</time></trkpt><trkpt lat="44.847792738599566" lon="7.729924171772464"><ele>240.0</ele><time>2026-05-02T12:40:39Z</time></trkpt><trkpt lat="44.8476658492514" lon="7.729854667918019"><ele>240.0</ele><time>2026-05-02T12:40:40Z</time></trkpt><trkpt lat="44.84753775085093" lon="7.729779375937079"><ele>240.0</ele><time>2026-05-02T12:40:41Z</time></trkpt><trkpt lat="44.847407650359635" lon="7.7297065541912575"><ele>241.0</ele><time>2026-05-02T12:40:42Z</time></trkpt><trkpt lat="44.84726915703192" lon="7.729630628460631"><ele>242.0</ele><time>2026-05-02T12:40:43Z</time></trkpt><trkpt lat="44.847120965904246" lon="7.729554568328104"><ele>243.0</ele><time>2026-05-02T12:40:44Z</time></trkpt><trkpt lat="44.84698546491165" lon="7.729476664211105"><ele>243.0</ele><time>2026-05-02T12:40:45Z</time></trkpt><trkpt lat="44.84686428855082" lon="7.729398784874611"><ele>243.0</ele><time>2026-05-02T12:40:46Z</time></trkpt><trkpt lat="44.84674575824014" lon="7.729342827545655"><ele>243.0</ele><time>2026-05-02T12:40:47Z</time></trkpt><trkpt lat="44.84663889632404" lon="7.729284010027089"><ele>243.0</ele><time>2026-05-02T12:40:48Z</time></trkpt><trkpt lat="44.84654204486774" lon="7.729206323470004"><ele>242.75</ele><time>2026-05-02T12:40:49Z</time></trkpt><trkpt lat="44.84643752823451" lon="7.729170739423056"><ele>242.5</ele><time>2026-05-02T12:40:50Z</time></trkpt><trkpt lat="44.846333155457984" lon="7.729113623886875"><ele>242.25</ele><time>2026-05-02T12:40:51Z</time></trkpt><trkpt lat="44.846222622989764" lon="7.729050536700691"><ele>242.0</ele><time>2026-05-02T12:40:52Z</time></trkpt><trkpt lat="44.846104092258244" lon="7.728983497624619"><ele>242.0</ele><time>2026-05-02T12:40:53Z</time></trkpt><trkpt lat="44.84597514055744" lon="7.72889185089294"><ele>242.0</ele><time>2026-05-02T12:40:54Z</time></trkpt><trkpt lat="44.84581955615982" lon="7.728803753853427"><ele>242.0</ele><time>2026-05-02T12:40:55Z</time></trkpt><trkpt lat="44.8456514125379" lon="7.728707645878488"><ele>242.0</ele><time>2026-05-02T12:40:56Z</time></trkpt><trkpt lat="44.84549505307265" lon="7.728619510702166"><ele>242.0</ele><time>2026-05-02T12:40:57Z</time></trkpt><trkpt lat="44.84535626729346" lon="7.728543768725558"><ele>242.0</ele><time>2026-05-02T12:40:58Z</time></trkpt><trkpt lat="44.84523276870842" lon="7.7284777441721175"><ele>242.0</ele><time>2026-05-02T12:40:59Z</time></trkpt><trkpt lat="44.845115869834515" lon="7.7284398067722515"><ele>242.0</ele><time>2026-05-02T12:41:00Z</time></trkpt><trkpt lat="44.84501465766718" lon="7.7283600186836745"><ele>242.0</ele><time>2026-05-02T12:41:01Z</time></trkpt><trkpt lat="44.84489043287997" lon="7.728334302997279"><ele>242.0</ele><time>2026-05-02T12:41:02Z</time></trkpt><trkpt lat="44.844770748160094" lon="7.72825541390692"><ele>242.0</ele><time>2026-05-02T12:41:03Z</time></trkpt><trkpt lat="44.84465231799634" lon="7.7281709452954"><ele>242.0</ele><time>2026-05-02T12:41:04Z</time></trkpt><trkpt lat="44.84452585233013" lon="7.728098342737109"><ele>242.0</ele><time>2026-05-02T12:41:05Z</time></trkpt><trkpt lat="44.844392148341534" lon="7.728028444525543"><ele>242.0</ele><time>2026-05-02T12:41:06Z</time></trkpt><trkpt lat="44.8442667942898" lon="7.727960178589024"><ele>242.0</ele><time>2026-05-02T12:41:07Z</time></trkpt><trkpt lat="44.84415610812528" lon="7.727897399840183"><ele>241.75</ele><time>2026-05-02T12:41:08Z</time></trkpt><trkpt lat="44.844054329059375" lon="7.727838828945341"><ele>241.5</ele><time>2026-05-02T12:41:09Z</time></trkpt><trkpt lat="44.843948929660826" lon="7.727779329353036"><ele>241.25</ele><time>2026-05-02T12:41:10Z</time></trkpt><trkpt lat="44.84383547243047" lon="7.7277128848833225"><ele>241.0</ele><time>2026-05-02T12:41:11Z</time></trkpt><trkpt lat="44.84371239767672" lon="7.727645725266686"><ele>241.0</ele><time>2026-05-02T12:41:12Z</time></trkpt><trkpt lat="44.8435941512374" lon="7.727558796888627"><ele>241.0</ele><time>2026-05-02T12:41:13Z</time></trkpt><trkpt lat="44.843472151454634" lon="7.727498127020499"><ele>241.0</ele><time>2026-05-02T12:41:14Z</time></trkpt><trkpt lat="44.84335434292587" lon="7.7274611439798795"><ele>241.0</ele><time>2026-05-02T12:41:15Z</time></trkpt><trkpt lat="44.8432459048961" lon="7.7274149237652905"><ele>241.16666666666666</ele><time>2026-05-02T12:41:16Z</time></trkpt><trkpt lat="44.84315301076986" lon="7.727380285777711"><ele>241.33333333333331</ele><time>2026-05-02T12:41:17Z</time></trkpt><trkpt lat="44.843076952711385" lon="7.7273492428113295"><ele>241.5</ele><time>2026-05-02T12:41:18Z</time></trkpt><trkpt lat="44.843012843097114" lon="7.727314249752901"><ele>241.66666666666669</ele><time>2026-05-02T12:41:19Z</time></trkpt><trkpt lat="44.84295758518069" lon="7.727256150020572"><ele>241.83333333333334</ele><time>2026-05-02T12:41:20Z</time></trkpt><trkpt lat="44.84291610837086" lon="7.72717139269611"><ele>242.0</ele><time>2026-05-02T12:41:21Z</time></trkpt><trkpt lat="44.842869297728164" lon="7.727092249285267"><ele>242.0</ele><time>2026-05-02T12:41:22Z</time></trkpt><trkpt lat="44.84280188761861" lon="7.7270632728829725"><ele>242.0</ele><time>2026-05-02T12:41:23Z</time></trkpt><trkpt lat="44.84271515919929" lon="7.727094349464001"><ele>242.0</ele><time>2026-05-02T12:41:24Z</time></trkpt><trkpt lat="44.84262537467802" lon="7.727182535437404"><ele>242.0</ele><time>2026-05-02T12:41:25Z</time></trkpt><trkpt lat="44.842532421569906" lon="7.727303944395197"><ele>242.0</ele><time>2026-05-02T12:41:26Z</time></trkpt><trkpt lat="44.8424363410256" lon="7.72741621497485"><ele>242.0</ele><time>2026-05-02T12:41:27Z</time></trkpt><trkpt lat="44.84233141347845" lon="7.727513652659087"><ele>242.0</ele><time>2026-05-02T12:41:28Z</time></trkpt><trkpt lat="44.84223281502244" lon="7.727605361899555"><ele>242.0</ele><time>2026-05-02T12:41:29Z</time></trkpt><trkpt lat="44.84213960935615" lon="7.727697969674421"><ele>242.0</ele><time>2026-05-02T12:41:30Z</time></trkpt><trkpt lat="44.842045185057025" lon="7.727800061394021"><ele>242.25</ele><time>2026-05-02T12:41:31Z</time></trkpt><trkpt lat="44.841944523873224" lon="7.727912975308722"><ele>242.5</ele><time>2026-05-02T12:41:32Z</time></trkpt><trkpt lat="44.841823637894635" lon="7.728020045309588"><ele>242.75</ele><time>2026-05-02T12:41:33Z</time></trkpt><trkpt lat="44.841693378831174" lon="7.728163350532086"><ele>243.0</ele><time>2026-05-02T12:41:34Z</time></trkpt><trkpt lat="44.841550751634664" lon="7.728321246725627"><ele>243.0</ele><time>2026-05-02T12:41:35Z</time></trkpt><trkpt lat="44.841405679281706" lon="7.728481849920448"><ele>243.0</ele><time>2026-05-02T12:41:36Z</time></trkpt><trkpt lat="44.841265330028044" lon="7.728639243037668"><ele>243.0</ele><time>2026-05-02T12:41:37Z</time></trkpt><trkpt lat="44.84113195185854" lon="7.728812389797155"><ele>243.0</ele><time>2026-05-02T12:41:38Z</time></trkpt><trkpt lat="44.84098855097084" lon="7.728974257196656"><ele>243.0</ele><time>2026-05-02T12:41:39Z</time></trkpt><trkpt lat="44.840838601738504" lon="7.7291406311197255"><ele>243.0</ele><time>2026-05-02T12:41:40Z</time></trkpt><trkpt lat="44.84068306919771" lon="7.729310594216085"><ele>243.0</ele><time>2026-05-02T12:41:41Z</time></trkpt><trkpt lat="44.840518320769554" lon="7.729463927705529"><ele>243.0</ele><time>2026-05-02T12:41:42Z</time></trkpt><trkpt lat="44.840375925573795" lon="7.729652551436358"><ele>243.0</ele><time>2026-05-02T12:41:43Z</time></trkpt><trkpt lat="44.84021686893024" lon="7.729819226605465"><ele>243.0</ele><time>2026-05-02T12:41:44Z</time></trkpt><trkpt lat="44.84006774016372" lon="7.729982499572831"><ele>243.0</ele><time>2026-05-02T12:41:45Z</time></trkpt><trkpt lat="44.839929600848635" lon="7.730138433331112"><ele>243.0</ele><time>2026-05-02T12:41:46Z</time></trkpt><trkpt lat="44.83978425617446" lon="7.730295922587888"><ele>243.0</ele><time>2026-05-02T12:41:47Z</time></trkpt><trkpt lat="44.83963646801764" lon="7.73046033565264"><ele>243.0</ele><time>2026-05-02T12:41:48Z</time></trkpt><trkpt lat="44.83948842644206" lon="7.73062345331232"><ele>243.0</ele><time>2026-05-02T12:41:49Z</time></trkpt><trkpt lat="44.839339235538745" lon="7.730785565645688"><ele>243.0</ele><time>2026-05-02T12:41:50Z</time></trkpt><trkpt lat="44.83919230821596" lon="7.730944945387399"><ele>243.0</ele><time>2026-05-02T12:41:51Z</time></trkpt><trkpt lat="44.83904197247883" lon="7.7311086028549925"><ele>243.0</ele><time>2026-05-02T12:41:52Z</time></trkpt><trkpt lat="44.83888971011979" lon="7.731279931513234"><ele>243.0</ele><time>2026-05-02T12:41:53Z</time></trkpt><trkpt lat="44.83873534074738" lon="7.731452947361948"><ele>243.0</ele><time>2026-05-02T12:41:54Z</time></trkpt><trkpt lat="44.838580714713466" lon="7.731623986788178"><ele>243.0</ele><time>2026-05-02T12:41:55Z</time></trkpt><trkpt lat="44.838425962791575" lon="7.731796127749786"><ele>243.0</ele><time>2026-05-02T12:41:56Z</time></trkpt><trkpt lat="44.83826705043769" lon="7.731973566072815"><ele>243.0</ele><time>2026-05-02T12:41:57Z</time></trkpt><trkpt lat="44.83810629053188" lon="7.732152761097434"><ele>243.0</ele><time>2026-05-02T12:41:58Z</time></trkpt><trkpt lat="44.837938131888194" lon="7.732336945093729"><ele>243.0</ele><time>2026-05-02T12:41:59Z</time></trkpt><trkpt lat="44.837766601498146" lon="7.7325326618170935"><ele>243.0</ele><time>2026-05-02T12:42:00Z</time></trkpt><trkpt lat="44.83759026023912" lon="7.732727402010827"><ele>243.0</ele><time>2026-05-02T12:42:01Z</time></trkpt><trkpt lat="44.837411400363365" lon="7.7329215987574305"><ele>241.5</ele><time>2026-05-02T12:42:02Z</time></trkpt><trkpt lat="44.83723257090497" lon="7.733115654979938"><ele>240.0</ele><time>2026-05-02T12:42:03Z</time></trkpt><trkpt lat="44.83704235562901" lon="7.733293515546448"><ele>240.0</ele><time>2026-05-02T12:42:04Z</time></trkpt><trkpt lat="44.83686061815083" lon="7.733493531313717"><ele>240.0</ele><time>2026-05-02T12:42:05Z</time></trkpt><trkpt lat="44.83668931613273" lon="7.73371008051681"><ele>240.5</ele><time>2026-05-02T12:42:06Z</time></trkpt><trkpt lat="44.83650778909464" lon="7.733909660473377"><ele>241.0</ele><time>2026-05-02T12:42:07Z</time></trkpt><trkpt lat="44.83632592755238" lon="7.7341112865464"><ele>241.0</ele><time>2026-05-02T12:42:08Z</time></trkpt><trkpt lat="44.83614305480627" lon="7.734311921024259"><ele>241.0</ele><time>2026-05-02T12:42:09Z</time></trkpt><trkpt lat="44.835959066819505" lon="7.734514888664251"><ele>242.5</ele><time>2026-05-02T12:42:10Z</time></trkpt><trkpt lat="44.83577383410432" lon="7.734718709973768"><ele>244.0</ele><time>2026-05-02T12:42:11Z</time></trkpt><trkpt lat="44.835579577214084" lon="7.7349046532896955"><ele>244.0</ele><time>2026-05-02T12:42:12Z</time></trkpt><trkpt lat="44.835407509154386" lon="7.735094988352929"><ele>244.0</ele><time>2026-05-02T12:42:13Z</time></trkpt><trkpt lat="44.835255709368894" lon="7.735289240144483"><ele>244.0</ele><time>2026-05-02T12:42:14Z</time></trkpt><trkpt lat="44.83510284730425" lon="7.735455657552001"><ele>244.0</ele><time>2026-05-02T12:42:15Z</time></trkpt><trkpt lat="44.83495929883082" lon="7.735612475166652"><ele>244.0</ele><time>2026-05-02T12:42:16Z</time></trkpt><trkpt lat="44.8348228904652" lon="7.735764454180737"><ele>244.0</ele><time>2026-05-02T12:42:17Z</time></trkpt><trkpt lat="44.83469419635091" lon="7.735907169886106"><ele>244.0</ele><time>2026-05-02T12:42:18Z</time></trkpt><trkpt lat="44.834571827317426" lon="7.736042725871352"><ele>244.0</ele><time>2026-05-02T12:42:19Z</time></trkpt><trkpt lat="44.834458125861964" lon="7.73616882975422"><ele>244.0</ele><time>2026-05-02T12:42:20Z</time></trkpt><trkpt lat="44.83435186351779" lon="7.736282206662474"><ele>244.0</ele><time>2026-05-02T12:42:21Z</time></trkpt><trkpt lat="44.83425477231157" lon="7.736370557625274"><ele>243.79999999999998</ele><time>2026-05-02T12:42:22Z</time></trkpt><trkpt lat="44.83415585705867" lon="7.736431491462527"><ele>243.59999999999997</ele><time>2026-05-02T12:42:23Z</time></trkpt><trkpt lat="44.834059645747885" lon="7.736470765037595"><ele>243.4</ele><time>2026-05-02T12:42:24Z</time></trkpt><trkpt lat="44.83397064734653" lon="7.736568797917651"><ele>243.2</ele><time>2026-05-02T12:42:25Z</time></trkpt><trkpt lat="44.8338945717414" lon="7.736700772108055"><ele>243.0</ele><time>2026-05-02T12:42:26Z</time></trkpt><trkpt lat="44.83381076741768" lon="7.736851873161137"><ele>243.0</ele><time>2026-05-02T12:42:27Z</time></trkpt><trkpt lat="44.83370278852287" lon="7.736997332452107"><ele>243.0</ele><time>2026-05-02T12:42:28Z</time></trkpt><trkpt lat="44.83356750131227" lon="7.737144719543237"><ele>243.0</ele><time>2026-05-02T12:42:29Z</time></trkpt><trkpt lat="44.833415566121815" lon="7.737303760792447"><ele>243.0</ele><time>2026-05-02T12:42:30Z</time></trkpt><trkpt lat="44.83326018035093" lon="7.737463132240952"><ele>243.0</ele><time>2026-05-02T12:42:31Z</time></trkpt><trkpt lat="44.83310167068116" lon="7.737646001737563"><ele>243.0</ele><time>2026-05-02T12:42:32Z</time></trkpt><trkpt lat="44.83293896568089" lon="7.737834873565396"><ele>243.0</ele><time>2026-05-02T12:42:33Z</time></trkpt><trkpt lat="44.83276948952118" lon="7.73802336986405"><ele>243.0</ele><time>2026-05-02T12:42:34Z</time></trkpt><trkpt lat="44.8325977091297" lon="7.738216570501719"><ele>243.0</ele><time>2026-05-02T12:42:35Z</time></trkpt><trkpt lat="44.832424956846886" lon="7.738424572115382"><ele>244.5</ele><time>2026-05-02T12:42:36Z</time></trkpt><trkpt lat="44.83224374037829" lon="7.738637619685999"><ele>246.0</ele><time>2026-05-02T12:42:37Z</time></trkpt><trkpt lat="44.83206693492698" lon="7.738830661829641"><ele>246.0</ele><time>2026-05-02T12:42:38Z</time></trkpt><trkpt lat="44.83190200176099" lon="7.739002802246595"><ele>246.0</ele><time>2026-05-02T12:42:39Z</time></trkpt><trkpt lat="44.83174932281102" lon="7.739159722523944"><ele>246.0</ele><time>2026-05-02T12:42:40Z</time></trkpt><trkpt lat="44.83161892930315" lon="7.73929573525549"><ele>246.0</ele><time>2026-05-02T12:42:41Z</time></trkpt><trkpt lat="44.83150147791153" lon="7.73941107829844"><ele>246.0</ele><time>2026-05-02T12:42:42Z</time></trkpt><trkpt lat="44.83139226082897" lon="7.739500196411359"><ele>246.0</ele><time>2026-05-02T12:42:43Z</time></trkpt><trkpt lat="44.831286941067" lon="7.739551717801731"><ele>246.0</ele><time>2026-05-02T12:42:44Z</time></trkpt><trkpt lat="44.83120247508538" lon="7.739614937583065"><ele>246.0</ele><time>2026-05-02T12:42:45Z</time></trkpt><trkpt lat="44.831126326686274" lon="7.739700477901486"><ele>246.00000000000003</ele><time>2026-05-02T12:42:46Z</time></trkpt><trkpt lat="44.83107871854273" lon="7.739816315771591"><ele>246.00000000000003</ele><time>2026-05-02T12:42:47Z</time></trkpt><trkpt lat="44.83102764113239" lon="7.739937259642569"><ele>246.0</ele><time>2026-05-02T12:42:48Z</time></trkpt><trkpt lat="44.83094776827999" lon="7.740064183009394"><ele>246.0</ele><time>2026-05-02T12:42:49Z</time></trkpt><trkpt lat="44.830841225105054" lon="7.740198740645776"><ele>246.0</ele><time>2026-05-02T12:42:50Z</time></trkpt><trkpt lat="44.8307115343274" lon="7.7403401867768356"><ele>246.0</ele><time>2026-05-02T12:42:51Z</time></trkpt><trkpt lat="44.830569792079565" lon="7.7404892536029895"><ele>246.0</ele><time>2026-05-02T12:42:52Z</time></trkpt><trkpt lat="44.830410430454734" lon="7.740645110824857"><ele>246.0</ele><time>2026-05-02T12:42:53Z</time></trkpt><trkpt lat="44.83023666808189" lon="7.7408212192843"><ele>246.0</ele><time>2026-05-02T12:42:54Z</time></trkpt><trkpt lat="44.830060497950306" lon="7.74101417090647"><ele>246.0</ele><time>2026-05-02T12:42:55Z</time></trkpt><trkpt lat="44.82987386754456" lon="7.741223925764127"><ele>245.5</ele><time>2026-05-02T12:42:56Z</time></trkpt><trkpt lat="44.82967754039819" lon="7.741439369983931"><ele>245.0</ele><time>2026-05-02T12:42:57Z</time></trkpt><trkpt lat="44.82946961621669" lon="7.741661156164812"><ele>245.0</ele><time>2026-05-02T12:42:58Z</time></trkpt><trkpt lat="44.82925395375744" lon="7.741895791603073"><ele>245.0</ele><time>2026-05-02T12:42:59Z</time></trkpt><trkpt lat="44.82903162524779" lon="7.74214026582511"><ele>245.0</ele><time>2026-05-02T12:43:00Z</time></trkpt><trkpt lat="44.82880302649591" lon="7.742392597317359"><ele>245.0</ele><time>2026-05-02T12:43:01Z</time></trkpt><trkpt lat="44.82857094095901" lon="7.742653308983011"><ele>245.5</ele><time>2026-05-02T12:43:02Z</time></trkpt><trkpt lat="44.82833679665052" lon="7.742917438429124"><ele>246.0</ele><time>2026-05-02T12:43:03Z</time></trkpt><trkpt lat="44.82809931595787" lon="7.743184874372284"><ele>246.0</ele><time>2026-05-02T12:43:04Z</time></trkpt><trkpt lat="44.827858242188015" lon="7.743450478062277"><ele>246.0</ele><time>2026-05-02T12:43:05Z</time></trkpt><trkpt lat="44.82761069529322" lon="7.743721699012777"><ele>246.5</ele><time>2026-05-02T12:43:06Z</time></trkpt><trkpt lat="44.827360564399655" lon="7.743996933037684"><ele>247.0</ele><time>2026-05-02T12:43:07Z</time></trkpt><trkpt lat="44.82711600207778" lon="7.744267539716076"><ele>246.5</ele><time>2026-05-02T12:43:08Z</time></trkpt><trkpt lat="44.82687250449657" lon="7.744536020243531"><ele>246.0</ele><time>2026-05-02T12:43:09Z</time></trkpt><trkpt lat="44.82663175389275" lon="7.744801078947514"><ele>245.5</ele><time>2026-05-02T12:43:10Z</time></trkpt><trkpt lat="44.82639109722243" lon="7.745065980498897"><ele>245.0</ele><time>2026-05-02T12:43:11Z</time></trkpt><trkpt lat="44.826150393120706" lon="7.745332053685186"><ele>244.5</ele><time>2026-05-02T12:43:12Z</time></trkpt><trkpt lat="44.82591528119014" lon="7.74558998322281"><ele>244.0</ele><time>2026-05-02T12:43:13Z</time></trkpt><trkpt lat="44.825687560018224" lon="7.745839210131629"><ele>244.5</ele><time>2026-05-02T12:43:14Z</time></trkpt><trkpt lat="44.825466377595994" lon="7.746084380758082"><ele>245.0</ele><time>2026-05-02T12:43:15Z</time></trkpt><trkpt lat="44.82525570447887" lon="7.746319989365583"><ele>245.5</ele><time>2026-05-02T12:43:16Z</time></trkpt><trkpt lat="44.82505967979164" lon="7.746536640635506"><ele>246.0</ele><time>2026-05-02T12:43:17Z</time></trkpt><trkpt lat="44.82487638806965" lon="7.746735304924276"><ele>245.66666666666669</ele><time>2026-05-02T12:43:18Z</time></trkpt><trkpt lat="44.824704156159314" lon="7.7469202137305855"><ele>245.33333333333334</ele><time>2026-05-02T12:43:19Z</time></trkpt><trkpt lat="44.824548385428216" lon="7.747086413753783"><ele>245.0</ele><time>2026-05-02T12:43:20Z</time></trkpt><trkpt lat="44.824400707238304" lon="7.747246199598855"><ele>245.0</ele><time>2026-05-02T12:43:21Z</time></trkpt><trkpt lat="44.82425970702865" lon="7.747400661083534"><ele>245.0</ele><time>2026-05-02T12:43:22Z</time></trkpt><trkpt lat="44.82412132595178" lon="7.7475518309883284"><ele>245.0</ele><time>2026-05-02T12:43:23Z</time></trkpt><trkpt lat="44.82398162674114" lon="7.747710789806595"><ele>245.33333333333334</ele><time>2026-05-02T12:43:24Z</time></trkpt><trkpt lat="44.82384263451709" lon="7.747872523161906"><ele>245.66666666666669</ele><time>2026-05-02T12:43:25Z</time></trkpt><trkpt lat="44.82370348346536" lon="7.7480397894044595"><ele>246.0</ele><time>2026-05-02T12:43:26Z</time></trkpt><trkpt lat="44.823556794841004" lon="7.7482056942135396"><ele>246.33333333333331</ele><time>2026-05-02T12:43:27Z</time></trkpt><trkpt lat="44.82342708611762" lon="7.748410373114193"><ele>246.66666666666666</ele><time>2026-05-02T12:43:28Z</time></trkpt><trkpt lat="44.823320246243846" lon="7.748641926167447"><ele>247.0</ele><time>2026-05-02T12:43:29Z</time></trkpt><trkpt lat="44.82319613697539" lon="7.748875920882526"><ele>246.33333333333331</ele><time>2026-05-02T12:43:30Z</time></trkpt><trkpt lat="44.823108136973744" lon="7.749134751083563"><ele>245.66666666666669</ele><time>2026-05-02T12:43:31Z</time></trkpt><trkpt lat="44.82299096131136" lon="7.749381172091715"><ele>245.0</ele><time>2026-05-02T12:43:32Z</time></trkpt><trkpt lat="44.822881666715546" lon="7.749657603807422"><ele>244.5</ele><time>2026-05-02T12:43:33Z</time></trkpt><trkpt lat="44.82276614523474" lon="7.749955270498423"><ele>244.0</ele><time>2026-05-02T12:43:34Z</time></trkpt><trkpt lat="44.82264879506615" lon="7.750256956973978"><ele>247.5</ele><time>2026-05-02T12:43:35Z</time></trkpt><trkpt lat="44.82253863947265" lon="7.7505376832347475"><ele>251.0</ele><time>2026-05-02T12:43:36Z</time></trkpt><trkpt lat="44.82244347066631" lon="7.7508224326064665"><ele>250.66666666666669</ele><time>2026-05-02T12:43:37Z</time></trkpt><trkpt lat="44.82233655130928" lon="7.75108636975264"><ele>250.33333333333331</ele><time>2026-05-02T12:43:38Z</time></trkpt><trkpt lat="44.822225092004174" lon="7.751350283157714"><ele>250.0</ele><time>2026-05-02T12:43:39Z</time></trkpt><trkpt lat="44.82210851046797" lon="7.7516134612415915"><ele>250.0</ele><time>2026-05-02T12:43:40Z</time></trkpt><trkpt lat="44.821988258934496" lon="7.7518488592973425"><ele>250.0</ele><time>2026-05-02T12:43:41Z</time></trkpt><trkpt lat="44.82186692189885" lon="7.752062414772778"><ele>250.0</ele><time>2026-05-02T12:43:42Z</time></trkpt><trkpt lat="44.82174310155458" lon="7.752257768001767"><ele>249.0</ele><time>2026-05-02T12:43:43Z</time></trkpt><trkpt lat="44.82159981948565" lon="7.752424023391541"><ele>248.0</ele><time>2026-05-02T12:43:44Z</time></trkpt><trkpt lat="44.82145337918524" lon="7.752606883698069"><ele>247.0</ele><time>2026-05-02T12:43:45Z</time></trkpt><trkpt lat="44.821288586162304" lon="7.752785265108547"><ele>247.0</ele><time>2026-05-02T12:43:46Z</time></trkpt><trkpt lat="44.82110501769327" lon="7.752959065689255"><ele>247.0</ele><time>2026-05-02T12:43:47Z</time></trkpt><trkpt lat="44.82091136867115" lon="7.753142903723928"><ele>246.0</ele><time>2026-05-02T12:43:48Z</time></trkpt><trkpt lat="44.82069060263568" lon="7.753285732080523"><ele>245.0</ele><time>2026-05-02T12:43:49Z</time></trkpt><trkpt lat="44.820461140323545" lon="7.753416880047773"><ele>245.0</ele><time>2026-05-02T12:43:50Z</time></trkpt><trkpt lat="44.82023659025894" lon="7.7535313012194536"><ele>245.0</ele><time>2026-05-02T12:43:51Z</time></trkpt><trkpt lat="44.820005683781126" lon="7.753590779334829"><ele>245.0</ele><time>2026-05-02T12:43:52Z</time></trkpt><trkpt lat="44.81976601694738" lon="7.753655587674931"><ele>245.0</ele><time>2026-05-02T12:43:53Z</time></trkpt><trkpt lat="44.819519719763605" lon="7.7537173259324845"><ele>246.0</ele><time>2026-05-02T12:43:54Z</time></trkpt><trkpt lat="44.81928640071106" lon="7.7537843104103334"><ele>247.0</ele><time>2026-05-02T12:43:55Z</time></trkpt><trkpt lat="44.81908642826474" lon="7.753890305059117"><ele>247.0</ele><time>2026-05-02T12:43:56Z</time></trkpt><trkpt lat="44.8189014228238" lon="7.754004514187881"><ele>247.0</ele><time>2026-05-02T12:43:57Z</time></trkpt><trkpt lat="44.81872054196622" lon="7.7540997220022705"><ele>247.0</ele><time>2026-05-02T12:43:58Z</time></trkpt><trkpt lat="44.81856355222635" lon="7.7542309997581595"><ele>247.0</ele><time>2026-05-02T12:43:59Z</time></trkpt><trkpt lat="44.81841889991201" lon="7.754316286285245"><ele>247.0</ele><time>2026-05-02T12:44:00Z</time></trkpt><trkpt lat="44.81829001571055" lon="7.754375234514508"><ele>247.0</ele><time>2026-05-02T12:44:01Z</time></trkpt><trkpt lat="44.818167591992875" lon="7.754388281881461"><ele>247.0</ele><time>2026-05-02T12:44:02Z</time></trkpt><trkpt lat="44.81805618261312" lon="7.754350373334492"><ele>247.0</ele><time>2026-05-02T12:44:03Z</time></trkpt><trkpt lat="44.817944323201615" lon="7.754341247261721"><ele>247.0</ele><time>2026-05-02T12:44:04Z</time></trkpt><trkpt lat="44.81782858085565" lon="7.754404106843539"><ele>247.0</ele><time>2026-05-02T12:44:05Z</time></trkpt><trkpt lat="44.81773828546793" lon="7.75453237896802"><ele>247.0</ele><time>2026-05-02T12:44:06Z</time></trkpt><trkpt lat="44.817665162062085" lon="7.754699788618075"><ele>248.0</ele><time>2026-05-02T12:44:07Z</time></trkpt><trkpt lat="44.817572080557916" lon="7.754875386215239"><ele>249.0</ele><time>2026-05-02T12:44:08Z</time></trkpt><trkpt lat="44.8174396447292" lon="7.755013572222059"><ele>250.0</ele><time>2026-05-02T12:44:09Z</time></trkpt><trkpt lat="44.8172818523799" lon="7.755155183114186"><ele>250.0</ele><time>2026-05-02T12:44:10Z</time></trkpt><trkpt lat="44.81710366475184" lon="7.755291615667206"><ele>250.0</ele><time>2026-05-02T12:44:11Z</time></trkpt><trkpt lat="44.81693838764754" lon="7.7554875999999755"><ele>250.0</ele><time>2026-05-02T12:44:12Z</time></trkpt><trkpt lat="44.816769514573274" lon="7.755669080397285"><ele>250.66666666666666</ele><time>2026-05-02T12:44:13Z</time></trkpt><trkpt lat="44.81659491567039" lon="7.75586540976357"><ele>251.33333333333331</ele><time>2026-05-02T12:44:14Z</time></trkpt><trkpt lat="44.81641856277185" lon="7.756062030455263"><ele>252.0</ele><time>2026-05-02T12:44:15Z</time></trkpt><trkpt lat="44.816242643360745" lon="7.756258199750556"><ele>252.0</ele><time>2026-05-02T12:44:16Z</time></trkpt><trkpt lat="44.816070041897525" lon="7.756454297092346"><ele>252.0</ele><time>2026-05-02T12:44:17Z</time></trkpt><trkpt lat="44.815909829153966" lon="7.75667050614193"><ele>252.0</ele><time>2026-05-02T12:44:18Z</time></trkpt><trkpt lat="44.81576057878609" lon="7.756905567852684"><ele>252.5</ele><time>2026-05-02T12:44:19Z</time></trkpt><trkpt lat="44.81561297044466" lon="7.757142916880214"><ele>253.0</ele><time>2026-05-02T12:44:20Z</time></trkpt><trkpt lat="44.815460256839025" lon="7.757383319506923"><ele>253.0</ele><time>2026-05-02T12:44:21Z</time></trkpt><trkpt lat="44.81530465275958" lon="7.757627022447392"><ele>253.0</ele><time>2026-05-02T12:44:22Z</time></trkpt><trkpt lat="44.815148520559916" lon="7.757872410809506"><ele>252.5</ele><time>2026-05-02T12:44:23Z</time></trkpt><trkpt lat="44.81499086540794" lon="7.758123284153412"><ele>252.0</ele><time>2026-05-02T12:44:24Z</time></trkpt><trkpt lat="44.8148313305265" lon="7.758370584203956"><ele>252.5</ele><time>2026-05-02T12:44:25Z</time></trkpt><trkpt lat="44.81467101114194" lon="7.758620224501005"><ele>253.0</ele><time>2026-05-02T12:44:26Z</time></trkpt><trkpt lat="44.81451300253849" lon="7.758871414362507"><ele>253.0</ele><time>2026-05-02T12:44:27Z</time></trkpt><trkpt lat="44.814353299798825" lon="7.759125294412683"><ele>253.0</ele><time>2026-05-02T12:44:28Z</time></trkpt><trkpt lat="44.814192793468955" lon="7.759377871416106"><ele>254.5</ele><time>2026-05-02T12:44:29Z</time></trkpt><trkpt lat="44.81403198011379" lon="7.759630896579377"><ele>256.0</ele><time>2026-05-02T12:44:30Z</time></trkpt><trkpt lat="44.813871113667126" lon="7.7598863469440476"><ele>256.0</ele><time>2026-05-02T12:44:31Z</time></trkpt><trkpt lat="44.81371018845142" lon="7.760144194013687"><ele>256.0</ele><time>2026-05-02T12:44:32Z</time></trkpt><trkpt lat="44.813547016413125" lon="7.760406266112779"><ele>254.5</ele><time>2026-05-02T12:44:33Z</time></trkpt><trkpt lat="44.813381215137" lon="7.760667697542024"><ele>253.0</ele><time>2026-05-02T12:44:34Z</time></trkpt><trkpt lat="44.81321491920678" lon="7.760933548756823"><ele>253.5</ele><time>2026-05-02T12:44:35Z</time></trkpt><trkpt lat="44.81304855592284" lon="7.761199315998126"><ele>254.0</ele><time>2026-05-02T12:44:36Z</time></trkpt><trkpt lat="44.812892620789675" lon="7.761447753386365"><ele>254.0</ele><time>2026-05-02T12:44:37Z</time></trkpt><trkpt lat="44.81274278184242" lon="7.76167281203651"><ele>254.0</ele><time>2026-05-02T12:44:38Z</time></trkpt><trkpt lat="44.81258326196149" lon="7.7618877437985025"><ele>254.0</ele><time>2026-05-02T12:44:39Z</time></trkpt><trkpt lat="44.812405008247616" lon="7.762065949795132"><ele>254.33333333333334</ele><time>2026-05-02T12:44:40Z</time></trkpt><trkpt lat="44.81220552149178" lon="7.762194054762499"><ele>254.66666666666669</ele><time>2026-05-02T12:44:41Z</time></trkpt><trkpt lat="44.81199084652348" lon="7.762287899918647"><ele>255.0</ele><time>2026-05-02T12:44:42Z</time></trkpt><trkpt lat="44.811762772402204" lon="7.7623276431417825"><ele>255.5</ele><time>2026-05-02T12:44:43Z</time></trkpt><trkpt lat="44.8115298155367" lon="7.762373406346843"><ele>256.0</ele><time>2026-05-02T12:44:44Z</time></trkpt><trkpt lat="44.811293687772256" lon="7.762419022282556"><ele>256.0</ele><time>2026-05-02T12:44:45Z</time></trkpt><trkpt lat="44.811050494815284" lon="7.762466003095858"><ele>256.0</ele><time>2026-05-02T12:44:46Z</time></trkpt><trkpt lat="44.810807276014025" lon="7.7625345374358075"><ele>255.5</ele><time>2026-05-02T12:44:47Z</time></trkpt><trkpt lat="44.810564864223835" lon="7.762577426398812"><ele>255.0</ele><time>2026-05-02T12:44:48Z</time></trkpt><trkpt lat="44.81031887360386" lon="7.762623390710883"><ele>254.5</ele><time>2026-05-02T12:44:49Z</time></trkpt><trkpt lat="44.81006917059994" lon="7.762673667348429"><ele>254.0</ele><time>2026-05-02T12:44:50Z</time></trkpt><trkpt lat="44.809814483158" lon="7.762725216668082"><ele>254.5</ele><time>2026-05-02T12:44:51Z</time></trkpt><trkpt lat="44.80955419572975" lon="7.7627790580381255"><ele>255.0</ele><time>2026-05-02T12:44:52Z</time></trkpt><trkpt lat="44.80929082422253" lon="7.762809901155924"><ele>255.0</ele><time>2026-05-02T12:44:53Z</time></trkpt><trkpt lat="44.80902893904876" lon="7.762862662203474"><ele>255.0</ele><time>2026-05-02T12:44:54Z</time></trkpt><trkpt lat="44.808764950014094" lon="7.762915842700833"><ele>255.0</ele><time>2026-05-02T12:44:55Z</time></trkpt><trkpt lat="44.80850016793996" lon="7.762971294838117"><ele>255.0</ele><time>2026-05-02T12:44:56Z</time></trkpt><trkpt lat="44.80823400361649" lon="7.763027034502179"><ele>256.0</ele><time>2026-05-02T12:44:57Z</time></trkpt><trkpt lat="44.80797077659253" lon="7.763106630851463"><ele>257.0</ele><time>2026-05-02T12:44:58Z</time></trkpt><trkpt lat="44.807708881195815" lon="7.763140132591422"><ele>257.5</ele><time>2026-05-02T12:44:59Z</time></trkpt><trkpt lat="44.80744443925765" lon="7.76318822413227"><ele>258.0</ele><time>2026-05-02T12:45:00Z</time></trkpt><trkpt lat="44.80717701099692" lon="7.763243477420158"><ele>258.0</ele><time>2026-05-02T12:45:01Z</time></trkpt><trkpt lat="44.806906533135034" lon="7.763296454656145"><ele>258.0</ele><time>2026-05-02T12:45:02Z</time></trkpt><trkpt lat="44.80663438011029" lon="7.763350635498339"><ele>258.5</ele><time>2026-05-02T12:45:03Z</time></trkpt><trkpt lat="44.80636063146507" lon="7.763404194176494"><ele>259.0</ele><time>2026-05-02T12:45:04Z</time></trkpt><trkpt lat="44.806085335538086" lon="7.763458691216448"><ele>259.0</ele><time>2026-05-02T12:45:05Z</time></trkpt><trkpt lat="44.805808640702416" lon="7.763511239970481"><ele>259.0</ele><time>2026-05-02T12:45:06Z</time></trkpt><trkpt lat="44.805532982381706" lon="7.763567104906668"><ele>259.5</ele><time>2026-05-02T12:45:07Z</time></trkpt><trkpt lat="44.80525447852542" lon="7.763621591692796"><ele>260.0</ele><time>2026-05-02T12:45:08Z</time></trkpt><trkpt lat="44.80497252358848" lon="7.763672151952208"><ele>260.0</ele><time>2026-05-02T12:45:09Z</time></trkpt><trkpt lat="44.80469014910588" lon="7.763721962502901"><ele>260.0</ele><time>2026-05-02T12:45:10Z</time></trkpt><trkpt lat="44.80441510222516" lon="7.763775103315569"><ele>259.0</ele><time>2026-05-02T12:45:11Z</time></trkpt><trkpt lat="44.8041571493385" lon="7.763821656590941"><ele>258.0</ele><time>2026-05-02T12:45:12Z</time></trkpt><trkpt lat="44.80390505121125" lon="7.763871788904507"><ele>258.0</ele><time>2026-05-02T12:45:13Z</time></trkpt><trkpt lat="44.803651797336634" lon="7.763943213201711"><ele>258.0</ele><time>2026-05-02T12:45:14Z</time></trkpt><trkpt lat="44.80339928605338" lon="7.764053179766087"><ele>257.5</ele><time>2026-05-02T12:45:15Z</time></trkpt><trkpt lat="44.80314844779466" lon="7.764193697057768"><ele>257.0</ele><time>2026-05-02T12:45:16Z</time></trkpt><trkpt lat="44.80289121137939" lon="7.764342810960992"><ele>257.0</ele><time>2026-05-02T12:45:17Z</time></trkpt><trkpt lat="44.802628983284514" lon="7.76448908667847"><ele>257.0</ele><time>2026-05-02T12:45:18Z</time></trkpt><trkpt lat="44.80236340471146" lon="7.764636894567915"><ele>257.0</ele><time>2026-05-02T12:45:19Z</time></trkpt><trkpt lat="44.80209613597596" lon="7.7647890212826285"><ele>257.0</ele><time>2026-05-02T12:45:20Z</time></trkpt><trkpt lat="44.80182867070858" lon="7.764942376036925"><ele>256.0</ele><time>2026-05-02T12:45:21Z</time></trkpt><trkpt lat="44.80156012775693" lon="7.765095037385775"><ele>255.0</ele><time>2026-05-02T12:45:22Z</time></trkpt><trkpt lat="44.8012918418353" lon="7.76524465868537"><ele>255.0</ele><time>2026-05-02T12:45:23Z</time></trkpt><trkpt lat="44.801023960272346" lon="7.765396374989056"><ele>255.0</ele><time>2026-05-02T12:45:24Z</time></trkpt><trkpt lat="44.80075690699651" lon="7.765547758613022"><ele>256.0</ele><time>2026-05-02T12:45:25Z</time></trkpt><trkpt lat="44.80049157114677" lon="7.765697471645575"><ele>257.0</ele><time>2026-05-02T12:45:26Z</time></trkpt><trkpt lat="44.80022375473509" lon="7.765847558430395"><ele>257.5</ele><time>2026-05-02T12:45:27Z</time></trkpt><trkpt lat="44.79995563249111" lon="7.765999498403155"><ele>258.0</ele><time>2026-05-02T12:45:28Z</time></trkpt><trkpt lat="44.7996888816222" lon="7.766149306223312"><ele>258.0</ele><time>2026-05-02T12:45:29Z</time></trkpt><trkpt lat="44.79942381777404" lon="7.766297669617746"><ele>258.0</ele><time>2026-05-02T12:45:30Z</time></trkpt><trkpt lat="44.7991596434423" lon="7.766448519859718"><ele>258.0</ele><time>2026-05-02T12:45:31Z</time></trkpt><trkpt lat="44.79889943857146" lon="7.766596218247914"><ele>258.0</ele><time>2026-05-02T12:45:32Z</time></trkpt><trkpt lat="44.798653537192244" lon="7.766733445739186"><ele>258.5</ele><time>2026-05-02T12:45:33Z</time></trkpt><trkpt lat="44.798419554876254" lon="7.766866346378187"><ele>259.0</ele><time>2026-05-02T12:45:34Z</time></trkpt><trkpt lat="44.798197248849725" lon="7.766994129320381"><ele>259.0</ele><time>2026-05-02T12:45:35Z</time></trkpt><trkpt lat="44.797988916926734" lon="7.767111259076466"><ele>259.0</ele><time>2026-05-02T12:45:36Z</time></trkpt><trkpt lat="44.797785842485006" lon="7.767224727646395"><ele>259.0</ele><time>2026-05-02T12:45:37Z</time></trkpt><trkpt lat="44.797585584108" lon="7.767339892301697"><ele>259.0</ele><time>2026-05-02T12:45:38Z</time></trkpt><trkpt lat="44.79740021642032" lon="7.767446297998294"><ele>259.0</ele><time>2026-05-02T12:45:39Z</time></trkpt><trkpt lat="44.79723520295314" lon="7.7675383662716735"><ele>259.0</ele><time>2026-05-02T12:45:40Z</time></trkpt><trkpt lat="44.797074261126525" lon="7.7676274594266435"><ele>259.3333333333333</ele><time>2026-05-02T12:45:41Z</time></trkpt><trkpt lat="44.79691351037536" lon="7.767715987858511"><ele>259.6666666666667</ele><time>2026-05-02T12:45:42Z</time></trkpt><trkpt lat="44.79675848366355" lon="7.767803078443624"><ele>260.0</ele><time>2026-05-02T12:45:43Z</time></trkpt><trkpt lat="44.79660743307239" lon="7.767887002200631"><ele>260.0</ele><time>2026-05-02T12:45:44Z</time></trkpt><trkpt lat="44.796470438365205" lon="7.7679648559609245"><ele>260.0</ele><time>2026-05-02T12:45:45Z</time></trkpt><trkpt lat="44.79634771213303" lon="7.76803206665365"><ele>260.0</ele><time>2026-05-02T12:45:46Z</time></trkpt><trkpt lat="44.79623686382905" lon="7.76809493118961"><ele>260.0</ele><time>2026-05-02T12:45:47Z</time></trkpt><trkpt lat="44.79612342457155" lon="7.7681605376868"><ele>260.25</ele><time>2026-05-02T12:45:48Z</time></trkpt><trkpt lat="44.79599942667807" lon="7.768231168338434"><ele>260.5</ele><time>2026-05-02T12:45:49Z</time></trkpt><trkpt lat="44.79586542074681" lon="7.768301541129072"><ele>260.75</ele><time>2026-05-02T12:45:50Z</time></trkpt><trkpt lat="44.795735136073766" lon="7.768374850545352"><ele>261.0</ele><time>2026-05-02T12:45:51Z</time></trkpt><trkpt lat="44.79560334957788" lon="7.768446968389874"><ele>261.0</ele><time>2026-05-02T12:45:52Z</time></trkpt><trkpt lat="44.79547705870095" lon="7.768521825233209"><ele>261.0</ele><time>2026-05-02T12:45:53Z</time></trkpt><trkpt lat="44.79533422035989" lon="7.768606123776158"><ele>261.0</ele><time>2026-05-02T12:45:54Z</time></trkpt><trkpt lat="44.795178070496284" lon="7.768701388810543"><ele>260.3333333333333</ele><time>2026-05-02T12:45:55Z</time></trkpt><trkpt lat="44.79500940039389" lon="7.768803526052417"><ele>259.66666666666663</ele><time>2026-05-02T12:45:56Z</time></trkpt><trkpt lat="44.79482781736284" lon="7.76889766184981"><ele>259.0</ele><time>2026-05-02T12:45:57Z</time></trkpt><trkpt lat="44.79463969756543" lon="7.768994970130397"><ele>259.0</ele><time>2026-05-02T12:45:58Z</time></trkpt><trkpt lat="44.79444647263988" lon="7.7691018814852795"><ele>259.0</ele><time>2026-05-02T12:45:59Z</time></trkpt><trkpt lat="44.79424944916123" lon="7.7692109890004755"><ele>259.0</ele><time>2026-05-02T12:46:00Z</time></trkpt><trkpt lat="44.79404783223109" lon="7.769326121541615"><ele>259.0</ele><time>2026-05-02T12:46:01Z</time></trkpt><trkpt lat="44.79383562982186" lon="7.769442795855342"><ele>259.0</ele><time>2026-05-02T12:46:02Z</time></trkpt><trkpt lat="44.79361399155699" lon="7.7695462849123045"><ele>258.0</ele><time>2026-05-02T12:46:03Z</time></trkpt><trkpt lat="44.79339804437074" lon="7.769684652830467"><ele>257.0</ele><time>2026-05-02T12:46:04Z</time></trkpt><trkpt lat="44.79316931589768" lon="7.769799273050464"><ele>257.0</ele><time>2026-05-02T12:46:05Z</time></trkpt><trkpt lat="44.792939900352295" lon="7.7699345417669825"><ele>257.0</ele><time>2026-05-02T12:46:06Z</time></trkpt><trkpt lat="44.792705164173334" lon="7.770068760900713"><ele>257.0</ele><time>2026-05-02T12:46:07Z</time></trkpt><trkpt lat="44.79246653528883" lon="7.7702013206723475"><ele>257.0</ele><time>2026-05-02T12:46:08Z</time></trkpt><trkpt lat="44.79222572162004" lon="7.77033700919361"><ele>257.0</ele><time>2026-05-02T12:46:09Z</time></trkpt><trkpt lat="44.79198022489734" lon="7.77047601244096"><ele>257.0</ele><time>2026-05-02T12:46:10Z</time></trkpt><trkpt lat="44.79173589771971" lon="7.7706144320832795"><ele>257.0</ele><time>2026-05-02T12:46:11Z</time></trkpt><trkpt lat="44.79149019957221" lon="7.770752736875784"><ele>257.0</ele><time>2026-05-02T12:46:12Z</time></trkpt><trkpt lat="44.79124709094405" lon="7.770886792160579"><ele>257.0</ele><time>2026-05-02T12:46:13Z</time></trkpt><trkpt lat="44.791009803742234" lon="7.771023263734388"><ele>257.0</ele><time>2026-05-02T12:46:14Z</time></trkpt><trkpt lat="44.790778501516584" lon="7.771152847659162"><ele>257.5</ele><time>2026-05-02T12:46:15Z</time></trkpt><trkpt lat="44.790555542630834" lon="7.7712765732060385"><ele>258.0</ele><time>2026-05-02T12:46:16Z</time></trkpt><trkpt lat="44.79033733584219" lon="7.771398626551"><ele>257.5</ele><time>2026-05-02T12:46:17Z</time></trkpt><trkpt lat="44.790124095959236" lon="7.771521418959771"><ele>257.0</ele><time>2026-05-02T12:46:18Z</time></trkpt><trkpt lat="44.78991309384763" lon="7.771644026513553"><ele>257.0</ele><time>2026-05-02T12:46:19Z</time></trkpt><trkpt lat="44.789697242173816" lon="7.771765622060231"><ele>257.0</ele><time>2026-05-02T12:46:20Z</time></trkpt><trkpt lat="44.78947965193933" lon="7.771887344539713"><ele>259.0</ele><time>2026-05-02T12:46:21Z</time></trkpt><trkpt lat="44.789264468108115" lon="7.7720051197276625"><ele>261.0</ele><time>2026-05-02T12:46:22Z</time></trkpt><trkpt lat="44.789050490995415" lon="7.772124646801657"><ele>261.0</ele><time>2026-05-02T12:46:23Z</time></trkpt><trkpt lat="44.78883344370707" lon="7.77224685579741"><ele>261.0</ele><time>2026-05-02T12:46:24Z</time></trkpt><trkpt lat="44.788609523044556" lon="7.772371832218382"><ele>260.0</ele><time>2026-05-02T12:46:25Z</time></trkpt><trkpt lat="44.78840152487478" lon="7.772488528381534"><ele>259.0</ele><time>2026-05-02T12:46:26Z</time></trkpt><trkpt lat="44.7882138379424" lon="7.772587905167435"><ele>258.0</ele><time>2026-05-02T12:46:27Z</time></trkpt><trkpt lat="44.78804462269351" lon="7.7726782150672955"><ele>257.6666666666667</ele><time>2026-05-02T12:46:28Z</time></trkpt><trkpt lat="44.787887211996434" lon="7.772768190529262"><ele>257.33333333333337</ele><time>2026-05-02T12:46:29Z</time></trkpt><trkpt lat="44.7877351936815" lon="7.772857301540692"><ele>257.0</ele><time>2026-05-02T12:46:30Z</time></trkpt><trkpt lat="44.787577365728104" lon="7.772946561146362"><ele>257.0</ele><time>2026-05-02T12:46:31Z</time></trkpt><trkpt lat="44.78741235916538" lon="7.773036879932221"><ele>257.0</ele><time>2026-05-02T12:46:32Z</time></trkpt><trkpt lat="44.787240315586835" lon="7.7731318858228216"><ele>257.0</ele><time>2026-05-02T12:46:33Z</time></trkpt><trkpt lat="44.787063096828085" lon="7.773232897146789"><ele>257.0</ele><time>2026-05-02T12:46:34Z</time></trkpt><trkpt lat="44.786878605773495" lon="7.7733393240315305"><ele>257.0</ele><time>2026-05-02T12:46:35Z</time></trkpt><trkpt lat="44.786690413289584" lon="7.773443161982923"><ele>257.0</ele><time>2026-05-02T12:46:36Z</time></trkpt><trkpt lat="44.786500613915855" lon="7.773546259798587"><ele>257.33333333333337</ele><time>2026-05-02T12:46:37Z</time></trkpt><trkpt lat="44.7863139185714" lon="7.773652291979559"><ele>257.6666666666667</ele><time>2026-05-02T12:46:38Z</time></trkpt><trkpt lat="44.78612544500807" lon="7.773759300533032"><ele>258.0</ele><time>2026-05-02T12:46:39Z</time></trkpt><trkpt lat="44.785935683950974" lon="7.773865624275233"><ele>258.6666666666667</ele><time>2026-05-02T12:46:40Z</time></trkpt><trkpt lat="44.785739061026206" lon="7.773973281819778"><ele>259.33333333333337</ele><time>2026-05-02T12:46:41Z</time></trkpt><trkpt lat="44.78553941117603" lon="7.774084319342679"><ele>260.0</ele><time>2026-05-02T12:46:42Z</time></trkpt><trkpt lat="44.785344970131085" lon="7.774195785449482"><ele>260.33333333333337</ele><time>2026-05-02T12:46:43Z</time></trkpt><trkpt lat="44.78516460225084" lon="7.7743016724794325"><ele>260.6666666666667</ele><time>2026-05-02T12:46:44Z</time></trkpt><trkpt lat="44.78499235960259" lon="7.774395453236436"><ele>261.0</ele><time>2026-05-02T12:46:45Z</time></trkpt><trkpt lat="44.78482492968232" lon="7.774487915630267"><ele>261.3333333333333</ele><time>2026-05-02T12:46:46Z</time></trkpt><trkpt lat="44.7846576765179" lon="7.774583355992372"><ele>261.66666666666663</ele><time>2026-05-02T12:46:47Z</time></trkpt><trkpt lat="44.78448773729227" lon="7.774678919177923"><ele>262.0</ele><time>2026-05-02T12:46:48Z</time></trkpt><trkpt lat="44.78432553199004" lon="7.774766770361144"><ele>262.0</ele><time>2026-05-02T12:46:49Z</time></trkpt><trkpt lat="44.78417628599545" lon="7.774845095086254"><ele>262.0</ele><time>2026-05-02T12:46:50Z</time></trkpt><trkpt lat="44.78403894987999" lon="7.774913935243748"><ele>262.0</ele><time>2026-05-02T12:46:51Z</time></trkpt><trkpt lat="44.783906420381896" lon="7.774971438641062"><ele>262.0</ele><time>2026-05-02T12:46:52Z</time></trkpt><trkpt lat="44.78378616991337" lon="7.775006014782264"><ele>262.0</ele><time>2026-05-02T12:46:53Z</time></trkpt><trkpt lat="44.78367251993674" lon="7.775014267257299"><ele>262.0</ele><time>2026-05-02T12:46:54Z</time></trkpt><trkpt lat="44.78355062353112" lon="7.774987498918307"><ele>262.0</ele><time>2026-05-02T12:46:55Z</time></trkpt><trkpt lat="44.78341888978513" lon="7.774951819167041"><ele>262.0</ele><time>2026-05-02T12:46:56Z</time></trkpt><trkpt lat="44.783281834136794" lon="7.774891050466509"><ele>261.0</ele><time>2026-05-02T12:46:57Z</time></trkpt><trkpt lat="44.783156544740585" lon="7.774775905027526"><ele>260.0</ele><time>2026-05-02T12:46:58Z</time></trkpt><trkpt lat="44.783021529423344" lon="7.77462119420168"><ele>259.0</ele><time>2026-05-02T12:46:59Z</time></trkpt><trkpt lat="44.782880413499086" lon="7.774438402309642"><ele>258.66666666666663</ele><time>2026-05-02T12:47:00Z</time></trkpt><trkpt lat="44.78273041614084" lon="7.774236441490232"><ele>258.3333333333333</ele><time>2026-05-02T12:47:01Z</time></trkpt><trkpt lat="44.782567507590635" lon="7.774020771456404"><ele>258.0</ele><time>2026-05-02T12:47:02Z</time></trkpt><trkpt lat="44.78239832325326" lon="7.773789589323059"><ele>257.5</ele><time>2026-05-02T12:47:03Z</time></trkpt><trkpt lat="44.78222470227937" lon="7.773540215372146"><ele>257.0</ele><time>2026-05-02T12:47:04Z</time></trkpt><trkpt lat="44.782051874200704" lon="7.773272082184454"><ele>255.0</ele><time>2026-05-02T12:47:05Z</time></trkpt><trkpt lat="44.78182673176508" lon="7.773081112454132"><ele>253.0</ele><time>2026-05-02T12:47:06Z</time></trkpt><trkpt lat="44.78162515898404" lon="7.772819936512609"><ele>253.5</ele><time>2026-05-02T12:47:07Z</time></trkpt><trkpt lat="44.781412908433595" lon="7.772547675710957"><ele>254.0</ele><time>2026-05-02T12:47:08Z</time></trkpt><trkpt lat="44.78119985462067" lon="7.772270463037792"><ele>254.0</ele><time>2026-05-02T12:47:09Z</time></trkpt><trkpt lat="44.78098442937559" lon="7.7719872465531505"><ele>254.0</ele><time>2026-05-02T12:47:10Z</time></trkpt><trkpt lat="44.780765059525066" lon="7.771697292388001"><ele>254.0</ele><time>2026-05-02T12:47:11Z</time></trkpt><trkpt lat="44.7805425999434" lon="7.771407377441819"><ele>254.0</ele><time>2026-05-02T12:47:12Z</time></trkpt><trkpt lat="44.78032034332207" lon="7.771114949677029"><ele>254.5</ele><time>2026-05-02T12:47:13Z</time></trkpt><trkpt lat="44.78011871026328" lon="7.770856711458629"><ele>255.0</ele><time>2026-05-02T12:47:14Z</time></trkpt><trkpt lat="44.77992683980449" lon="7.770612008209409"><ele>255.0</ele><time>2026-05-02T12:47:15Z</time></trkpt><trkpt lat="44.7797290562238" lon="7.770358286918686"><ele>255.0</ele><time>2026-05-02T12:47:16Z</time></trkpt><trkpt lat="44.779533026583834" lon="7.770096806843839"><ele>255.5</ele><time>2026-05-02T12:47:17Z</time></trkpt><trkpt lat="44.7793312808481" lon="7.769835514847637"><ele>256.0</ele><time>2026-05-02T12:47:18Z</time></trkpt><trkpt lat="44.77911627665173" lon="7.769567751873295"><ele>255.5</ele><time>2026-05-02T12:47:19Z</time></trkpt><trkpt lat="44.77888793195734" lon="7.769312756384006"><ele>255.0</ele><time>2026-05-02T12:47:20Z</time></trkpt><trkpt lat="44.77864787809069" lon="7.769086717453989"><ele>254.5</ele><time>2026-05-02T12:47:21Z</time></trkpt><trkpt lat="44.77838965862922" lon="7.768878310349646"><ele>254.0</ele><time>2026-05-02T12:47:22Z</time></trkpt><trkpt lat="44.778112012715454" lon="7.768702964299061"><ele>254.0</ele><time>2026-05-02T12:47:23Z</time></trkpt><trkpt lat="44.77781625775668" lon="7.768557430937328"><ele>254.0</ele><time>2026-05-02T12:47:24Z</time></trkpt><trkpt lat="44.77751096423248" lon="7.768434605489787"><ele>253.5</ele><time>2026-05-02T12:47:25Z</time></trkpt><trkpt lat="44.77720598743219" lon="7.768347739725347"><ele>253.0</ele><time>2026-05-02T12:47:26Z</time></trkpt><trkpt lat="44.77689921514249" lon="7.7682918118556215"><ele>254.0</ele><time>2026-05-02T12:47:27Z</time></trkpt><trkpt lat="44.77658758754659" lon="7.768275964347071"><ele>255.0</ele><time>2026-05-02T12:47:28Z</time></trkpt><trkpt lat="44.776269793003834" lon="7.768300969448625"><ele>254.5</ele><time>2026-05-02T12:47:29Z</time></trkpt><trkpt lat="44.775956723565265" lon="7.7683311469864105"><ele>254.0</ele><time>2026-05-02T12:47:30Z</time></trkpt><trkpt lat="44.77563901860863" lon="7.768368934073839"><ele>254.0</ele><time>2026-05-02T12:47:31Z</time></trkpt><trkpt lat="44.77532133353494" lon="7.768400859045837"><ele>254.0</ele><time>2026-05-02T12:47:32Z</time></trkpt><trkpt lat="44.775003816277334" lon="7.768430566014715"><ele>254.5</ele><time>2026-05-02T12:47:33Z</time></trkpt><trkpt lat="44.774686155378184" lon="7.768462574525934"><ele>255.0</ele><time>2026-05-02T12:47:34Z</time></trkpt><trkpt lat="44.77437133147677" lon="7.7684961805750925"><ele>256.0</ele><time>2026-05-02T12:47:35Z</time></trkpt><trkpt lat="44.774075747251835" lon="7.76852407535169"><ele>257.0</ele><time>2026-05-02T12:47:36Z</time></trkpt><trkpt lat="44.773813827094344" lon="7.76854761861264"><ele>257.0</ele><time>2026-05-02T12:47:37Z</time></trkpt><trkpt lat="44.77357562830224" lon="7.768571593281432"><ele>257.0</ele><time>2026-05-02T12:47:38Z</time></trkpt><trkpt lat="44.77336107563934" lon="7.768590052857804"><ele>257.6666666666667</ele><time>2026-05-02T12:47:39Z</time></trkpt><trkpt lat="44.77316509449695" lon="7.768607092160873"><ele>258.3333333333333</ele><time>2026-05-02T12:47:40Z</time></trkpt><trkpt lat="44.772990629870115" lon="7.768621425484608"><ele>259.0</ele><time>2026-05-02T12:47:41Z</time></trkpt><trkpt lat="44.7728309428835" lon="7.768633745711426"><ele>258.75</ele><time>2026-05-02T12:47:42Z</time></trkpt><trkpt lat="44.7726842858066" lon="7.768646307130531"><ele>258.5</ele><time>2026-05-02T12:47:43Z</time></trkpt><trkpt lat="44.772556314941944" lon="7.768649549665008"><ele>258.25</ele><time>2026-05-02T12:47:44Z</time></trkpt><trkpt lat="44.77243371131251" lon="7.768631397373261"><ele>258.0</ele><time>2026-05-02T12:47:45Z</time></trkpt><trkpt lat="44.77232510371959" lon="7.768572610527252"><ele>258.0</ele><time>2026-05-02T12:47:46Z</time></trkpt><trkpt lat="44.77221746637832" lon="7.768518134114467"><ele>258.0</ele><time>2026-05-02T12:47:47Z</time></trkpt><trkpt lat="44.77209019608681" lon="7.768548091088923"><ele>258.0</ele><time>2026-05-02T12:47:48Z</time></trkpt><trkpt lat="44.771955468829006" lon="7.7686473141966985"><ele>258.0</ele><time>2026-05-02T12:47:49Z</time></trkpt><trkpt lat="44.77180535635654" lon="7.768741916738676"><ele>257.6666666666667</ele><time>2026-05-02T12:47:50Z</time></trkpt><trkpt lat="44.77162631794558" lon="7.768763956211053"><ele>257.33333333333337</ele><time>2026-05-02T12:47:51Z</time></trkpt><trkpt lat="44.77142604582305" lon="7.768774976695183"><ele>257.0</ele><time>2026-05-02T12:47:52Z</time></trkpt><trkpt lat="44.77120757962362" lon="7.768787262344973"><ele>257.0</ele><time>2026-05-02T12:47:53Z</time></trkpt><trkpt lat="44.770974955465974" lon="7.768814412859337"><ele>257.0</ele><time>2026-05-02T12:47:54Z</time></trkpt><trkpt lat="44.77072832804568" lon="7.768840286294555"><ele>257.0</ele><time>2026-05-02T12:47:55Z</time></trkpt><trkpt lat="44.77046351038235" lon="7.768862670063557"><ele>257.0</ele><time>2026-05-02T12:47:56Z</time></trkpt><trkpt lat="44.77019210933183" lon="7.768890312013385"><ele>257.5</ele><time>2026-05-02T12:47:57Z</time></trkpt><trkpt lat="44.769906581675215" lon="7.768918916470871"><ele>258.0</ele><time>2026-05-02T12:47:58Z</time></trkpt><trkpt lat="44.76961599150792" lon="7.768946253848555"><ele>258.0</ele><time>2026-05-02T12:47:59Z</time></trkpt><trkpt lat="44.76932020643111" lon="7.768971702071216"><ele>258.0</ele><time>2026-05-02T12:48:00Z</time></trkpt><trkpt lat="44.769023316503855" lon="7.7690035846012"><ele>258.0</ele><time>2026-05-02T12:48:01Z</time></trkpt><trkpt lat="44.76872103187906" lon="7.7690515550962695"><ele>258.0</ele><time>2026-05-02T12:48:02Z</time></trkpt><trkpt lat="44.76841510700138" lon="7.769114807754508"><ele>258.0</ele><time>2026-05-02T12:48:03Z</time></trkpt><trkpt lat="44.7681106801814" lon="7.7692045949430595"><ele>258.0</ele><time>2026-05-02T12:48:04Z</time></trkpt><trkpt lat="44.76780974271878" lon="7.769333737559474"><ele>258.0</ele><time>2026-05-02T12:48:05Z</time></trkpt><trkpt lat="44.76751905908453" lon="7.769488810580847"><ele>258.0</ele><time>2026-05-02T12:48:06Z</time></trkpt><trkpt lat="44.76723405886685" lon="7.769668493168606"><ele>258.0</ele><time>2026-05-02T12:48:07Z</time></trkpt><trkpt lat="44.7669584641189" lon="7.7698691677936855"><ele>258.0</ele><time>2026-05-02T12:48:08Z</time></trkpt><trkpt lat="44.76669349486526" lon="7.770099044536603"><ele>258.0</ele><time>2026-05-02T12:48:09Z</time></trkpt><trkpt lat="44.76644023480618" lon="7.770357393059353"><ele>258.0</ele><time>2026-05-02T12:48:10Z</time></trkpt><trkpt lat="44.766200131302504" lon="7.7706319882617105"><ele>258.5</ele><time>2026-05-02T12:48:11Z</time></trkpt><trkpt lat="44.76597088664863" lon="7.770923768995567"><ele>259.0</ele><time>2026-05-02T12:48:12Z</time></trkpt><trkpt lat="44.76575498411695" lon="7.771239958388948"><ele>258.5</ele><time>2026-05-02T12:48:13Z</time></trkpt><trkpt lat="44.76555026492544" lon="7.771561155383324"><ele>258.0</ele><time>2026-05-02T12:48:14Z</time></trkpt><trkpt lat="44.765350891981605" lon="7.7718910548233895"><ele>257.5</ele><time>2026-05-02T12:48:15Z</time></trkpt><trkpt lat="44.765152207954" lon="7.772220826309658"><ele>257.0</ele><time>2026-05-02T12:48:16Z</time></trkpt><trkpt lat="44.764952224591454" lon="7.772546313394757"><ele>258.5</ele><time>2026-05-02T12:48:17Z</time></trkpt><trkpt lat="44.76474981850657" lon="7.7728722507905434"><ele>260.0</ele><time>2026-05-02T12:48:18Z</time></trkpt><trkpt lat="44.76454798673595" lon="7.773200107788651"><ele>261.0</ele><time>2026-05-02T12:48:19Z</time></trkpt><trkpt lat="44.76434681132954" lon="7.773528723249539"><ele>262.0</ele><time>2026-05-02T12:48:20Z</time></trkpt><trkpt lat="44.764146121600696" lon="7.773854055144496"><ele>262.0</ele><time>2026-05-02T12:48:21Z</time></trkpt><trkpt lat="44.763943590681016" lon="7.774182776267518"><ele>262.0</ele><time>2026-05-02T12:48:22Z</time></trkpt><trkpt lat="44.76374333502761" lon="7.7745048116971285"><ele>261.5</ele><time>2026-05-02T12:48:23Z</time></trkpt><trkpt lat="44.76354714230245" lon="7.774818888183524"><ele>261.0</ele><time>2026-05-02T12:48:24Z</time></trkpt><trkpt lat="44.7633474132845" lon="7.7751396402834905"><ele>261.0</ele><time>2026-05-02T12:48:25Z</time></trkpt><trkpt lat="44.763148025415084" lon="7.775463546148041"><ele>261.0</ele><time>2026-05-02T12:48:26Z</time></trkpt><trkpt lat="44.76293681142356" lon="7.775774194613891"><ele>261.0</ele><time>2026-05-02T12:48:27Z</time></trkpt><trkpt lat="44.76273532609192" lon="7.776099458521268"><ele>261.0</ele><time>2026-05-02T12:48:28Z</time></trkpt><trkpt lat="44.76253219615172" lon="7.776428971775212"><ele>261.0</ele><time>2026-05-02T12:48:29Z</time></trkpt><trkpt lat="44.76232825067897" lon="7.776759893573087"><ele>261.0</ele><time>2026-05-02T12:48:30Z</time></trkpt><trkpt lat="44.76212129381282" lon="7.77709456407445"><ele>261.5</ele><time>2026-05-02T12:48:31Z</time></trkpt><trkpt lat="44.76191425032324" lon="7.777429350706893"><ele>262.0</ele><time>2026-05-02T12:48:32Z</time></trkpt><trkpt lat="44.761708969971735" lon="7.777761285883457"><ele>261.0</ele><time>2026-05-02T12:48:33Z</time></trkpt><trkpt lat="44.76150527150034" lon="7.778090663522953"><ele>260.0</ele><time>2026-05-02T12:48:34Z</time></trkpt><trkpt lat="44.76130015870523" lon="7.778422797646966"><ele>260.0</ele><time>2026-05-02T12:48:35Z</time></trkpt><trkpt lat="44.761095563479394" lon="7.778752372684736"><ele>260.0</ele><time>2026-05-02T12:48:36Z</time></trkpt><trkpt lat="44.76088906248833" lon="7.779082570055581"><ele>260.5</ele><time>2026-05-02T12:48:37Z</time></trkpt><trkpt lat="44.760686906173966" lon="7.779409432627962"><ele>261.0</ele><time>2026-05-02T12:48:38Z</time></trkpt><trkpt lat="44.760482628528884" lon="7.779739831090955"><ele>261.0</ele><time>2026-05-02T12:48:39Z</time></trkpt><trkpt lat="44.76028436116074" lon="7.780060509914517"><ele>261.0</ele><time>2026-05-02T12:48:40Z</time></trkpt><trkpt lat="44.760084431235775" lon="7.780383011299108"><ele>260.5</ele><time>2026-05-02T12:48:41Z</time></trkpt><trkpt lat="44.759882161085635" lon="7.780709287588115"><ele>260.0</ele><time>2026-05-02T12:48:42Z</time></trkpt><trkpt lat="44.75968596711613" lon="7.781025861962865"><ele>260.0</ele><time>2026-05-02T12:48:43Z</time></trkpt><trkpt lat="44.75949137897269" lon="7.7813410060813"><ele>260.0</ele><time>2026-05-02T12:48:44Z</time></trkpt><trkpt lat="44.759313850531626" lon="7.781628521227192"><ele>259.0</ele><time>2026-05-02T12:48:45Z</time></trkpt><trkpt lat="44.75915702572393" lon="7.781913544929767"><ele>258.0</ele><time>2026-05-02T12:48:46Z</time></trkpt><trkpt lat="44.75899599485482" lon="7.782168770472663"><ele>258.0</ele><time>2026-05-02T12:48:47Z</time></trkpt><trkpt lat="44.75884422779878" lon="7.782414518081768"><ele>258.0</ele><time>2026-05-02T12:48:48Z</time></trkpt><trkpt lat="44.75870153871096" lon="7.782646937462626"><ele>258.0</ele><time>2026-05-02T12:48:49Z</time></trkpt><trkpt lat="44.75856285618258" lon="7.78286969538907"><ele>258.6666666666667</ele><time>2026-05-02T12:48:50Z</time></trkpt><trkpt lat="44.75842929093053" lon="7.78308309279989"><ele>259.33333333333337</ele><time>2026-05-02T12:48:51Z</time></trkpt><trkpt lat="44.758298209696626" lon="7.783280741101868"><ele>260.0</ele><time>2026-05-02T12:48:52Z</time></trkpt><trkpt lat="44.75818181556621" lon="7.783453244229267"><ele>260.0</ele><time>2026-05-02T12:48:53Z</time></trkpt><trkpt lat="44.75808330648308" lon="7.783585152308286"><ele>260.0</ele><time>2026-05-02T12:48:54Z</time></trkpt><trkpt lat="44.75800423428385" lon="7.783680531565171"><ele>260.0</ele><time>2026-05-02T12:48:55Z</time></trkpt><trkpt lat="44.75794599859263" lon="7.783735491525656"><ele>260.0</ele><time>2026-05-02T12:48:56Z</time></trkpt><trkpt lat="44.75788188658508" lon="7.783767975239837"><ele>260.0</ele><time>2026-05-02T12:48:57Z</time></trkpt><trkpt lat="44.757797627436034" lon="7.783770886183696"><ele>260.0</ele><time>2026-05-02T12:48:58Z</time></trkpt><trkpt lat="44.757705120499324" lon="7.783786304253113"><ele>260.0</ele><time>2026-05-02T12:48:59Z</time></trkpt><trkpt lat="44.757601918963886" lon="7.78383010770057"><ele>260.0</ele><time>2026-05-02T12:49:00Z</time></trkpt><trkpt lat="44.75751380354234" lon="7.783921227478914"><ele>260.0</ele><time>2026-05-02T12:49:01Z</time></trkpt><trkpt lat="44.75746569461258" lon="7.784076358474652"><ele>260.0</ele><time>2026-05-02T12:49:02Z</time></trkpt><trkpt lat="44.75745913956555" lon="7.78424610418136"><ele>260.25</ele><time>2026-05-02T12:49:03Z</time></trkpt><trkpt lat="44.757496862048185" lon="7.784408183088153"><ele>260.5</ele><time>2026-05-02T12:49:04Z</time></trkpt><trkpt lat="44.75757465709546" lon="7.784541415935776"><ele>260.75</ele><time>2026-05-02T12:49:05Z</time></trkpt><trkpt lat="44.757693816594816" lon="7.78462788353267"><ele>261.0</ele><time>2026-05-02T12:49:06Z</time></trkpt><trkpt lat="44.75783471065363" lon="7.784645722990086"><ele>261.3333333333333</ele><time>2026-05-02T12:49:07Z</time></trkpt><trkpt lat="44.7579708391921" lon="7.78472860958696"><ele>261.66666666666663</ele><time>2026-05-02T12:49:08Z</time></trkpt><trkpt lat="44.7580784414797" lon="7.784878975306265"><ele>262.0</ele><time>2026-05-02T12:49:09Z</time></trkpt><trkpt lat="44.75817895069499" lon="7.785074226166733"><ele>261.66666666666663</ele><time>2026-05-02T12:49:10Z</time></trkpt><trkpt lat="44.75827360673099" lon="7.785282267011858"><ele>261.3333333333333</ele><time>2026-05-02T12:49:11Z</time></trkpt><trkpt lat="44.75836590233294" lon="7.7854974202520575"><ele>261.0</ele><time>2026-05-02T12:49:12Z</time></trkpt><trkpt lat="44.7584592559532" lon="7.785721705051093"><ele>261.0</ele><time>2026-05-02T12:49:13Z</time></trkpt><trkpt lat="44.75855371596868" lon="7.785960540949552"><ele>261.0</ele><time>2026-05-02T12:49:14Z</time></trkpt><trkpt lat="44.75865521111792" lon="7.78620539213369"><ele>261.0</ele><time>2026-05-02T12:49:15Z</time></trkpt><trkpt lat="44.758763191434404" lon="7.786461316995876"><ele>261.0</ele><time>2026-05-02T12:49:16Z</time></trkpt><trkpt lat="44.75887465008593" lon="7.786726160252405"><ele>261.0</ele><time>2026-05-02T12:49:17Z</time></trkpt><trkpt lat="44.75898401343075" lon="7.786989209752665"><ele>261.0</ele><time>2026-05-02T12:49:18Z</time></trkpt><trkpt lat="44.759091599846556" lon="7.787242386176337"><ele>261.0</ele><time>2026-05-02T12:49:19Z</time></trkpt><trkpt lat="44.75918781961478" lon="7.787469352130424"><ele>261.0</ele><time>2026-05-02T12:49:20Z</time></trkpt><trkpt lat="44.759283720454185" lon="7.787698122316537"><ele>261.0</ele><time>2026-05-02T12:49:21Z</time></trkpt><trkpt lat="44.75938479277189" lon="7.787937926306686"><ele>261.6666666666667</ele><time>2026-05-02T12:49:22Z</time></trkpt><trkpt lat="44.75948706025818" lon="7.788188562345024"><ele>262.33333333333337</ele><time>2026-05-02T12:49:23Z</time></trkpt><trkpt lat="44.759585874242724" lon="7.788416958767579"><ele>263.0</ele><time>2026-05-02T12:49:24Z</time></trkpt><trkpt lat="44.75967376758231" lon="7.788630334623638"><ele>263.0</ele><time>2026-05-02T12:49:25Z</time></trkpt><trkpt lat="44.759757506078195" lon="7.788829959985796"><ele>263.0</ele><time>2026-05-02T12:49:26Z</time></trkpt><trkpt lat="44.75983725661331" lon="7.789015951931871"><ele>263.0</ele><time>2026-05-02T12:49:27Z</time></trkpt><trkpt lat="44.75991219736924" lon="7.789193644522143"><ele>263.25</ele><time>2026-05-02T12:49:28Z</time></trkpt><trkpt lat="44.75998041424019" lon="7.789361448252898"><ele>263.5</ele><time>2026-05-02T12:49:29Z</time></trkpt><trkpt lat="44.760043639286884" lon="7.789518686980848"><ele>263.75</ele><time>2026-05-02T12:49:30Z</time></trkpt><trkpt lat="44.760103224935364" lon="7.789660694238642"><ele>264.0</ele><time>2026-05-02T12:49:31Z</time></trkpt><trkpt lat="44.760155434293964" lon="7.7897951367775935"><ele>264.0</ele><time>2026-05-02T12:49:32Z</time></trkpt><trkpt lat="44.76018347340998" lon="7.789934649915708"><ele>264.0</ele><time>2026-05-02T12:49:33Z</time></trkpt><trkpt lat="44.760174655177366" lon="7.79009140855352"><ele>264.0</ele><time>2026-05-02T12:49:34Z</time></trkpt><trkpt lat="44.76014412766248" lon="7.790268201283277"><ele>264.0</ele><time>2026-05-02T12:49:35Z</time></trkpt><trkpt lat="44.76009584023999" lon="7.7904468266712845"><ele>265.6666666666667</ele><time>2026-05-02T12:49:36Z</time></trkpt><trkpt lat="44.76000304295752" lon="7.790619558960271"><ele>267.33333333333337</ele><time>2026-05-02T12:49:37Z</time></trkpt><trkpt lat="44.75987996634139" lon="7.790791712583915"><ele>269.0</ele><time>2026-05-02T12:49:38Z</time></trkpt><trkpt lat="44.75972703467806" lon="7.79096342573079"><ele>269.33333333333337</ele><time>2026-05-02T12:49:39Z</time></trkpt><trkpt lat="44.75955955035267" lon="7.791117849464277"><ele>269.6666666666667</ele><time>2026-05-02T12:49:40Z</time></trkpt><trkpt lat="44.759373825486286" lon="7.791270135998295"><ele>270.0</ele><time>2026-05-02T12:49:41Z</time></trkpt><trkpt lat="44.75917635360112" lon="7.7914283716514"><ele>270.0</ele><time>2026-05-02T12:49:42Z</time></trkpt><trkpt lat="44.75897751267421" lon="7.791585766312739"><ele>270.0</ele><time>2026-05-02T12:49:43Z</time></trkpt><trkpt lat="44.75877145480811" lon="7.791757743015414"><ele>272.0</ele><time>2026-05-02T12:49:44Z</time></trkpt><trkpt lat="44.758558770562935" lon="7.791927622795759"><ele>274.0</ele><time>2026-05-02T12:49:45Z</time></trkpt><trkpt lat="44.758345304552854" lon="7.792095894594029"><ele>274.0</ele><time>2026-05-02T12:49:46Z</time></trkpt><trkpt lat="44.758141353395885" lon="7.7922626409445614"><ele>274.0</ele><time>2026-05-02T12:49:47Z</time></trkpt><trkpt lat="44.75794562983612" lon="7.792426484721354"><ele>274.0</ele><time>2026-05-02T12:49:48Z</time></trkpt><trkpt lat="44.7577624085361" lon="7.7925975091608555"><ele>274.0</ele><time>2026-05-02T12:49:49Z</time></trkpt><trkpt lat="44.757597737303655" lon="7.792777369057021"><ele>274.0</ele><time>2026-05-02T12:49:50Z</time></trkpt><trkpt lat="44.75745226450531" lon="7.792967402395587"><ele>272.66666666666663</ele><time>2026-05-02T12:49:51Z</time></trkpt><trkpt lat="44.75732453201632" lon="7.793152224955047"><ele>271.3333333333333</ele><time>2026-05-02T12:49:52Z</time></trkpt><trkpt lat="44.75720982789982" lon="7.7933192112154135"><ele>270.0</ele><time>2026-05-02T12:49:53Z</time></trkpt><trkpt lat="44.757099099541534" lon="7.793478238288373"><ele>269.75</ele><time>2026-05-02T12:49:54Z</time></trkpt><trkpt lat="44.75700014402165" lon="7.793629644227951"><ele>269.5</ele><time>2026-05-02T12:49:55Z</time></trkpt><trkpt lat="44.75690680824179" lon="7.793780794199277"><ele>269.25</ele><time>2026-05-02T12:49:56Z</time></trkpt><trkpt lat="44.75679022184747" lon="7.793928746610937"><ele>269.0</ele><time>2026-05-02T12:49:57Z</time></trkpt><trkpt lat="44.756697661886136" lon="7.794067015987645"><ele>269.0</ele><time>2026-05-02T12:49:58Z</time></trkpt><trkpt lat="44.75661208516652" lon="7.794196376901713"><ele>269.0</ele><time>2026-05-02T12:49:59Z</time></trkpt><trkpt lat="44.75652592170137" lon="7.7943244161551535"><ele>269.0</ele><time>2026-05-02T12:50:00Z</time></trkpt><trkpt lat="44.75643651735547" lon="7.794452569253077"><ele>269.0</ele><time>2026-05-02T12:50:01Z</time></trkpt><trkpt lat="44.75635032688341" lon="7.79458342256896"><ele>268.75</ele><time>2026-05-02T12:50:02Z</time></trkpt><trkpt lat="44.756265023178045" lon="7.794715579640947"><ele>268.5</ele><time>2026-05-02T12:50:03Z</time></trkpt><trkpt lat="44.75617678782094" lon="7.7948486664709815"><ele>268.25</ele><time>2026-05-02T12:50:04Z</time></trkpt><trkpt lat="44.75608850315036" lon="7.794977549569342"><ele>268.0</ele><time>2026-05-02T12:50:05Z</time></trkpt><trkpt lat="44.75600596195201" lon="7.795109396462882"><ele>268.5</ele><time>2026-05-02T12:50:06Z</time></trkpt><trkpt lat="44.75591962557764" lon="7.7952352374313865"><ele>269.0</ele><time>2026-05-02T12:50:07Z</time></trkpt><trkpt lat="44.755836551244364" lon="7.795362473049211"><ele>269.5</ele><time>2026-05-02T12:50:08Z</time></trkpt><trkpt lat="44.755759700977684" lon="7.795482710124767"><ele>270.0</ele><time>2026-05-02T12:50:09Z</time></trkpt><trkpt lat="44.75568763209833" lon="7.795589761559858"><ele>270.0</ele><time>2026-05-02T12:50:10Z</time></trkpt><trkpt lat="44.75562862865569" lon="7.7956767875214075"><ele>270.0</ele><time>2026-05-02T12:50:11Z</time></trkpt><trkpt lat="44.75557664555339" lon="7.795743630033442"><ele>270.0</ele><time>2026-05-02T12:50:12Z</time></trkpt><trkpt lat="44.75547869000933" lon="7.795864779224548"><ele>270.0</ele><time>2026-05-02T12:50:14Z</time></trkpt><trkpt lat="44.75540598991925" lon="7.795900210489932"><ele>270.0</ele><time>2026-05-02T12:50:15Z</time></trkpt><trkpt lat="44.7553333566898" lon="7.795956242073668"><ele>270.0</ele><time>2026-05-02T12:50:16Z</time></trkpt><trkpt lat="44.75528094987325" lon="7.796091333144845"><ele>270.0</ele><time>2026-05-02T12:50:17Z</time></trkpt><trkpt lat="44.755245573603254" lon="7.7962483394468105"><ele>270.0</ele><time>2026-05-02T12:50:18Z</time></trkpt><trkpt lat="44.75515031919547" lon="7.796365829642404"><ele>270.0</ele><time>2026-05-02T12:50:19Z</time></trkpt><trkpt lat="44.75505741561826" lon="7.7965036987241"><ele>270.0</ele><time>2026-05-02T12:50:20Z</time></trkpt><trkpt lat="44.754953747896195" lon="7.796657541815311"><ele>270.0</ele><time>2026-05-02T12:50:21Z</time></trkpt><trkpt lat="44.75484010791104" lon="7.7968269572580375"><ele>270.0</ele><time>2026-05-02T12:50:22Z</time></trkpt><trkpt lat="44.754719439416085" lon="7.797007440012156"><ele>270.0</ele><time>2026-05-02T12:50:23Z</time></trkpt><trkpt lat="44.75460107540657" lon="7.797207441278951"><ele>270.0</ele><time>2026-05-02T12:50:24Z</time></trkpt><trkpt lat="44.75446783633057" lon="7.797385496075196"><ele>270.0</ele><time>2026-05-02T12:50:25Z</time></trkpt><trkpt lat="44.75434111959657" lon="7.797578206869575"><ele>270.0</ele><time>2026-05-02T12:50:26Z</time></trkpt><trkpt lat="44.754214601388384" lon="7.797774390839148"><ele>270.0</ele><time>2026-05-02T12:50:27Z</time></trkpt><trkpt lat="44.75408350002423" lon="7.797967269351286"><ele>270.0</ele><time>2026-05-02T12:50:28Z</time></trkpt><trkpt lat="44.75394994959605" lon="7.7981590343088385"><ele>270.0</ele><time>2026-05-02T12:50:29Z</time></trkpt><trkpt lat="44.75381521249477" lon="7.798359478174118"><ele>270.3333333333333</ele><time>2026-05-02T12:50:30Z</time></trkpt><trkpt lat="44.75367732720016" lon="7.798562080436428"><ele>270.66666666666663</ele><time>2026-05-02T12:50:31Z</time></trkpt><trkpt lat="44.75353749205968" lon="7.798762129995135"><ele>271.0</ele><time>2026-05-02T12:50:32Z</time></trkpt><trkpt lat="44.75339462361165" lon="7.798958963704554"><ele>271.0</ele><time>2026-05-02T12:50:33Z</time></trkpt><trkpt lat="44.7532449570849" lon="7.799144255446051"><ele>271.0</ele><time>2026-05-02T12:50:34Z</time></trkpt><trkpt lat="44.75308849674568" lon="7.799318085089132"><ele>271.0</ele><time>2026-05-02T12:50:35Z</time></trkpt><trkpt lat="44.75292756897248" lon="7.799480134140097"><ele>270.66666666666663</ele><time>2026-05-02T12:50:36Z</time></trkpt><trkpt lat="44.752760748055046" lon="7.79963073679392"><ele>270.3333333333333</ele><time>2026-05-02T12:50:37Z</time></trkpt><trkpt lat="44.75258724886715" lon="7.799763641939789"><ele>270.0</ele><time>2026-05-02T12:50:38Z</time></trkpt><trkpt lat="44.75241561863795" lon="7.799874147551494"><ele>270.6666666666667</ele><time>2026-05-02T12:50:39Z</time></trkpt><trkpt lat="44.75226057292993" lon="7.799953652758743"><ele>271.33333333333337</ele><time>2026-05-02T12:50:40Z</time></trkpt><trkpt lat="44.75211494600347" lon="7.800018257046492"><ele>272.0</ele><time>2026-05-02T12:50:41Z</time></trkpt><trkpt lat="44.75198797732178" lon="7.800077117047025"><ele>272.0</ele><time>2026-05-02T12:50:42Z</time></trkpt><trkpt lat="44.75187425725224" lon="7.8001257532162445"><ele>272.0</ele><time>2026-05-02T12:50:43Z</time></trkpt><trkpt lat="44.75177048906622" lon="7.800171929532367"><ele>272.0</ele><time>2026-05-02T12:50:44Z</time></trkpt><trkpt lat="44.751677742616465" lon="7.800215284769878"><ele>272.0</ele><time>2026-05-02T12:50:45Z</time></trkpt><trkpt lat="44.75159687046311" lon="7.80024945670677"><ele>272.0</ele><time>2026-05-02T12:50:46Z</time></trkpt><trkpt lat="44.75152785725944" lon="7.800285143456486"><ele>272.2</ele><time>2026-05-02T12:50:47Z</time></trkpt><trkpt lat="44.751426469499926" lon="7.800326289025552"><ele>272.4</ele><time>2026-05-02T12:50:49Z</time></trkpt><trkpt lat="44.75133373896985" lon="7.800369009229826"><ele>272.6</ele><time>2026-05-02T12:51:10Z</time></trkpt><trkpt lat="44.75126889847854" lon="7.800403437819573"><ele>272.8</ele><time>2026-05-02T12:51:11Z</time></trkpt><trkpt lat="44.7511815652278" lon="7.800441217674951"><ele>273.0</ele><time>2026-05-02T12:51:12Z</time></trkpt><trkpt lat="44.75108078146777" lon="7.800487461108056"><ele>272.75</ele><time>2026-05-02T12:51:13Z</time></trkpt><trkpt lat="44.75097429979257" lon="7.800545016773681"><ele>272.5</ele><time>2026-05-02T12:51:14Z</time></trkpt><trkpt lat="44.750857288988335" lon="7.8006287801410785"><ele>272.25</ele><time>2026-05-02T12:51:15Z</time></trkpt><trkpt lat="44.75073047648966" lon="7.800724116935908"><ele>272.0</ele><time>2026-05-02T12:51:16Z</time></trkpt><trkpt lat="44.75060700154038" lon="7.8008357724483215"><ele>272.0</ele><time>2026-05-02T12:51:17Z</time></trkpt><trkpt lat="44.75048369365595" lon="7.800964920242487"><ele>272.0</ele><time>2026-05-02T12:51:18Z</time></trkpt><trkpt lat="44.75036019192682" lon="7.801111672580521"><ele>272.0</ele><time>2026-05-02T12:51:19Z</time></trkpt><trkpt lat="44.750246878593295" lon="7.801266403128596"><ele>271.6666666666667</ele><time>2026-05-02T12:51:20Z</time></trkpt><trkpt lat="44.75013967087402" lon="7.801433921340286"><ele>271.3333333333333</ele><time>2026-05-02T12:51:21Z</time></trkpt><trkpt lat="44.750028793371676" lon="7.8016023657288756"><ele>271.0</ele><time>2026-05-02T12:51:22Z</time></trkpt><trkpt lat="44.749920783496194" lon="7.801777963551745"><ele>271.66666666666663</ele><time>2026-05-02T12:51:23Z</time></trkpt><trkpt lat="44.749810831245654" lon="7.80195618975393"><ele>272.3333333333333</ele><time>2026-05-02T12:51:24Z</time></trkpt><trkpt lat="44.749698857755966" lon="7.8021359424712475"><ele>273.0</ele><time>2026-05-02T12:51:25Z</time></trkpt><trkpt lat="44.74958511009684" lon="7.802317110339631"><ele>273.0</ele><time>2026-05-02T12:51:26Z</time></trkpt><trkpt lat="44.74946895882869" lon="7.802499536840202"><ele>273.0</ele><time>2026-05-02T12:51:27Z</time></trkpt><trkpt lat="44.749354830815626" lon="7.802681280702051"><ele>273.0</ele><time>2026-05-02T12:51:28Z</time></trkpt><trkpt lat="44.74923827288671" lon="7.802871283280562"><ele>273.0</ele><time>2026-05-02T12:51:29Z</time></trkpt><trkpt lat="44.74912225074299" lon="7.803057807439109"><ele>273.0</ele><time>2026-05-02T12:51:30Z</time></trkpt><trkpt lat="44.749006166559646" lon="7.803241126915038"><ele>273.0</ele><time>2026-05-02T12:51:31Z</time></trkpt><trkpt lat="44.74888827214904" lon="7.803423913618155"><ele>273.3333333333333</ele><time>2026-05-02T12:51:32Z</time></trkpt><trkpt lat="44.74877166774852" lon="7.803608286019183"><ele>273.66666666666663</ele><time>2026-05-02T12:51:33Z</time></trkpt><trkpt lat="44.748654440101646" lon="7.803793945724054"><ele>274.0</ele><time>2026-05-02T12:51:34Z</time></trkpt><trkpt lat="44.74853578793188" lon="7.803980092914173"><ele>274.0</ele><time>2026-05-02T12:51:35Z</time></trkpt><trkpt lat="44.748416066156295" lon="7.8041656853283605"><ele>274.0</ele><time>2026-05-02T12:51:36Z</time></trkpt><trkpt lat="44.74829507983941" lon="7.80436016785322"><ele>274.0</ele><time>2026-05-02T12:51:37Z</time></trkpt><trkpt lat="44.748175022202226" lon="7.804554041781341"><ele>274.3333333333333</ele><time>2026-05-02T12:51:38Z</time></trkpt><trkpt lat="44.74805507442592" lon="7.804747236405116"><ele>274.6666666666667</ele><time>2026-05-02T12:51:39Z</time></trkpt><trkpt lat="44.74792850104328" lon="7.804942217434495"><ele>275.0</ele><time>2026-05-02T12:51:40Z</time></trkpt><trkpt lat="44.747804276418904" lon="7.805138123333807"><ele>275.0</ele><time>2026-05-02T12:51:41Z</time></trkpt><trkpt lat="44.74767515092591" lon="7.805335839808224"><ele>275.0</ele><time>2026-05-02T12:51:42Z</time></trkpt><trkpt lat="44.747547922678024" lon="7.805533699743526"><ele>275.0</ele><time>2026-05-02T12:51:43Z</time></trkpt><trkpt lat="44.7474173127089" lon="7.805727774232376"><ele>275.0</ele><time>2026-05-02T12:51:44Z</time></trkpt><trkpt lat="44.74728672360483" lon="7.805922734916636"><ele>275.0</ele><time>2026-05-02T12:51:45Z</time></trkpt><trkpt lat="44.74715178740291" lon="7.80610740433333"><ele>275.0</ele><time>2026-05-02T12:51:46Z</time></trkpt><trkpt lat="44.74700977903711" lon="7.806286621491436"><ele>274.6666666666667</ele><time>2026-05-02T12:51:47Z</time></trkpt><trkpt lat="44.746865634045946" lon="7.80645311037714"><ele>274.3333333333333</ele><time>2026-05-02T12:51:48Z</time></trkpt><trkpt lat="44.746727036065366" lon="7.806604233434945"><ele>274.0</ele><time>2026-05-02T12:51:49Z</time></trkpt><trkpt lat="44.746592862288985" lon="7.8067353601656215"><ele>274.25</ele><time>2026-05-02T12:51:50Z</time></trkpt><trkpt lat="44.74647051867465" lon="7.8068624875287504"><ele>274.5</ele><time>2026-05-02T12:51:51Z</time></trkpt><trkpt lat="44.74635187332579" lon="7.806979166916168"><ele>274.75</ele><time>2026-05-02T12:51:52Z</time></trkpt><trkpt lat="44.74623703937171" lon="7.807082221828598"><ele>275.0</ele><time>2026-05-02T12:51:53Z</time></trkpt><trkpt lat="44.74612529294894" lon="7.807178369033809"><ele>275.25</ele><time>2026-05-02T12:51:54Z</time></trkpt><trkpt lat="44.746011786537736" lon="7.807277310061841"><ele>275.5</ele><time>2026-05-02T12:51:55Z</time></trkpt><trkpt lat="44.74590493826274" lon="7.807387390199186"><ele>275.75</ele><time>2026-05-02T12:51:56Z</time></trkpt><trkpt lat="44.745804132719705" lon="7.807516855644083"><ele>276.0</ele><time>2026-05-02T12:51:57Z</time></trkpt><trkpt lat="44.74570119997895" lon="7.807654013598747"><ele>276.0</ele><time>2026-05-02T12:51:58Z</time></trkpt><trkpt lat="44.74555946698624" lon="7.807746104009639"><ele>276.0</ele><time>2026-05-02T12:51:59Z</time></trkpt><trkpt lat="44.74538694150577" lon="7.807798602184542"><ele>276.0</ele><time>2026-05-02T12:52:00Z</time></trkpt><trkpt lat="44.74520641206732" lon="7.807848221952276"><ele>276.0</ele><time>2026-05-02T12:52:01Z</time></trkpt><trkpt lat="44.74501851135148" lon="7.8079144044556745"><ele>276.0</ele><time>2026-05-02T12:52:02Z</time></trkpt><trkpt lat="44.74481791172091" lon="7.807984174661167"><ele>276.0</ele><time>2026-05-02T12:52:03Z</time></trkpt><trkpt lat="44.744613579001076" lon="7.808057817061032"><ele>276.0</ele><time>2026-05-02T12:52:04Z</time></trkpt><trkpt lat="44.74439964360335" lon="7.80813953281771"><ele>276.0</ele><time>2026-05-02T12:52:05Z</time></trkpt><trkpt lat="44.74417993766207" lon="7.808216482991388"><ele>276.0</ele><time>2026-05-02T12:52:06Z</time></trkpt><trkpt lat="44.74395365652775" lon="7.808287367766343"><ele>276.5</ele><time>2026-05-02T12:52:07Z</time></trkpt><trkpt lat="44.74372883924847" lon="7.808367470852255"><ele>277.0</ele><time>2026-05-02T12:52:08Z</time></trkpt><trkpt lat="44.74350327491709" lon="7.808447068561612"><ele>278.0</ele><time>2026-05-02T12:52:09Z</time></trkpt><trkpt lat="44.7432756544886" lon="7.808528749540463"><ele>279.0</ele><time>2026-05-02T12:52:10Z</time></trkpt><trkpt lat="44.74304300082804" lon="7.808585482493603"><ele>279.0</ele><time>2026-05-02T12:52:11Z</time></trkpt><trkpt lat="44.74282079567393" lon="7.80868358059992"><ele>279.0</ele><time>2026-05-02T12:52:12Z</time></trkpt><trkpt lat="44.74260127145575" lon="7.808752195821166"><ele>278.6666666666667</ele><time>2026-05-02T12:52:13Z</time></trkpt><trkpt lat="44.74238278308424" lon="7.8088281379231965"><ele>278.33333333333337</ele><time>2026-05-02T12:52:14Z</time></trkpt><trkpt lat="44.74216811058734" lon="7.808903012453939"><ele>278.0</ele><time>2026-05-02T12:52:15Z</time></trkpt><trkpt lat="44.741959990941645" lon="7.808971164902925"><ele>277.6666666666667</ele><time>2026-05-02T12:52:16Z</time></trkpt><trkpt lat="44.74175914237412" lon="7.809037982137446"><ele>277.3333333333333</ele><time>2026-05-02T12:52:17Z</time></trkpt><trkpt lat="44.741562264142466" lon="7.80910618383816"><ele>277.0</ele><time>2026-05-02T12:52:18Z</time></trkpt><trkpt lat="44.74136657479918" lon="7.80917080327361"><ele>277.0</ele><time>2026-05-02T12:52:19Z</time></trkpt><trkpt lat="44.7411743208544" lon="7.80923483491405"><ele>277.0</ele><time>2026-05-02T12:52:20Z</time></trkpt><trkpt lat="44.74097929897916" lon="7.809300528163704"><ele>277.0</ele><time>2026-05-02T12:52:21Z</time></trkpt><trkpt lat="44.740781068921514" lon="7.809343407728349"><ele>276.66666666666663</ele><time>2026-05-02T12:52:22Z</time></trkpt><trkpt lat="44.740588670623154" lon="7.809429309087968"><ele>276.3333333333333</ele><time>2026-05-02T12:52:23Z</time></trkpt><trkpt lat="44.74038149819336" lon="7.809480235320761"><ele>276.0</ele><time>2026-05-02T12:52:24Z</time></trkpt><trkpt lat="44.74016325639952" lon="7.809554969265782"><ele>276.0</ele><time>2026-05-02T12:52:25Z</time></trkpt><trkpt lat="44.73993404412964" lon="7.809633360507651"><ele>276.0</ele><time>2026-05-02T12:52:26Z</time></trkpt><trkpt lat="44.739699540030145" lon="7.809713402909821"><ele>276.0</ele><time>2026-05-02T12:52:27Z</time></trkpt><trkpt lat="44.739455740568054" lon="7.809795644499252"><ele>276.0</ele><time>2026-05-02T12:52:28Z</time></trkpt><trkpt lat="44.73921511305749" lon="7.809899629229287"><ele>274.5</ele><time>2026-05-02T12:52:29Z</time></trkpt><trkpt lat="44.738976697859144" lon="7.809977080977171"><ele>273.0</ele><time>2026-05-02T12:52:30Z</time></trkpt><trkpt lat="44.738742638097314" lon="7.810051069148988"><ele>272.5</ele><time>2026-05-02T12:52:31Z</time></trkpt><trkpt lat="44.738503607157924" lon="7.81013288581186"><ele>272.0</ele><time>2026-05-02T12:52:32Z</time></trkpt><trkpt lat="44.738263938071434" lon="7.810215708663745"><ele>273.0</ele><time>2026-05-02T12:52:33Z</time></trkpt><trkpt lat="44.738021560700396" lon="7.810296269129941"><ele>274.0</ele><time>2026-05-02T12:52:34Z</time></trkpt><trkpt lat="44.737780998286816" lon="7.810375692083479"><ele>273.0</ele><time>2026-05-02T12:52:35Z</time></trkpt><trkpt lat="44.73754579075133" lon="7.810453775230301"><ele>272.0</ele><time>2026-05-02T12:52:36Z</time></trkpt><trkpt lat="44.73731746163292" lon="7.810530309011189"><ele>272.0</ele><time>2026-05-02T12:52:37Z</time></trkpt><trkpt lat="44.73708371051778" lon="7.810609759455469"><ele>272.0</ele><time>2026-05-02T12:52:38Z</time></trkpt><trkpt lat="44.73684701781614" lon="7.810688821977441"><ele>271.5</ele><time>2026-05-02T12:52:39Z</time></trkpt><trkpt lat="44.73660825725304" lon="7.810770158678719"><ele>271.0</ele><time>2026-05-02T12:52:40Z</time></trkpt><trkpt lat="44.73636663545548" lon="7.810852461535027"><ele>271.0</ele><time>2026-05-02T12:52:41Z</time></trkpt><trkpt lat="44.73612456538483" lon="7.810936631912984"><ele>271.0</ele><time>2026-05-02T12:52:42Z</time></trkpt><trkpt lat="44.73588130683336" lon="7.811025162289913"><ele>270.5</ele><time>2026-05-02T12:52:43Z</time></trkpt><trkpt lat="44.73564114962722" lon="7.811116461263849"><ele>270.0</ele><time>2026-05-02T12:52:44Z</time></trkpt><trkpt lat="44.73541231193443" lon="7.811204800946541"><ele>270.5</ele><time>2026-05-02T12:52:45Z</time></trkpt><trkpt lat="44.73519234779124" lon="7.811295141126475"><ele>271.0</ele><time>2026-05-02T12:52:46Z</time></trkpt><trkpt lat="44.73497359159953" lon="7.811383216602423"><ele>271.0</ele><time>2026-05-02T12:52:47Z</time></trkpt><trkpt lat="44.734757290990096" lon="7.811470540412005"><ele>271.0</ele><time>2026-05-02T12:52:48Z</time></trkpt><trkpt lat="44.734546472112534" lon="7.811555984055196"><ele>271.0</ele><time>2026-05-02T12:52:49Z</time></trkpt><trkpt lat="44.73434972615192" lon="7.811632609951202"><ele>270.66666666666663</ele><time>2026-05-02T12:52:50Z</time></trkpt><trkpt lat="44.73416260573759" lon="7.8117065576121965"><ele>270.3333333333333</ele><time>2026-05-02T12:52:51Z</time></trkpt><trkpt lat="44.733979408285194" lon="7.811777417016722"><ele>270.0</ele><time>2026-05-02T12:52:52Z</time></trkpt><trkpt lat="44.733798956910086" lon="7.811849471054433"><ele>271.0</ele><time>2026-05-02T12:52:53Z</time></trkpt><trkpt lat="44.73361439297684" lon="7.811925056604664"><ele>272.0</ele><time>2026-05-02T12:52:54Z</time></trkpt><trkpt lat="44.73343111290236" lon="7.811998501915644"><ele>273.0</ele><time>2026-05-02T12:52:55Z</time></trkpt><trkpt lat="44.73324630429141" lon="7.8120709782000946"><ele>273.3333333333333</ele><time>2026-05-02T12:52:56Z</time></trkpt><trkpt lat="44.73306363773549" lon="7.812143321945731"><ele>273.66666666666663</ele><time>2026-05-02T12:52:57Z</time></trkpt><trkpt lat="44.73288102227068" lon="7.812214999397855"><ele>274.0</ele><time>2026-05-02T12:52:58Z</time></trkpt><trkpt lat="44.732704730655676" lon="7.812284473497275"><ele>272.66666666666663</ele><time>2026-05-02T12:52:59Z</time></trkpt><trkpt lat="44.73253374640974" lon="7.812355398713172"><ele>271.3333333333333</ele><time>2026-05-02T12:53:00Z</time></trkpt><trkpt lat="44.73236770507397" lon="7.812424542384827"><ele>270.0</ele><time>2026-05-02T12:53:01Z</time></trkpt><trkpt lat="44.73220699545374" lon="7.812490391924383"><ele>270.0</ele><time>2026-05-02T12:53:02Z</time></trkpt><trkpt lat="44.73204728515522" lon="7.812553524681765"><ele>270.0</ele><time>2026-05-02T12:53:03Z</time></trkpt><trkpt lat="44.731890418816235" lon="7.812612697793296"><ele>270.0</ele><time>2026-05-02T12:53:04Z</time></trkpt><trkpt lat="44.73173376498946" lon="7.812675354159019"><ele>270.0</ele><time>2026-05-02T12:53:05Z</time></trkpt><trkpt lat="44.73157693226256" lon="7.812743844156739"><ele>270.0</ele><time>2026-05-02T12:53:06Z</time></trkpt><trkpt lat="44.73142133187305" lon="7.812821236839813"><ele>270.0</ele><time>2026-05-02T12:53:07Z</time></trkpt><trkpt lat="44.731262271455805" lon="7.8128871714342285"><ele>270.0</ele><time>2026-05-02T12:53:08Z</time></trkpt><trkpt lat="44.73111105574473" lon="7.81296108703391"><ele>270.0</ele><time>2026-05-02T12:53:09Z</time></trkpt><trkpt lat="44.730974427349594" lon="7.813027878165348"><ele>270.0</ele><time>2026-05-02T12:53:10Z</time></trkpt><trkpt lat="44.73090259117462" lon="7.8132864650884235"><ele>269.75</ele><time>2026-05-02T12:53:11Z</time></trkpt><trkpt lat="44.730809236102004" lon="7.813394352133886"><ele>269.5</ele><time>2026-05-02T12:53:12Z</time></trkpt><trkpt lat="44.730713484839654" lon="7.813488048295371"><ele>269.25</ele><time>2026-05-02T12:53:13Z</time></trkpt><trkpt lat="44.730613229415454" lon="7.813551881222919"><ele>269.0</ele><time>2026-05-02T12:53:14Z</time></trkpt><trkpt lat="44.7305100457348" lon="7.813570560331769"><ele>269.0</ele><time>2026-05-02T12:53:15Z</time></trkpt><trkpt lat="44.73041972070319" lon="7.813594906330386"><ele>269.0</ele><time>2026-05-02T12:53:16Z</time></trkpt><trkpt lat="44.73034342691055" lon="7.813687393315033"><ele>269.0</ele><time>2026-05-02T12:53:17Z</time></trkpt><trkpt lat="44.73029750323386" lon="7.813823537058085"><ele>269.0</ele><time>2026-05-02T12:53:18Z</time></trkpt><trkpt lat="44.73026366555886" lon="7.8139605507274865"><ele>269.0</ele><time>2026-05-02T12:53:19Z</time></trkpt><trkpt lat="44.73020604566087" lon="7.814073341685748"><ele>268.8</ele><time>2026-05-02T12:53:20Z</time></trkpt><trkpt lat="44.73012288771891" lon="7.814162218742867"><ele>268.59999999999997</ele><time>2026-05-02T12:53:21Z</time></trkpt><trkpt lat="44.730023689812946" lon="7.814237370538706"><ele>268.4</ele><time>2026-05-02T12:53:22Z</time></trkpt><trkpt lat="44.72991604449846" lon="7.814291557891233"><ele>268.2</ele><time>2026-05-02T12:53:23Z</time></trkpt><trkpt lat="44.729805431055624" lon="7.814343863075557"><ele>268.0</ele><time>2026-05-02T12:53:24Z</time></trkpt><trkpt lat="44.7296930573236" lon="7.81440967450165"><ele>268.0</ele><time>2026-05-02T12:53:25Z</time></trkpt><trkpt lat="44.72957997282785" lon="7.8144884062755064"><ele>268.0</ele><time>2026-05-02T12:53:26Z</time></trkpt><trkpt lat="44.729463737065046" lon="7.814586144092971"><ele>268.0</ele><time>2026-05-02T12:53:27Z</time></trkpt><trkpt lat="44.72934949096419" lon="7.814696856489745"><ele>268.0</ele><time>2026-05-02T12:53:28Z</time></trkpt><trkpt lat="44.729235921506806" lon="7.814840159468326"><ele>268.3333333333333</ele><time>2026-05-02T12:53:29Z</time></trkpt><trkpt lat="44.72912353172073" lon="7.8149908056736175"><ele>268.6666666666667</ele><time>2026-05-02T12:53:30Z</time></trkpt><trkpt lat="44.72902574391401" lon="7.815122826095987"><ele>269.0</ele><time>2026-05-02T12:53:31Z</time></trkpt><trkpt lat="44.7289314864154" lon="7.81530828070716"><ele>269.33333333333337</ele><time>2026-05-02T12:53:32Z</time></trkpt><trkpt lat="44.728833826843776" lon="7.81548932174793"><ele>269.6666666666667</ele><time>2026-05-02T12:53:33Z</time></trkpt><trkpt lat="44.728729057539276" lon="7.815659922606439"><ele>270.0</ele><time>2026-05-02T12:53:34Z</time></trkpt><trkpt lat="44.72862405263896" lon="7.815822726125902"><ele>271.0</ele><time>2026-05-02T12:53:35Z</time></trkpt><trkpt lat="44.728528534938704" lon="7.815989041202145"><ele>272.0</ele><time>2026-05-02T12:53:36Z</time></trkpt><trkpt lat="44.72843780792955" lon="7.816146916995242"><ele>273.0</ele><time>2026-05-02T12:53:37Z</time></trkpt><trkpt lat="44.72834729735311" lon="7.816295614727161"><ele>274.0</ele><time>2026-05-02T12:53:38Z</time></trkpt><trkpt lat="44.728258699202016" lon="7.816447945356308"><ele>274.0</ele><time>2026-05-02T12:53:39Z</time></trkpt><trkpt lat="44.72816282669716" lon="7.8166207728943995"><ele>274.0</ele><time>2026-05-02T12:53:40Z</time></trkpt><trkpt lat="44.72807068946828" lon="7.8167845806467335"><ele>274.0</ele><time>2026-05-02T12:53:41Z</time></trkpt><trkpt lat="44.72797602260576" lon="7.816940256940254"><ele>274.0</ele><time>2026-05-02T12:53:42Z</time></trkpt><trkpt lat="44.72788078575851" lon="7.8170964230571425"><ele>274.0</ele><time>2026-05-02T12:53:43Z</time></trkpt><trkpt lat="44.72778177007166" lon="7.817257728510383"><ele>274.0</ele><time>2026-05-02T12:53:44Z</time></trkpt><trkpt lat="44.7276777051786" lon="7.817422211460078"><ele>274.0</ele><time>2026-05-02T12:53:45Z</time></trkpt><trkpt lat="44.7275755895454" lon="7.817593851592305"><ele>274.0</ele><time>2026-05-02T12:53:46Z</time></trkpt><trkpt lat="44.727472284798004" lon="7.817769257326464"><ele>274.0</ele><time>2026-05-02T12:53:47Z</time></trkpt><trkpt lat="44.72736623044501" lon="7.817950853745481"><ele>274.66666666666663</ele><time>2026-05-02T12:53:48Z</time></trkpt><trkpt lat="44.7272540059494" lon="7.818154647938379"><ele>275.3333333333333</ele><time>2026-05-02T12:53:49Z</time></trkpt><trkpt lat="44.727129352331836" lon="7.818372515506347"><ele>276.0</ele><time>2026-05-02T12:53:50Z</time></trkpt><trkpt lat="44.72699779037041" lon="7.818599870206433"><ele>276.3333333333333</ele><time>2026-05-02T12:53:51Z</time></trkpt><trkpt lat="44.72685944343242" lon="7.818833528100068"><ele>276.66666666666663</ele><time>2026-05-02T12:53:52Z</time></trkpt><trkpt lat="44.72672080678814" lon="7.819071232098868"><ele>277.0</ele><time>2026-05-02T12:53:53Z</time></trkpt><trkpt lat="44.7265918114416" lon="7.819299675763198"><ele>277.66666666666663</ele><time>2026-05-02T12:53:54Z</time></trkpt><trkpt lat="44.72644969326427" lon="7.819547184889344"><ele>278.3333333333333</ele><time>2026-05-02T12:53:55Z</time></trkpt><trkpt lat="44.72631038949585" lon="7.819778277389982"><ele>279.0</ele><time>2026-05-02T12:53:56Z</time></trkpt><trkpt lat="44.72616711534477" lon="7.820008783966151"><ele>279.3333333333333</ele><time>2026-05-02T12:53:57Z</time></trkpt><trkpt lat="44.726025138462255" lon="7.820251740107919"><ele>279.66666666666663</ele><time>2026-05-02T12:53:58Z</time></trkpt><trkpt lat="44.725885022193225" lon="7.820494346026865"><ele>280.0</ele><time>2026-05-02T12:53:59Z</time></trkpt><trkpt lat="44.72574139939422" lon="7.820740694764587"><ele>282.5</ele><time>2026-05-02T12:54:00Z</time></trkpt><trkpt lat="44.72559375952579" lon="7.820991581354853"><ele>285.0</ele><time>2026-05-02T12:54:01Z</time></trkpt><trkpt lat="44.72544773096435" lon="7.821238044038221"><ele>285.0</ele><time>2026-05-02T12:54:02Z</time></trkpt><trkpt lat="44.725300578817226" lon="7.821480598900438"><ele>285.0</ele><time>2026-05-02T12:54:03Z</time></trkpt><trkpt lat="44.72515301184337" lon="7.82172085775496"><ele>284.0</ele><time>2026-05-02T12:54:04Z</time></trkpt><trkpt lat="44.7250055431044" lon="7.8219677059544255"><ele>283.0</ele><time>2026-05-02T12:54:05Z</time></trkpt><trkpt lat="44.72486003085861" lon="7.8222137772606315"><ele>283.0</ele><time>2026-05-02T12:54:06Z</time></trkpt><trkpt lat="44.72472547861733" lon="7.822440670633039"><ele>283.0</ele><time>2026-05-02T12:54:07Z</time></trkpt><trkpt lat="44.72460095291687" lon="7.822650699799639"><ele>283.0</ele><time>2026-05-02T12:54:08Z</time></trkpt><trkpt lat="44.724482502989595" lon="7.822849975144981"><ele>284.3333333333333</ele><time>2026-05-02T12:54:09Z</time></trkpt><trkpt lat="44.7243595540308" lon="7.823054472542677"><ele>285.6666666666667</ele><time>2026-05-02T12:54:10Z</time></trkpt><trkpt lat="44.724225664686806" lon="7.823261922877355"><ele>287.0</ele><time>2026-05-02T12:54:11Z</time></trkpt><trkpt lat="44.724082249189976" lon="7.823468504653642"><ele>289.6666666666667</ele><time>2026-05-02T12:54:12Z</time></trkpt><trkpt lat="44.72393164962418" lon="7.823674427540989"><ele>292.3333333333333</ele><time>2026-05-02T12:54:13Z</time></trkpt><trkpt lat="44.72377531226481" lon="7.8238710327701915"><ele>295.0</ele><time>2026-05-02T12:54:14Z</time></trkpt><trkpt lat="44.723616158263845" lon="7.824057328068987"><ele>296.0</ele><time>2026-05-02T12:54:15Z</time></trkpt><trkpt lat="44.723444083628806" lon="7.824215690165845"><ele>297.0</ele><time>2026-05-02T12:54:16Z</time></trkpt><trkpt lat="44.72328709145871" lon="7.824404400162948"><ele>298.0</ele><time>2026-05-02T12:54:17Z</time></trkpt><trkpt lat="44.72312465910475" lon="7.824564953343541"><ele>298.0</ele><time>2026-05-02T12:54:18Z</time></trkpt><trkpt lat="44.722961281431154" lon="7.8247188587876915"><ele>298.0</ele><time>2026-05-02T12:54:19Z</time></trkpt><trkpt lat="44.72278488387584" lon="7.824844567088556"><ele>298.0</ele><time>2026-05-02T12:54:20Z</time></trkpt><trkpt lat="44.72260501325692" lon="7.824985260093633"><ele>299.0</ele><time>2026-05-02T12:54:21Z</time></trkpt><trkpt lat="44.72241834647465" lon="7.825118799597756"><ele>300.0</ele><time>2026-05-02T12:54:22Z</time></trkpt><trkpt lat="44.72222411908055" lon="7.825248042859804"><ele>301.0</ele><time>2026-05-02T12:54:23Z</time></trkpt><trkpt lat="44.722036343036336" lon="7.825390077810144"><ele>298.3333333333333</ele><time>2026-05-02T12:54:24Z</time></trkpt><trkpt lat="44.72184566594267" lon="7.82549385448962"><ele>295.6666666666667</ele><time>2026-05-02T12:54:25Z</time></trkpt><trkpt lat="44.721661191127076" lon="7.825589518499602"><ele>293.0</ele><time>2026-05-02T12:54:26Z</time></trkpt><trkpt lat="44.721472185165226" lon="7.82565893394854"><ele>293.0</ele><time>2026-05-02T12:54:27Z</time></trkpt><trkpt lat="44.721274791151984" lon="7.825741753162644"><ele>293.0</ele><time>2026-05-02T12:54:28Z</time></trkpt><trkpt lat="44.721081824505774" lon="7.825845721259138"><ele>293.0</ele><time>2026-05-02T12:54:29Z</time></trkpt><trkpt lat="44.7208816937654" lon="7.825926327418203"><ele>292.6666666666667</ele><time>2026-05-02T12:54:30Z</time></trkpt><trkpt lat="44.720675797268534" lon="7.826010879679096"><ele>292.3333333333333</ele><time>2026-05-02T12:54:31Z</time></trkpt><trkpt lat="44.720473336683064" lon="7.8260924371500105"><ele>292.0</ele><time>2026-05-02T12:54:32Z</time></trkpt><trkpt lat="44.72028102378834" lon="7.826172297711258"><ele>290.3333333333333</ele><time>2026-05-02T12:54:33Z</time></trkpt><trkpt lat="44.720096512461694" lon="7.826253304895079"><ele>288.6666666666667</ele><time>2026-05-02T12:54:34Z</time></trkpt><trkpt lat="44.71991614827411" lon="7.8263271167031325"><ele>287.0</ele><time>2026-05-02T12:54:35Z</time></trkpt><trkpt lat="44.71972796261327" lon="7.826405320201752"><ele>287.0</ele><time>2026-05-02T12:54:36Z</time></trkpt><trkpt lat="44.71954666633423" lon="7.826479034881815"><ele>287.0</ele><time>2026-05-02T12:54:37Z</time></trkpt><trkpt lat="44.719357219371396" lon="7.826556885543866"><ele>287.0</ele><time>2026-05-02T12:54:38Z</time></trkpt><trkpt lat="44.71917228143327" lon="7.826635260580905"><ele>286.6666666666667</ele><time>2026-05-02T12:54:39Z</time></trkpt><trkpt lat="44.7189879503479" lon="7.826711692668379"><ele>286.3333333333333</ele><time>2026-05-02T12:54:40Z</time></trkpt><trkpt lat="44.71879929831443" lon="7.826788345965117"><ele>286.0</ele><time>2026-05-02T12:54:41Z</time></trkpt><trkpt lat="44.718611744933504" lon="7.826867501129647"><ele>284.3333333333333</ele><time>2026-05-02T12:54:42Z</time></trkpt><trkpt lat="44.71843366597584" lon="7.8269442865275956"><ele>282.6666666666667</ele><time>2026-05-02T12:54:43Z</time></trkpt><trkpt lat="44.71825825162744" lon="7.827021948571311"><ele>281.0</ele><time>2026-05-02T12:54:44Z</time></trkpt><trkpt lat="44.71808728961496" lon="7.82709810015894"><ele>281.0</ele><time>2026-05-02T12:54:45Z</time></trkpt><trkpt lat="44.71792747346999" lon="7.827176536635306"><ele>281.0</ele><time>2026-05-02T12:54:46Z</time></trkpt><trkpt lat="44.71776516875007" lon="7.827256335160851"><ele>281.0</ele><time>2026-05-02T12:54:47Z</time></trkpt><trkpt lat="44.717605876796696" lon="7.82734170024559"><ele>279.6666666666667</ele><time>2026-05-02T12:54:48Z</time></trkpt><trkpt lat="44.717438422233435" lon="7.827434025854022"><ele>278.3333333333333</ele><time>2026-05-02T12:54:49Z</time></trkpt><trkpt lat="44.71727729772178" lon="7.82752593734994"><ele>277.0</ele><time>2026-05-02T12:54:50Z</time></trkpt><trkpt lat="44.71711648646078" lon="7.827624080152531"><ele>277.0</ele><time>2026-05-02T12:54:51Z</time></trkpt><trkpt lat="44.716954480412284" lon="7.827723758149852"><ele>277.0</ele><time>2026-05-02T12:54:52Z</time></trkpt><trkpt lat="44.71681182501469" lon="7.827826192425462"><ele>277.0</ele><time>2026-05-02T12:54:53Z</time></trkpt><trkpt lat="44.71667283890168" lon="7.827929861890422"><ele>277.0</ele><time>2026-05-02T12:54:54Z</time></trkpt><trkpt lat="44.716546288904894" lon="7.828035348983733"><ele>277.0</ele><time>2026-05-02T12:54:55Z</time></trkpt><trkpt lat="44.71642899553759" lon="7.828137266532923"><ele>277.0</ele><time>2026-05-02T12:54:56Z</time></trkpt><trkpt lat="44.716316097992625" lon="7.828242514802364"><ele>277.0</ele><time>2026-05-02T12:54:57Z</time></trkpt><trkpt lat="44.71621679835658" lon="7.828349222157374"><ele>277.0</ele><time>2026-05-02T12:54:58Z</time></trkpt><trkpt lat="44.71612089275005" lon="7.82844566293556"><ele>277.0</ele><time>2026-05-02T12:54:59Z</time></trkpt><trkpt lat="44.71602341201034" lon="7.82852919434708"><ele>277.0</ele><time>2026-05-02T12:55:00Z</time></trkpt><trkpt lat="44.71593186814453" lon="7.828597336408255"><ele>277.0</ele><time>2026-05-02T12:55:01Z</time></trkpt><trkpt lat="44.71584139794976" lon="7.828646148400722"><ele>277.0</ele><time>2026-05-02T12:55:02Z</time></trkpt><trkpt lat="44.715749366912405" lon="7.828665201758937"><ele>276.8</ele><time>2026-05-02T12:55:03Z</time></trkpt><trkpt lat="44.71565828114443" lon="7.82869641587245"><ele>276.6</ele><time>2026-05-02T12:55:04Z</time></trkpt><trkpt lat="44.715587325360616" lon="7.828774147904389"><ele>276.40000000000003</ele><time>2026-05-02T12:55:05Z</time></trkpt><trkpt lat="44.715517591232356" lon="7.828867153277576"><ele>276.2</ele><time>2026-05-02T12:55:06Z</time></trkpt><trkpt lat="44.71549058312953" lon="7.82902211914372"><ele>276.0</ele><time>2026-05-02T12:55:07Z</time></trkpt><trkpt lat="44.71547301584016" lon="7.829165924805924"><ele>276.0</ele><time>2026-05-02T12:55:08Z</time></trkpt><trkpt lat="44.71538316013036" lon="7.829291305056916"><ele>276.0</ele><time>2026-05-02T12:55:09Z</time></trkpt><trkpt lat="44.715312422177576" lon="7.829420612218978"><ele>276.0</ele><time>2026-05-02T12:55:10Z</time></trkpt><trkpt lat="44.715239245587235" lon="7.829558345236304"><ele>276.0</ele><time>2026-05-02T12:55:11Z</time></trkpt><trkpt lat="44.715172915436206" lon="7.829682722866914"><ele>276.25</ele><time>2026-05-02T12:55:12Z</time></trkpt><trkpt lat="44.71511392753106" lon="7.8298092967166"><ele>276.5</ele><time>2026-05-02T12:55:13Z</time></trkpt><trkpt lat="44.71505918417143" lon="7.829955459329405"><ele>276.75</ele><time>2026-05-02T12:55:14Z</time></trkpt><trkpt lat="44.7150119235928" lon="7.830108086706679"><ele>277.0</ele><time>2026-05-02T12:55:15Z</time></trkpt><trkpt lat="44.714965837506256" lon="7.830261074828827"><ele>277.75</ele><time>2026-05-02T12:55:16Z</time></trkpt><trkpt lat="44.714909979601465" lon="7.8304198592886225"><ele>278.5</ele><time>2026-05-02T12:55:17Z</time></trkpt><trkpt lat="44.71484473810667" lon="7.830580481165333"><ele>279.25</ele><time>2026-05-02T12:55:18Z</time></trkpt><trkpt lat="44.714768700384475" lon="7.8307400283951045"><ele>280.0</ele><time>2026-05-02T12:55:19Z</time></trkpt><trkpt lat="44.71468365520234" lon="7.830901937779034"><ele>280.0</ele><time>2026-05-02T12:55:20Z</time></trkpt><trkpt lat="44.71459522613729" lon="7.831068212414017"><ele>280.0</ele><time>2026-05-02T12:55:21Z</time></trkpt><trkpt lat="44.71450004957425" lon="7.8312397064033386"><ele>280.0</ele><time>2026-05-02T12:55:22Z</time></trkpt><trkpt lat="44.71439160954887" lon="7.831428132634226"><ele>280.0</ele><time>2026-05-02T12:55:23Z</time></trkpt><trkpt lat="44.71427349529534" lon="7.831636339317386"><ele>280.0</ele><time>2026-05-02T12:55:24Z</time></trkpt><trkpt lat="44.714140576798854" lon="7.831855747316329"><ele>280.0</ele><time>2026-05-02T12:55:25Z</time></trkpt><trkpt lat="44.714001328329076" lon="7.832076413523068"><ele>280.0</ele><time>2026-05-02T12:55:26Z</time></trkpt><trkpt lat="44.713835312908714" lon="7.832291194349504"><ele>280.0</ele><time>2026-05-02T12:55:27Z</time></trkpt><trkpt lat="44.71370408023674" lon="7.8325467096707255"><ele>280.0</ele><time>2026-05-02T12:55:28Z</time></trkpt><trkpt lat="44.71354785878145" lon="7.832783741385713"><ele>280.0</ele><time>2026-05-02T12:55:29Z</time></trkpt><trkpt lat="44.713402314529965" lon="7.83301179434006"><ele>280.0</ele><time>2026-05-02T12:55:30Z</time></trkpt><trkpt lat="44.713277283703114" lon="7.833224169602884"><ele>280.0</ele><time>2026-05-02T12:55:31Z</time></trkpt><trkpt lat="44.71315385490531" lon="7.8334293763182385"><ele>280.0</ele><time>2026-05-02T12:55:32Z</time></trkpt><trkpt lat="44.71303632937546" lon="7.833634292984439"><ele>280.0</ele><time>2026-05-02T12:55:33Z</time></trkpt><trkpt lat="44.712915329315365" lon="7.8338378908971205"><ele>280.0</ele><time>2026-05-02T12:55:34Z</time></trkpt><trkpt lat="44.71280402256797" lon="7.834027425457587"><ele>280.0</ele><time>2026-05-02T12:55:35Z</time></trkpt><trkpt lat="44.71270204365039" lon="7.834203555228823"><ele>280.0</ele><time>2026-05-02T12:55:36Z</time></trkpt><trkpt lat="44.712606193716624" lon="7.834365183540054"><ele>280.66666666666663</ele><time>2026-05-02T12:55:37Z</time></trkpt><trkpt lat="44.712505884926706" lon="7.83453559408349"><ele>281.3333333333333</ele><time>2026-05-02T12:55:38Z</time></trkpt><trkpt lat="44.71240265913546" lon="7.8347274810442435"><ele>282.0</ele><time>2026-05-02T12:55:39Z</time></trkpt><trkpt lat="44.712280426519115" lon="7.834912478177663"><ele>282.0</ele><time>2026-05-02T12:55:40Z</time></trkpt><trkpt lat="44.71216115320594" lon="7.83511102875357"><ele>282.0</ele><time>2026-05-02T12:55:41Z</time></trkpt><trkpt lat="44.71203649950838" lon="7.835318152844546"><ele>282.0</ele><time>2026-05-02T12:55:42Z</time></trkpt><trkpt lat="44.71192451243576" lon="7.835538178655334"><ele>282.3333333333333</ele><time>2026-05-02T12:55:43Z</time></trkpt><trkpt lat="44.711801458646214" lon="7.8357426227136315"><ele>282.66666666666663</ele><time>2026-05-02T12:55:44Z</time></trkpt><trkpt lat="44.71168992952384" lon="7.835930062014975"><ele>283.0</ele><time>2026-05-02T12:55:45Z</time></trkpt><trkpt lat="44.711580527389565" lon="7.836104879714769"><ele>283.25</ele><time>2026-05-02T12:55:46Z</time></trkpt><trkpt lat="44.71148178605971" lon="7.836264471798713"><ele>283.5</ele><time>2026-05-02T12:55:47Z</time></trkpt><trkpt lat="44.71139586728652" lon="7.836403990553155"><ele>283.75</ele><time>2026-05-02T12:55:48Z</time></trkpt><trkpt lat="44.71131778078109" lon="7.836529829555073"><ele>284.0</ele><time>2026-05-02T12:55:49Z</time></trkpt><trkpt lat="44.711254456265834" lon="7.836630844940896"><ele>284.0</ele><time>2026-05-02T12:55:50Z</time></trkpt><trkpt lat="44.71121117089135" lon="7.836697072698126"><ele>284.0</ele><time>2026-05-02T12:55:51Z</time></trkpt><trkpt lat="44.71113370623003" lon="7.836768339645406"><ele>284.0</ele><time>2026-05-02T12:55:53Z</time></trkpt><trkpt lat="44.71101181926696" lon="7.83676705697457"><ele>284.0</ele><time>2026-05-02T12:55:55Z</time></trkpt><trkpt lat="44.71090234289615" lon="7.83679631575453"><ele>284.0</ele><time>2026-05-02T12:55:57Z</time></trkpt><trkpt lat="44.710866293756474" lon="7.836870483486486"><ele>284.0</ele><time>2026-05-02T12:55:58Z</time></trkpt><trkpt lat="44.71083860371348" lon="7.836957898448138"><ele>284.0</ele><time>2026-05-02T12:55:59Z</time></trkpt><trkpt lat="44.710799926368026" lon="7.837043363684106"><ele>284.0</ele><time>2026-05-02T12:56:00Z</time></trkpt><trkpt lat="44.7107497897493" lon="7.837121793769758"><ele>284.0</ele><time>2026-05-02T12:56:01Z</time></trkpt><trkpt lat="44.71069651889526" lon="7.837200425916873"><ele>284.0</ele><time>2026-05-02T12:56:02Z</time></trkpt><trkpt lat="44.710646553647095" lon="7.837284630049784"><ele>284.0</ele><time>2026-05-02T12:56:03Z</time></trkpt><trkpt lat="44.710612569762375" lon="7.837380017427336"><ele>284.0</ele><time>2026-05-02T12:56:04Z</time></trkpt><trkpt lat="44.71059740360327" lon="7.837480210684538"><ele>284.0</ele><time>2026-05-02T12:56:05Z</time></trkpt><trkpt lat="44.710590294405826" lon="7.8375758555038715"><ele>284.0</ele><time>2026-05-02T12:56:06Z</time></trkpt><trkpt lat="44.71056207656084" lon="7.837735060981775"><ele>284.0</ele><time>2026-05-02T12:56:08Z</time></trkpt><trkpt lat="44.71052972132475" lon="7.8378230195198935"><ele>284.0</ele><time>2026-05-02T12:56:09Z</time></trkpt><trkpt lat="44.71048723573556" lon="7.837906051018029"><ele>284.0</ele><time>2026-05-02T12:56:10Z</time></trkpt><trkpt lat="44.7104366276719" lon="7.8379896013048835"><ele>284.0</ele><time>2026-05-02T12:56:11Z</time></trkpt><trkpt lat="44.710377162085614" lon="7.838082909565056"><ele>284.0</ele><time>2026-05-02T12:56:12Z</time></trkpt><trkpt lat="44.71031687219244" lon="7.838179756958304"><ele>284.0</ele><time>2026-05-02T12:56:13Z</time></trkpt><trkpt lat="44.71025139768243" lon="7.838293714996538"><ele>284.0</ele><time>2026-05-02T12:56:14Z</time></trkpt><trkpt lat="44.71018420658609" lon="7.838409533486929"><ele>284.0</ele><time>2026-05-02T12:56:15Z</time></trkpt><trkpt lat="44.71011591124703" lon="7.838517893521456"><ele>284.0</ele><time>2026-05-02T12:56:16Z</time></trkpt><trkpt lat="44.71004799567361" lon="7.838630711081624"><ele>284.0</ele><time>2026-05-02T12:56:17Z</time></trkpt><trkpt lat="44.70997717253783" lon="7.838741767796795"><ele>284.0</ele><time>2026-05-02T12:56:18Z</time></trkpt><trkpt lat="44.70990907172322" lon="7.838856711048661"><ele>284.0</ele><time>2026-05-02T12:56:19Z</time></trkpt><trkpt lat="44.70983783631692" lon="7.838978688003494"><ele>284.0</ele><time>2026-05-02T12:56:20Z</time></trkpt><trkpt lat="44.70976698133788" lon="7.839097686760888"><ele>284.0</ele><time>2026-05-02T12:56:21Z</time></trkpt><trkpt lat="44.709698627552726" lon="7.839214321956476"><ele>284.1666666666667</ele><time>2026-05-02T12:56:22Z</time></trkpt><trkpt lat="44.70963847085314" lon="7.839323381211479"><ele>284.33333333333337</ele><time>2026-05-02T12:56:23Z</time></trkpt><trkpt lat="44.709590284225385" lon="7.839409266460559"><ele>284.5</ele><time>2026-05-02T12:56:24Z</time></trkpt><trkpt lat="44.70954285833295" lon="7.839493506145236"><ele>284.6666666666667</ele><time>2026-05-02T12:56:25Z</time></trkpt><trkpt lat="44.70948141651506" lon="7.83954396628147"><ele>284.8333333333333</ele><time>2026-05-02T12:56:26Z</time></trkpt><trkpt lat="44.709435880365504" lon="7.839620085546556"><ele>285.0</ele><time>2026-05-02T12:56:27Z</time></trkpt><trkpt lat="44.7093887378379" lon="7.8397192373503"><ele>285.0</ele><time>2026-05-02T12:56:28Z</time></trkpt><trkpt lat="44.70932704341955" lon="7.83981018712768"><ele>285.0</ele><time>2026-05-02T12:56:29Z</time></trkpt><trkpt lat="44.709263596065604" lon="7.839925091137694"><ele>285.0</ele><time>2026-05-02T12:56:30Z</time></trkpt><trkpt lat="44.709194229341044" lon="7.840050099092918"><ele>285.0</ele><time>2026-05-02T12:56:31Z</time></trkpt><trkpt lat="44.70911662073004" lon="7.84017854436783"><ele>285.0</ele><time>2026-05-02T12:56:32Z</time></trkpt><trkpt lat="44.709038726012786" lon="7.840310304739513"><ele>285.5</ele><time>2026-05-02T12:56:33Z</time></trkpt><trkpt lat="44.70894952960987" lon="7.840428332942788"><ele>286.0</ele><time>2026-05-02T12:56:34Z</time></trkpt><trkpt lat="44.708866355500675" lon="7.840564212665799"><ele>286.5</ele><time>2026-05-02T12:56:35Z</time></trkpt><trkpt lat="44.708793625446056" lon="7.840708981001329"><ele>287.0</ele><time>2026-05-02T12:56:36Z</time></trkpt><trkpt lat="44.70870829191913" lon="7.840837954372084"><ele>287.0</ele><time>2026-05-02T12:56:37Z</time></trkpt><trkpt lat="44.708621106496466" lon="7.8409525724764855"><ele>287.0</ele><time>2026-05-02T12:56:38Z</time></trkpt><trkpt lat="44.70854135900159" lon="7.841054667740548"><ele>287.0</ele><time>2026-05-02T12:56:39Z</time></trkpt><trkpt lat="44.70846037222124" lon="7.841138002269194"><ele>287.0</ele><time>2026-05-02T12:56:40Z</time></trkpt><trkpt lat="44.70838053956292" lon="7.841211407706846"><ele>287.0</ele><time>2026-05-02T12:56:41Z</time></trkpt><trkpt lat="44.70830109845018" lon="7.84127662139049"><ele>287.4</ele><time>2026-05-02T12:56:42Z</time></trkpt><trkpt lat="44.708218810338344" lon="7.841342776120518"><ele>287.79999999999995</ele><time>2026-05-02T12:56:43Z</time></trkpt><trkpt lat="44.70815033787847" lon="7.84141727616165"><ele>288.2</ele><time>2026-05-02T12:56:44Z</time></trkpt><trkpt lat="44.70805271063823" lon="7.841517248331327"><ele>288.59999999999997</ele><time>2026-05-02T12:56:46Z</time></trkpt><trkpt lat="44.707941544559226" lon="7.8416251507626695"><ele>289.0</ele><time>2026-05-02T12:56:48Z</time></trkpt><trkpt lat="44.70786411784662" lon="7.84169606808558"><ele>289.0</ele><time>2026-05-02T12:56:49Z</time></trkpt><trkpt lat="44.70777301499215" lon="7.841781432281588"><ele>289.0</ele><time>2026-05-02T12:56:50Z</time></trkpt><trkpt lat="44.70768000780598" lon="7.841866787145832"><ele>289.0</ele><time>2026-05-02T12:56:51Z</time></trkpt><trkpt lat="44.70758373610094" lon="7.841955727331545"><ele>289.0</ele><time>2026-05-02T12:56:52Z</time></trkpt><trkpt lat="44.70749370898733" lon="7.842036319838456"><ele>289.0</ele><time>2026-05-02T12:56:53Z</time></trkpt><trkpt lat="44.70741833057415" lon="7.842103743042191"><ele>288.8</ele><time>2026-05-02T12:56:54Z</time></trkpt><trkpt lat="44.70733753480918" lon="7.842175984668648"><ele>288.59999999999997</ele><time>2026-05-02T12:56:56Z</time></trkpt><trkpt lat="44.707252222520026" lon="7.842267904436594"><ele>288.4</ele><time>2026-05-02T12:57:28Z</time></trkpt><trkpt lat="44.707177350641615" lon="7.842345271314291"><ele>288.2</ele><time>2026-05-02T12:57:29Z</time></trkpt><trkpt lat="44.707093530536774" lon="7.842430379767504"><ele>288.0</ele><time>2026-05-02T12:57:30Z</time></trkpt><trkpt lat="44.70699844128764" lon="7.842521139202064"><ele>288.25</ele><time>2026-05-02T12:57:31Z</time></trkpt><trkpt lat="44.70689191293903" lon="7.842621696493642"><ele>288.5</ele><time>2026-05-02T12:57:32Z</time></trkpt><trkpt lat="44.70678136533547" lon="7.84273006863824"><ele>288.75</ele><time>2026-05-02T12:57:33Z</time></trkpt><trkpt lat="44.706674681493" lon="7.842835745286038"><ele>289.0</ele><time>2026-05-02T12:57:34Z</time></trkpt><trkpt lat="44.70656978947014" lon="7.842936608632078"><ele>289.0</ele><time>2026-05-02T12:57:35Z</time></trkpt><trkpt lat="44.70647861122132" lon="7.843022328219311"><ele>289.0</ele><time>2026-05-02T12:57:36Z</time></trkpt><trkpt lat="44.70639548135424" lon="7.843100697532611"><ele>289.0</ele><time>2026-05-02T12:57:37Z</time></trkpt><trkpt lat="44.706320795042224" lon="7.8431748318343475"><ele>289.0</ele><time>2026-05-02T12:57:38Z</time></trkpt><trkpt lat="44.70625282777646" lon="7.843239737649907"><ele>289.0</ele><time>2026-05-02T12:57:39Z</time></trkpt><trkpt lat="44.706186867224815" lon="7.843303693273693"><ele>289.0</ele><time>2026-05-02T12:57:40Z</time></trkpt><trkpt lat="44.70611863268891" lon="7.843367625324424"><ele>289.0</ele><time>2026-05-02T12:57:41Z</time></trkpt><trkpt lat="44.706040038771164" lon="7.8434370572272405"><ele>289.0</ele><time>2026-05-02T12:57:42Z</time></trkpt><trkpt lat="44.70596066477536" lon="7.843509864586158"><ele>289.0</ele><time>2026-05-02T12:57:43Z</time></trkpt><trkpt lat="44.70588489505955" lon="7.843583092045867"><ele>289.0</ele><time>2026-05-02T12:57:44Z</time></trkpt><trkpt lat="44.70582173734872" lon="7.843646993291145"><ele>289.0</ele><time>2026-05-02T12:57:45Z</time></trkpt><trkpt lat="44.70576132075446" lon="7.843699497975915"><ele>288.8</ele><time>2026-05-02T12:57:46Z</time></trkpt><trkpt lat="44.7056703303906" lon="7.843781570676158"><ele>288.59999999999997</ele><time>2026-05-02T12:57:48Z</time></trkpt><trkpt lat="44.70561049628016" lon="7.843841118875161"><ele>288.4</ele><time>2026-05-02T12:57:50Z</time></trkpt><trkpt lat="44.70551596873447" lon="7.843933954927955"><ele>288.2</ele><time>2026-05-02T12:58:17Z</time></trkpt><trkpt lat="44.70544662248847" lon="7.843998200112657"><ele>288.0</ele><time>2026-05-02T12:58:18Z</time></trkpt><trkpt lat="44.70537304809586" lon="7.844076525249668"><ele>288.0</ele><time>2026-05-02T12:58:19Z</time></trkpt><trkpt lat="44.7052915119972" lon="7.844149250456312"><ele>288.0</ele><time>2026-05-02T12:58:20Z</time></trkpt><trkpt lat="44.70519961909648" lon="7.8442354450679375"><ele>288.0</ele><time>2026-05-02T12:58:21Z</time></trkpt><trkpt lat="44.70510212282962" lon="7.844330764823998"><ele>288.0</ele><time>2026-05-02T12:58:22Z</time></trkpt><trkpt lat="44.70499348720983" lon="7.844435023838311"><ele>288.5</ele><time>2026-05-02T12:58:23Z</time></trkpt><trkpt lat="44.70488818340247" lon="7.8445360287689905"><ele>289.0</ele><time>2026-05-02T12:58:24Z</time></trkpt><trkpt lat="44.70478035163621" lon="7.844637194468421"><ele>289.5</ele><time>2026-05-02T12:58:25Z</time></trkpt><trkpt lat="44.70467557998698" lon="7.8447324170621995"><ele>290.0</ele><time>2026-05-02T12:58:26Z</time></trkpt><trkpt lat="44.70456813482027" lon="7.844833178044822"><ele>290.0</ele><time>2026-05-02T12:58:27Z</time></trkpt><trkpt lat="44.70446242853102" lon="7.844938563713214"><ele>290.0</ele><time>2026-05-02T12:58:28Z</time></trkpt><trkpt lat="44.70436784653872" lon="7.845028189811417"><ele>290.0</ele><time>2026-05-02T12:58:29Z</time></trkpt><trkpt lat="44.704287461799524" lon="7.845100004370212"><ele>290.0</ele><time>2026-05-02T12:58:30Z</time></trkpt><trkpt lat="44.70422576382451" lon="7.845158843275861"><ele>290.0</ele><time>2026-05-02T12:58:31Z</time></trkpt><trkpt lat="44.70417180376608" lon="7.845208765440082"><ele>289.8</ele><time>2026-05-02T12:58:32Z</time></trkpt><trkpt lat="44.70411866772942" lon="7.845256667256495"><ele>289.6</ele><time>2026-05-02T12:58:33Z</time></trkpt><trkpt lat="44.70402501900322" lon="7.845232221946704"><ele>289.4</ele><time>2026-05-02T12:58:34Z</time></trkpt><trkpt lat="44.703958157304164" lon="7.84529629496705"><ele>289.2</ele><time>2026-05-02T12:58:35Z</time></trkpt><trkpt lat="44.70391507458514" lon="7.845459286854041"><ele>289.0</ele><time>2026-05-02T12:58:36Z</time></trkpt><trkpt lat="44.70382011148598" lon="7.845552269184989"><ele>289.0</ele><time>2026-05-02T12:58:37Z</time></trkpt><trkpt lat="44.70372414618967" lon="7.845642837025841"><ele>289.0</ele><time>2026-05-02T12:58:38Z</time></trkpt><trkpt lat="44.703633086352916" lon="7.845733258804264"><ele>289.0</ele><time>2026-05-02T12:58:39Z</time></trkpt><trkpt lat="44.703518108013604" lon="7.845738018202367"><ele>289.0</ele><time>2026-05-02T12:58:40Z</time></trkpt><trkpt lat="44.70348225982395" lon="7.84587681098612"><ele>289.0</ele><time>2026-05-02T12:58:41Z</time></trkpt><trkpt lat="44.70342246364076" lon="7.845930493318435"><ele>289.16666666666663</ele><time>2026-05-02T12:58:42Z</time></trkpt><trkpt lat="44.70332501890489" lon="7.846023659881571"><ele>289.3333333333333</ele><time>2026-05-02T12:58:44Z</time></trkpt><trkpt lat="44.70326653635485" lon="7.846072786723405"><ele>289.5</ele><time>2026-05-02T12:58:45Z</time></trkpt><trkpt lat="44.70319621313101" lon="7.84614368648202"><ele>289.6666666666667</ele><time>2026-05-02T12:58:46Z</time></trkpt><trkpt lat="44.70313279253875" lon="7.8462044971978155"><ele>289.83333333333337</ele><time>2026-05-02T12:58:47Z</time></trkpt><trkpt lat="44.70307327515858" lon="7.8462612446269695"><ele>290.0</ele><time>2026-05-02T12:58:48Z</time></trkpt><trkpt lat="44.70300514334049" lon="7.846326819622604"><ele>290.0</ele><time>2026-05-02T12:58:49Z</time></trkpt><trkpt lat="44.70292908794383" lon="7.846401696648071"><ele>290.0</ele><time>2026-05-02T12:58:50Z</time></trkpt><trkpt lat="44.702859237096135" lon="7.846472814008892"><ele>290.0</ele><time>2026-05-02T12:58:51Z</time></trkpt><trkpt lat="44.702797010359745" lon="7.846529584369551"><ele>290.0</ele><time>2026-05-02T12:58:52Z</time></trkpt><trkpt lat="44.70274261693127" lon="7.846578106576373"><ele>290.0</ele><time>2026-05-02T12:58:53Z</time></trkpt><trkpt lat="44.70265260291592" lon="7.84665772038311"><ele>290.0</ele><time>2026-05-02T12:58:55Z</time></trkpt><trkpt lat="44.702592596520745" lon="7.846712937107604"><ele>290.0</ele><time>2026-05-02T12:58:58Z</time></trkpt><trkpt lat="44.702514523094855" lon="7.8467923569822196"><ele>290.0</ele><time>2026-05-02T12:59:57Z</time></trkpt><trkpt lat="44.70242850296726" lon="7.846773615018151"><ele>290.0</ele><time>2026-05-02T12:59:59Z</time></trkpt><trkpt lat="44.70234564671176" lon="7.84664786506479"><ele>290.0</ele><time>2026-05-02T13:00:01Z</time></trkpt><trkpt lat="44.70230781672905" lon="7.846560021475605"><ele>290.0</ele><time>2026-05-02T13:00:02Z</time></trkpt><trkpt lat="44.70226423640821" lon="7.846469932822638"><ele>290.0</ele><time>2026-05-02T13:00:03Z</time></trkpt><trkpt lat="44.70221252801045" lon="7.846374210464486"><ele>290.0</ele><time>2026-05-02T13:00:04Z</time></trkpt><trkpt lat="44.70215965429025" lon="7.846270963730917"><ele>290.0</ele><time>2026-05-02T13:00:05Z</time></trkpt><trkpt lat="44.70211195053903" lon="7.846166233791713"><ele>290.0</ele><time>2026-05-02T13:00:06Z</time></trkpt><trkpt lat="44.70207869434377" lon="7.846045943791003"><ele>290.0</ele><time>2026-05-02T13:00:07Z</time></trkpt><trkpt lat="44.70206051163028" lon="7.8459016457331705"><ele>289.5</ele><time>2026-05-02T13:00:08Z</time></trkpt><trkpt lat="44.70204841153909" lon="7.845746286715499"><ele>289.0</ele><time>2026-05-02T13:00:09Z</time></trkpt><trkpt lat="44.70203574491088" lon="7.845579160863933"><ele>288.5</ele><time>2026-05-02T13:00:10Z</time></trkpt><trkpt lat="44.70202173738097" lon="7.845415722919442"><ele>288.0</ele><time>2026-05-02T13:00:11Z</time></trkpt><trkpt lat="44.70200456092223" lon="7.845239227775378"><ele>287.0</ele><time>2026-05-02T13:00:12Z</time></trkpt><trkpt lat="44.70201384302227" lon="7.845056335120426"><ele>286.0</ele><time>2026-05-02T13:00:13Z</time></trkpt><trkpt lat="44.70198818776154" lon="7.844869875702662"><ele>285.0</ele><time>2026-05-02T13:00:14Z</time></trkpt><trkpt lat="44.70198436169627" lon="7.844697977721462"><ele>284.0</ele><time>2026-05-02T13:00:15Z</time></trkpt><trkpt lat="44.70197218020439" lon="7.844532747962884"><ele>284.0</ele><time>2026-05-02T13:00:16Z</time></trkpt><trkpt lat="44.70195930699278" lon="7.844374068496052"><ele>284.0</ele><time>2026-05-02T13:00:17Z</time></trkpt><trkpt lat="44.70194483386069" lon="7.844208339280098"><ele>284.0</ele><time>2026-05-02T13:00:18Z</time></trkpt><trkpt lat="44.70193660902124" lon="7.8440484366179595"><ele>284.0</ele><time>2026-05-02T13:00:19Z</time></trkpt><trkpt lat="44.70193537364365" lon="7.843897771533479"><ele>283.75</ele><time>2026-05-02T13:00:20Z</time></trkpt><trkpt lat="44.701925437807304" lon="7.843740442367876"><ele>283.5</ele><time>2026-05-02T13:00:21Z</time></trkpt><trkpt lat="44.70191375456302" lon="7.843569004929453"><ele>283.25</ele><time>2026-05-02T13:00:22Z</time></trkpt><trkpt lat="44.70190385106208" lon="7.843413625307982"><ele>283.0</ele><time>2026-05-02T13:00:23Z</time></trkpt><trkpt lat="44.70189537690934" lon="7.843266351292716"><ele>283.16666666666663</ele><time>2026-05-02T13:00:24Z</time></trkpt><trkpt lat="44.701888991864315" lon="7.8431325795797475"><ele>283.3333333333333</ele><time>2026-05-02T13:00:25Z</time></trkpt><trkpt lat="44.70188411077937" lon="7.843001648050998"><ele>283.5</ele><time>2026-05-02T13:00:26Z</time></trkpt><trkpt lat="44.70189076684852" lon="7.842883879154386"><ele>283.6666666666667</ele><time>2026-05-02T13:00:27Z</time></trkpt><trkpt lat="44.701921664443034" lon="7.842782293768383"><ele>283.83333333333337</ele><time>2026-05-02T13:00:28Z</time></trkpt><trkpt lat="44.70196083823127" lon="7.842692626088072"><ele>284.0</ele><time>2026-05-02T13:00:29Z</time></trkpt><trkpt lat="44.70197668638914" lon="7.842606170101985"><ele>283.6666666666667</ele><time>2026-05-02T13:00:30Z</time></trkpt><trkpt lat="44.701931130852685" lon="7.84253420213694"><ele>283.33333333333337</ele><time>2026-05-02T13:00:31Z</time></trkpt><trkpt lat="44.70185831283952" lon="7.8424922230007885"><ele>283.0</ele><time>2026-05-02T13:00:32Z</time></trkpt><trkpt lat="44.701745363711254" lon="7.842376640525053"><ele>282.6666666666667</ele><time>2026-05-02T13:00:34Z</time></trkpt><trkpt lat="44.701717311568146" lon="7.842274642529823"><ele>282.3333333333333</ele><time>2026-05-02T13:00:35Z</time></trkpt><trkpt lat="44.70170383838522" lon="7.842180501565243"><ele>282.0</ele><time>2026-05-02T13:00:36Z</time></trkpt><trkpt lat="44.70165690563075" lon="7.842081851301602"><ele>281.4</ele><time>2026-05-02T13:00:38Z</time></trkpt><trkpt lat="44.701548924506234" lon="7.842152498733625"><ele>280.79999999999995</ele><time>2026-05-02T13:00:39Z</time></trkpt><trkpt lat="44.70147832187501" lon="7.842230659157456"><ele>280.2</ele><time>2026-05-02T13:00:40Z</time></trkpt><trkpt lat="44.701400389024876" lon="7.842303763612781"><ele>279.59999999999997</ele><time>2026-05-02T13:00:41Z</time></trkpt><trkpt lat="44.70130964013163" lon="7.8423878184438625"><ele>279.0</ele><time>2026-05-02T13:00:42Z</time></trkpt><trkpt lat="44.70121268395884" lon="7.84246980463041"><ele>279.0</ele><time>2026-05-02T13:00:43Z</time></trkpt><trkpt lat="44.70111538264337" lon="7.842550419884529"><ele>279.0</ele><time>2026-05-02T13:00:44Z</time></trkpt><trkpt lat="44.701013519298996" lon="7.842634402918074"><ele>279.0</ele><time>2026-05-02T13:00:45Z</time></trkpt><trkpt lat="44.70091176830485" lon="7.84272660772264"><ele>279.0</ele><time>2026-05-02T13:00:46Z</time></trkpt><trkpt lat="44.70080724248753" lon="7.842820915800138"><ele>279.5</ele><time>2026-05-02T13:00:47Z</time></trkpt><trkpt lat="44.70070385445623" lon="7.842910114089183"><ele>280.0</ele><time>2026-05-02T13:00:48Z</time></trkpt><trkpt lat="44.70059200492203" lon="7.8429974316474755"><ele>280.5</ele><time>2026-05-02T13:00:49Z</time></trkpt><trkpt lat="44.7004827020015" lon="7.843089027717258"><ele>281.0</ele><time>2026-05-02T13:00:50Z</time></trkpt><trkpt lat="44.700366900981294" lon="7.84318715430671"><ele>281.0</ele><time>2026-05-02T13:00:51Z</time></trkpt><trkpt lat="44.700250305437386" lon="7.843271245215167"><ele>281.0</ele><time>2026-05-02T13:00:52Z</time></trkpt><trkpt lat="44.700149473178115" lon="7.843342097791141"><ele>281.0</ele><time>2026-05-02T13:00:53Z</time></trkpt><trkpt lat="44.700031321500724" lon="7.843438454181204"><ele>281.0</ele><time>2026-05-02T13:00:54Z</time></trkpt><trkpt lat="44.699927977880584" lon="7.843547681023433"><ele>280.8</ele><time>2026-05-02T13:00:55Z</time></trkpt><trkpt lat="44.69982692936087" lon="7.843618861760299"><ele>280.6</ele><time>2026-05-02T13:00:56Z</time></trkpt><trkpt lat="44.699740895165206" lon="7.843685468661936"><ele>280.4</ele><time>2026-05-02T13:00:57Z</time></trkpt><trkpt lat="44.69968431840789" lon="7.843734903812326"><ele>280.2</ele><time>2026-05-02T13:00:58Z</time></trkpt><trkpt lat="44.69959821203846" lon="7.843805011140026"><ele>280.0</ele><time>2026-05-02T13:01:00Z</time></trkpt><trkpt lat="44.6995029319022" lon="7.843875672095583"><ele>280.0</ele><time>2026-05-02T13:01:02Z</time></trkpt><trkpt lat="44.69944813245713" lon="7.843920922686893"><ele>280.0</ele><time>2026-05-02T13:01:03Z</time></trkpt><trkpt lat="44.69938373821511" lon="7.843977372554549"><ele>280.0</ele><time>2026-05-02T13:01:04Z</time></trkpt><trkpt lat="44.69931939543343" lon="7.844034844561281"><ele>280.0</ele><time>2026-05-02T13:01:05Z</time></trkpt><trkpt lat="44.69924799738036" lon="7.84409861849255"><ele>280.0</ele><time>2026-05-02T13:01:06Z</time></trkpt><trkpt lat="44.69917895355209" lon="7.844160289522111"><ele>280.0</ele><time>2026-05-02T13:01:07Z</time></trkpt><trkpt lat="44.69910344304197" lon="7.84422783616654"><ele>280.0</ele><time>2026-05-02T13:01:08Z</time></trkpt><trkpt lat="44.699027251780365" lon="7.844295039223224"><ele>280.0</ele><time>2026-05-02T13:01:09Z</time></trkpt><trkpt lat="44.69895122119785" lon="7.84436203114725"><ele>280.0</ele><time>2026-05-02T13:01:10Z</time></trkpt><trkpt lat="44.698885379710006" lon="7.844422172394505"><ele>280.0</ele><time>2026-05-02T13:01:11Z</time></trkpt><trkpt lat="44.698814027825904" lon="7.8444871539471945"><ele>280.0</ele><time>2026-05-02T13:01:12Z</time></trkpt><trkpt lat="44.69875656104592" lon="7.844566642623193"><ele>280.0</ele><time>2026-05-02T13:01:13Z</time></trkpt><trkpt lat="44.698698485446876" lon="7.8446121418929735"><ele>279.8</ele><time>2026-05-02T13:01:14Z</time></trkpt><trkpt lat="44.698614103465545" lon="7.844689436210475"><ele>279.6</ele><time>2026-05-02T13:01:16Z</time></trkpt><trkpt lat="44.69854485876419" lon="7.844731116037888"><ele>279.4</ele><time>2026-05-02T13:01:18Z</time></trkpt><trkpt lat="44.69844565106123" lon="7.844783512728581"><ele>279.2</ele><time>2026-05-02T13:01:20Z</time></trkpt><trkpt lat="44.698372839115684" lon="7.8448277080577915"><ele>279.0</ele><time>2026-05-02T13:01:21Z</time></trkpt><trkpt lat="44.69828280746346" lon="7.844834308379781"><ele>278.75</ele><time>2026-05-02T13:01:22Z</time></trkpt><trkpt lat="44.698174926302826" lon="7.844852210135029"><ele>278.5</ele><time>2026-05-02T13:01:23Z</time></trkpt><trkpt lat="44.698046438862136" lon="7.844897384885151"><ele>278.25</ele><time>2026-05-02T13:01:24Z</time></trkpt><trkpt lat="44.697905289182785" lon="7.844931363499875"><ele>278.0</ele><time>2026-05-02T13:01:25Z</time></trkpt><trkpt lat="44.697757683130675" lon="7.844956237308037"><ele>278.0</ele><time>2026-05-02T13:01:26Z</time></trkpt><trkpt lat="44.69759733933124" lon="7.844993401743013"><ele>278.0</ele><time>2026-05-02T13:01:27Z</time></trkpt><trkpt lat="44.69742648461699" lon="7.84502694805576"><ele>278.0</ele><time>2026-05-02T13:01:28Z</time></trkpt><trkpt lat="44.6972506528689" lon="7.845058765749083"><ele>278.0</ele><time>2026-05-02T13:01:29Z</time></trkpt><trkpt lat="44.697071916993885" lon="7.845094937456912"><ele>278.0</ele><time>2026-05-02T13:01:30Z</time></trkpt><trkpt lat="44.696913680810695" lon="7.845127118453498"><ele>278.0</ele><time>2026-05-02T13:01:31Z</time></trkpt><trkpt lat="44.69676875680247" lon="7.84514961307081"><ele>278.75</ele><time>2026-05-02T13:01:32Z</time></trkpt><trkpt lat="44.6966301861221" lon="7.845180853637303"><ele>279.5</ele><time>2026-05-02T13:01:33Z</time></trkpt><trkpt lat="44.69648787829986" lon="7.845211294715209"><ele>280.25</ele><time>2026-05-02T13:01:34Z</time></trkpt><trkpt lat="44.696350566797456" lon="7.845239715811125"><ele>281.0</ele><time>2026-05-02T13:01:35Z</time></trkpt><trkpt lat="44.696241573973175" lon="7.845262706869098"><ele>281.0</ele><time>2026-05-02T13:01:36Z</time></trkpt><trkpt lat="44.69615376529825" lon="7.845281516729957"><ele>281.0</ele><time>2026-05-02T13:01:37Z</time></trkpt><trkpt lat="44.696064089430074" lon="7.845298586143893"><ele>281.0</ele><time>2026-05-02T13:01:38Z</time></trkpt><trkpt lat="44.695962248348394" lon="7.845321936233339"><ele>281.0</ele><time>2026-05-02T13:01:39Z</time></trkpt><trkpt lat="44.695857914121504" lon="7.845345627763461"><ele>281.0</ele><time>2026-05-02T13:01:40Z</time></trkpt><trkpt lat="44.69574817006132" lon="7.845365030434809"><ele>280.5</ele><time>2026-05-02T13:01:41Z</time></trkpt><trkpt lat="44.69563719119783" lon="7.8453930229997875"><ele>280.0</ele><time>2026-05-02T13:01:42Z</time></trkpt><trkpt lat="44.6955408291784" lon="7.845462039955775"><ele>279.5</ele><time>2026-05-02T13:01:43Z</time></trkpt><trkpt lat="44.69546285337949" lon="7.8455943496270475"><ele>279.0</ele><time>2026-05-02T13:01:44Z</time></trkpt><trkpt lat="44.69539152075222" lon="7.845772704330265"><ele>279.0</ele><time>2026-05-02T13:01:45Z</time></trkpt><trkpt lat="44.695320118212" lon="7.8459597217343"><ele>279.0</ele><time>2026-05-02T13:01:46Z</time></trkpt><trkpt lat="44.69523952040721" lon="7.846160190946654"><ele>279.0</ele><time>2026-05-02T13:01:47Z</time></trkpt><trkpt lat="44.69515962555191" lon="7.84635797952305"><ele>278.5</ele><time>2026-05-02T13:01:48Z</time></trkpt><trkpt lat="44.69508708712772" lon="7.846536298253957"><ele>278.0</ele><time>2026-05-02T13:01:49Z</time></trkpt><trkpt lat="44.69502129438179" lon="7.846696428438924"><ele>277.5</ele><time>2026-05-02T13:01:50Z</time></trkpt><trkpt lat="44.6949651484159" lon="7.846843346017473"><ele>277.0</ele><time>2026-05-02T13:01:51Z</time></trkpt><trkpt lat="44.69491236776499" lon="7.846980732287878"><ele>277.0</ele><time>2026-05-02T13:01:52Z</time></trkpt><trkpt lat="44.69486196148481" lon="7.847113831699528"><ele>277.0</ele><time>2026-05-02T13:01:53Z</time></trkpt><trkpt lat="44.694811463745125" lon="7.8472460699212325"><ele>277.0</ele><time>2026-05-02T13:01:54Z</time></trkpt><trkpt lat="44.694762403130554" lon="7.8473734141086116"><ele>277.0</ele><time>2026-05-02T13:01:55Z</time></trkpt><trkpt lat="44.694719926195226" lon="7.847488905180303"><ele>277.0</ele><time>2026-05-02T13:01:56Z</time></trkpt><trkpt lat="44.69468085430649" lon="7.847594656647285"><ele>277.0</ele><time>2026-05-02T13:01:57Z</time></trkpt><trkpt lat="44.69464437421575" lon="7.847705264313015"><ele>277.0</ele><time>2026-05-02T13:01:58Z</time></trkpt><trkpt lat="44.694605938809936" lon="7.847819295674955"><ele>277.0</ele><time>2026-05-02T13:01:59Z</time></trkpt><trkpt lat="44.69456119723286" lon="7.8479230364539525"><ele>277.0</ele><time>2026-05-02T13:02:00Z</time></trkpt><trkpt lat="44.6945260254172" lon="7.8480322129289215"><ele>277.0</ele><time>2026-05-02T13:02:01Z</time></trkpt><trkpt lat="44.69448758843678" lon="7.848141431864211"><ele>277.0</ele><time>2026-05-02T13:02:02Z</time></trkpt><trkpt lat="44.6944512344896" lon="7.84825115331089"><ele>277.16666666666663</ele><time>2026-05-02T13:02:03Z</time></trkpt><trkpt lat="44.69441690287528" lon="7.848358454544997"><ele>277.3333333333333</ele><time>2026-05-02T13:02:04Z</time></trkpt><trkpt lat="44.69438157487411" lon="7.848454860680522"><ele>277.5</ele><time>2026-05-02T13:02:05Z</time></trkpt><trkpt lat="44.69434947699376" lon="7.848544731388667"><ele>277.6666666666667</ele><time>2026-05-02T13:02:06Z</time></trkpt><trkpt lat="44.694322983084966" lon="7.848629797590348"><ele>277.83333333333337</ele><time>2026-05-02T13:02:07Z</time></trkpt><trkpt lat="44.69425745935768" lon="7.848764603122679"><ele>278.0</ele><time>2026-05-02T13:02:09Z</time></trkpt><trkpt lat="44.69420459400275" lon="7.8489072065346335"><ele>278.0</ele><time>2026-05-02T13:02:11Z</time></trkpt><trkpt lat="44.694154241782805" lon="7.849045193906322"><ele>278.0</ele><time>2026-05-02T13:02:13Z</time></trkpt><trkpt lat="44.69412272728499" lon="7.849155210032975"><ele>278.0</ele><time>2026-05-02T13:02:15Z</time></trkpt><trkpt lat="44.69408208526027" lon="7.849236139404748"><ele>278.0</ele><time>2026-05-02T13:02:19Z</time></trkpt><trkpt lat="44.694035895245314" lon="7.849314793262783"><ele>278.0</ele><time>2026-05-02T13:02:24Z</time></trkpt><trkpt lat="44.693980716479366" lon="7.849383053755954"><ele>278.0</ele><time>2026-05-02T13:02:24.999Z</time></trkpt><trkpt lat="44.69391401248882" lon="7.849463025715724"><ele>278.2</ele><time>2026-05-02T13:02:25.999Z</time></trkpt><trkpt lat="44.693844527941664" lon="7.849564137980515"><ele>278.4</ele><time>2026-05-02T13:02:26.999Z</time></trkpt><trkpt lat="44.69377293921904" lon="7.84966752138199"><ele>278.59999999999997</ele><time>2026-05-02T13:02:27.999Z</time></trkpt><trkpt lat="44.69369143738086" lon="7.849799910547308"><ele>278.8</ele><time>2026-05-02T13:02:28.999Z</time></trkpt><trkpt lat="44.69362855650891" lon="7.849911644731998"><ele>279.0</ele><time>2026-05-02T13:02:29.999Z</time></trkpt><trkpt lat="44.693585680107084" lon="7.849981217671594"><ele>279.0</ele><time>2026-05-02T13:02:30.999Z</time></trkpt><trkpt lat="44.69351731700265" lon="7.850066663714819"><ele>279.0</ele><time>2026-05-02T13:02:32.999Z</time></trkpt><trkpt lat="44.69347800913602" lon="7.850155278109032"><ele>279.0</ele><time>2026-05-02T13:02:34Z</time></trkpt><trkpt lat="44.69344225036429" lon="7.850281277650217"><ele>279.0</ele><time>2026-05-02T13:02:35Z</time></trkpt><trkpt lat="44.69340465265391" lon="7.850443123747396"><ele>279.0</ele><time>2026-05-02T13:02:36Z</time></trkpt><trkpt lat="44.69336221871824" lon="7.850635121739664"><ele>279.3333333333333</ele><time>2026-05-02T13:02:37Z</time></trkpt><trkpt lat="44.69330867195189" lon="7.85083823390255"><ele>279.66666666666663</ele><time>2026-05-02T13:02:38Z</time></trkpt><trkpt lat="44.69324677702734" lon="7.851052897510812"><ele>280.0</ele><time>2026-05-02T13:02:39Z</time></trkpt><trkpt lat="44.69316628869719" lon="7.851275522957674"><ele>280.0</ele><time>2026-05-02T13:02:40Z</time></trkpt><trkpt lat="44.69308397104801" lon="7.8515020545652785"><ele>280.0</ele><time>2026-05-02T13:02:41Z</time></trkpt><trkpt lat="44.69299437875496" lon="7.851729971230541"><ele>280.0</ele><time>2026-05-02T13:02:42Z</time></trkpt><trkpt lat="44.69291127923001" lon="7.851961339555418"><ele>280.0</ele><time>2026-05-02T13:02:43Z</time></trkpt><trkpt lat="44.692827742952915" lon="7.852193992762845"><ele>280.0</ele><time>2026-05-02T13:02:44Z</time></trkpt><trkpt lat="44.692739826616894" lon="7.852425216146419"><ele>280.0</ele><time>2026-05-02T13:02:45Z</time></trkpt><trkpt lat="44.692662528462016" lon="7.852663641100364"><ele>279.66666666666663</ele><time>2026-05-02T13:02:46Z</time></trkpt><trkpt lat="44.69258709676958" lon="7.852900168824052"><ele>279.3333333333333</ele><time>2026-05-02T13:02:47Z</time></trkpt><trkpt lat="44.69252911092959" lon="7.8531209963124615"><ele>279.0</ele><time>2026-05-02T13:02:48Z</time></trkpt><trkpt lat="44.692485740203615" lon="7.853316791612814"><ele>279.25</ele><time>2026-05-02T13:02:49Z</time></trkpt><trkpt lat="44.692449794934944" lon="7.853485999109296"><ele>279.5</ele><time>2026-05-02T13:02:50Z</time></trkpt><trkpt lat="44.69241575889037" lon="7.8536499338525"><ele>279.75</ele><time>2026-05-02T13:02:51Z</time></trkpt><trkpt lat="44.692390177683954" lon="7.853802223895831"><ele>280.0</ele><time>2026-05-02T13:02:52Z</time></trkpt><trkpt lat="44.69236796440734" lon="7.853945897262753"><ele>280.0</ele><time>2026-05-02T13:02:53Z</time></trkpt><trkpt lat="44.69235393384341" lon="7.85408599622104"><ele>280.0</ele><time>2026-05-02T13:02:54Z</time></trkpt><trkpt lat="44.692343418002324" lon="7.854236674240992"><ele>280.0</ele><time>2026-05-02T13:02:55Z</time></trkpt><trkpt lat="44.69233494085525" lon="7.854381828318269"><ele>280.0</ele><time>2026-05-02T13:02:56Z</time></trkpt><trkpt lat="44.692325240787696" lon="7.854507495577106"><ele>280.0</ele><time>2026-05-02T13:02:57Z</time></trkpt><trkpt lat="44.69231983297484" lon="7.854612121788496"><ele>280.0</ele><time>2026-05-02T13:02:58Z</time></trkpt><trkpt lat="44.69230140410391" lon="7.854766070401986"><ele>280.0</ele><time>2026-05-02T13:03:00Z</time></trkpt><trkpt lat="44.692208902650975" lon="7.854907908582514"><ele>280.0</ele><time>2026-05-02T13:03:02Z</time></trkpt><trkpt lat="44.69212838576694" lon="7.854953267798949"><ele>280.0</ele><time>2026-05-02T13:03:03Z</time></trkpt><trkpt lat="44.692028012739456" lon="7.8549539911177595"><ele>280.0</ele><time>2026-05-02T13:03:04Z</time></trkpt><trkpt lat="44.69190482945849" lon="7.854926720549068"><ele>280.0</ele><time>2026-05-02T13:03:05Z</time></trkpt><trkpt lat="44.691765734886744" lon="7.854896001832663"><ele>280.0</ele><time>2026-05-02T13:03:06Z</time></trkpt><trkpt lat="44.69162432670838" lon="7.854879540869502"><ele>280.0</ele><time>2026-05-02T13:03:07Z</time></trkpt><trkpt lat="44.691477588526986" lon="7.854867239219055"><ele>280.0</ele><time>2026-05-02T13:03:08Z</time></trkpt><trkpt lat="44.691317490278294" lon="7.854848631768859"><ele>280.0</ele><time>2026-05-02T13:03:09Z</time></trkpt><trkpt lat="44.691150463782456" lon="7.854822670214777"><ele>280.0</ele><time>2026-05-02T13:03:10Z</time></trkpt><trkpt lat="44.690991250686565" lon="7.8548037670108"><ele>280.0</ele><time>2026-05-02T13:03:11Z</time></trkpt><trkpt lat="44.69084931038931" lon="7.8547876088876105"><ele>280.0</ele><time>2026-05-02T13:03:12Z</time></trkpt><trkpt lat="44.69071729875584" lon="7.854771844384204"><ele>280.0</ele><time>2026-05-02T13:03:13Z</time></trkpt><trkpt lat="44.69059946370871" lon="7.854765390067203"><ele>280.0</ele><time>2026-05-02T13:03:14Z</time></trkpt><trkpt lat="44.690500368585994" lon="7.854763315370489"><ele>280.0</ele><time>2026-05-02T13:03:15Z</time></trkpt><trkpt lat="44.69043090335372" lon="7.854764932024012"><ele>280.0</ele><time>2026-05-02T13:03:16Z</time></trkpt><trkpt lat="44.69032784539755" lon="7.8547618036448865"><ele>280.0</ele><time>2026-05-02T13:03:18Z</time></trkpt><trkpt lat="44.69027011938596" lon="7.854800626628287"><ele>280.0</ele><time>2026-05-02T13:03:19Z</time></trkpt><trkpt lat="44.690203455145294" lon="7.854890710763259"><ele>280.0</ele><time>2026-05-02T13:03:20Z</time></trkpt><trkpt lat="44.69012445022396" lon="7.854984325467533"><ele>280.0</ele><time>2026-05-02T13:03:21Z</time></trkpt><trkpt lat="44.69000363175975" lon="7.855015481034853"><ele>280.0</ele><time>2026-05-02T13:03:22Z</time></trkpt><trkpt lat="44.68986148798577" lon="7.855074923190697"><ele>279.66666666666663</ele><time>2026-05-02T13:03:23Z</time></trkpt><trkpt lat="44.689705419056956" lon="7.855108583379805"><ele>279.3333333333333</ele><time>2026-05-02T13:03:24Z</time></trkpt><trkpt lat="44.68954890038393" lon="7.855127332920788"><ele>279.0</ele><time>2026-05-02T13:03:25Z</time></trkpt><trkpt lat="44.68937229102977" lon="7.8551216424780925"><ele>279.0</ele><time>2026-05-02T13:03:26Z</time></trkpt><trkpt lat="44.689183592096505" lon="7.855100387806155"><ele>279.0</ele><time>2026-05-02T13:03:27Z</time></trkpt><trkpt lat="44.68899071082216" lon="7.855058192395815"><ele>279.0</ele><time>2026-05-02T13:03:28Z</time></trkpt><trkpt lat="44.68879546922561" lon="7.855000437397454"><ele>279.0</ele><time>2026-05-02T13:03:29Z</time></trkpt><trkpt lat="44.688603124026045" lon="7.854929395879696"><ele>279.0</ele><time>2026-05-02T13:03:30Z</time></trkpt><trkpt lat="44.68841414265674" lon="7.854854621079867"><ele>279.0</ele><time>2026-05-02T13:03:31Z</time></trkpt><trkpt lat="44.68822415625888" lon="7.854770065655991"><ele>277.3333333333333</ele><time>2026-05-02T13:03:32Z</time></trkpt><trkpt lat="44.68804443064963" lon="7.854661864176435"><ele>275.66666666666663</ele><time>2026-05-02T13:03:33Z</time></trkpt><trkpt lat="44.687878697192986" lon="7.854536179001521"><ele>274.0</ele><time>2026-05-02T13:03:34Z</time></trkpt><trkpt lat="44.68771175694364" lon="7.854382290377678"><ele>272.0</ele><time>2026-05-02T13:03:35Z</time></trkpt><trkpt lat="44.68754546851841" lon="7.854193965520809"><ele>270.0</ele><time>2026-05-02T13:03:36Z</time></trkpt><trkpt lat="44.68737879901875" lon="7.853982009672464"><ele>268.0</ele><time>2026-05-02T13:03:37Z</time></trkpt><trkpt lat="44.68720657699304" lon="7.853757553993348"><ele>268.0</ele><time>2026-05-02T13:03:38Z</time></trkpt><trkpt lat="44.68702624479255" lon="7.853521476481132"><ele>268.0</ele><time>2026-05-02T13:03:39Z</time></trkpt><trkpt lat="44.686842863827046" lon="7.85327926782657"><ele>264.0</ele><time>2026-05-02T13:03:40Z</time></trkpt><trkpt lat="44.686657952687106" lon="7.853043937745706"><ele>260.0</ele><time>2026-05-02T13:03:41Z</time></trkpt><trkpt lat="44.68647146288403" lon="7.852823545479367"><ele>260.0</ele><time>2026-05-02T13:03:42Z</time></trkpt><trkpt lat="44.68628167054158" lon="7.852626191414711"><ele>260.0</ele><time>2026-05-02T13:03:43Z</time></trkpt><trkpt lat="44.68608173868628" lon="7.852456042497199"><ele>258.5</ele><time>2026-05-02T13:03:44Z</time></trkpt><trkpt lat="44.6858676508325" lon="7.852288622569541"><ele>257.0</ele><time>2026-05-02T13:03:45Z</time></trkpt><trkpt lat="44.68566325194962" lon="7.852132355435169"><ele>257.0</ele><time>2026-05-02T13:03:46Z</time></trkpt><trkpt lat="44.68547118888282" lon="7.85198620604289"><ele>257.0</ele><time>2026-05-02T13:03:47Z</time></trkpt><trkpt lat="44.68528124367005" lon="7.8518643354830795"><ele>257.0</ele><time>2026-05-02T13:03:48Z</time></trkpt><trkpt lat="44.685086940360925" lon="7.851771459355454"><ele>256.33333333333337</ele><time>2026-05-02T13:03:49Z</time></trkpt><trkpt lat="44.68487859060149" lon="7.8517003620536725"><ele>255.66666666666669</ele><time>2026-05-02T13:03:50Z</time></trkpt><trkpt lat="44.6846680467758" lon="7.851642923937869"><ele>255.0</ele><time>2026-05-02T13:03:51Z</time></trkpt><trkpt lat="44.684456918805736" lon="7.8516121262913785"><ele>248.5</ele><time>2026-05-02T13:03:52Z</time></trkpt><trkpt lat="44.68423224865581" lon="7.851613775685052"><ele>242.0</ele><time>2026-05-02T13:03:53Z</time></trkpt><trkpt lat="44.684001863556624" lon="7.851628049325875"><ele>242.0</ele><time>2026-05-02T13:03:54Z</time></trkpt><trkpt lat="44.68376925466108" lon="7.851652064677103"><ele>242.0</ele><time>2026-05-02T13:03:55Z</time></trkpt><trkpt lat="44.68352546453589" lon="7.851683873771399"><ele>238.5</ele><time>2026-05-02T13:03:56Z</time></trkpt><trkpt lat="44.68327444532056" lon="7.851718868030177"><ele>235.0</ele><time>2026-05-02T13:03:57Z</time></trkpt><trkpt lat="44.68301622229952" lon="7.851759310307451"><ele>228.5</ele><time>2026-05-02T13:03:58Z</time></trkpt><trkpt lat="44.68274482589518" lon="7.851802327097425"><ele>222.0</ele><time>2026-05-02T13:03:59Z</time></trkpt><trkpt lat="44.68246366710183" lon="7.8518455095467505"><ele>222.0</ele><time>2026-05-02T13:04:00Z</time></trkpt><trkpt lat="44.68217773958108" lon="7.851886036162311"><ele>222.0</ele><time>2026-05-02T13:04:01Z</time></trkpt><trkpt lat="44.681887788210084" lon="7.851926629666483"><ele>221.5</ele><time>2026-05-02T13:04:02Z</time></trkpt><trkpt lat="44.68159473098801" lon="7.851972587542198"><ele>221.0</ele><time>2026-05-02T13:04:03Z</time></trkpt><trkpt lat="44.681301914712456" lon="7.8520207717515165"><ele>219.0</ele><time>2026-05-02T13:04:04Z</time></trkpt><trkpt lat="44.6810166775526" lon="7.85207488991272"><ele>217.0</ele><time>2026-05-02T13:04:05Z</time></trkpt><trkpt lat="44.6807284959038" lon="7.852117038363195"><ele>217.0</ele><time>2026-05-02T13:04:06Z</time></trkpt><trkpt lat="44.68043811201226" lon="7.852161775447236"><ele>217.0</ele><time>2026-05-02T13:04:07Z</time></trkpt><trkpt lat="44.68014609863478" lon="7.85220725192505"><ele>217.5</ele><time>2026-05-02T13:04:08Z</time></trkpt><trkpt lat="44.67984769874079" lon="7.852250314136519"><ele>218.0</ele><time>2026-05-02T13:04:09Z</time></trkpt><trkpt lat="44.67954409471351" lon="7.852295751918007"><ele>219.0</ele><time>2026-05-02T13:04:10Z</time></trkpt><trkpt lat="44.67923778001813" lon="7.85234203115777"><ele>220.0</ele><time>2026-05-02T13:04:11Z</time></trkpt><trkpt lat="44.67895178526216" lon="7.8523936782582755"><ele>220.0</ele><time>2026-05-02T13:04:12Z</time></trkpt><trkpt lat="44.678675265813304" lon="7.852440925922018"><ele>220.0</ele><time>2026-05-02T13:04:13Z</time></trkpt><trkpt lat="44.67837633389772" lon="7.852493072898613"><ele>219.5</ele><time>2026-05-02T13:04:14Z</time></trkpt><trkpt lat="44.67806926538163" lon="7.852549031803784"><ele>219.0</ele><time>2026-05-02T13:04:15Z</time></trkpt><trkpt lat="44.677766669124246" lon="7.852594463891879"><ele>221.0</ele><time>2026-05-02T13:04:16Z</time></trkpt><trkpt lat="44.677464526427215" lon="7.852640558561268"><ele>223.0</ele><time>2026-05-02T13:04:17Z</time></trkpt><trkpt lat="44.677159884392275" lon="7.852687185683227"><ele>222.5</ele><time>2026-05-02T13:04:18Z</time></trkpt><trkpt lat="44.67684960084584" lon="7.852742067040386"><ele>222.0</ele><time>2026-05-02T13:04:19Z</time></trkpt><trkpt lat="44.67654476081488" lon="7.852787095158583"><ele>222.0</ele><time>2026-05-02T13:04:20Z</time></trkpt><trkpt lat="44.67626280701141" lon="7.852831644962371"><ele>222.0</ele><time>2026-05-02T13:04:21Z</time></trkpt><trkpt lat="44.67598735673623" lon="7.852873130351411"><ele>221.5</ele><time>2026-05-02T13:04:22Z</time></trkpt><trkpt lat="44.675721561302936" lon="7.852917115402299"><ele>221.0</ele><time>2026-05-02T13:04:23Z</time></trkpt><trkpt lat="44.675476831730414" lon="7.852961631300523"><ele>221.0</ele><time>2026-05-02T13:04:24Z</time></trkpt><trkpt lat="44.67524745017579" lon="7.853008839991256"><ele>221.0</ele><time>2026-05-02T13:04:25Z</time></trkpt><trkpt lat="44.67503242430993" lon="7.853053082749004"><ele>221.0</ele><time>2026-05-02T13:04:26Z</time></trkpt><trkpt lat="44.67484171786456" lon="7.853093763026143"><ele>221.0</ele><time>2026-05-02T13:04:27Z</time></trkpt><trkpt lat="44.67471277115637" lon="7.853115606175306"><ele>221.0</ele><time>2026-05-02T13:04:28Z</time></trkpt><trkpt lat="44.67460221431892" lon="7.853135371732269"><ele>221.0</ele><time>2026-05-02T13:04:29Z</time></trkpt><trkpt lat="44.6745026569497" lon="7.853150949904946"><ele>221.0</ele><time>2026-05-02T13:04:29.999Z</time></trkpt><trkpt lat="44.67438200719648" lon="7.8531734906751725"><ele>221.75</ele><time>2026-05-02T13:04:30.999Z</time></trkpt><trkpt lat="44.674245425045314" lon="7.853200531773558"><ele>222.5</ele><time>2026-05-02T13:04:31.999Z</time></trkpt><trkpt lat="44.67409984547484" lon="7.85322854451899"><ele>223.25</ele><time>2026-05-02T13:04:32.999Z</time></trkpt><trkpt lat="44.67394982934316" lon="7.853254612338513"><ele>224.0</ele><time>2026-05-02T13:04:33.999Z</time></trkpt><trkpt lat="44.67379861512429" lon="7.853277291250519"><ele>224.0</ele><time>2026-05-02T13:04:34.999Z</time></trkpt><trkpt lat="44.673646290671115" lon="7.853302479663901"><ele>224.0</ele><time>2026-05-02T13:04:35.999Z</time></trkpt><trkpt lat="44.67348956365975" lon="7.853328502429301"><ele>224.0</ele><time>2026-05-02T13:04:36.999Z</time></trkpt><trkpt lat="44.6733339464107" lon="7.8533570219436335"><ele>224.33333333333334</ele><time>2026-05-02T13:04:37.999Z</time></trkpt><trkpt lat="44.67317468087843" lon="7.853382695575077"><ele>224.66666666666669</ele><time>2026-05-02T13:04:38.999Z</time></trkpt><trkpt lat="44.67301930705547" lon="7.853410286788606"><ele>225.0</ele><time>2026-05-02T13:04:39.999Z</time></trkpt><trkpt lat="44.67286567460535" lon="7.853436608764454"><ele>225.75</ele><time>2026-05-02T13:04:40.999Z</time></trkpt><trkpt lat="44.67271729934614" lon="7.8534618882075105"><ele>226.5</ele><time>2026-05-02T13:04:41.999Z</time></trkpt><trkpt lat="44.672575389229316" lon="7.853487849103899"><ele>227.25</ele><time>2026-05-02T13:04:42.999Z</time></trkpt><trkpt lat="44.67242734945374" lon="7.853514654368812"><ele>228.0</ele><time>2026-05-02T13:04:43.999Z</time></trkpt><trkpt lat="44.672281199805774" lon="7.853533651225519"><ele>228.0</ele><time>2026-05-02T13:04:44.999Z</time></trkpt><trkpt lat="44.67210993513951" lon="7.853566913242353"><ele>228.0</ele><time>2026-05-02T13:04:45.999Z</time></trkpt><trkpt lat="44.671948625872844" lon="7.8535901117233236"><ele>228.0</ele><time>2026-05-02T13:04:46.999Z</time></trkpt><trkpt lat="44.671772973112994" lon="7.853617454352909"><ele>226.66666666666669</ele><time>2026-05-02T13:04:47.999Z</time></trkpt><trkpt lat="44.67160471587452" lon="7.853646147280703"><ele>225.33333333333334</ele><time>2026-05-02T13:04:48.999Z</time></trkpt><trkpt lat="44.67142818993585" lon="7.853672455214104"><ele>224.0</ele><time>2026-05-02T13:04:50Z</time></trkpt><trkpt lat="44.671238325115695" lon="7.853704199493206"><ele>222.33333333333334</ele><time>2026-05-02T13:04:51Z</time></trkpt><trkpt lat="44.67104042339735" lon="7.853733537898534"><ele>220.66666666666669</ele><time>2026-05-02T13:04:52Z</time></trkpt><trkpt lat="44.67083284125308" lon="7.8537715286948915"><ele>219.0</ele><time>2026-05-02T13:04:53Z</time></trkpt><trkpt lat="44.670616090893986" lon="7.853810155040803"><ele>219.0</ele><time>2026-05-02T13:04:54Z</time></trkpt><trkpt lat="44.670391708880025" lon="7.8538463005321715"><ele>219.0</ele><time>2026-05-02T13:04:55Z</time></trkpt><trkpt lat="44.67015904265105" lon="7.853885232738324"><ele>219.5</ele><time>2026-05-02T13:04:56Z</time></trkpt><trkpt lat="44.669922761052" lon="7.853932464198979"><ele>220.0</ele><time>2026-05-02T13:04:57Z</time></trkpt><trkpt lat="44.66968486268946" lon="7.853981555314463"><ele>220.0</ele><time>2026-05-02T13:04:58Z</time></trkpt><trkpt lat="44.6694512776141" lon="7.854024623999648"><ele>220.0</ele><time>2026-05-02T13:04:59Z</time></trkpt><trkpt lat="44.66921761805478" lon="7.854057639015171"><ele>220.0</ele><time>2026-05-02T13:05:00Z</time></trkpt><trkpt lat="44.66898342176951" lon="7.854084826479545"><ele>220.0</ele><time>2026-05-02T13:05:01Z</time></trkpt><trkpt lat="44.66874311573752" lon="7.854117559514039"><ele>220.0</ele><time>2026-05-02T13:05:02Z</time></trkpt><trkpt lat="44.66849525442175" lon="7.854159408513418"><ele>220.0</ele><time>2026-05-02T13:05:03Z</time></trkpt><trkpt lat="44.66824710441153" lon="7.854200159566655"><ele>220.0</ele><time>2026-05-02T13:05:04Z</time></trkpt><trkpt lat="44.66800715256482" lon="7.854239175069656"><ele>220.0</ele><time>2026-05-02T13:05:05Z</time></trkpt><trkpt lat="44.667791086085415" lon="7.8542737797845685"><ele>219.33333333333331</ele><time>2026-05-02T13:05:06Z</time></trkpt><trkpt lat="44.667588148728996" lon="7.854304139148414"><ele>218.66666666666669</ele><time>2026-05-02T13:05:07Z</time></trkpt><trkpt lat="44.66740074438766" lon="7.854325082967592"><ele>218.0</ele><time>2026-05-02T13:05:08Z</time></trkpt><trkpt lat="44.6672290961386" lon="7.8543363020335475"><ele>218.0</ele><time>2026-05-02T13:05:09Z</time></trkpt><trkpt lat="44.667067480648" lon="7.854347376221651"><ele>218.0</ele><time>2026-05-02T13:05:10Z</time></trkpt><trkpt lat="44.66692444476185" lon="7.8543453641007295"><ele>218.0</ele><time>2026-05-02T13:05:11Z</time></trkpt><trkpt lat="44.66680745056977" lon="7.854323337642325"><ele>218.0</ele><time>2026-05-02T13:05:12Z</time></trkpt><trkpt lat="44.66670055840636" lon="7.85428406650619"><ele>218.25</ele><time>2026-05-02T13:05:13Z</time></trkpt><trkpt lat="44.66659856208571" lon="7.854229835439292"><ele>218.5</ele><time>2026-05-02T13:05:14Z</time></trkpt><trkpt lat="44.666486967308906" lon="7.854227325698929"><ele>218.75</ele><time>2026-05-02T13:05:15Z</time></trkpt><trkpt lat="44.66637930836384" lon="7.85428696344293"><ele>219.0</ele><time>2026-05-02T13:05:16Z</time></trkpt><trkpt lat="44.666277859193315" lon="7.854381250484642"><ele>219.0</ele><time>2026-05-02T13:05:17Z</time></trkpt><trkpt lat="44.666162152604024" lon="7.854474400769334"><ele>219.0</ele><time>2026-05-02T13:05:18Z</time></trkpt><trkpt lat="44.66602290075533" lon="7.854519428544205"><ele>219.0</ele><time>2026-05-02T13:05:19Z</time></trkpt><trkpt lat="44.66586375406323" lon="7.854550829947699"><ele>219.0</ele><time>2026-05-02T13:05:20Z</time></trkpt><trkpt lat="44.66569112208112" lon="7.854562762047848"><ele>219.0</ele><time>2026-05-02T13:05:21Z</time></trkpt><trkpt lat="44.66550349860523" lon="7.854555949498831"><ele>219.0</ele><time>2026-05-02T13:05:22Z</time></trkpt><trkpt lat="44.66530171515451" lon="7.854544213450248"><ele>219.0</ele><time>2026-05-02T13:05:23Z</time></trkpt><trkpt lat="44.66509005197318" lon="7.854540432482438"><ele>219.0</ele><time>2026-05-02T13:05:24Z</time></trkpt><trkpt lat="44.664872883880705" lon="7.854540154438856"><ele>219.0</ele><time>2026-05-02T13:05:25Z</time></trkpt><trkpt lat="44.66465207586625" lon="7.8545389867780315"><ele>219.0</ele><time>2026-05-02T13:05:26Z</time></trkpt><trkpt lat="44.664422156569174" lon="7.854536501246953"><ele>219.33333333333331</ele><time>2026-05-02T13:05:27Z</time></trkpt><trkpt lat="44.66419636711543" lon="7.854529499477562"><ele>219.66666666666666</ele><time>2026-05-02T13:05:28Z</time></trkpt><trkpt lat="44.66397616079521" lon="7.854525071593269"><ele>220.0</ele><time>2026-05-02T13:05:29Z</time></trkpt><trkpt lat="44.66377260870968" lon="7.8545300172314"><ele>219.0</ele><time>2026-05-02T13:05:30Z</time></trkpt><trkpt lat="44.66358186977804" lon="7.8545342949027654"><ele>218.0</ele><time>2026-05-02T13:05:31Z</time></trkpt><trkpt lat="44.663397913471954" lon="7.854535248133681"><ele>217.0</ele><time>2026-05-02T13:05:32Z</time></trkpt><trkpt lat="44.66322274562984" lon="7.85453150999239"><ele>217.0</ele><time>2026-05-02T13:05:33Z</time></trkpt><trkpt lat="44.66305733586703" lon="7.854528179107244"><ele>217.0</ele><time>2026-05-02T13:05:34Z</time></trkpt><trkpt lat="44.66291221129233" lon="7.854526911438337"><ele>217.0</ele><time>2026-05-02T13:05:35Z</time></trkpt><trkpt lat="44.66278843800728" lon="7.854519498112996"><ele>217.0</ele><time>2026-05-02T13:05:36Z</time></trkpt><trkpt lat="44.662686043775615" lon="7.854488136149417"><ele>217.0</ele><time>2026-05-02T13:05:37Z</time></trkpt><trkpt lat="44.662594957007904" lon="7.854413305742015"><ele>217.0</ele><time>2026-05-02T13:05:38Z</time></trkpt><trkpt lat="44.66251169432275" lon="7.854300979512972"><ele>217.0</ele><time>2026-05-02T13:05:39Z</time></trkpt><trkpt lat="44.662416954937406" lon="7.8542207751442685"><ele>217.0</ele><time>2026-05-02T13:05:40Z</time></trkpt><trkpt lat="44.662321842755055" lon="7.8542039173773075"><ele>217.0</ele><time>2026-05-02T13:05:41Z</time></trkpt><trkpt lat="44.662217447394404" lon="7.854247937144538"><ele>217.0</ele><time>2026-05-02T13:05:42Z</time></trkpt><trkpt lat="44.662095891757446" lon="7.8543247930401305"><ele>217.0</ele><time>2026-05-02T13:05:43Z</time></trkpt><trkpt lat="44.661984421236845" lon="7.854479325215824"><ele>217.0</ele><time>2026-05-02T13:05:44Z</time></trkpt><trkpt lat="44.66186912827411" lon="7.854508521730968"><ele>217.0</ele><time>2026-05-02T13:05:45Z</time></trkpt><trkpt lat="44.66170075639741" lon="7.854549637698544"><ele>217.33333333333331</ele><time>2026-05-02T13:05:46Z</time></trkpt><trkpt lat="44.66150719766525" lon="7.854553045129871"><ele>217.66666666666669</ele><time>2026-05-02T13:05:47Z</time></trkpt><trkpt lat="44.66132104035221" lon="7.854578129021851"><ele>218.0</ele><time>2026-05-02T13:05:48Z</time></trkpt><trkpt lat="44.66112818422657" lon="7.854632346278105"><ele>214.66666666666669</ele><time>2026-05-02T13:05:49Z</time></trkpt><trkpt lat="44.6609319068626" lon="7.8546877401118405"><ele>211.33333333333331</ele><time>2026-05-02T13:05:50Z</time></trkpt><trkpt lat="44.66075731178451" lon="7.854743394312211"><ele>208.0</ele><time>2026-05-02T13:05:51Z</time></trkpt><trkpt lat="44.660584268807035" lon="7.854814988096514"><ele>208.0</ele><time>2026-05-02T13:05:52Z</time></trkpt><trkpt lat="44.66041496743902" lon="7.854893603479399"><ele>208.0</ele><time>2026-05-02T13:05:53Z</time></trkpt><trkpt lat="44.66025657066261" lon="7.85495867591052"><ele>208.0</ele><time>2026-05-02T13:05:54Z</time></trkpt><trkpt lat="44.66011934325498" lon="7.855013254770431"><ele>208.2</ele><time>2026-05-02T13:05:55Z</time></trkpt><trkpt lat="44.65999773028019" lon="7.855063934546209"><ele>208.4</ele><time>2026-05-02T13:05:56Z</time></trkpt><trkpt lat="44.65988738659833" lon="7.855109539093664"><ele>208.6</ele><time>2026-05-02T13:05:57Z</time></trkpt><trkpt lat="44.659789953767316" lon="7.855148372478639"><ele>208.79999999999998</ele><time>2026-05-02T13:05:58Z</time></trkpt><trkpt lat="44.659690789005715" lon="7.855188329119298"><ele>209.0</ele><time>2026-05-02T13:05:59Z</time></trkpt><trkpt lat="44.659584736211706" lon="7.855228809637637"><ele>208.0</ele><time>2026-05-02T13:06:00Z</time></trkpt><trkpt lat="44.65947996907499" lon="7.855272540598478"><ele>207.0</ele><time>2026-05-02T13:06:01Z</time></trkpt><trkpt lat="44.65937117960709" lon="7.855315586813131"><ele>206.0</ele><time>2026-05-02T13:06:02Z</time></trkpt><trkpt lat="44.65925901426093" lon="7.855358334569043"><ele>205.0</ele><time>2026-05-02T13:06:03Z</time></trkpt><trkpt lat="44.659143373119186" lon="7.855404131027262"><ele>204.5</ele><time>2026-05-02T13:06:04Z</time></trkpt><trkpt lat="44.65903267464712" lon="7.855447006116086"><ele>204.0</ele><time>2026-05-02T13:06:05Z</time></trkpt><trkpt lat="44.65892284521433" lon="7.855485678298592"><ele>203.5</ele><time>2026-05-02T13:06:06Z</time></trkpt><trkpt lat="44.65881098416246" lon="7.855530549891526"><ele>203.0</ele><time>2026-05-02T13:06:07Z</time></trkpt><trkpt lat="44.65869031913451" lon="7.855574779840717"><ele>204.75</ele><time>2026-05-02T13:06:08Z</time></trkpt><trkpt lat="44.65857182290857" lon="7.855619904458915"><ele>206.5</ele><time>2026-05-02T13:06:09Z</time></trkpt><trkpt lat="44.658444392728626" lon="7.855664584735613"><ele>208.25</ele><time>2026-05-02T13:06:10Z</time></trkpt><trkpt lat="44.658313351751936" lon="7.855715326130463"><ele>210.0</ele><time>2026-05-02T13:06:11Z</time></trkpt><trkpt lat="44.658185515352905" lon="7.855767627807899"><ele>210.0</ele><time>2026-05-02T13:06:12Z</time></trkpt><trkpt lat="44.65806048167001" lon="7.855815620632612"><ele>210.0</ele><time>2026-05-02T13:06:13Z</time></trkpt><trkpt lat="44.657941285021" lon="7.855855759713397"><ele>210.0</ele><time>2026-05-02T13:06:14Z</time></trkpt><trkpt lat="44.657834558538305" lon="7.855898762945311"><ele>210.0</ele><time>2026-05-02T13:06:15Z</time></trkpt><trkpt lat="44.657729350057224" lon="7.855935541766185"><ele>210.4</ele><time>2026-05-02T13:06:16Z</time></trkpt><trkpt lat="44.65762193654735" lon="7.855975676277511"><ele>210.8</ele><time>2026-05-02T13:06:17Z</time></trkpt><trkpt lat="44.657514575018496" lon="7.856019159627117"><ele>211.2</ele><time>2026-05-02T13:06:18Z</time></trkpt><trkpt lat="44.65740898479113" lon="7.856065051837836"><ele>211.6</ele><time>2026-05-02T13:06:19Z</time></trkpt><trkpt lat="44.657304598199765" lon="7.856135694569619"><ele>212.0</ele><time>2026-05-02T13:06:20Z</time></trkpt><trkpt lat="44.65721010944867" lon="7.856229249619878"><ele>212.0</ele><time>2026-05-02T13:06:21Z</time></trkpt><trkpt lat="44.65712837545148" lon="7.856351799555124"><ele>212.0</ele><time>2026-05-02T13:06:22Z</time></trkpt><trkpt lat="44.65706730594948" lon="7.8565009328247"><ele>212.0</ele><time>2026-05-02T13:06:23Z</time></trkpt><trkpt lat="44.65702595498484" lon="7.856678861992796"><ele>212.0</ele><time>2026-05-02T13:06:24Z</time></trkpt><trkpt lat="44.65700867693861" lon="7.856885867859239"><ele>212.0</ele><time>2026-05-02T13:06:25Z</time></trkpt><trkpt lat="44.65700651085954" lon="7.857140939296489"><ele>212.0</ele><time>2026-05-02T13:06:26Z</time></trkpt><trkpt lat="44.65696861986175" lon="7.857442450717335"><ele>212.0</ele><time>2026-05-02T13:06:27Z</time></trkpt><trkpt lat="44.65694436832389" lon="7.857782523910881"><ele>215.0</ele><time>2026-05-02T13:06:28Z</time></trkpt><trkpt lat="44.656917841960016" lon="7.858154496554792"><ele>218.0</ele><time>2026-05-02T13:06:29Z</time></trkpt><trkpt lat="44.65691081939583" lon="7.858564768837783"><ele>219.0</ele><time>2026-05-02T13:06:30Z</time></trkpt><trkpt lat="44.656876846330896" lon="7.859001852275231"><ele>220.0</ele><time>2026-05-02T13:06:31Z</time></trkpt><trkpt lat="44.65683456581782" lon="7.8594574830614325"><ele>220.0</ele><time>2026-05-02T13:06:32Z</time></trkpt><trkpt lat="44.656800701458174" lon="7.8598980683105255"><ele>220.0</ele><time>2026-05-02T13:06:33Z</time></trkpt><trkpt lat="44.65677082979847" lon="7.860322787151274"><ele>220.0</ele><time>2026-05-02T13:06:34Z</time></trkpt><trkpt lat="44.656739074568414" lon="7.860749686771049"><ele>220.0</ele><time>2026-05-02T13:06:35Z</time></trkpt><trkpt lat="44.65670960631324" lon="7.86118344332249"><ele>218.5</ele><time>2026-05-02T13:06:36Z</time></trkpt><trkpt lat="44.65667993684995" lon="7.861606387712433"><ele>217.0</ele><time>2026-05-02T13:06:37Z</time></trkpt><trkpt lat="44.65665400450679" lon="7.861995693820954"><ele>216.5</ele><time>2026-05-02T13:06:38Z</time></trkpt><trkpt lat="44.656629197857825" lon="7.862351498637716"><ele>216.0</ele><time>2026-05-02T13:06:39Z</time></trkpt><trkpt lat="44.6566000390211" lon="7.862694982411237"><ele>214.0</ele><time>2026-05-02T13:06:40Z</time></trkpt><trkpt lat="44.65655353226388" lon="7.863035165172374"><ele>212.0</ele><time>2026-05-02T13:06:41Z</time></trkpt><trkpt lat="44.65648392280149" lon="7.863374019690609"><ele>210.0</ele><time>2026-05-02T13:06:42Z</time></trkpt><trkpt lat="44.65638796650769" lon="7.863700251441609"><ele>208.0</ele><time>2026-05-02T13:06:43Z</time></trkpt><trkpt lat="44.6562698927116" lon="7.8640068907728065"><ele>207.5</ele><time>2026-05-02T13:06:44Z</time></trkpt><trkpt lat="44.65612407675794" lon="7.8643038038882755"><ele>207.0</ele><time>2026-05-02T13:06:45Z</time></trkpt><trkpt lat="44.655963240315366" lon="7.8645871624308965"><ele>209.5</ele><time>2026-05-02T13:06:46Z</time></trkpt><trkpt lat="44.65578060519944" lon="7.86484954978309"><ele>212.0</ele><time>2026-05-02T13:06:47Z</time></trkpt><trkpt lat="44.655575446345594" lon="7.865085438930244"><ele>210.0</ele><time>2026-05-02T13:06:48Z</time></trkpt><trkpt lat="44.655353529716166" lon="7.865300706567648"><ele>208.0</ele><time>2026-05-02T13:06:49Z</time></trkpt><trkpt lat="44.655117408923" lon="7.865486879892976"><ele>208.0</ele><time>2026-05-02T13:06:50Z</time></trkpt><trkpt lat="44.65486702645402" lon="7.865634610510057"><ele>208.0</ele><time>2026-05-02T13:06:51Z</time></trkpt><trkpt lat="44.6546065399707" lon="7.8657474171485635"><ele>210.0</ele><time>2026-05-02T13:06:52Z</time></trkpt><trkpt lat="44.654334080003224" lon="7.865809169489441"><ele>212.0</ele><time>2026-05-02T13:06:53Z</time></trkpt><trkpt lat="44.65406356997655" lon="7.865847573033633"><ele>212.0</ele><time>2026-05-02T13:06:54Z</time></trkpt><trkpt lat="44.653795876780315" lon="7.865893800047579"><ele>212.0</ele><time>2026-05-02T13:06:55Z</time></trkpt><trkpt lat="44.65352571737573" lon="7.865909440126425"><ele>211.5</ele><time>2026-05-02T13:06:56Z</time></trkpt><trkpt lat="44.65327476960699" lon="7.865935594286214"><ele>211.0</ele><time>2026-05-02T13:06:57Z</time></trkpt><trkpt lat="44.65304673063112" lon="7.86596193309064"><ele>211.0</ele><time>2026-05-02T13:06:58Z</time></trkpt><trkpt lat="44.65279788411626" lon="7.865991765034247"><ele>211.0</ele><time>2026-05-02T13:06:59Z</time></trkpt><trkpt lat="44.652544886541364" lon="7.866024062438406"><ele>211.5</ele><time>2026-05-02T13:07:00Z</time></trkpt><trkpt lat="44.65230610039607" lon="7.866051738958038"><ele>212.0</ele><time>2026-05-02T13:07:01Z</time></trkpt><trkpt lat="44.65209287175455" lon="7.8660702301440155"><ele>212.33333333333334</ele><time>2026-05-02T13:07:02Z</time></trkpt><trkpt lat="44.65190893308053" lon="7.86607734411692"><ele>212.66666666666669</ele><time>2026-05-02T13:07:03Z</time></trkpt><trkpt lat="44.65174042732151" lon="7.866059053869676"><ele>213.0</ele><time>2026-05-02T13:07:04Z</time></trkpt><trkpt lat="44.65158576589493" lon="7.866011829107293"><ele>213.0</ele><time>2026-05-02T13:07:05Z</time></trkpt><trkpt lat="44.65143789998839" lon="7.865949714321132"><ele>213.0</ele><time>2026-05-02T13:07:06Z</time></trkpt><trkpt lat="44.65128940514278" lon="7.8658859640280925"><ele>213.0</ele><time>2026-05-02T13:07:07Z</time></trkpt><trkpt lat="44.651164374337135" lon="7.865827479280413"><ele>213.0</ele><time>2026-05-02T13:07:08Z</time></trkpt><trkpt lat="44.65105929778321" lon="7.865774861772754"><ele>214.0</ele><time>2026-05-02T13:07:09Z</time></trkpt><trkpt lat="44.65096955483089" lon="7.865755319786923"><ele>215.0</ele><time>2026-05-02T13:07:10Z</time></trkpt><trkpt lat="44.65087895674778" lon="7.86580081963043"><ele>216.0</ele><time>2026-05-02T13:07:11Z</time></trkpt><trkpt lat="44.65078965724381" lon="7.8658900999881425"><ele>217.0</ele><time>2026-05-02T13:07:12Z</time></trkpt><trkpt lat="44.650730052206065" lon="7.866032951229667"><ele>218.0</ele><time>2026-05-02T13:07:13Z</time></trkpt><trkpt lat="44.65069450618052" lon="7.8662151141217596"><ele>218.0</ele><time>2026-05-02T13:07:14Z</time></trkpt><trkpt lat="44.650692476331585" lon="7.866411824632971"><ele>218.0</ele><time>2026-05-02T13:07:15Z</time></trkpt><trkpt lat="44.650627450730035" lon="7.8665875711330475"><ele>218.0</ele><time>2026-05-02T13:07:16Z</time></trkpt><trkpt lat="44.65060922088268" lon="7.8667484887546495"><ele>218.0</ele><time>2026-05-02T13:07:17Z</time></trkpt><trkpt lat="44.6506143586978" lon="7.866901148409056"><ele>217.5</ele><time>2026-05-02T13:07:18Z</time></trkpt><trkpt lat="44.650650510374234" lon="7.867037217645632"><ele>217.0</ele><time>2026-05-02T13:07:19Z</time></trkpt><trkpt lat="44.650710109437824" lon="7.867172937078443"><ele>216.5</ele><time>2026-05-02T13:07:20Z</time></trkpt><trkpt lat="44.65078074484903" lon="7.867324295109591"><ele>216.0</ele><time>2026-05-02T13:07:21Z</time></trkpt><trkpt lat="44.6508543276948" lon="7.867487114536188"><ele>216.0</ele><time>2026-05-02T13:07:22Z</time></trkpt><trkpt lat="44.65092996011455" lon="7.867663773593809"><ele>216.0</ele><time>2026-05-02T13:07:23Z</time></trkpt><trkpt lat="44.650993130057095" lon="7.86784996401707"><ele>216.0</ele><time>2026-05-02T13:07:24Z</time></trkpt><trkpt lat="44.6510347242736" lon="7.868067786168336"><ele>216.0</ele><time>2026-05-02T13:07:25Z</time></trkpt><trkpt lat="44.65105932528526" lon="7.868299563031217"><ele>216.0</ele><time>2026-05-02T13:07:26Z</time></trkpt><trkpt lat="44.65106847484194" lon="7.868547288087282"><ele>216.0</ele><time>2026-05-02T13:07:27Z</time></trkpt><trkpt lat="44.65108147332157" lon="7.868808704281293"><ele>216.0</ele><time>2026-05-02T13:07:28Z</time></trkpt><trkpt lat="44.6510876155841" lon="7.8690420453009615"><ele>216.0</ele><time>2026-05-02T13:07:29Z</time></trkpt><trkpt lat="44.65108456205589" lon="7.869229617484319"><ele>216.0</ele><time>2026-05-02T13:07:30Z</time></trkpt><trkpt lat="44.65107291547349" lon="7.869379094581206"><ele>216.0</ele><time>2026-05-02T13:07:31Z</time></trkpt><trkpt lat="44.65103783657709" lon="7.869511235980966"><ele>215.75</ele><time>2026-05-02T13:07:32Z</time></trkpt><trkpt lat="44.65097601407751" lon="7.869624715470698"><ele>215.5</ele><time>2026-05-02T13:07:33Z</time></trkpt><trkpt lat="44.65089434852808" lon="7.869767045079728"><ele>215.25</ele><time>2026-05-02T13:07:34Z</time></trkpt><trkpt lat="44.65084885810084" lon="7.8699306743500985"><ele>215.0</ele><time>2026-05-02T13:07:35Z</time></trkpt><trkpt lat="44.65084625958442" lon="7.870101124386303"><ele>215.25</ele><time>2026-05-02T13:07:36Z</time></trkpt><trkpt lat="44.65087800327489" lon="7.870262542494458"><ele>215.5</ele><time>2026-05-02T13:07:37Z</time></trkpt><trkpt lat="44.65094458961245" lon="7.870424602354594"><ele>215.75</ele><time>2026-05-02T13:07:38Z</time></trkpt><trkpt lat="44.65102947463697" lon="7.870571632947931"><ele>216.0</ele><time>2026-05-02T13:07:39Z</time></trkpt><trkpt lat="44.651061968444445" lon="7.870764000756286"><ele>215.66666666666669</ele><time>2026-05-02T13:07:40Z</time></trkpt><trkpt lat="44.65112818868555" lon="7.870936149070619"><ele>215.33333333333334</ele><time>2026-05-02T13:07:41Z</time></trkpt><trkpt lat="44.65110017244911" lon="7.871195819193181"><ele>215.0</ele><time>2026-05-02T13:07:42Z</time></trkpt><trkpt lat="44.65109570326768" lon="7.871460628256172"><ele>215.0</ele><time>2026-05-02T13:07:43Z</time></trkpt><trkpt lat="44.65108646537574" lon="7.87171997788858"><ele>215.0</ele><time>2026-05-02T13:07:44Z</time></trkpt><trkpt lat="44.65108608595076" lon="7.87195166773138"><ele>215.0</ele><time>2026-05-02T13:07:45Z</time></trkpt><trkpt lat="44.651084128726474" lon="7.872168712780876"><ele>214.25</ele><time>2026-05-02T13:07:46Z</time></trkpt><trkpt lat="44.65106844787501" lon="7.872376532689264"><ele>213.5</ele><time>2026-05-02T13:07:47Z</time></trkpt><trkpt lat="44.65103683869403" lon="7.872574339831735"><ele>212.75</ele><time>2026-05-02T13:07:48Z</time></trkpt><trkpt lat="44.65098014780575" lon="7.872768249992291"><ele>212.0</ele><time>2026-05-02T13:07:49Z</time></trkpt><trkpt lat="44.65088756533187" lon="7.87296532377267"><ele>209.66666666666669</ele><time>2026-05-02T13:07:50Z</time></trkpt><trkpt lat="44.650757525168395" lon="7.873155141034359"><ele>207.33333333333331</ele><time>2026-05-02T13:07:51Z</time></trkpt><trkpt lat="44.650594213344306" lon="7.873313385662612"><ele>205.0</ele><time>2026-05-02T13:07:52Z</time></trkpt><trkpt lat="44.65039451341159" lon="7.873400472125437"><ele>203.0</ele><time>2026-05-02T13:07:53Z</time></trkpt><trkpt lat="44.650199817195976" lon="7.873523424086467"><ele>201.0</ele><time>2026-05-02T13:07:54Z</time></trkpt><trkpt lat="44.65000082211578" lon="7.87364688121973"><ele>199.0</ele><time>2026-05-02T13:07:55Z</time></trkpt><trkpt lat="44.64980344864812" lon="7.8737791776735735"><ele>199.0</ele><time>2026-05-02T13:07:56Z</time></trkpt><trkpt lat="44.64959543442694" lon="7.87391149348988"><ele>199.0</ele><time>2026-05-02T13:07:57Z</time></trkpt><trkpt lat="44.64938119110904" lon="7.87404410698882"><ele>197.0</ele><time>2026-05-02T13:07:58Z</time></trkpt><trkpt lat="44.649161663308064" lon="7.874172548107248"><ele>195.0</ele><time>2026-05-02T13:07:59Z</time></trkpt><trkpt lat="44.648938858769135" lon="7.874307350469341"><ele>194.5</ele><time>2026-05-02T13:08:00Z</time></trkpt><trkpt lat="44.64871177328832" lon="7.874444094261006"><ele>194.0</ele><time>2026-05-02T13:08:01Z</time></trkpt><trkpt lat="44.6484866143643" lon="7.874586156690487"><ele>195.5</ele><time>2026-05-02T13:08:02Z</time></trkpt><trkpt lat="44.648256752379176" lon="7.874725517340644"><ele>197.0</ele><time>2026-05-02T13:08:03Z</time></trkpt><trkpt lat="44.648023186970505" lon="7.874864401897954"><ele>198.5</ele><time>2026-05-02T13:08:04Z</time></trkpt><trkpt lat="44.64778499947196" lon="7.875009642926875"><ele>200.0</ele><time>2026-05-02T13:08:05Z</time></trkpt><trkpt lat="44.6475474716072" lon="7.875155533882522"><ele>200.5</ele><time>2026-05-02T13:08:06Z</time></trkpt><trkpt lat="44.64731475750069" lon="7.875296241081507"><ele>201.0</ele><time>2026-05-02T13:08:07Z</time></trkpt><trkpt lat="44.64709604072347" lon="7.875434745777861"><ele>202.0</ele><time>2026-05-02T13:08:08Z</time></trkpt><trkpt lat="44.64689408950898" lon="7.875574519266303"><ele>203.0</ele><time>2026-05-02T13:08:09Z</time></trkpt><trkpt lat="44.646711495381936" lon="7.875724509887371"><ele>204.0</ele><time>2026-05-02T13:08:10Z</time></trkpt><trkpt lat="44.646541756915134" lon="7.875906821373054"><ele>204.33333333333331</ele><time>2026-05-02T13:08:11Z</time></trkpt><trkpt lat="44.64638435279973" lon="7.876125009795859"><ele>204.66666666666666</ele><time>2026-05-02T13:08:12Z</time></trkpt><trkpt lat="44.646240238901576" lon="7.876372831980887"><ele>205.0</ele><time>2026-05-02T13:08:13Z</time></trkpt><trkpt lat="44.646110354430014" lon="7.8766391929671675"><ele>206.0</ele><time>2026-05-02T13:08:14Z</time></trkpt><trkpt lat="44.646002950553374" lon="7.87690477690019"><ele>207.0</ele><time>2026-05-02T13:08:15Z</time></trkpt><trkpt lat="44.64591877180212" lon="7.877159573121286"><ele>208.0</ele><time>2026-05-02T13:08:16Z</time></trkpt><trkpt lat="44.645858216341516" lon="7.877398022918491"><ele>208.33333333333331</ele><time>2026-05-02T13:08:17Z</time></trkpt><trkpt lat="44.64580919853681" lon="7.8776300770947465"><ele>208.66666666666669</ele><time>2026-05-02T13:08:18Z</time></trkpt><trkpt lat="44.64577248308675" lon="7.877861651354095"><ele>209.0</ele><time>2026-05-02T13:08:19Z</time></trkpt><trkpt lat="44.64574739776114" lon="7.878099096399311"><ele>209.0</ele><time>2026-05-02T13:08:20Z</time></trkpt><trkpt lat="44.64573959432733" lon="7.878346535241083"><ele>209.0</ele><time>2026-05-02T13:08:21Z</time></trkpt><trkpt lat="44.645748318286294" lon="7.878576842288638"><ele>209.0</ele><time>2026-05-02T13:08:22Z</time></trkpt><trkpt lat="44.645773923578034" lon="7.878796473854791"><ele>209.33333333333334</ele><time>2026-05-02T13:08:23Z</time></trkpt><trkpt lat="44.6458143887369" lon="7.879040704308133"><ele>209.66666666666669</ele><time>2026-05-02T13:08:24Z</time></trkpt><trkpt lat="44.645836014073446" lon="7.879312377536993"><ele>210.0</ele><time>2026-05-02T13:08:25Z</time></trkpt><trkpt lat="44.645873140340555" lon="7.879602483965865"><ele>210.0</ele><time>2026-05-02T13:08:26Z</time></trkpt><trkpt lat="44.645911951945074" lon="7.879905759370248"><ele>210.0</ele><time>2026-05-02T13:08:27Z</time></trkpt><trkpt lat="44.645952985021076" lon="7.880221552409893"><ele>210.0</ele><time>2026-05-02T13:08:28Z</time></trkpt><trkpt lat="44.64600711378776" lon="7.880545753484588"><ele>210.0</ele><time>2026-05-02T13:08:29Z</time></trkpt><trkpt lat="44.646049866110694" lon="7.880885571231007"><ele>210.0</ele><time>2026-05-02T13:08:30Z</time></trkpt><trkpt lat="44.64609729425105" lon="7.881238304132485"><ele>212.5</ele><time>2026-05-02T13:08:31Z</time></trkpt><trkpt lat="44.646143931827126" lon="7.881599196497864"><ele>215.0</ele><time>2026-05-02T13:08:32Z</time></trkpt><trkpt lat="44.64619020790206" lon="7.881965036101221"><ele>215.0</ele><time>2026-05-02T13:08:33Z</time></trkpt><trkpt lat="44.646238856599766" lon="7.8823249654765775"><ele>215.0</ele><time>2026-05-02T13:08:34Z</time></trkpt><trkpt lat="44.64628324819217" lon="7.8826644432803405"><ele>217.0</ele><time>2026-05-02T13:08:35Z</time></trkpt><trkpt lat="44.64633089137585" lon="7.882987755115643"><ele>219.0</ele><time>2026-05-02T13:08:36Z</time></trkpt><trkpt lat="44.64639765163053" lon="7.883313638037462"><ele>221.0</ele><time>2026-05-02T13:08:37Z</time></trkpt><trkpt lat="44.64649351730844" lon="7.883639760964314"><ele>223.0</ele><time>2026-05-02T13:08:38Z</time></trkpt><trkpt lat="44.64661003786608" lon="7.8839530897557735"><ele>223.0</ele><time>2026-05-02T13:08:39Z</time></trkpt><trkpt lat="44.6467325479177" lon="7.88425480160998"><ele>223.0</ele><time>2026-05-02T13:08:40Z</time></trkpt><trkpt lat="44.646852248759465" lon="7.884542494685072"><ele>226.66666666666666</ele><time>2026-05-02T13:08:41Z</time></trkpt><trkpt lat="44.64696393084765" lon="7.884802558665637"><ele>230.33333333333331</ele><time>2026-05-02T13:08:42Z</time></trkpt><trkpt lat="44.64706466281231" lon="7.885097443179252"><ele>234.0</ele><time>2026-05-02T13:08:43Z</time></trkpt><trkpt lat="44.64717772248705" lon="7.885378194327846"><ele>234.0</ele><time>2026-05-02T13:08:44Z</time></trkpt><trkpt lat="44.64729192393573" lon="7.8856181799547596"><ele>234.0</ele><time>2026-05-02T13:08:45Z</time></trkpt><trkpt lat="44.64736552681551" lon="7.885839118701458"><ele>234.0</ele><time>2026-05-02T13:08:46Z</time></trkpt><trkpt lat="44.64740315768037" lon="7.886040449156626"><ele>233.25</ele><time>2026-05-02T13:08:47Z</time></trkpt><trkpt lat="44.64743340145498" lon="7.886228104468564"><ele>232.5</ele><time>2026-05-02T13:08:48Z</time></trkpt><trkpt lat="44.64746095319207" lon="7.886395292322918"><ele>231.75</ele><time>2026-05-02T13:08:49Z</time></trkpt><trkpt lat="44.64749374330886" lon="7.886534230631197"><ele>231.0</ele><time>2026-05-02T13:08:50Z</time></trkpt><trkpt lat="44.647519037944875" lon="7.88669112251829"><ele>232.0</ele><time>2026-05-02T13:08:51Z</time></trkpt><trkpt lat="44.647557479656435" lon="7.886841293852619"><ele>233.00000000000003</ele><time>2026-05-02T13:08:52Z</time></trkpt><trkpt lat="44.64760592250229" lon="7.886957684235772"><ele>234.00000000000003</ele><time>2026-05-02T13:08:53Z</time></trkpt><trkpt lat="44.64767629721711" lon="7.887049012913527"><ele>235.0</ele><time>2026-05-02T13:08:54Z</time></trkpt><trkpt lat="44.647760126068704" lon="7.887129067041863"><ele>236.0</ele><time>2026-05-02T13:08:55Z</time></trkpt><trkpt lat="44.64784481413188" lon="7.887205190619977"><ele>236.0</ele><time>2026-05-02T13:08:56Z</time></trkpt><trkpt lat="44.64793408338458" lon="7.887277826390723"><ele>236.00000000000003</ele><time>2026-05-02T13:08:57Z</time></trkpt><trkpt lat="44.64801586083686" lon="7.887348695383175"><ele>236.00000000000003</ele><time>2026-05-02T13:08:58Z</time></trkpt><trkpt lat="44.64808016221316" lon="7.887440514454336"><ele>236.0</ele><time>2026-05-02T13:08:59Z</time></trkpt><trkpt lat="44.648131967443774" lon="7.88750283054362"><ele>236.0</ele><time>2026-05-02T13:09:00Z</time></trkpt><trkpt lat="44.6481196143245" lon="7.887837419331879"><ele>236.66666666666669</ele><time>2026-05-02T13:09:02Z</time></trkpt><trkpt lat="44.648109605938096" lon="7.8880598631522005"><ele>237.33333333333331</ele><time>2026-05-02T13:09:03Z</time></trkpt><trkpt lat="44.648081628570914" lon="7.888318765122494"><ele>238.0</ele><time>2026-05-02T13:09:04Z</time></trkpt><trkpt lat="44.64805409924118" lon="7.8885986954763325"><ele>239.0</ele><time>2026-05-02T13:09:05Z</time></trkpt><trkpt lat="44.64803399213695" lon="7.888865954685936"><ele>240.0</ele><time>2026-05-02T13:09:06Z</time></trkpt><trkpt lat="44.64804281211989" lon="7.889085468294596"><ele>241.0</ele><time>2026-05-02T13:09:07Z</time></trkpt><trkpt lat="44.648091379651056" lon="7.88928563125819"><ele>243.33333333333331</ele><time>2026-05-02T13:09:08Z</time></trkpt><trkpt lat="44.64820435140547" lon="7.889484563942453"><ele>245.66666666666669</ele><time>2026-05-02T13:09:09Z</time></trkpt><trkpt lat="44.64835651612856" lon="7.889676496893967"><ele>248.0</ele><time>2026-05-02T13:09:10Z</time></trkpt><trkpt lat="44.648484593214576" lon="7.889842057500525"><ele>248.0</ele><time>2026-05-02T13:09:11Z</time></trkpt><trkpt lat="44.64857503885524" lon="7.890016626918006"><ele>248.0</ele><time>2026-05-02T13:09:12Z</time></trkpt><trkpt lat="44.648628519803424" lon="7.890232388718262"><ele>248.0</ele><time>2026-05-02T13:09:13Z</time></trkpt><trkpt lat="44.6486569727921" lon="7.890474931611601"><ele>249.33333333333334</ele><time>2026-05-02T13:09:14Z</time></trkpt><trkpt lat="44.64874590619109" lon="7.890702574518919"><ele>250.66666666666669</ele><time>2026-05-02T13:09:15Z</time></trkpt><trkpt lat="44.64889719121746" lon="7.89091749177099"><ele>252.0</ele><time>2026-05-02T13:09:16Z</time></trkpt><trkpt lat="44.64908071444387" lon="7.891136110188569"><ele>252.33333333333331</ele><time>2026-05-02T13:09:17Z</time></trkpt><trkpt lat="44.64925402343794" lon="7.891355121676965"><ele>252.66666666666666</ele><time>2026-05-02T13:09:18Z</time></trkpt><trkpt lat="44.64938905379966" lon="7.891549100466415"><ele>253.0</ele><time>2026-05-02T13:09:19Z</time></trkpt><trkpt lat="44.64950113115085" lon="7.89173965557457"><ele>254.66666666666666</ele><time>2026-05-02T13:09:20Z</time></trkpt><trkpt lat="44.64959343861274" lon="7.891969166685026"><ele>256.3333333333333</ele><time>2026-05-02T13:09:21Z</time></trkpt><trkpt lat="44.64965875683351" lon="7.892239958474115"><ele>258.0</ele><time>2026-05-02T13:09:22Z</time></trkpt><trkpt lat="44.649697584504096" lon="7.89254443759215"><ele>259.3333333333333</ele><time>2026-05-02T13:09:23Z</time></trkpt><trkpt lat="44.64972852363624" lon="7.892840888505498"><ele>260.66666666666663</ele><time>2026-05-02T13:09:24Z</time></trkpt><trkpt lat="44.64973934648562" lon="7.893110448357261"><ele>262.0</ele><time>2026-05-02T13:09:25Z</time></trkpt><trkpt lat="44.64970720565921" lon="7.8933859684531695"><ele>264.3333333333333</ele><time>2026-05-02T13:09:26Z</time></trkpt><trkpt lat="44.649662584899545" lon="7.893683135144597"><ele>266.6666666666667</ele><time>2026-05-02T13:09:27Z</time></trkpt><trkpt lat="44.64961364455829" lon="7.893974430782581"><ele>269.0</ele><time>2026-05-02T13:09:28Z</time></trkpt><trkpt lat="44.64954402932293" lon="7.89422950208432"><ele>271.6666666666667</ele><time>2026-05-02T13:09:29Z</time></trkpt><trkpt lat="44.649445686628425" lon="7.894458551449821"><ele>274.3333333333333</ele><time>2026-05-02T13:09:30Z</time></trkpt><trkpt lat="44.649342511256215" lon="7.894653350464799"><ele>277.0</ele><time>2026-05-02T13:09:31Z</time></trkpt><trkpt lat="44.64926538044956" lon="7.894822384866686"><ele>277.0</ele><time>2026-05-02T13:09:32Z</time></trkpt><trkpt lat="44.649218630922995" lon="7.894986385483732"><ele>277.0</ele><time>2026-05-02T13:09:33Z</time></trkpt><trkpt lat="44.64922201689817" lon="7.895157491475894"><ele>277.0</ele><time>2026-05-02T13:09:34Z</time></trkpt><trkpt lat="44.649278558771954" lon="7.895333631584651"><ele>277.0</ele><time>2026-05-02T13:09:35Z</time></trkpt><trkpt lat="44.649384848308785" lon="7.895488061917534"><ele>278.0</ele><time>2026-05-02T13:09:36Z</time></trkpt><trkpt lat="44.649496060444775" lon="7.895643128807576"><ele>279.0</ele><time>2026-05-02T13:09:37Z</time></trkpt><trkpt lat="44.64956307318737" lon="7.895861884767107"><ele>280.0</ele><time>2026-05-02T13:09:38Z</time></trkpt><trkpt lat="44.64960128217038" lon="7.896135104409023"><ele>281.3333333333333</ele><time>2026-05-02T13:09:39Z</time></trkpt><trkpt lat="44.649647920842" lon="7.896420924809167"><ele>282.6666666666667</ele><time>2026-05-02T13:09:40Z</time></trkpt><trkpt lat="44.64970433215405" lon="7.896724791201339"><ele>284.0</ele><time>2026-05-02T13:09:41Z</time></trkpt><trkpt lat="44.64975731978402" lon="7.897032625760916"><ele>286.33333333333337</ele><time>2026-05-02T13:09:42Z</time></trkpt><trkpt lat="44.64980662412348" lon="7.89731703993944"><ele>288.6666666666667</ele><time>2026-05-02T13:09:43Z</time></trkpt><trkpt lat="44.64985031491507" lon="7.897568145062667"><ele>291.0</ele><time>2026-05-02T13:09:44Z</time></trkpt><trkpt lat="44.6498993912515" lon="7.897782999623178"><ele>291.6666666666667</ele><time>2026-05-02T13:09:45Z</time></trkpt><trkpt lat="44.649984461280745" lon="7.897988481610188"><ele>292.33333333333337</ele><time>2026-05-02T13:09:46Z</time></trkpt><trkpt lat="44.650117598345645" lon="7.89817777659119"><ele>293.0</ele><time>2026-05-02T13:09:47Z</time></trkpt><trkpt lat="44.65027141569766" lon="7.898356552795195"><ele>294.0</ele><time>2026-05-02T13:09:48Z</time></trkpt><trkpt lat="44.6504087873381" lon="7.8985693972439694"><ele>295.0</ele><time>2026-05-02T13:09:49Z</time></trkpt><trkpt lat="44.650529302323285" lon="7.898801998926101"><ele>296.0</ele><time>2026-05-02T13:09:50Z</time></trkpt><trkpt lat="44.65062576131454" lon="7.899001980202519"><ele>296.0</ele><time>2026-05-02T13:09:51Z</time></trkpt><trkpt lat="44.65068819497782" lon="7.899169487859027"><ele>296.0</ele><time>2026-05-02T13:09:52Z</time></trkpt><trkpt lat="44.6507049199183" lon="7.899340404436811"><ele>296.0</ele><time>2026-05-02T13:09:53Z</time></trkpt><trkpt lat="44.650680387235035" lon="7.899514122867923"><ele>296.0</ele><time>2026-05-02T13:09:54Z</time></trkpt><trkpt lat="44.65060288068231" lon="7.899680092506619"><ele>296.25</ele><time>2026-05-02T13:09:55Z</time></trkpt><trkpt lat="44.65052736066383" lon="7.899854858185468"><ele>296.5</ele><time>2026-05-02T13:09:56Z</time></trkpt><trkpt lat="44.65046238733653" lon="7.9000292559221545"><ele>296.75</ele><time>2026-05-02T13:09:57Z</time></trkpt><trkpt lat="44.65038420119798" lon="7.900156120881028"><ele>297.0</ele><time>2026-05-02T13:09:58Z</time></trkpt><trkpt lat="44.6502694169796" lon="7.9002248850204015"><ele>298.25</ele><time>2026-05-02T13:09:59Z</time></trkpt><trkpt lat="44.650141832695816" lon="7.900171500314982"><ele>299.5</ele><time>2026-05-02T13:10:00Z</time></trkpt><trkpt lat="44.6500235986254" lon="7.900091416899483"><ele>300.75</ele><time>2026-05-02T13:10:01Z</time></trkpt><trkpt lat="44.64989965864751" lon="7.8999753781602955"><ele>302.0</ele><time>2026-05-02T13:10:02Z</time></trkpt><trkpt lat="44.64974675171759" lon="7.899848153262279"><ele>302.0</ele><time>2026-05-02T13:10:03Z</time></trkpt><trkpt lat="44.649588676583704" lon="7.899706844067668"><ele>302.0</ele><time>2026-05-02T13:10:04Z</time></trkpt><trkpt lat="44.64942825617525" lon="7.899569465378925"><ele>302.0</ele><time>2026-05-02T13:10:05Z</time></trkpt><trkpt lat="44.64929254945058" lon="7.899446302371769"><ele>304.75</ele><time>2026-05-02T13:10:06Z</time></trkpt><trkpt lat="44.64917464503893" lon="7.899352022415084"><ele>307.5</ele><time>2026-05-02T13:10:07Z</time></trkpt><trkpt lat="44.649056632558754" lon="7.899312540167479"><ele>310.25</ele><time>2026-05-02T13:10:08Z</time></trkpt><trkpt lat="44.64893002890509" lon="7.899340007883929"><ele>313.0</ele><time>2026-05-02T13:10:09Z</time></trkpt><trkpt lat="44.648795732208434" lon="7.8994394791738545"><ele>313.0</ele><time>2026-05-02T13:10:10Z</time></trkpt><trkpt lat="44.64866778200874" lon="7.899587971503503"><ele>313.0</ele><time>2026-05-02T13:10:11Z</time></trkpt><trkpt lat="44.64853433446623" lon="7.899718616911952"><ele>313.0</ele><time>2026-05-02T13:10:12Z</time></trkpt><trkpt lat="44.6483890167656" lon="7.89975083912775"><ele>314.75</ele><time>2026-05-02T13:10:13Z</time></trkpt><trkpt lat="44.648261687115834" lon="7.899696455836382"><ele>316.5</ele><time>2026-05-02T13:10:14Z</time></trkpt><trkpt lat="44.648137726753845" lon="7.89957973684941"><ele>318.25</ele><time>2026-05-02T13:10:15Z</time></trkpt><trkpt lat="44.64800900765853" lon="7.89943945306598"><ele>320.0</ele><time>2026-05-02T13:10:16Z</time></trkpt><trkpt lat="44.64786711118081" lon="7.899298174889018"><ele>320.5</ele><time>2026-05-02T13:10:17Z</time></trkpt><trkpt lat="44.64773213707925" lon="7.899159075852236"><ele>321.0</ele><time>2026-05-02T13:10:18Z</time></trkpt><trkpt lat="44.647620603263654" lon="7.899056036303479"><ele>321.5</ele><time>2026-05-02T13:10:19Z</time></trkpt><trkpt lat="44.64751842670247" lon="7.898993051391556"><ele>322.0</ele><time>2026-05-02T13:10:20Z</time></trkpt><trkpt lat="44.64741003697823" lon="7.898988519449894"><ele>322.0</ele><time>2026-05-02T13:10:21Z</time></trkpt><trkpt lat="44.64728701952045" lon="7.899056828741198"><ele>322.0</ele><time>2026-05-02T13:10:22Z</time></trkpt><trkpt lat="44.64716305605605" lon="7.899186319862575"><ele>322.0</ele><time>2026-05-02T13:10:23Z</time></trkpt><trkpt lat="44.64703486531521" lon="7.899352718569704"><ele>325.3333333333333</ele><time>2026-05-02T13:10:24Z</time></trkpt><trkpt lat="44.64688763299403" lon="7.899535930916998"><ele>328.6666666666667</ele><time>2026-05-02T13:10:25Z</time></trkpt><trkpt lat="44.6467256632611" lon="7.899725150319177"><ele>332.0</ele><time>2026-05-02T13:10:26Z</time></trkpt><trkpt lat="44.64655964455706" lon="7.899927946172727"><ele>333.0</ele><time>2026-05-02T13:10:27Z</time></trkpt><trkpt lat="44.64639508968465" lon="7.900121751341122"><ele>334.0</ele><time>2026-05-02T13:10:28Z</time></trkpt><trkpt lat="44.6462321943207" lon="7.900290914637294"><ele>335.0</ele><time>2026-05-02T13:10:29Z</time></trkpt><trkpt lat="44.646079292416324" lon="7.900424070386983"><ele>335.0</ele><time>2026-05-02T13:10:30Z</time></trkpt><trkpt lat="44.64593875136297" lon="7.900550053141727"><ele>335.0</ele><time>2026-05-02T13:10:31Z</time></trkpt><trkpt lat="44.64581453995099" lon="7.900690147252076"><ele>335.0</ele><time>2026-05-02T13:10:32Z</time></trkpt><trkpt lat="44.64572504273792" lon="7.9008697760229"><ele>337.6666666666667</ele><time>2026-05-02T13:10:33Z</time></trkpt><trkpt lat="44.64568202014014" lon="7.901104275492894"><ele>340.3333333333333</ele><time>2026-05-02T13:10:34Z</time></trkpt><trkpt lat="44.64567565562581" lon="7.9013876380513235"><ele>343.0</ele><time>2026-05-02T13:10:35Z</time></trkpt><trkpt lat="44.64567152477117" lon="7.901668288987389"><ele>344.66666666666663</ele><time>2026-05-02T13:10:36Z</time></trkpt><trkpt lat="44.64564983114246" lon="7.901904923195947"><ele>346.3333333333333</ele><time>2026-05-02T13:10:37Z</time></trkpt><trkpt lat="44.645596068857046" lon="7.902111874552757"><ele>348.0</ele><time>2026-05-02T13:10:38Z</time></trkpt><trkpt lat="44.6454993663751" lon="7.902280219763005"><ele>348.0</ele><time>2026-05-02T13:10:39Z</time></trkpt><trkpt lat="44.64535352278933" lon="7.902432491855474"><ele>348.0</ele><time>2026-05-02T13:10:40Z</time></trkpt><trkpt lat="44.64521104473275" lon="7.902595024993402"><ele>348.0</ele><time>2026-05-02T13:10:41Z</time></trkpt><trkpt lat="44.64510130506746" lon="7.902781214762374"><ele>348.6666666666667</ele><time>2026-05-02T13:10:42Z</time></trkpt><trkpt lat="44.645043012432396" lon="7.902990638271581"><ele>349.33333333333337</ele><time>2026-05-02T13:10:43Z</time></trkpt><trkpt lat="44.64502279125952" lon="7.903251057381599"><ele>350.0</ele><time>2026-05-02T13:10:44Z</time></trkpt><trkpt lat="44.644974001952775" lon="7.903510918870658"><ele>351.0</ele><time>2026-05-02T13:10:45Z</time></trkpt><trkpt lat="44.64491380864178" lon="7.903778520712858"><ele>352.0</ele><time>2026-05-02T13:10:46Z</time></trkpt><trkpt lat="44.644835180609924" lon="7.904045097183572"><ele>353.0</ele><time>2026-05-02T13:10:47Z</time></trkpt><trkpt lat="44.6447610823944" lon="7.904319789406504"><ele>353.0</ele><time>2026-05-02T13:10:48Z</time></trkpt><trkpt lat="44.64468598641248" lon="7.904578433599919"><ele>353.0</ele><time>2026-05-02T13:10:49Z</time></trkpt><trkpt lat="44.64461605775078" lon="7.904808107346118"><ele>353.0</ele><time>2026-05-02T13:10:50Z</time></trkpt><trkpt lat="44.64455881746236" lon="7.905022597386071"><ele>352.0</ele><time>2026-05-02T13:10:51Z</time></trkpt><trkpt lat="44.64452642982588" lon="7.905243174482455"><ele>351.0</ele><time>2026-05-02T13:10:52Z</time></trkpt><trkpt lat="44.64453478712877" lon="7.905481055424061"><ele>350.0</ele><time>2026-05-02T13:10:53Z</time></trkpt><trkpt lat="44.64455282768222" lon="7.905700834871151"><ele>350.0</ele><time>2026-05-02T13:10:54Z</time></trkpt><trkpt lat="44.644579447039526" lon="7.905884729185254"><ele>350.0</ele><time>2026-05-02T13:10:55Z</time></trkpt><trkpt lat="44.64454028808527" lon="7.906072945321207"><ele>350.0</ele><time>2026-05-02T13:10:56Z</time></trkpt><trkpt lat="44.64443365525261" lon="7.906230651723869"><ele>350.0</ele><time>2026-05-02T13:10:57Z</time></trkpt><trkpt lat="44.64430153944693" lon="7.906387372875054"><ele>354.33333333333337</ele><time>2026-05-02T13:10:58Z</time></trkpt><trkpt lat="44.64417024906653" lon="7.906560434224461"><ele>358.6666666666667</ele><time>2026-05-02T13:10:59Z</time></trkpt><trkpt lat="44.64406422310356" lon="7.906703777625073"><ele>363.0</ele><time>2026-05-02T13:11:00Z</time></trkpt><trkpt lat="44.643998006962676" lon="7.906848803464212"><ele>365.3333333333333</ele><time>2026-05-02T13:11:01Z</time></trkpt><trkpt lat="44.64398929145202" lon="7.907023263993934"><ele>367.66666666666663</ele><time>2026-05-02T13:11:02Z</time></trkpt><trkpt lat="44.644044109438425" lon="7.907223613308776"><ele>370.0</ele><time>2026-05-02T13:11:03Z</time></trkpt><trkpt lat="44.644155079420024" lon="7.907420983627315"><ele>371.66666666666663</ele><time>2026-05-02T13:11:04Z</time></trkpt><trkpt lat="44.644258077707406" lon="7.907629071723295"><ele>373.3333333333333</ele><time>2026-05-02T13:11:05Z</time></trkpt><trkpt lat="44.644346331739754" lon="7.907855153438095"><ele>375.0</ele><time>2026-05-02T13:11:06Z</time></trkpt><trkpt lat="44.64441302011541" lon="7.908124226630913"><ele>372.3333333333333</ele><time>2026-05-02T13:11:07Z</time></trkpt><trkpt lat="44.644479699385876" lon="7.908406389965957"><ele>369.66666666666663</ele><time>2026-05-02T13:11:08Z</time></trkpt><trkpt lat="44.64453996977377" lon="7.908673012543389"><ele>367.0</ele><time>2026-05-02T13:11:09Z</time></trkpt><trkpt lat="44.64460544183307" lon="7.908908255964605"><ele>367.0</ele><time>2026-05-02T13:11:10Z</time></trkpt><trkpt lat="44.64462417363486" lon="7.909128174225417"><ele>367.0</ele><time>2026-05-02T13:11:11Z</time></trkpt><trkpt lat="44.64460142059112" lon="7.909368275626637"><ele>367.0</ele><time>2026-05-02T13:11:12Z</time></trkpt><trkpt lat="44.64453938783361" lon="7.909626630064954"><ele>372.0</ele><time>2026-05-02T13:11:13Z</time></trkpt><trkpt lat="44.64446009471087" lon="7.909903651684602"><ele>377.0</ele><time>2026-05-02T13:11:14Z</time></trkpt><trkpt lat="44.644381712958634" lon="7.910196878052702"><ele>382.0</ele><time>2026-05-02T13:11:15Z</time></trkpt><trkpt lat="44.64429919066918" lon="7.910496795649801"><ele>382.0</ele><time>2026-05-02T13:11:16Z</time></trkpt><trkpt lat="44.64420218359651" lon="7.910777012990231"><ele>382.0</ele><time>2026-05-02T13:11:17Z</time></trkpt><trkpt lat="44.64410309866602" lon="7.911003425765826"><ele>382.0</ele><time>2026-05-02T13:11:18Z</time></trkpt><trkpt lat="44.644025487281816" lon="7.911203497941202"><ele>383.3333333333333</ele><time>2026-05-02T13:11:19Z</time></trkpt><trkpt lat="44.64400762070283" lon="7.911403416982978"><ele>384.66666666666663</ele><time>2026-05-02T13:11:20Z</time></trkpt><trkpt lat="44.64404962972969" lon="7.911596564578975"><ele>386.0</ele><time>2026-05-02T13:11:21Z</time></trkpt><trkpt lat="44.64414766032013" lon="7.911793175659762"><ele>387.66666666666663</ele><time>2026-05-02T13:11:22Z</time></trkpt><trkpt lat="44.644246218654295" lon="7.912005541984356"><ele>389.33333333333337</ele><time>2026-05-02T13:11:23Z</time></trkpt><trkpt lat="44.64433092402071" lon="7.9122424894746235"><ele>391.0</ele><time>2026-05-02T13:11:24Z</time></trkpt><trkpt lat="44.64437152386812" lon="7.912516867871791"><ele>392.33333333333337</ele><time>2026-05-02T13:11:25Z</time></trkpt><trkpt lat="44.6443993733842" lon="7.912814761004956"><ele>393.66666666666663</ele><time>2026-05-02T13:11:26Z</time></trkpt><trkpt lat="44.6444339578752" lon="7.913136673357393"><ele>395.0</ele><time>2026-05-02T13:11:27Z</time></trkpt><trkpt lat="44.644451854843744" lon="7.913418048807601"><ele>396.0</ele><time>2026-05-02T13:11:28Z</time></trkpt><trkpt lat="44.64447496945364" lon="7.913618295327654"><ele>397.0</ele><time>2026-05-02T13:11:29Z</time></trkpt><trkpt lat="44.64453526337809" lon="7.913766442839587"><ele>398.0</ele><time>2026-05-02T13:11:30Z</time></trkpt><trkpt lat="44.64464777402963" lon="7.91390778028898"><ele>399.0</ele><time>2026-05-02T13:11:31Z</time></trkpt><trkpt lat="44.64482243343521" lon="7.913961623489791"><ele>399.0</ele><time>2026-05-02T13:11:32Z</time></trkpt><trkpt lat="44.64496565225157" lon="7.914022840564946"><ele>399.0</ele><time>2026-05-02T13:11:33Z</time></trkpt><trkpt lat="44.645055232655885" lon="7.914154844212471"><ele>399.0</ele><time>2026-05-02T13:11:34Z</time></trkpt><trkpt lat="44.64512881453015" lon="7.914346478191143"><ele>399.0</ele><time>2026-05-02T13:11:35Z</time></trkpt><trkpt lat="44.645149346595375" lon="7.914542036458005"><ele>400.33333333333337</ele><time>2026-05-02T13:11:36Z</time></trkpt><trkpt lat="44.64513651119896" lon="7.91476635088366"><ele>401.6666666666667</ele><time>2026-05-02T13:11:37Z</time></trkpt><trkpt lat="44.64510721286045" lon="7.915008762693583"><ele>403.0</ele><time>2026-05-02T13:11:38Z</time></trkpt><trkpt lat="44.6450835053048" lon="7.915266741750695"><ele>403.33333333333337</ele><time>2026-05-02T13:11:39Z</time></trkpt><trkpt lat="44.64508371457786" lon="7.915525068394155"><ele>403.66666666666663</ele><time>2026-05-02T13:11:40Z</time></trkpt><trkpt lat="44.64510570045377" lon="7.915775271644673"><ele>404.0</ele><time>2026-05-02T13:11:41Z</time></trkpt><trkpt lat="44.64512883664704" lon="7.915999913956128"><ele>404.3333333333333</ele><time>2026-05-02T13:11:42Z</time></trkpt><trkpt lat="44.645120397271334" lon="7.916209454814996"><ele>404.66666666666663</ele><time>2026-05-02T13:11:43Z</time></trkpt><trkpt lat="44.64506892078162" lon="7.916412492205842"><ele>405.0</ele><time>2026-05-02T13:11:44Z</time></trkpt><trkpt lat="44.64497923268379" lon="7.916615040754201"><ele>404.75</ele><time>2026-05-02T13:11:45Z</time></trkpt><trkpt lat="44.64488977827988" lon="7.916786053664971"><ele>404.5</ele><time>2026-05-02T13:11:46Z</time></trkpt><trkpt lat="44.64479916971534" lon="7.916926711304747"><ele>404.25</ele><time>2026-05-02T13:11:47Z</time></trkpt><trkpt lat="44.644693478810034" lon="7.917029839453321"><ele>404.0</ele><time>2026-05-02T13:11:48Z</time></trkpt><trkpt lat="44.644559978364356" lon="7.917107104461148"><ele>407.0</ele><time>2026-05-02T13:11:49Z</time></trkpt><trkpt lat="44.6444444286542" lon="7.917200932983267"><ele>410.0</ele><time>2026-05-02T13:11:50Z</time></trkpt><trkpt lat="44.64436189335517" lon="7.917356773625323"><ele>413.0</ele><time>2026-05-02T13:11:51Z</time></trkpt><trkpt lat="44.64430537740085" lon="7.917573231359054"><ele>416.0</ele><time>2026-05-02T13:11:52Z</time></trkpt><trkpt lat="44.644292031976384" lon="7.91782425822384"><ele>416.0</ele><time>2026-05-02T13:11:53Z</time></trkpt><trkpt lat="44.64429888651361" lon="7.918066455735172"><ele>416.0</ele><time>2026-05-02T13:11:54Z</time></trkpt><trkpt lat="44.64424796554802" lon="7.918312059880351"><ele>416.0</ele><time>2026-05-02T13:11:55Z</time></trkpt><trkpt lat="44.64415768917654" lon="7.918557422869876"><ele>417.0</ele><time>2026-05-02T13:11:56Z</time></trkpt><trkpt lat="44.64407515375294" lon="7.9188261575112175"><ele>418.0</ele><time>2026-05-02T13:11:57Z</time></trkpt><trkpt lat="44.64401367959495" lon="7.919097530561919"><ele>419.0</ele><time>2026-05-02T13:11:58Z</time></trkpt><trkpt lat="44.643950971284006" lon="7.919339195110093"><ele>419.0</ele><time>2026-05-02T13:11:59Z</time></trkpt><trkpt lat="44.64390524599557" lon="7.919558331663973"><ele>419.0</ele><time>2026-05-02T13:12:00Z</time></trkpt><trkpt lat="44.64390506017132" lon="7.919798274109297"><ele>419.0</ele><time>2026-05-02T13:12:01Z</time></trkpt><trkpt lat="44.64393142237439" lon="7.920060357980573"><ele>419.66666666666663</ele><time>2026-05-02T13:12:02Z</time></trkpt><trkpt lat="44.64395894726167" lon="7.920357406792446"><ele>420.33333333333337</ele><time>2026-05-02T13:12:03Z</time></trkpt><trkpt lat="44.644002594949455" lon="7.920659876626205"><ele>421.0</ele><time>2026-05-02T13:12:04Z</time></trkpt><trkpt lat="44.64403956923801" lon="7.92096255910616"><ele>422.33333333333337</ele><time>2026-05-02T13:12:05Z</time></trkpt><trkpt lat="44.64407360753035" lon="7.921269022280256"><ele>423.66666666666663</ele><time>2026-05-02T13:12:06Z</time></trkpt><trkpt lat="44.644120268546146" lon="7.921526740173533"><ele>425.0</ele><time>2026-05-02T13:12:07Z</time></trkpt><trkpt lat="44.64414195578038" lon="7.921743405102763"><ele>426.5</ele><time>2026-05-02T13:12:08Z</time></trkpt><trkpt lat="44.6441328547824" lon="7.921915598248013"><ele>428.0</ele><time>2026-05-02T13:12:09Z</time></trkpt><trkpt lat="44.64407614346813" lon="7.922071030187878"><ele>429.5</ele><time>2026-05-02T13:12:10Z</time></trkpt><trkpt lat="44.64397513210311" lon="7.922197748830061"><ele>431.0</ele><time>2026-05-02T13:12:11Z</time></trkpt><trkpt lat="44.6438770660281" lon="7.922291018862915"><ele>431.0</ele><time>2026-05-02T13:12:12Z</time></trkpt><trkpt lat="44.64379760176614" lon="7.9223938708507236"><ele>431.0</ele><time>2026-05-02T13:12:13Z</time></trkpt><trkpt lat="44.64373558970148" lon="7.922483454310582"><ele>431.0</ele><time>2026-05-02T13:12:14Z</time></trkpt><trkpt lat="44.643871023791675" lon="7.922752633782695"><ele>431.0</ele><time>2026-05-02T13:12:15Z</time></trkpt><trkpt lat="44.643975768488204" lon="7.922909536760669"><ele>431.0</ele><time>2026-05-02T13:12:16Z</time></trkpt><trkpt lat="44.64412490412043" lon="7.92306776572266"><ele>431.0</ele><time>2026-05-02T13:12:17Z</time></trkpt><trkpt lat="44.64426412551739" lon="7.923237637712839"><ele>431.0</ele><time>2026-05-02T13:12:18Z</time></trkpt><trkpt lat="44.6444118586747" lon="7.92341639577861"><ele>433.0</ele><time>2026-05-02T13:12:19Z</time></trkpt><trkpt lat="44.64456818117769" lon="7.92360770459156"><ele>435.0</ele><time>2026-05-02T13:12:20Z</time></trkpt><trkpt lat="44.64471506797075" lon="7.923816798243062"><ele>437.0</ele><time>2026-05-02T13:12:21Z</time></trkpt><trkpt lat="44.64483427177554" lon="7.924040533762337"><ele>438.3333333333333</ele><time>2026-05-02T13:12:22Z</time></trkpt><trkpt lat="44.64492891381316" lon="7.924270152535899"><ele>439.66666666666663</ele><time>2026-05-02T13:12:23Z</time></trkpt><trkpt lat="44.64502488490885" lon="7.924448290694076"><ele>441.0</ele><time>2026-05-02T13:12:24Z</time></trkpt><trkpt lat="44.645135941911576" lon="7.924563313838407"><ele>441.0</ele><time>2026-05-02T13:12:25Z</time></trkpt><trkpt lat="44.645283335582754" lon="7.924621773483327"><ele>441.0</ele><time>2026-05-02T13:12:26Z</time></trkpt><trkpt lat="44.64545049318013" lon="7.924600144922913"><ele>441.0</ele><time>2026-05-02T13:12:27Z</time></trkpt><trkpt lat="44.64561814715448" lon="7.924560314155405"><ele>441.33333333333337</ele><time>2026-05-02T13:12:28Z</time></trkpt><trkpt lat="44.64575620244927" lon="7.924532145185049"><ele>441.6666666666667</ele><time>2026-05-02T13:12:29Z</time></trkpt><trkpt lat="44.64587988833566" lon="7.924591716521439"><ele>442.0</ele><time>2026-05-02T13:12:30Z</time></trkpt><trkpt lat="44.64604251021893" lon="7.924715138316084"><ele>441.6666666666667</ele><time>2026-05-02T13:12:31Z</time></trkpt><trkpt lat="44.64623258262208" lon="7.924845310757618"><ele>441.33333333333337</ele><time>2026-05-02T13:12:32Z</time></trkpt><trkpt lat="44.64642536969446" lon="7.924982743501402"><ele>441.0</ele><time>2026-05-02T13:12:33Z</time></trkpt><trkpt lat="44.646571660170615" lon="7.92512994143166"><ele>444.33333333333337</ele><time>2026-05-02T13:12:34Z</time></trkpt><trkpt lat="44.64666970482442" lon="7.925308707763267"><ele>447.6666666666667</ele><time>2026-05-02T13:12:35Z</time></trkpt><trkpt lat="44.6467586083156" lon="7.925539521385086"><ele>451.0</ele><time>2026-05-02T13:12:36Z</time></trkpt><trkpt lat="44.646855135644856" lon="7.925783947270714"><ele>450.0</ele><time>2026-05-02T13:12:37Z</time></trkpt><trkpt lat="44.64692784774678" lon="7.925988217266344"><ele>449.0</ele><time>2026-05-02T13:12:38Z</time></trkpt><trkpt lat="44.64697780730725" lon="7.926161739794103"><ele>448.0</ele><time>2026-05-02T13:12:39Z</time></trkpt><trkpt lat="44.64698182439171" lon="7.926297758844444"><ele>447.0</ele><time>2026-05-02T13:12:40Z</time></trkpt><trkpt lat="44.64694151480871" lon="7.926411373256299"><ele>449.25</ele><time>2026-05-02T13:12:41Z</time></trkpt><trkpt lat="44.64686008496296" lon="7.926514973460516"><ele>451.5</ele><time>2026-05-02T13:12:42Z</time></trkpt><trkpt lat="44.646765740771855" lon="7.9266534415755725"><ele>453.75</ele><time>2026-05-02T13:12:43Z</time></trkpt><trkpt lat="44.64666275003958" lon="7.926796885437345"><ele>456.0</ele><time>2026-05-02T13:12:44Z</time></trkpt><trkpt lat="44.64655999020141" lon="7.926940769927884"><ele>457.0</ele><time>2026-05-02T13:12:45Z</time></trkpt><trkpt lat="44.64646476522516" lon="7.927074535972484"><ele>458.0</ele><time>2026-05-02T13:12:46Z</time></trkpt><trkpt lat="44.646383072145774" lon="7.927222044500496"><ele>459.0</ele><time>2026-05-02T13:12:47Z</time></trkpt><trkpt lat="44.64628067956165" lon="7.927359954369012"><ele>460.0</ele><time>2026-05-02T13:12:48Z</time></trkpt><trkpt lat="44.646174759550114" lon="7.927503023860484"><ele>461.25</ele><time>2026-05-02T13:12:49Z</time></trkpt><trkpt lat="44.646066736127004" lon="7.927645818934681"><ele>462.5</ele><time>2026-05-02T13:12:50Z</time></trkpt><trkpt lat="44.6459605676853" lon="7.927787293211979"><ele>463.75</ele><time>2026-05-02T13:12:51Z</time></trkpt><trkpt lat="44.645858894274795" lon="7.927923418380238"><ele>465.0</ele><time>2026-05-02T13:12:52Z</time></trkpt><trkpt lat="44.64575920828023" lon="7.9280536438666775"><ele>465.0</ele><time>2026-05-02T13:12:53Z</time></trkpt><trkpt lat="44.645669621506585" lon="7.928182421026689"><ele>465.0</ele><time>2026-05-02T13:12:54Z</time></trkpt><trkpt lat="44.645580625297136" lon="7.928305020263984"><ele>465.0</ele><time>2026-05-02T13:12:55Z</time></trkpt><trkpt lat="44.64548249372304" lon="7.928435840765969"><ele>465.0</ele><time>2026-05-02T13:12:56Z</time></trkpt><trkpt lat="44.64537803485069" lon="7.9285599197884205"><ele>466.0</ele><time>2026-05-02T13:12:57Z</time></trkpt><trkpt lat="44.64528040209696" lon="7.928707715253415"><ele>467.0</ele><time>2026-05-02T13:12:58Z</time></trkpt><trkpt lat="44.64517960648244" lon="7.928846430843371"><ele>468.0</ele><time>2026-05-02T13:12:59Z</time></trkpt><trkpt lat="44.645086431693926" lon="7.928977398916127"><ele>469.0</ele><time>2026-05-02T13:13:00Z</time></trkpt><trkpt lat="44.64500259430883" lon="7.9290914891821975"><ele>469.0</ele><time>2026-05-02T13:13:01Z</time></trkpt><trkpt lat="44.64491462372829" lon="7.929201587421836"><ele>469.0</ele><time>2026-05-02T13:13:02Z</time></trkpt><trkpt lat="44.64483278289277" lon="7.929318941358864"><ele>469.0</ele><time>2026-05-02T13:13:03Z</time></trkpt><trkpt lat="44.6447436412321" lon="7.929437170287404"><ele>469.0</ele><time>2026-05-02T13:13:04Z</time></trkpt><trkpt lat="44.644654783781846" lon="7.929556022594481"><ele>469.0</ele><time>2026-05-02T13:13:05Z</time></trkpt><trkpt lat="44.64456356381288" lon="7.929674848205698"><ele>469.0</ele><time>2026-05-02T13:13:06Z</time></trkpt><trkpt lat="44.64447532045262" lon="7.929791577774613"><ele>469.0</ele><time>2026-05-02T13:13:07Z</time></trkpt><trkpt lat="44.644399865285685" lon="7.929890025845628"><ele>469.0</ele><time>2026-05-02T13:13:08Z</time></trkpt><trkpt lat="44.644326000659724" lon="7.929963954379892"><ele>469.0</ele><time>2026-05-02T13:13:09Z</time></trkpt><trkpt lat="44.64426997635557" lon="7.93001319553124"><ele>469.79999999999995</ele><time>2026-05-02T13:13:10Z</time></trkpt><trkpt lat="44.644202387125524" lon="7.930053268758106"><ele>470.59999999999997</ele><time>2026-05-02T13:13:12Z</time></trkpt><trkpt lat="44.644117031130875" lon="7.930075389369498"><ele>471.4</ele><time>2026-05-02T13:13:15Z</time></trkpt><trkpt lat="44.64402082878252" lon="7.930221453763979"><ele>472.2</ele><time>2026-05-02T13:13:17Z</time></trkpt><trkpt lat="44.64399526250149" lon="7.930360440287301"><ele>473.0</ele><time>2026-05-02T13:13:18Z</time></trkpt><trkpt lat="44.64396207125492" lon="7.930485784809475"><ele>475.25</ele><time>2026-05-02T13:13:19Z</time></trkpt><trkpt lat="44.643883162809296" lon="7.9305937431379885"><ele>477.5</ele><time>2026-05-02T13:13:20Z</time></trkpt><trkpt lat="44.643798825475656" lon="7.930700882242852"><ele>479.75</ele><time>2026-05-02T13:13:21Z</time></trkpt><trkpt lat="44.64370902920553" lon="7.930809299640905"><ele>482.0</ele><time>2026-05-02T13:13:22Z</time></trkpt><trkpt lat="44.643616476892106" lon="7.930920267506728"><ele>483.75</ele><time>2026-05-02T13:13:23Z</time></trkpt><trkpt lat="44.643534606777756" lon="7.931033484643887"><ele>485.5</ele><time>2026-05-02T13:13:24Z</time></trkpt><trkpt lat="44.643456541338516" lon="7.931137810333543"><ele>487.25</ele><time>2026-05-02T13:13:25Z</time></trkpt><trkpt lat="44.64338048546212" lon="7.9312520482245095"><ele>489.0</ele><time>2026-05-02T13:13:26Z</time></trkpt><trkpt lat="44.64329693338707" lon="7.931370191173682"><ele>489.0</ele><time>2026-05-02T13:13:27Z</time></trkpt><trkpt lat="44.64321113225893" lon="7.931483755297026"><ele>489.0</ele><time>2026-05-02T13:13:28Z</time></trkpt><trkpt lat="44.64312182064904" lon="7.931595819362375"><ele>489.0</ele><time>2026-05-02T13:13:29Z</time></trkpt><trkpt lat="44.64303751290688" lon="7.931709049983506"><ele>489.0</ele><time>2026-05-02T13:13:30Z</time></trkpt><trkpt lat="44.642964849303276" lon="7.931823062748475"><ele>488.6</ele><time>2026-05-02T13:13:31Z</time></trkpt><trkpt lat="44.64289927277028" lon="7.931920057374205"><ele>488.2</ele><time>2026-05-02T13:13:32Z</time></trkpt><trkpt lat="44.64282579328893" lon="7.932024692631887"><ele>487.80000000000007</ele><time>2026-05-02T13:13:33Z</time></trkpt><trkpt lat="44.64275316971964" lon="7.932123683041111"><ele>487.40000000000003</ele><time>2026-05-02T13:13:34Z</time></trkpt><trkpt lat="44.642678236100835" lon="7.932219412152139"><ele>487.0</ele><time>2026-05-02T13:13:35Z</time></trkpt><trkpt lat="44.642596732958445" lon="7.932312973095041"><ele>487.20000000000005</ele><time>2026-05-02T13:13:36Z</time></trkpt><trkpt lat="44.64250918035869" lon="7.932395150617367"><ele>487.40000000000003</ele><time>2026-05-02T13:13:37Z</time></trkpt><trkpt lat="44.642407964801336" lon="7.932458757022428"><ele>487.59999999999997</ele><time>2026-05-02T13:13:38Z</time></trkpt><trkpt lat="44.642300045736434" lon="7.932508271504947"><ele>487.79999999999995</ele><time>2026-05-02T13:13:39Z</time></trkpt><trkpt lat="44.642188985250115" lon="7.93255856978356"><ele>488.0</ele><time>2026-05-02T13:13:40Z</time></trkpt><trkpt lat="44.642066081342584" lon="7.932611452848146"><ele>489.59999999999997</ele><time>2026-05-02T13:13:41Z</time></trkpt><trkpt lat="44.64196071788688" lon="7.932648525007137"><ele>491.19999999999993</ele><time>2026-05-02T13:13:42Z</time></trkpt><trkpt lat="44.64187443606747" lon="7.932686990623856"><ele>492.8</ele><time>2026-05-02T13:13:43Z</time></trkpt><trkpt lat="44.64178886165594" lon="7.932724670542978"><ele>494.4</ele><time>2026-05-02T13:13:44Z</time></trkpt><trkpt lat="44.64169641867183" lon="7.932760242667465"><ele>496.0</ele><time>2026-05-02T13:13:45Z</time></trkpt><trkpt lat="44.641607819159915" lon="7.932793559075905"><ele>496.00000000000006</ele><time>2026-05-02T13:13:46Z</time></trkpt><trkpt lat="44.64152501982947" lon="7.9328329353629625"><ele>496.0</ele><time>2026-05-02T13:13:47Z</time></trkpt><trkpt lat="44.641451950763496" lon="7.932871030901984"><ele>496.0</ele><time>2026-05-02T13:13:48Z</time></trkpt><trkpt lat="44.641375311389" lon="7.932933741390594"><ele>496.0</ele><time>2026-05-02T13:13:49Z</time></trkpt><trkpt lat="44.64129349661116" lon="7.932940651949371"><ele>496.00000000000006</ele><time>2026-05-02T13:13:50Z</time></trkpt><trkpt lat="44.6411997207581" lon="7.933002162601165"><ele>496.0</ele><time>2026-05-02T13:13:51Z</time></trkpt><trkpt lat="44.64110615088701" lon="7.93305975006222"><ele>496.50000000000006</ele><time>2026-05-02T13:13:52Z</time></trkpt><trkpt lat="44.64102304766501" lon="7.933105081505634"><ele>497.0</ele><time>2026-05-02T13:13:53Z</time></trkpt><trkpt lat="44.64094177086473" lon="7.933135080999155"><ele>497.5</ele><time>2026-05-02T13:13:54Z</time></trkpt><trkpt lat="44.64087533779466" lon="7.933173916356257"><ele>498.0</ele><time>2026-05-02T13:13:55Z</time></trkpt><trkpt lat="44.6408048391715" lon="7.9332154146846685"><ele>498.50000000000006</ele><time>2026-05-02T13:13:56Z</time></trkpt><trkpt lat="44.640733459608505" lon="7.933258420617939"><ele>499.0</ele><time>2026-05-02T13:13:57Z</time></trkpt><trkpt lat="44.64066313770587" lon="7.933275431077924"><ele>499.00000000000006</ele><time>2026-05-02T13:13:58Z</time></trkpt><trkpt lat="44.640596139756184" lon="7.93334701229187"><ele>499.0</ele><time>2026-05-02T13:13:59Z</time></trkpt><trkpt lat="44.640525478543545" lon="7.9333803622755905"><ele>499.0</ele><time>2026-05-02T13:14:00Z</time></trkpt><trkpt lat="44.64041931485874" lon="7.933419743737914"><ele>499.0</ele><time>2026-05-02T13:14:02Z</time></trkpt><trkpt lat="44.64035405972552" lon="7.933467681989337"><ele>499.00000000000006</ele><time>2026-05-02T13:14:04Z</time></trkpt><trkpt lat="44.64028913916462" lon="7.9335214944308"><ele>499.0</ele><time>2026-05-02T13:14:15Z</time></trkpt><trkpt lat="44.6402184736614" lon="7.933562690069629"><ele>498.2</ele><time>2026-05-02T13:14:17Z</time></trkpt><trkpt lat="44.64013200353997" lon="7.933617540451766"><ele>497.4</ele><time>2026-05-02T13:14:19Z</time></trkpt><trkpt lat="44.640032877061905" lon="7.93366864573902"><ele>496.6</ele><time>2026-05-02T13:14:21Z</time></trkpt><trkpt lat="44.63991556712986" lon="7.933742038750617"><ele>495.8</ele><time>2026-05-02T13:14:23Z</time></trkpt><trkpt lat="44.63985658774871" lon="7.933779651830363"><ele>495.0</ele><time>2026-05-02T13:14:24Z</time></trkpt><trkpt lat="44.6397958602993" lon="7.9338158748879595"><ele>495.0</ele><time>2026-05-02T13:14:25Z</time></trkpt><trkpt lat="44.63973546290185" lon="7.933847779707016"><ele>495.0</ele><time>2026-05-02T13:14:26Z</time></trkpt><trkpt lat="44.63967196563219" lon="7.933892384217258"><ele>495.0</ele><time>2026-05-02T13:14:27Z</time></trkpt><trkpt lat="44.63961034601037" lon="7.933926056594129"><ele>495.0</ele><time>2026-05-02T13:14:28Z</time></trkpt><trkpt lat="44.63951512137853" lon="7.933979871573899"><ele>495.0</ele><time>2026-05-02T13:14:30Z</time></trkpt><trkpt lat="44.63945351188435" lon="7.934014731746403"><ele>495.0</ele><time>2026-05-02T13:14:33Z</time></trkpt><trkpt lat="44.63937361693476" lon="7.9340500796704845"><ele>495.8333333333333</ele><time>2026-05-02T13:14:50Z</time></trkpt><trkpt lat="44.63930346991051" lon="7.934095059247279"><ele>496.66666666666663</ele><time>2026-05-02T13:14:52Z</time></trkpt><trkpt lat="44.639244783806795" lon="7.934152477408632"><ele>497.5</ele><time>2026-05-02T13:14:57Z</time></trkpt><trkpt lat="44.639190384944996" lon="7.934201091876574"><ele>498.3333333333333</ele><time>2026-05-02T13:15:11Z</time></trkpt><trkpt lat="44.63912110749762" lon="7.934199602792679"><ele>499.16666666666663</ele><time>2026-05-02T13:15:14Z</time></trkpt><trkpt lat="44.63906828076803" lon="7.934087008647777"><ele>500.0</ele><time>2026-05-02T13:15:16Z</time></trkpt><trkpt lat="44.63901664988496" lon="7.933964711868037"><ele>500.0</ele><time>2026-05-02T13:15:18Z</time></trkpt><trkpt lat="44.63897329482496" lon="7.93383760052261"><ele>500.0</ele><time>2026-05-02T13:15:20Z</time></trkpt><trkpt lat="44.638911928051954" lon="7.933725334623384"><ele>500.0</ele><time>2026-05-02T13:15:22Z</time></trkpt><trkpt lat="44.63884538454765" lon="7.933629511382595"><ele>500.0</ele><time>2026-05-02T13:15:24Z</time></trkpt><trkpt lat="44.638793032113675" lon="7.933515796969136"><ele>500.0</ele><time>2026-05-02T13:15:26Z</time></trkpt><trkpt lat="44.63873143371982" lon="7.9334133050957165"><ele>499.99999999999994</ele><time>2026-05-02T13:15:28Z</time></trkpt><trkpt lat="44.638667074472586" lon="7.933307060294125"><ele>500.0</ele><time>2026-05-02T13:15:30Z</time></trkpt><trkpt lat="44.63862174915347" lon="7.933234609459227"><ele>500.0</ele><time>2026-05-02T13:15:31Z</time></trkpt><trkpt lat="44.63856900463916" lon="7.933151044187628"><ele>500.0</ele><time>2026-05-02T13:15:32Z</time></trkpt><trkpt lat="44.638515086229106" lon="7.933071023852376"><ele>499.99999999999994</ele><time>2026-05-02T13:15:33Z</time></trkpt><trkpt lat="44.63845839048826" lon="7.932989831177743"><ele>500.0</ele><time>2026-05-02T13:15:34Z</time></trkpt><trkpt lat="44.6384083984517" lon="7.932920270046741"><ele>499.99999999999994</ele><time>2026-05-02T13:15:35Z</time></trkpt><trkpt lat="44.63832965632797" lon="7.932816233161959"><ele>500.0</ele><time>2026-05-02T13:15:37Z</time></trkpt><trkpt lat="44.638271758720514" lon="7.932740471049839"><ele>500.0</ele><time>2026-05-02T13:15:39Z</time></trkpt><trkpt lat="44.63821725833182" lon="7.9326691536884475"><ele>500.0</ele><time>2026-05-02T13:15:41Z</time></trkpt><trkpt lat="44.638155277384165" lon="7.932606088783539"><ele>499.99999999999994</ele><time>2026-05-02T13:15:43Z</time></trkpt><trkpt lat="44.63808126312417" lon="7.932570702971712"><ele>500.0</ele><time>2026-05-02T13:15:45Z</time></trkpt><trkpt lat="44.63803174369711" lon="7.932484777585108"><ele>499.8333333333333</ele><time>2026-05-02T13:15:47Z</time></trkpt><trkpt lat="44.63797424827455" lon="7.932398085965697"><ele>499.66666666666663</ele><time>2026-05-02T13:15:49Z</time></trkpt><trkpt lat="44.63790843579917" lon="7.932337697940328"><ele>499.5</ele><time>2026-05-02T13:15:51Z</time></trkpt><trkpt lat="44.637858838724064" lon="7.932281466541502"><ele>499.33333333333337</ele><time>2026-05-02T13:15:53Z</time></trkpt><trkpt lat="44.63783269260209" lon="7.9321640053717015"><ele>499.1666666666667</ele><time>2026-05-02T13:15:54Z</time></trkpt><trkpt lat="44.63779488687552" lon="7.93202167616139"><ele>499.0</ele><time>2026-05-02T13:15:56Z</time></trkpt><trkpt lat="44.637709271150264" lon="7.931943843553729"><ele>499.00000000000006</ele><time>2026-05-02T13:15:58Z</time></trkpt><trkpt lat="44.63760854137791" lon="7.931863449256071"><ele>499.0</ele><time>2026-05-02T13:16:00Z</time></trkpt><trkpt lat="44.63753268005767" lon="7.931818561020459"><ele>499.0</ele><time>2026-05-02T13:16:01Z</time></trkpt><trkpt lat="44.637452714763" lon="7.931791312801904"><ele>499.0</ele><time>2026-05-02T13:16:02Z</time></trkpt><trkpt lat="44.63737263405677" lon="7.931764348541487"><ele>499.00000000000006</ele><time>2026-05-02T13:16:03Z</time></trkpt><trkpt lat="44.63729026351139" lon="7.931747778761949"><ele>499.0</ele><time>2026-05-02T13:16:04Z</time></trkpt><trkpt lat="44.63720169610862" lon="7.931747029701738"><ele>499.0</ele><time>2026-05-02T13:16:05Z</time></trkpt><trkpt lat="44.63710511951019" lon="7.93175925084666"><ele>499.0</ele><time>2026-05-02T13:16:06Z</time></trkpt><trkpt lat="44.6370146986701" lon="7.931771769657113"><ele>499.0</ele><time>2026-05-02T13:16:07Z</time></trkpt><trkpt lat="44.6369298842285" lon="7.931805222325416"><ele>499.0</ele><time>2026-05-02T13:16:08Z</time></trkpt><trkpt lat="44.636840270766875" lon="7.931831846084637"><ele>499.0</ele><time>2026-05-02T13:16:09Z</time></trkpt><trkpt lat="44.63674762334547" lon="7.931845212485444"><ele>496.79999999999995</ele><time>2026-05-02T13:16:10Z</time></trkpt><trkpt lat="44.636654577001316" lon="7.931829009544747"><ele>494.59999999999997</ele><time>2026-05-02T13:16:11Z</time></trkpt><trkpt lat="44.636558905498966" lon="7.93176945231742"><ele>492.4</ele><time>2026-05-02T13:16:12Z</time></trkpt><trkpt lat="44.63644927338085" lon="7.931737475504155"><ele>490.2</ele><time>2026-05-02T13:16:13Z</time></trkpt><trkpt lat="44.63634336604093" lon="7.931688865412288"><ele>488.0</ele><time>2026-05-02T13:16:14Z</time></trkpt><trkpt lat="44.63623124938717" lon="7.931666786446097"><ele>484.25</ele><time>2026-05-02T13:16:15Z</time></trkpt><trkpt lat="44.636112442879615" lon="7.931647741309317"><ele>480.5</ele><time>2026-05-02T13:16:16Z</time></trkpt><trkpt lat="44.635997512801104" lon="7.931637560941417"><ele>476.75</ele><time>2026-05-02T13:16:17Z</time></trkpt><trkpt lat="44.635879789057924" lon="7.931609654809472"><ele>473.0</ele><time>2026-05-02T13:16:18Z</time></trkpt><trkpt lat="44.63577385634017" lon="7.931566420870453"><ele>473.0</ele><time>2026-05-02T13:16:19Z</time></trkpt><trkpt lat="44.63566878034079" lon="7.93152330765498"><ele>472.99999999999994</ele><time>2026-05-02T13:16:20Z</time></trkpt><trkpt lat="44.63557351500815" lon="7.93147057847863"><ele>472.99999999999994</ele><time>2026-05-02T13:16:21Z</time></trkpt><trkpt lat="44.635494442832815" lon="7.931378656054508"><ele>473.0</ele><time>2026-05-02T13:16:22Z</time></trkpt><trkpt lat="44.63542555660632" lon="7.931300181620456"><ele>473.0</ele><time>2026-05-02T13:16:23Z</time></trkpt><trkpt lat="44.63536420688769" lon="7.931234382913945"><ele>472.0</ele><time>2026-05-02T13:16:24Z</time></trkpt><trkpt lat="44.635201457316775" lon="7.931359814890063"><ele>471.0</ele><time>2026-05-02T13:16:25Z</time></trkpt><trkpt lat="44.635092822994835" lon="7.9314169999952755"><ele>470.0</ele><time>2026-05-02T13:16:26Z</time></trkpt><trkpt lat="44.6349896450976" lon="7.931501818847805"><ele>469.0</ele><time>2026-05-02T13:16:27Z</time></trkpt><trkpt lat="44.634889891416314" lon="7.931600380806419"><ele>469.0</ele><time>2026-05-02T13:16:28Z</time></trkpt><trkpt lat="44.634783423527644" lon="7.931688749139699"><ele>469.0</ele><time>2026-05-02T13:16:29Z</time></trkpt><trkpt lat="44.634667980441144" lon="7.931764446425202"><ele>469.0</ele><time>2026-05-02T13:16:30Z</time></trkpt><trkpt lat="44.634530514934276" lon="7.931789038773418"><ele>469.0</ele><time>2026-05-02T13:16:31Z</time></trkpt><trkpt lat="44.63437674894719" lon="7.9318321987427085"><ele>464.33333333333337</ele><time>2026-05-02T13:16:32Z</time></trkpt><trkpt lat="44.63421186260853" lon="7.931893604115651"><ele>459.66666666666663</ele><time>2026-05-02T13:16:33Z</time></trkpt><trkpt lat="44.63403871269628" lon="7.931918331438375"><ele>455.0</ele><time>2026-05-02T13:16:34Z</time></trkpt><trkpt lat="44.63386024694665" lon="7.93197276496688"><ele>455.0</ele><time>2026-05-02T13:16:35Z</time></trkpt><trkpt lat="44.63367013479067" lon="7.932048476436657"><ele>455.0</ele><time>2026-05-02T13:16:36Z</time></trkpt><trkpt lat="44.633489940181434" lon="7.9321176133619735"><ele>455.0</ele><time>2026-05-02T13:16:37Z</time></trkpt><trkpt lat="44.63333102823367" lon="7.932193138723438"><ele>457.0</ele><time>2026-05-02T13:16:38Z</time></trkpt><trkpt lat="44.63318325652421" lon="7.932271667777387"><ele>459.0</ele><time>2026-05-02T13:16:39Z</time></trkpt><trkpt lat="44.63302907012037" lon="7.93234879842737"><ele>461.0</ele><time>2026-05-02T13:16:40Z</time></trkpt><trkpt lat="44.63285856432838" lon="7.9324183475119385"><ele>462.0</ele><time>2026-05-02T13:16:41Z</time></trkpt><trkpt lat="44.632673813830564" lon="7.932466741731126"><ele>463.0</ele><time>2026-05-02T13:16:42Z</time></trkpt><trkpt lat="44.632472134066134" lon="7.932501600412356"><ele>464.0</ele><time>2026-05-02T13:16:43Z</time></trkpt><trkpt lat="44.632259965817255" lon="7.932546892297722"><ele>456.5</ele><time>2026-05-02T13:16:44Z</time></trkpt><trkpt lat="44.63203999706122" lon="7.9326098889483205"><ele>449.0</ele><time>2026-05-02T13:16:45Z</time></trkpt><trkpt lat="44.631815215905014" lon="7.932684211548498"><ele>449.0</ele><time>2026-05-02T13:16:46Z</time></trkpt><trkpt lat="44.63159038893811" lon="7.932761786950642"><ele>449.0</ele><time>2026-05-02T13:16:47Z</time></trkpt><trkpt lat="44.63136411605568" lon="7.932851264232572"><ele>450.5</ele><time>2026-05-02T13:16:48Z</time></trkpt><trkpt lat="44.63112000308165" lon="7.932919584475288"><ele>452.0</ele><time>2026-05-02T13:16:49Z</time></trkpt><trkpt lat="44.63089081805264" lon="7.933016491682229"><ele>452.0</ele><time>2026-05-02T13:16:50Z</time></trkpt><trkpt lat="44.630678412558666" lon="7.933091416133995"><ele>452.0</ele><time>2026-05-02T13:16:51Z</time></trkpt><trkpt lat="44.63048611819761" lon="7.933149557292459"><ele>452.0</ele><time>2026-05-02T13:16:52Z</time></trkpt><trkpt lat="44.63029986876338" lon="7.93320620096484"><ele>455.3333333333333</ele><time>2026-05-02T13:16:53Z</time></trkpt><trkpt lat="44.63011900363256" lon="7.93327847067944"><ele>458.66666666666663</ele><time>2026-05-02T13:16:54Z</time></trkpt><trkpt lat="44.629937497868575" lon="7.933391298342115"><ele>462.0</ele><time>2026-05-02T13:16:55Z</time></trkpt><trkpt lat="44.62975839724422" lon="7.93354549366802"><ele>461.66666666666663</ele><time>2026-05-02T13:16:56Z</time></trkpt><trkpt lat="44.62959154725604" lon="7.933725224669397"><ele>461.3333333333333</ele><time>2026-05-02T13:16:57Z</time></trkpt><trkpt lat="44.62945446334408" lon="7.93392763130917"><ele>461.0</ele><time>2026-05-02T13:16:58Z</time></trkpt><trkpt lat="44.629338951484456" lon="7.934131969980358"><ele>456.75</ele><time>2026-05-02T13:16:59Z</time></trkpt><trkpt lat="44.62922710150762" lon="7.934296067597843"><ele>452.5</ele><time>2026-05-02T13:17:00Z</time></trkpt><trkpt lat="44.62914479285279" lon="7.9344507344917155"><ele>448.25</ele><time>2026-05-02T13:17:01Z</time></trkpt><trkpt lat="44.629044259232714" lon="7.934556751263907"><ele>444.0</ele><time>2026-05-02T13:17:02Z</time></trkpt><trkpt lat="44.62892275609705" lon="7.934623069461217"><ele>444.0</ele><time>2026-05-02T13:17:03Z</time></trkpt><trkpt lat="44.628791689741654" lon="7.934622138759867"><ele>444.0</ele><time>2026-05-02T13:17:04Z</time></trkpt><trkpt lat="44.62865914423107" lon="7.934602125465312"><ele>444.0</ele><time>2026-05-02T13:17:05Z</time></trkpt><trkpt lat="44.62853289929299" lon="7.9345310342048"><ele>444.0</ele><time>2026-05-02T13:17:06Z</time></trkpt><trkpt lat="44.62843321186587" lon="7.934417916802099"><ele>442.5</ele><time>2026-05-02T13:17:07Z</time></trkpt><trkpt lat="44.628371000527586" lon="7.934265502778365"><ele>441.0</ele><time>2026-05-02T13:17:08Z</time></trkpt><trkpt lat="44.62832152410071" lon="7.934086149301574"><ele>439.5</ele><time>2026-05-02T13:17:09Z</time></trkpt><trkpt lat="44.62826616963982" lon="7.933888520723937"><ele>438.0</ele><time>2026-05-02T13:17:10Z</time></trkpt><trkpt lat="44.62822297660319" lon="7.933682296071642"><ele>442.0</ele><time>2026-05-02T13:17:11Z</time></trkpt><trkpt lat="44.628171762752935" lon="7.933465537258158"><ele>446.0</ele><time>2026-05-02T13:17:12Z</time></trkpt><trkpt lat="44.628120559755004" lon="7.933248963567441"><ele>450.0</ele><time>2026-05-02T13:17:13Z</time></trkpt><trkpt lat="44.6280653069741" lon="7.933024505418566"><ele>452.66666666666663</ele><time>2026-05-02T13:17:14Z</time></trkpt><trkpt lat="44.62800965438272" lon="7.93281180172291"><ele>455.3333333333333</ele><time>2026-05-02T13:17:15Z</time></trkpt><trkpt lat="44.62796192624724" lon="7.93261206788919"><ele>458.0</ele><time>2026-05-02T13:17:16Z</time></trkpt><trkpt lat="44.627920473213095" lon="7.932422767750826"><ele>459.25</ele><time>2026-05-02T13:17:17Z</time></trkpt><trkpt lat="44.627872803501624" lon="7.932247985788581"><ele>460.5</ele><time>2026-05-02T13:17:18Z</time></trkpt><trkpt lat="44.62780508972166" lon="7.932073345576824"><ele>461.75</ele><time>2026-05-02T13:17:19Z</time></trkpt><trkpt lat="44.62769788664023" lon="7.931900702014664"><ele>463.0</ele><time>2026-05-02T13:17:20Z</time></trkpt><trkpt lat="44.62756521863462" lon="7.931741167215819"><ele>458.33333333333337</ele><time>2026-05-02T13:17:21Z</time></trkpt><trkpt lat="44.62740840161391" lon="7.931612031830509"><ele>453.66666666666663</ele><time>2026-05-02T13:17:22Z</time></trkpt><trkpt lat="44.62723577678357" lon="7.931498561621348"><ele>449.0</ele><time>2026-05-02T13:17:23Z</time></trkpt><trkpt lat="44.6270761969882" lon="7.931364156305294"><ele>444.0</ele><time>2026-05-02T13:17:24Z</time></trkpt><trkpt lat="44.62691580132526" lon="7.931246290088618"><ele>439.0</ele><time>2026-05-02T13:17:25Z</time></trkpt><trkpt lat="44.62675828310302" lon="7.93113053993872"><ele>434.0</ele><time>2026-05-02T13:17:26Z</time></trkpt><trkpt lat="44.62660025369582" lon="7.931016080517546"><ele>434.0</ele><time>2026-05-02T13:17:27Z</time></trkpt><trkpt lat="44.62643359771223" lon="7.930924602685823"><ele>434.0</ele><time>2026-05-02T13:17:28Z</time></trkpt><trkpt lat="44.626272364691424" lon="7.930817590574468"><ele>434.0</ele><time>2026-05-02T13:17:29Z</time></trkpt><trkpt lat="44.62611422454897" lon="7.9307145650415025"><ele>433.0</ele><time>2026-05-02T13:17:30Z</time></trkpt><trkpt lat="44.625960882063815" lon="7.930593431974491"><ele>432.0</ele><time>2026-05-02T13:17:31Z</time></trkpt><trkpt lat="44.62579599270451" lon="7.9304886372541255"><ele>431.0</ele><time>2026-05-02T13:17:32Z</time></trkpt><trkpt lat="44.62563217886217" lon="7.930404872347071"><ele>431.0</ele><time>2026-05-02T13:17:33Z</time></trkpt><trkpt lat="44.62548056544565" lon="7.930297487140245"><ele>431.0</ele><time>2026-05-02T13:17:34Z</time></trkpt><trkpt lat="44.62519438532863" lon="7.930054394336143"><ele>431.3333333333333</ele><time>2026-05-02T13:17:36Z</time></trkpt><trkpt lat="44.62506708030201" lon="7.929911224107416"><ele>431.66666666666663</ele><time>2026-05-02T13:17:37Z</time></trkpt><trkpt lat="44.62494325068845" lon="7.929764525494617"><ele>432.0</ele><time>2026-05-02T13:17:38Z</time></trkpt><trkpt lat="44.62482031620249" lon="7.929624068338212"><ele>432.0</ele><time>2026-05-02T13:17:39Z</time></trkpt><trkpt lat="44.62469219846551" lon="7.929492805817851"><ele>432.0</ele><time>2026-05-02T13:17:40Z</time></trkpt><trkpt lat="44.62455266762475" lon="7.929364314207517"><ele>432.0</ele><time>2026-05-02T13:17:41Z</time></trkpt><trkpt lat="44.62437804343236" lon="7.929252243117494"><ele>435.0</ele><time>2026-05-02T13:17:42Z</time></trkpt><trkpt lat="44.62416654415098" lon="7.929159135795536"><ele>438.0</ele><time>2026-05-02T13:17:43Z</time></trkpt><trkpt lat="44.62392974038668" lon="7.929058512942545"><ele>438.0</ele><time>2026-05-02T13:17:44Z</time></trkpt><trkpt lat="44.62367491676087" lon="7.928952189065039"><ele>438.0</ele><time>2026-05-02T13:17:45Z</time></trkpt><trkpt lat="44.623401785432414" lon="7.928842716720345"><ele>432.5</ele><time>2026-05-02T13:17:46Z</time></trkpt><trkpt lat="44.62312447394961" lon="7.928699408729245"><ele>427.0</ele><time>2026-05-02T13:17:47Z</time></trkpt><trkpt lat="44.62284616127887" lon="7.928594638787395"><ele>430.5</ele><time>2026-05-02T13:17:48Z</time></trkpt><trkpt lat="44.622600109291156" lon="7.928483923642265"><ele>434.0</ele><time>2026-05-02T13:17:49Z</time></trkpt><trkpt lat="44.62235844657086" lon="7.928376481935456"><ele>434.0</ele><time>2026-05-02T13:17:50Z</time></trkpt><trkpt lat="44.6221016159883" lon="7.928278391132197"><ele>434.0</ele><time>2026-05-02T13:17:51Z</time></trkpt><trkpt lat="44.62182738409952" lon="7.928204145339531"><ele>430.5</ele><time>2026-05-02T13:17:52Z</time></trkpt><trkpt lat="44.62154368131457" lon="7.928147704754513"><ele>427.0</ele><time>2026-05-02T13:17:53Z</time></trkpt><trkpt lat="44.62125268523164" lon="7.9280968425184515"><ele>426.0</ele><time>2026-05-02T13:17:54Z</time></trkpt><trkpt lat="44.62096302556088" lon="7.928057053744065"><ele>425.0</ele><time>2026-05-02T13:17:55Z</time></trkpt><trkpt lat="44.62067411182812" lon="7.928043769689173"><ele>425.0</ele><time>2026-05-02T13:17:56Z</time></trkpt><trkpt lat="44.620395234015525" lon="7.928064976046488"><ele>425.0</ele><time>2026-05-02T13:17:57Z</time></trkpt><trkpt lat="44.62013676935313" lon="7.928094325309184"><ele>425.0</ele><time>2026-05-02T13:17:58Z</time></trkpt><trkpt lat="44.619898240591844" lon="7.928107986963235"><ele>425.0</ele><time>2026-05-02T13:17:59Z</time></trkpt><trkpt lat="44.61967555287985" lon="7.928116423051347"><ele>428.0</ele><time>2026-05-02T13:18:00Z</time></trkpt><trkpt lat="44.61945880860287" lon="7.928147520502461"><ele>431.0</ele><time>2026-05-02T13:18:01Z</time></trkpt><trkpt lat="44.61923269850364" lon="7.928227350683486"><ele>431.0</ele><time>2026-05-02T13:18:02Z</time></trkpt><trkpt lat="44.61899553782351" lon="7.928354633738124"><ele>431.0</ele><time>2026-05-02T13:18:03Z</time></trkpt><trkpt lat="44.61877128655212" lon="7.928482820987974"><ele>428.0</ele><time>2026-05-02T13:18:04Z</time></trkpt><trkpt lat="44.61856122234949" lon="7.928566614066831"><ele>425.0</ele><time>2026-05-02T13:18:05Z</time></trkpt><trkpt lat="44.61836998702353" lon="7.928660408505921"><ele>422.0</ele><time>2026-05-02T13:18:06Z</time></trkpt><trkpt lat="44.618197366772556" lon="7.928757666384502"><ele>422.0</ele><time>2026-05-02T13:18:07Z</time></trkpt><trkpt lat="44.61804216717235" lon="7.928791605623275"><ele>422.0</ele><time>2026-05-02T13:18:08Z</time></trkpt><trkpt lat="44.617892151090786" lon="7.928789248432192"><ele>422.0</ele><time>2026-05-02T13:18:09Z</time></trkpt><trkpt lat="44.617716719994085" lon="7.9287624825881275"><ele>422.66666666666663</ele><time>2026-05-02T13:18:10Z</time></trkpt><trkpt lat="44.61751304308727" lon="7.928734622054041"><ele>423.33333333333337</ele><time>2026-05-02T13:18:11Z</time></trkpt><trkpt lat="44.61730472342158" lon="7.928672684824316"><ele>424.0</ele><time>2026-05-02T13:18:12Z</time></trkpt><trkpt lat="44.61709292895248" lon="7.928618981839504"><ele>422.6666666666667</ele><time>2026-05-02T13:18:13Z</time></trkpt><trkpt lat="44.6169062411469" lon="7.928570005943347"><ele>421.33333333333337</ele><time>2026-05-02T13:18:14Z</time></trkpt><trkpt lat="44.61673308812606" lon="7.928526844945726"><ele>420.0</ele><time>2026-05-02T13:18:15Z</time></trkpt><trkpt lat="44.61656983082929" lon="7.928488096997412"><ele>420.0</ele><time>2026-05-02T13:18:16Z</time></trkpt><trkpt lat="44.616403826336835" lon="7.928454229908561"><ele>420.0</ele><time>2026-05-02T13:18:17Z</time></trkpt><trkpt lat="44.61624160258343" lon="7.928417349867409"><ele>420.0</ele><time>2026-05-02T13:18:18Z</time></trkpt><trkpt lat="44.61609333355968" lon="7.928378016059864"><ele>421.5</ele><time>2026-05-02T13:18:19Z</time></trkpt><trkpt lat="44.61597027026648" lon="7.928309858735959"><ele>423.0</ele><time>2026-05-02T13:18:20Z</time></trkpt><trkpt lat="44.61584762003119" lon="7.9282639827749275"><ele>424.5</ele><time>2026-05-02T13:18:21Z</time></trkpt><trkpt lat="44.61575188824958" lon="7.92815902593564"><ele>426.0</ele><time>2026-05-02T13:18:22Z</time></trkpt><trkpt lat="44.61568893381241" lon="7.928022199488611"><ele>426.0</ele><time>2026-05-02T13:18:23Z</time></trkpt><trkpt lat="44.615622399917314" lon="7.927918040516724"><ele>426.0</ele><time>2026-05-02T13:18:24Z</time></trkpt><trkpt lat="44.61558922861291" lon="7.927798564791639"><ele>426.0</ele><time>2026-05-02T13:18:25Z</time></trkpt><trkpt lat="44.61556793451692" lon="7.927707103392978"><ele>426.0</ele><time>2026-05-02T13:18:26Z</time></trkpt><trkpt lat="44.61547150818799" lon="7.927648154131518"><ele>426.0</ele><time>2026-05-02T13:18:28Z</time></trkpt><trkpt lat="44.61542847293747" lon="7.927781501247022"><ele>426.0</ele><time>2026-05-02T13:18:30Z</time></trkpt><trkpt lat="44.61545403517061" lon="7.9278849162538165"><ele>426.0</ele><time>2026-05-02T13:18:31Z</time></trkpt><trkpt lat="44.6154965574063" lon="7.928012707324068"><ele>426.0</ele><time>2026-05-02T13:18:32Z</time></trkpt><trkpt lat="44.61552935546851" lon="7.928143576865397"><ele>426.0</ele><time>2026-05-02T13:18:33Z</time></trkpt><trkpt lat="44.61557333759608" lon="7.9282961830619945"><ele>426.0</ele><time>2026-05-02T13:18:34Z</time></trkpt><trkpt lat="44.61563092957754" lon="7.9284480789784775"><ele>423.0</ele><time>2026-05-02T13:18:35Z</time></trkpt><trkpt lat="44.61569872441414" lon="7.9286351822687005"><ele>420.0</ele><time>2026-05-02T13:18:36Z</time></trkpt><trkpt lat="44.615783470162846" lon="7.928845329966216"><ele>417.0</ele><time>2026-05-02T13:18:37Z</time></trkpt><trkpt lat="44.61588108153579" lon="7.929068787837442"><ele>415.0</ele><time>2026-05-02T13:18:38Z</time></trkpt><trkpt lat="44.61598740696563" lon="7.929311039208199"><ele>413.0</ele><time>2026-05-02T13:18:39Z</time></trkpt><trkpt lat="44.616101934996976" lon="7.9295604932958135"><ele>411.0</ele><time>2026-05-02T13:18:40Z</time></trkpt><trkpt lat="44.61621936822361" lon="7.929834605145278"><ele>411.0</ele><time>2026-05-02T13:18:41Z</time></trkpt><trkpt lat="44.6163244957297" lon="7.930084723083735"><ele>411.0</ele><time>2026-05-02T13:18:42Z</time></trkpt><trkpt lat="44.616429962963025" lon="7.9303177049863915"><ele>411.0</ele><time>2026-05-02T13:18:43Z</time></trkpt><trkpt lat="44.616529896384904" lon="7.930538527468502"><ele>411.0</ele><time>2026-05-02T13:18:44Z</time></trkpt><trkpt lat="44.61660942302275" lon="7.930731643075077"><ele>411.0</ele><time>2026-05-02T13:18:45Z</time></trkpt><trkpt lat="44.61666217595445" lon="7.930910149363164"><ele>411.0</ele><time>2026-05-02T13:18:46Z</time></trkpt><trkpt lat="44.616664939904844" lon="7.931097360514954"><ele>411.0</ele><time>2026-05-02T13:18:47Z</time></trkpt><trkpt lat="44.61661874208947" lon="7.931272953841475"><ele>410.33333333333337</ele><time>2026-05-02T13:18:48Z</time></trkpt><trkpt lat="44.61653536449637" lon="7.931450111065565"><ele>409.6666666666667</ele><time>2026-05-02T13:18:49Z</time></trkpt><trkpt lat="44.61641846519036" lon="7.9316152696065565"><ele>409.0</ele><time>2026-05-02T13:18:50Z</time></trkpt><trkpt lat="44.61630302305637" lon="7.9317633110385115"><ele>408.0</ele><time>2026-05-02T13:18:51Z</time></trkpt><trkpt lat="44.61619074809883" lon="7.9318853348905005"><ele>407.0</ele><time>2026-05-02T13:18:52Z</time></trkpt><trkpt lat="44.61608404525188" lon="7.932025532494488"><ele>406.0</ele><time>2026-05-02T13:18:53Z</time></trkpt><trkpt lat="44.61596160642869" lon="7.9321860983834975"><ele>406.0</ele><time>2026-05-02T13:18:54Z</time></trkpt><trkpt lat="44.615829320041136" lon="7.932359119682314"><ele>406.0</ele><time>2026-05-02T13:18:55Z</time></trkpt><trkpt lat="44.615688034328855" lon="7.93254382517297"><ele>406.0</ele><time>2026-05-02T13:18:56Z</time></trkpt><trkpt lat="44.61553279200997" lon="7.932747939776627"><ele>403.5</ele><time>2026-05-02T13:18:57Z</time></trkpt><trkpt lat="44.6153812321419" lon="7.932973057365797"><ele>401.0</ele><time>2026-05-02T13:18:58Z</time></trkpt><trkpt lat="44.615212218362736" lon="7.93319289862566"><ele>399.66666666666663</ele><time>2026-05-02T13:18:59Z</time></trkpt><trkpt lat="44.61504680951421" lon="7.933409254370092"><ele>398.33333333333337</ele><time>2026-05-02T13:19:00Z</time></trkpt><trkpt lat="44.6148974668606" lon="7.933604330445983"><ele>397.0</ele><time>2026-05-02T13:19:01Z</time></trkpt><trkpt lat="44.61475690298014" lon="7.933788819173583"><ele>397.0</ele><time>2026-05-02T13:19:02Z</time></trkpt><trkpt lat="44.61464064821801" lon="7.93397219229348"><ele>397.0</ele><time>2026-05-02T13:19:03Z</time></trkpt><trkpt lat="44.614549058702615" lon="7.934199993908461"><ele>397.0</ele><time>2026-05-02T13:19:04Z</time></trkpt><trkpt lat="44.614487195495954" lon="7.934485292743509"><ele>400.0</ele><time>2026-05-02T13:19:05Z</time></trkpt><trkpt lat="44.614460052100256" lon="7.934788041427373"><ele>403.0</ele><time>2026-05-02T13:19:06Z</time></trkpt><trkpt lat="44.61443075394234" lon="7.935055056312543"><ele>406.0</ele><time>2026-05-02T13:19:07Z</time></trkpt><trkpt lat="44.61441958243648" lon="7.935278943694586"><ele>406.5</ele><time>2026-05-02T13:19:08Z</time></trkpt><trkpt lat="44.6144246655618" lon="7.9354897954022325"><ele>407.0</ele><time>2026-05-02T13:19:09Z</time></trkpt><trkpt lat="44.61441191180199" lon="7.935686267676212"><ele>407.5</ele><time>2026-05-02T13:19:10Z</time></trkpt><trkpt lat="44.61439163813505" lon="7.935873929017153"><ele>408.0</ele><time>2026-05-02T13:19:11Z</time></trkpt><trkpt lat="44.6143539162412" lon="7.936032063176953"><ele>403.75</ele><time>2026-05-02T13:19:12Z</time></trkpt><trkpt lat="44.61428978108674" lon="7.936163083214634"><ele>399.5</ele><time>2026-05-02T13:19:13Z</time></trkpt><trkpt lat="44.61418085671962" lon="7.936261604619676"><ele>395.25</ele><time>2026-05-02T13:19:14Z</time></trkpt><trkpt lat="44.61406527411349" lon="7.936357300757133"><ele>391.0</ele><time>2026-05-02T13:19:15Z</time></trkpt><trkpt lat="44.6139478684008" lon="7.936441112917784"><ele>391.0</ele><time>2026-05-02T13:19:16Z</time></trkpt><trkpt lat="44.61383674191" lon="7.936520327052032"><ele>391.0</ele><time>2026-05-02T13:19:17Z</time></trkpt><trkpt lat="44.61371989644722" lon="7.936562900885234"><ele>391.0</ele><time>2026-05-02T13:19:18Z</time></trkpt><trkpt lat="44.613608238999234" lon="7.936586232018649"><ele>391.0</ele><time>2026-05-02T13:19:19Z</time></trkpt><trkpt lat="44.613491074323846" lon="7.936606324599519"><ele>391.6</ele><time>2026-05-02T13:19:20Z</time></trkpt><trkpt lat="44.61338132482124" lon="7.936617677278723"><ele>392.20000000000005</ele><time>2026-05-02T13:19:21Z</time></trkpt><trkpt lat="44.61326136444779" lon="7.936566113184484"><ele>392.79999999999995</ele><time>2026-05-02T13:19:22Z</time></trkpt><trkpt lat="44.61319329187388" lon="7.936582501813125"><ele>393.4</ele><time>2026-05-02T13:19:23Z</time></trkpt><trkpt lat="44.61308340744943" lon="7.936513980732053"><ele>394.0</ele><time>2026-05-02T13:19:24Z</time></trkpt><trkpt lat="44.61297746117767" lon="7.936461871308563"><ele>394.0</ele><time>2026-05-02T13:19:25Z</time></trkpt><trkpt lat="44.61288345912472" lon="7.936393195382094"><ele>394.0</ele><time>2026-05-02T13:19:26Z</time></trkpt><trkpt lat="44.61279072963278" lon="7.936333458781031"><ele>394.0</ele><time>2026-05-02T13:19:27Z</time></trkpt><trkpt lat="44.61270398691562" lon="7.936272581100258"><ele>394.0</ele><time>2026-05-02T13:19:28Z</time></trkpt><trkpt lat="44.61262766662246" lon="7.936217481069057"><ele>394.0</ele><time>2026-05-02T13:19:29Z</time></trkpt><trkpt lat="44.612554809259976" lon="7.936165313059664"><ele>392.00000000000006</ele><time>2026-05-02T13:19:30Z</time></trkpt><trkpt lat="44.61248885381206" lon="7.936119206493176"><ele>390.0</ele><time>2026-05-02T13:19:31Z</time></trkpt><trkpt lat="44.61242823716007" lon="7.936077696552479"><ele>388.0</ele><time>2026-05-02T13:19:32Z</time></trkpt><trkpt lat="44.61232091872973" lon="7.9360196740724644"><ele>386.0</ele><time>2026-05-02T13:19:34Z</time></trkpt><trkpt lat="44.612249710244505" lon="7.936043254801492"><ele>384.0</ele><time>2026-05-02T13:19:36Z</time></trkpt><trkpt lat="44.612187859810916" lon="7.936072095770577"><ele>382.0</ele><time>2026-05-02T13:19:38Z</time></trkpt><trkpt lat="44.612307484404454" lon="7.936313141816048"><ele>382.0</ele><time>2026-05-02T13:19:42Z</time></trkpt><trkpt lat="44.612398892837646" lon="7.936361580810511"><ele>382.0</ele><time>2026-05-02T13:19:43Z</time></trkpt><trkpt lat="44.61247682145449" lon="7.93641009196792"><ele>382.0</ele><time>2026-05-02T13:19:44Z</time></trkpt><trkpt lat="44.6125590471966" lon="7.936479625287124"><ele>382.0</ele><time>2026-05-02T13:19:45Z</time></trkpt><trkpt lat="44.61266081828508" lon="7.936559873766317"><ele>382.0</ele><time>2026-05-02T13:19:46Z</time></trkpt><trkpt lat="44.612752629591306" lon="7.936630710427837"><ele>381.40000000000003</ele><time>2026-05-02T13:19:47Z</time></trkpt><trkpt lat="44.612838679134185" lon="7.936692570102749"><ele>380.8</ele><time>2026-05-02T13:19:48Z</time></trkpt><trkpt lat="44.612922477547414" lon="7.936766596652748"><ele>380.2</ele><time>2026-05-02T13:19:49Z</time></trkpt><trkpt lat="44.613001102472936" lon="7.936868361044261"><ele>379.6</ele><time>2026-05-02T13:19:50Z</time></trkpt><trkpt lat="44.6130673059562" lon="7.936998616338243"><ele>379.0</ele><time>2026-05-02T13:19:51Z</time></trkpt><trkpt lat="44.6131168018957" lon="7.937149807312578"><ele>379.0</ele><time>2026-05-02T13:19:52Z</time></trkpt><trkpt lat="44.613153579380125" lon="7.937302710846531"><ele>379.0</ele><time>2026-05-02T13:19:53Z</time></trkpt><trkpt lat="44.61315022886348" lon="7.937459743223428"><ele>379.0</ele><time>2026-05-02T13:19:54Z</time></trkpt><trkpt lat="44.61316579969737" lon="7.93760692528942"><ele>379.0</ele><time>2026-05-02T13:19:55Z</time></trkpt><trkpt lat="44.61316376530211" lon="7.937740529439776"><ele>379.0</ele><time>2026-05-02T13:19:56Z</time></trkpt><trkpt lat="44.61318998241967" lon="7.9378572894828485"><ele>375.6</ele><time>2026-05-02T13:19:57Z</time></trkpt><trkpt lat="44.613260852847404" lon="7.937940394439039"><ele>372.2</ele><time>2026-05-02T13:19:58Z</time></trkpt><trkpt lat="44.613357794771304" lon="7.937970637693692"><ele>368.8</ele><time>2026-05-02T13:19:59Z</time></trkpt><trkpt lat="44.61346789065264" lon="7.937937699237266"><ele>365.40000000000003</ele><time>2026-05-02T13:20:00Z</time></trkpt><trkpt lat="44.613581215247805" lon="7.937839662765353"><ele>362.0</ele><time>2026-05-02T13:20:01Z</time></trkpt><trkpt lat="44.613716374647524" lon="7.93770461381089"><ele>364.0</ele><time>2026-05-02T13:20:02Z</time></trkpt><trkpt lat="44.61389438462405" lon="7.937583723835608"><ele>366.0</ele><time>2026-05-02T13:20:03Z</time></trkpt><trkpt lat="44.61410009397298" lon="7.937468706526924"><ele>368.0</ele><time>2026-05-02T13:20:04Z</time></trkpt><trkpt lat="44.61432797582131" lon="7.937338799238584"><ele>361.5</ele><time>2026-05-02T13:20:05Z</time></trkpt><trkpt lat="44.614558524855155" lon="7.937203925001599"><ele>355.0</ele><time>2026-05-02T13:20:06Z</time></trkpt><trkpt lat="44.61477107783054" lon="7.937085593706534"><ele>355.0</ele><time>2026-05-02T13:20:07Z</time></trkpt><trkpt lat="44.61495073578607" lon="7.936993810004144"><ele>355.0</ele><time>2026-05-02T13:20:08Z</time></trkpt><trkpt lat="44.615117486255954" lon="7.9369296085523295"><ele>355.0</ele><time>2026-05-02T13:20:09Z</time></trkpt><trkpt lat="44.61526377996313" lon="7.936892111973334"><ele>355.5</ele><time>2026-05-02T13:20:10Z</time></trkpt><trkpt lat="44.61538728075323" lon="7.936850773002594"><ele>356.0</ele><time>2026-05-02T13:20:11Z</time></trkpt><trkpt lat="44.61549226673086" lon="7.936782262574752"><ele>356.5</ele><time>2026-05-02T13:20:12Z</time></trkpt><trkpt lat="44.615566133847466" lon="7.936656268704843"><ele>357.0</ele><time>2026-05-02T13:20:13Z</time></trkpt><trkpt lat="44.61559678931192" lon="7.936501049848375"><ele>357.0</ele><time>2026-05-02T13:20:14Z</time></trkpt><trkpt lat="44.615607335650864" lon="7.936370544077826"><ele>357.0</ele><time>2026-05-02T13:20:15Z</time></trkpt><trkpt lat="44.615694209512576" lon="7.936259275277973"><ele>357.0</ele><time>2026-05-02T13:20:17Z</time></trkpt><trkpt lat="44.615766375063565" lon="7.936302720357482"><ele>357.0</ele><time>2026-05-02T13:20:18Z</time></trkpt><trkpt lat="44.615803540262526" lon="7.936406020116239"><ele>357.0</ele><time>2026-05-02T13:20:19Z</time></trkpt><trkpt lat="44.615788697018985" lon="7.936564585705912"><ele>357.0</ele><time>2026-05-02T13:20:20Z</time></trkpt><trkpt lat="44.61570845750271" lon="7.936702360013132"><ele>357.0</ele><time>2026-05-02T13:20:21Z</time></trkpt><trkpt lat="44.61563065704171" lon="7.936829928539616"><ele>357.0</ele><time>2026-05-02T13:20:22Z</time></trkpt><trkpt lat="44.61553193525094" lon="7.936937215951423"><ele>357.0</ele><time>2026-05-02T13:20:23Z</time></trkpt><trkpt lat="44.615425095809314" lon="7.937066689137151"><ele>356.6666666666667</ele><time>2026-05-02T13:20:24Z</time></trkpt><trkpt lat="44.61532428138506" lon="7.937146629946653"><ele>356.3333333333333</ele><time>2026-05-02T13:20:25Z</time></trkpt><trkpt lat="44.61524123127648" lon="7.937223004092653"><ele>356.0</ele><time>2026-05-02T13:20:26Z</time></trkpt><trkpt lat="44.615182084902344" lon="7.937288141161406"><ele>355.66666666666663</ele><time>2026-05-02T13:20:27Z</time></trkpt><trkpt lat="44.615134624933226" lon="7.937361929277831"><ele>355.3333333333333</ele><time>2026-05-02T13:20:28Z</time></trkpt><trkpt lat="44.61512798598482" lon="7.937458443310667"><ele>355.0</ele><time>2026-05-02T13:20:29Z</time></trkpt><trkpt lat="44.61516037876668" lon="7.937544460623417"><ele>353.16666666666663</ele><time>2026-05-02T13:20:30Z</time></trkpt><trkpt lat="44.615216970370284" lon="7.937601009971191"><ele>351.3333333333333</ele><time>2026-05-02T13:20:31Z</time></trkpt><trkpt lat="44.61529112992863" lon="7.937618432170906"><ele>349.5</ele><time>2026-05-02T13:20:32Z</time></trkpt><trkpt lat="44.61537216866544" lon="7.937581021855238"><ele>347.6666666666667</ele><time>2026-05-02T13:20:33Z</time></trkpt><trkpt lat="44.615455064396016" lon="7.937513824727768"><ele>345.83333333333337</ele><time>2026-05-02T13:20:34Z</time></trkpt><trkpt lat="44.615534177520736" lon="7.937436812566489"><ele>344.0</ele><time>2026-05-02T13:20:35Z</time></trkpt><trkpt lat="44.61561146468341" lon="7.937376348411004"><ele>344.0</ele><time>2026-05-02T13:20:36Z</time></trkpt><trkpt lat="44.61569041693342" lon="7.937310187820253"><ele>344.0</ele><time>2026-05-02T13:20:37Z</time></trkpt><trkpt lat="44.61577833150572" lon="7.937230749959275"><ele>344.0</ele><time>2026-05-02T13:20:38Z</time></trkpt><trkpt lat="44.615862169198884" lon="7.937138561258351"><ele>344.0</ele><time>2026-05-02T13:20:39Z</time></trkpt><trkpt lat="44.61593241095056" lon="7.937032124595446"><ele>344.0</ele><time>2026-05-02T13:20:40Z</time></trkpt><trkpt lat="44.615982940967875" lon="7.936895841225115"><ele>344.0</ele><time>2026-05-02T13:20:41Z</time></trkpt><trkpt lat="44.61600811679876" lon="7.936770196782142"><ele>344.0</ele><time>2026-05-02T13:20:42Z</time></trkpt><trkpt lat="44.61602780581978" lon="7.936641539589068"><ele>344.0</ele><time>2026-05-02T13:20:43Z</time></trkpt><trkpt lat="44.616048417773825" lon="7.936537079589539"><ele>344.0</ele><time>2026-05-02T13:20:44Z</time></trkpt><trkpt lat="44.61609332628082" lon="7.936427024958576"><ele>344.0</ele><time>2026-05-02T13:20:46Z</time></trkpt><trkpt lat="44.61618064530872" lon="7.936469459283839"><ele>344.0</ele><time>2026-05-02T13:20:48Z</time></trkpt><trkpt lat="44.61618901218028" lon="7.936641046030628"><ele>344.0</ele><time>2026-05-02T13:20:50Z</time></trkpt><trkpt lat="44.61618204231584" lon="7.936741175735621"><ele>344.0</ele><time>2026-05-02T13:20:51Z</time></trkpt><trkpt lat="44.616174654561405" lon="7.936861320067975"><ele>344.0</ele><time>2026-05-02T13:20:52Z</time></trkpt><trkpt lat="44.61616726089462" lon="7.9369938644279845"><ele>344.0</ele><time>2026-05-02T13:20:53Z</time></trkpt><trkpt lat="44.61615644022148" lon="7.937124922823703"><ele>344.0</ele><time>2026-05-02T13:20:54Z</time></trkpt><trkpt lat="44.616141088454846" lon="7.937261050984883"><ele>344.0</ele><time>2026-05-02T13:20:55Z</time></trkpt><trkpt lat="44.61610437520696" lon="7.937412942308925"><ele>337.6666666666667</ele><time>2026-05-02T13:20:56Z</time></trkpt><trkpt lat="44.616029023896566" lon="7.937568179293674"><ele>331.3333333333333</ele><time>2026-05-02T13:20:57Z</time></trkpt><trkpt lat="44.61593884201683" lon="7.937750342734375"><ele>325.0</ele><time>2026-05-02T13:20:58Z</time></trkpt><trkpt lat="44.61583381964009" lon="7.937935002196334"><ele>325.0</ele><time>2026-05-02T13:20:59Z</time></trkpt><trkpt lat="44.61572986895451" lon="7.938121435969728"><ele>325.0</ele><time>2026-05-02T13:21:00Z</time></trkpt><trkpt lat="44.61562993175638" lon="7.938299335375781"><ele>325.0</ele><time>2026-05-02T13:21:01Z</time></trkpt><trkpt lat="44.61552579953829" lon="7.938479020887808"><ele>325.0</ele><time>2026-05-02T13:21:02Z</time></trkpt><trkpt lat="44.615407616261734" lon="7.938671958737771"><ele>325.0</ele><time>2026-05-02T13:21:03Z</time></trkpt><trkpt lat="44.61528250327735" lon="7.938870997609975"><ele>325.0</ele><time>2026-05-02T13:21:04Z</time></trkpt><trkpt lat="44.61517505177685" lon="7.939075806299894"><ele>323.25</ele><time>2026-05-02T13:21:05Z</time></trkpt><trkpt lat="44.61505547542189" lon="7.939228554983746"><ele>321.5</ele><time>2026-05-02T13:21:06Z</time></trkpt><trkpt lat="44.614977023422476" lon="7.939388186527786"><ele>319.75</ele><time>2026-05-02T13:21:07Z</time></trkpt><trkpt lat="44.614903138607595" lon="7.939531498891406"><ele>318.0</ele><time>2026-05-02T13:21:08Z</time></trkpt><trkpt lat="44.614850414166995" lon="7.939691185652352"><ele>318.0</ele><time>2026-05-02T13:21:09Z</time></trkpt><trkpt lat="44.61481817477805" lon="7.9398666505445386"><ele>318.0</ele><time>2026-05-02T13:21:10Z</time></trkpt><trkpt lat="44.61478603110972" lon="7.940037218982749"><ele>318.0</ele><time>2026-05-02T13:21:11Z</time></trkpt><trkpt lat="44.61474675805047" lon="7.940191475569551"><ele>318.0</ele><time>2026-05-02T13:21:12Z</time></trkpt><trkpt lat="44.614700617657974" lon="7.940330709837918"><ele>317.8333333333333</ele><time>2026-05-02T13:21:13Z</time></trkpt><trkpt lat="44.61465599147655" lon="7.940452908073662"><ele>317.6666666666667</ele><time>2026-05-02T13:21:14Z</time></trkpt><trkpt lat="44.61461447759827" lon="7.940555074780531"><ele>317.5</ele><time>2026-05-02T13:21:15Z</time></trkpt><trkpt lat="44.6145792391017" lon="7.94064399401239"><ele>317.33333333333337</ele><time>2026-05-02T13:21:16Z</time></trkpt><trkpt lat="44.614545162539265" lon="7.940720463296345"><ele>317.1666666666667</ele><time>2026-05-02T13:21:17Z</time></trkpt><trkpt lat="44.61447398574028" lon="7.940844607855071"><ele>317.0</ele><time>2026-05-02T13:21:19Z</time></trkpt><trkpt lat="44.614371401214036" lon="7.940946069439219"><ele>316.8</ele><time>2026-05-02T13:21:21Z</time></trkpt><trkpt lat="44.61429514574377" lon="7.940976156579526"><ele>316.6</ele><time>2026-05-02T13:21:22Z</time></trkpt><trkpt lat="44.6141991901623" lon="7.940955270853249"><ele>316.40000000000003</ele><time>2026-05-02T13:21:23Z</time></trkpt><trkpt lat="44.61408522514116" lon="7.940948355114085"><ele>316.2</ele><time>2026-05-02T13:21:24Z</time></trkpt><trkpt lat="44.61396649210218" lon="7.9409620335053805"><ele>316.0</ele><time>2026-05-02T13:21:25Z</time></trkpt><trkpt lat="44.61385019371987" lon="7.940953430438524"><ele>316.0</ele><time>2026-05-02T13:21:26Z</time></trkpt><trkpt lat="44.61371810542391" lon="7.940947006024626"><ele>316.0</ele><time>2026-05-02T13:21:27Z</time></trkpt><trkpt lat="44.61357668026979" lon="7.940937547297206"><ele>316.0</ele><time>2026-05-02T13:21:28Z</time></trkpt><trkpt lat="44.61343106892691" lon="7.940926621514389"><ele>316.0</ele><time>2026-05-02T13:21:29Z</time></trkpt><trkpt lat="44.613287516961826" lon="7.940915892217823"><ele>315.75</ele><time>2026-05-02T13:21:30Z</time></trkpt><trkpt lat="44.61315268982132" lon="7.940904216251835"><ele>315.5</ele><time>2026-05-02T13:21:31Z</time></trkpt><trkpt lat="44.61302283455701" lon="7.940893825412231"><ele>315.25</ele><time>2026-05-02T13:21:32Z</time></trkpt><trkpt lat="44.61289376424097" lon="7.940872277995806"><ele>315.0</ele><time>2026-05-02T13:21:33Z</time></trkpt><trkpt lat="44.61276958218547" lon="7.94084470843206"><ele>313.25</ele><time>2026-05-02T13:21:34Z</time></trkpt><trkpt lat="44.61264684835328" lon="7.940808107494675"><ele>311.5</ele><time>2026-05-02T13:21:35Z</time></trkpt><trkpt lat="44.61251477795131" lon="7.940764215733416"><ele>309.75</ele><time>2026-05-02T13:21:36Z</time></trkpt><trkpt lat="44.61238047202554" lon="7.940719510624491"><ele>308.0</ele><time>2026-05-02T13:21:37Z</time></trkpt><trkpt lat="44.61224651693552" lon="7.94066681976731"><ele>308.0</ele><time>2026-05-02T13:21:38Z</time></trkpt><trkpt lat="44.61211650059657" lon="7.940608661505058"><ele>308.0</ele><time>2026-05-02T13:21:39Z</time></trkpt><trkpt lat="44.612003883290086" lon="7.940552567237974"><ele>308.0</ele><time>2026-05-02T13:21:40Z</time></trkpt><trkpt lat="44.611899170815725" lon="7.940500973303475"><ele>308.0</ele><time>2026-05-02T13:21:41Z</time></trkpt><trkpt lat="44.61180264327774" lon="7.940453600202696"><ele>308.0</ele><time>2026-05-02T13:21:42Z</time></trkpt><trkpt lat="44.61171531650842" lon="7.940393786139549"><ele>308.0</ele><time>2026-05-02T13:21:43Z</time></trkpt><trkpt lat="44.61162944551396" lon="7.9403507166917535"><ele>308.0</ele><time>2026-05-02T13:21:44Z</time></trkpt><trkpt lat="44.61154531148247" lon="7.9403345522717075"><ele>308.0</ele><time>2026-05-02T13:21:45Z</time></trkpt><trkpt lat="44.61146256668019" lon="7.94029773071455"><ele>308.0</ele><time>2026-05-02T13:21:46Z</time></trkpt><trkpt lat="44.6113908728308" lon="7.940244521097549"><ele>308.0</ele><time>2026-05-02T13:21:47Z</time></trkpt><trkpt lat="44.6113240837311" lon="7.940240838107146"><ele>308.0</ele><time>2026-05-02T13:21:48Z</time></trkpt><trkpt lat="44.61126013142756" lon="7.940225922098105"><ele>308.0</ele><time>2026-05-02T13:21:50Z</time></trkpt><trkpt lat="44.611187447743085" lon="7.940231300054931"><ele>308.0</ele><time>2026-05-02T13:21:52Z</time></trkpt><trkpt lat="44.611075817209056" lon="7.940253175026749"><ele>308.0</ele><time>2026-05-02T13:21:54Z</time></trkpt><trkpt lat="44.610996543654295" lon="7.940260948897682"><ele>308.0</ele><time>2026-05-02T13:21:55Z</time></trkpt><trkpt lat="44.61092179170319" lon="7.940270176814283"><ele>308.0</ele><time>2026-05-02T13:21:56Z</time></trkpt><trkpt lat="44.61084624688896" lon="7.940277683114798"><ele>307.6666666666667</ele><time>2026-05-02T13:21:57Z</time></trkpt><trkpt lat="44.61076427956434" lon="7.940282181521189"><ele>307.33333333333337</ele><time>2026-05-02T13:21:58Z</time></trkpt><trkpt lat="44.6106756649493" lon="7.940289591519891"><ele>307.0</ele><time>2026-05-02T13:21:59Z</time></trkpt><trkpt lat="44.610590772032204" lon="7.94029724730186"><ele>306.6666666666667</ele><time>2026-05-02T13:22:00Z</time></trkpt><trkpt lat="44.61050662603409" lon="7.940278728043944"><ele>306.3333333333333</ele><time>2026-05-02T13:22:01Z</time></trkpt><trkpt lat="44.610428181885034" lon="7.940282491886335"><ele>306.0</ele><time>2026-05-02T13:22:02Z</time></trkpt><trkpt lat="44.610355050578185" lon="7.940310153727928"><ele>306.0</ele><time>2026-05-02T13:22:03Z</time></trkpt><trkpt lat="44.61028439133173" lon="7.940308369851795"><ele>306.0</ele><time>2026-05-02T13:22:04Z</time></trkpt><trkpt lat="44.61021904390562" lon="7.9403083373275685"><ele>306.0</ele><time>2026-05-02T13:22:05Z</time></trkpt><trkpt lat="44.61014904990135" lon="7.940312507575753"><ele>306.0</ele><time>2026-05-02T13:22:06Z</time></trkpt><trkpt lat="44.61006258728235" lon="7.940317810331136"><ele>306.0</ele><time>2026-05-02T13:22:07Z</time></trkpt><trkpt lat="44.60996295870853" lon="7.940325547054862"><ele>306.0</ele><time>2026-05-02T13:22:08Z</time></trkpt><trkpt lat="44.60983954927425" lon="7.940309648677595"><ele>306.0</ele><time>2026-05-02T13:22:09Z</time></trkpt><trkpt lat="44.60970971908528" lon="7.940311590280261"><ele>306.0</ele><time>2026-05-02T13:22:10Z</time></trkpt><trkpt lat="44.6095804247154" lon="7.940300303294137"><ele>306.0</ele><time>2026-05-02T13:22:11Z</time></trkpt><trkpt lat="44.60943409401656" lon="7.940280081561327"><ele>306.0</ele><time>2026-05-02T13:22:12Z</time></trkpt><trkpt lat="44.609273818505805" lon="7.940255644944882"><ele>305.25</ele><time>2026-05-02T13:22:13Z</time></trkpt><trkpt lat="44.60912032233661" lon="7.940234834805963"><ele>304.5</ele><time>2026-05-02T13:22:14Z</time></trkpt><trkpt lat="44.60897963370255" lon="7.940226316088869"><ele>303.75</ele><time>2026-05-02T13:22:15Z</time></trkpt><trkpt lat="44.60884429462096" lon="7.9402447858813385"><ele>303.0</ele><time>2026-05-02T13:22:16Z</time></trkpt><trkpt lat="44.60871672217136" lon="7.940316212349884"><ele>307.0</ele><time>2026-05-02T13:22:17Z</time></trkpt><trkpt lat="44.60861474261599" lon="7.940462326561359"><ele>311.0</ele><time>2026-05-02T13:22:18Z</time></trkpt><trkpt lat="44.60851161302447" lon="7.940625264271441"><ele>315.0</ele><time>2026-05-02T13:22:19Z</time></trkpt><trkpt lat="44.60844742434317" lon="7.940839329770827"><ele>313.5</ele><time>2026-05-02T13:22:20Z</time></trkpt><trkpt lat="44.608395899191045" lon="7.941033877878958"><ele>312.0</ele><time>2026-05-02T13:22:21Z</time></trkpt><trkpt lat="44.60834700462575" lon="7.941190578078637"><ele>310.5</ele><time>2026-05-02T13:22:22Z</time></trkpt><trkpt lat="44.60828667120717" lon="7.941301341652345"><ele>309.0</ele><time>2026-05-02T13:22:23Z</time></trkpt><trkpt lat="44.60821621480852" lon="7.941379951779607"><ele>309.0</ele><time>2026-05-02T13:22:24Z</time></trkpt><trkpt lat="44.608098410595304" lon="7.941386342908486"><ele>309.0</ele><time>2026-05-02T13:22:25Z</time></trkpt><trkpt lat="44.60802680454792" lon="7.941352160210206"><ele>309.0</ele><time>2026-05-02T13:22:26Z</time></trkpt><trkpt lat="44.607972428856314" lon="7.941275485304234"><ele>309.0</ele><time>2026-05-02T13:22:27Z</time></trkpt><trkpt lat="44.60792964061154" lon="7.941171841941143"><ele>309.0</ele><time>2026-05-02T13:22:28Z</time></trkpt><trkpt lat="44.60788947004555" lon="7.941032932131099"><ele>308.6666666666667</ele><time>2026-05-02T13:22:29Z</time></trkpt><trkpt lat="44.607838357551515" lon="7.940841263740237"><ele>308.33333333333337</ele><time>2026-05-02T13:22:30Z</time></trkpt><trkpt lat="44.60778049751552" lon="7.9406091190606585"><ele>308.0</ele><time>2026-05-02T13:22:31Z</time></trkpt><trkpt lat="44.60772278238283" lon="7.940393322817855"><ele>308.0</ele><time>2026-05-02T13:22:32Z</time></trkpt><trkpt lat="44.607641745892174" lon="7.940140053077603"><ele>308.0</ele><time>2026-05-02T13:22:33Z</time></trkpt><trkpt lat="44.60757849195642" lon="7.939892358290639"><ele>308.0</ele><time>2026-05-02T13:22:34Z</time></trkpt><trkpt lat="44.60752499524039" lon="7.939687030113479"><ele>312.0</ele><time>2026-05-02T13:22:35Z</time></trkpt><trkpt lat="44.60746456503074" lon="7.939524758747069"><ele>316.0</ele><time>2026-05-02T13:22:36Z</time></trkpt><trkpt lat="44.60733344929121" lon="7.939401275238404"><ele>320.0</ele><time>2026-05-02T13:22:37Z</time></trkpt><trkpt lat="44.60717338494639" lon="7.939293847223622"><ele>321.0</ele><time>2026-05-02T13:22:38Z</time></trkpt><trkpt lat="44.60699118525759" lon="7.939211311963087"><ele>322.0</ele><time>2026-05-02T13:22:39Z</time></trkpt><trkpt lat="44.60680087045265" lon="7.939146352793443"><ele>323.0</ele><time>2026-05-02T13:22:40Z</time></trkpt><trkpt lat="44.60662793592416" lon="7.939102046084363"><ele>323.0</ele><time>2026-05-02T13:22:41Z</time></trkpt><trkpt lat="44.60646398284961" lon="7.939093068752381"><ele>323.0</ele><time>2026-05-02T13:22:42Z</time></trkpt><trkpt lat="44.606272533744686" lon="7.939121283294119"><ele>323.0</ele><time>2026-05-02T13:22:43Z</time></trkpt><trkpt lat="44.606074002538314" lon="7.9391670628074795"><ele>323.6666666666667</ele><time>2026-05-02T13:22:44Z</time></trkpt><trkpt lat="44.605889945490574" lon="7.939202207909535"><ele>324.3333333333333</ele><time>2026-05-02T13:22:45Z</time></trkpt><trkpt lat="44.605738452041535" lon="7.939256650901687"><ele>325.0</ele><time>2026-05-02T13:22:46Z</time></trkpt><trkpt lat="44.605601420307536" lon="7.9393733006633305"><ele>326.66666666666663</ele><time>2026-05-02T13:22:47Z</time></trkpt><trkpt lat="44.60545343563058" lon="7.939560069498942"><ele>328.3333333333333</ele><time>2026-05-02T13:22:48Z</time></trkpt><trkpt lat="44.605285946575684" lon="7.939767528049904"><ele>330.0</ele><time>2026-05-02T13:22:49Z</time></trkpt><trkpt lat="44.605099869288786" lon="7.9399794254098595"><ele>325.5</ele><time>2026-05-02T13:22:50Z</time></trkpt><trkpt lat="44.604910997265655" lon="7.940194498728377"><ele>321.0</ele><time>2026-05-02T13:22:51Z</time></trkpt><trkpt lat="44.60474590013919" lon="7.940417112195181"><ele>321.0</ele><time>2026-05-02T13:22:52Z</time></trkpt><trkpt lat="44.604596658703294" lon="7.9405883005800035"><ele>321.0</ele><time>2026-05-02T13:22:53Z</time></trkpt><trkpt lat="44.6044573545924" lon="7.940747773874065"><ele>321.0</ele><time>2026-05-02T13:22:54Z</time></trkpt><trkpt lat="44.60433427020602" lon="7.940857630976172"><ele>320.75</ele><time>2026-05-02T13:22:55Z</time></trkpt><trkpt lat="44.60423296148525" lon="7.940949305497883"><ele>320.5</ele><time>2026-05-02T13:22:56Z</time></trkpt><trkpt lat="44.60412644316838" lon="7.941024498629466"><ele>320.25</ele><time>2026-05-02T13:22:57Z</time></trkpt><trkpt lat="44.60400237354307" lon="7.941075333274891"><ele>320.0</ele><time>2026-05-02T13:22:58Z</time></trkpt><trkpt lat="44.603853728940635" lon="7.941113786947508"><ele>320.0</ele><time>2026-05-02T13:22:59Z</time></trkpt><trkpt lat="44.603689974365665" lon="7.9410923891334795"><ele>320.0</ele><time>2026-05-02T13:23:00Z</time></trkpt><trkpt lat="44.603504410913835" lon="7.941062336340308"><ele>320.0</ele><time>2026-05-02T13:23:01Z</time></trkpt><trkpt lat="44.603302250942" lon="7.941027089047552"><ele>321.0</ele><time>2026-05-02T13:23:02Z</time></trkpt><trkpt lat="44.60309027943075" lon="7.941002502792845"><ele>322.0</ele><time>2026-05-02T13:23:03Z</time></trkpt><trkpt lat="44.602871780109346" lon="7.940959913265599"><ele>323.0</ele><time>2026-05-02T13:23:04Z</time></trkpt><trkpt lat="44.60264977878108" lon="7.940922733183041"><ele>328.6666666666667</ele><time>2026-05-02T13:23:05Z</time></trkpt><trkpt lat="44.602452655981985" lon="7.94084972972109"><ele>334.3333333333333</ele><time>2026-05-02T13:23:06Z</time></trkpt><trkpt lat="44.602274811677404" lon="7.940809882620824"><ele>340.0</ele><time>2026-05-02T13:23:07Z</time></trkpt><trkpt lat="44.60211998755767" lon="7.940687500972225"><ele>338.0</ele><time>2026-05-02T13:23:08Z</time></trkpt><trkpt lat="44.60195369164041" lon="7.940512096662401"><ele>336.0</ele><time>2026-05-02T13:23:09Z</time></trkpt><trkpt lat="44.60176815258096" lon="7.9402979023309275"><ele>334.0</ele><time>2026-05-02T13:23:10Z</time></trkpt><trkpt lat="44.60156281779847" lon="7.940080005700762"><ele>335.0</ele><time>2026-05-02T13:23:11Z</time></trkpt><trkpt lat="44.60134087557593" lon="7.939860388225353"><ele>336.0</ele><time>2026-05-02T13:23:12Z</time></trkpt><trkpt lat="44.601110948966074" lon="7.9396319361333925"><ele>336.0</ele><time>2026-05-02T13:23:13Z</time></trkpt><trkpt lat="44.60091177666503" lon="7.9394088515728685"><ele>336.0</ele><time>2026-05-02T13:23:14Z</time></trkpt><trkpt lat="44.60073195277457" lon="7.939224290892068"><ele>340.3333333333333</ele><time>2026-05-02T13:23:15Z</time></trkpt><trkpt lat="44.60057515632245" lon="7.939082467837261"><ele>344.66666666666663</ele><time>2026-05-02T13:23:16Z</time></trkpt><trkpt lat="44.600436012938616" lon="7.9389759260581725"><ele>349.0</ele><time>2026-05-02T13:23:17Z</time></trkpt><trkpt lat="44.6002933533433" lon="7.938904271164306"><ele>349.0</ele><time>2026-05-02T13:23:18Z</time></trkpt><trkpt lat="44.60012398964783" lon="7.938872954412143"><ele>349.0</ele><time>2026-05-02T13:23:19Z</time></trkpt><trkpt lat="44.59994128721001" lon="7.938900732256901"><ele>349.0</ele><time>2026-05-02T13:23:20Z</time></trkpt><trkpt lat="44.599765681559575" lon="7.939005274502125"><ele>349.0</ele><time>2026-05-02T13:23:21Z</time></trkpt><trkpt lat="44.59960209546317" lon="7.939182138642081"><ele>349.0</ele><time>2026-05-02T13:23:22Z</time></trkpt><trkpt lat="44.599471683999596" lon="7.939435655357021"><ele>349.0</ele><time>2026-05-02T13:23:23Z</time></trkpt><trkpt lat="44.59936573775266" lon="7.939751058056345"><ele>353.0</ele><time>2026-05-02T13:23:24Z</time></trkpt><trkpt lat="44.5992745858927" lon="7.940099156721833"><ele>357.0</ele><time>2026-05-02T13:23:25Z</time></trkpt><trkpt lat="44.59916703631125" lon="7.940450986059587"><ele>357.0</ele><time>2026-05-02T13:23:26Z</time></trkpt><trkpt lat="44.59906877790092" lon="7.940776867678619"><ele>357.0</ele><time>2026-05-02T13:23:27Z</time></trkpt><trkpt lat="44.59899547419156" lon="7.9410980305560175"><ele>357.0</ele><time>2026-05-02T13:23:28Z</time></trkpt><trkpt lat="44.598980461274095" lon="7.941463249984874"><ele>357.0</ele><time>2026-05-02T13:23:29Z</time></trkpt><trkpt lat="44.59900087033108" lon="7.941866255561697"><ele>357.0</ele><time>2026-05-02T13:23:30Z</time></trkpt><trkpt lat="44.59903946548983" lon="7.9422549167529075"><ele>357.0</ele><time>2026-05-02T13:23:31Z</time></trkpt><trkpt lat="44.59907524664806" lon="7.942583864192286"><ele>360.0</ele><time>2026-05-02T13:23:32Z</time></trkpt><trkpt lat="44.59909834730773" lon="7.942859136421857"><ele>363.0</ele><time>2026-05-02T13:23:33Z</time></trkpt><trkpt lat="44.59911567671592" lon="7.943090651141332"><ele>366.0</ele><time>2026-05-02T13:23:34Z</time></trkpt><trkpt lat="44.5991300544011" lon="7.943289433239912"><ele>364.5</ele><time>2026-05-02T13:23:35Z</time></trkpt><trkpt lat="44.59912340700735" lon="7.943444244823226"><ele>363.0</ele><time>2026-05-02T13:23:36Z</time></trkpt><trkpt lat="44.59908652932717" lon="7.943563612386057"><ele>361.5</ele><time>2026-05-02T13:23:37Z</time></trkpt><trkpt lat="44.59899612358767" lon="7.943670168065285"><ele>360.0</ele><time>2026-05-02T13:23:38Z</time></trkpt><trkpt lat="44.59885581843857" lon="7.943718189436934"><ele>360.0</ele><time>2026-05-02T13:23:39Z</time></trkpt><trkpt lat="44.598693534235586" lon="7.94372911518058"><ele>360.0</ele><time>2026-05-02T13:23:40Z</time></trkpt><trkpt lat="44.59851433190745" lon="7.943768091310746"><ele>360.0</ele><time>2026-05-02T13:23:41Z</time></trkpt><trkpt lat="44.59832743676939" lon="7.943791023985573"><ele>360.6666666666667</ele><time>2026-05-02T13:23:42Z</time></trkpt><trkpt lat="44.59816237609477" lon="7.943858014412257"><ele>361.33333333333337</ele><time>2026-05-02T13:23:43Z</time></trkpt><trkpt lat="44.59801758524332" lon="7.943993692834977"><ele>362.0</ele><time>2026-05-02T13:23:44Z</time></trkpt><trkpt lat="44.59789360192291" lon="7.944200282684727"><ele>365.0</ele><time>2026-05-02T13:23:45Z</time></trkpt><trkpt lat="44.59780520311316" lon="7.944452251827232"><ele>368.0</ele><time>2026-05-02T13:23:46Z</time></trkpt><trkpt lat="44.59774822216251" lon="7.944691582138557"><ele>371.0</ele><time>2026-05-02T13:23:47Z</time></trkpt><trkpt lat="44.59769710567392" lon="7.94488730409099"><ele>365.0</ele><time>2026-05-02T13:23:48Z</time></trkpt><trkpt lat="44.597624960848634" lon="7.945057808455239"><ele>359.0</ele><time>2026-05-02T13:23:49Z</time></trkpt><trkpt lat="44.59750569455783" lon="7.945166732023153"><ele>353.0</ele><time>2026-05-02T13:23:50Z</time></trkpt><trkpt lat="44.59735159073022" lon="7.945259737301564"><ele>353.0</ele><time>2026-05-02T13:23:51Z</time></trkpt><trkpt lat="44.59717033565016" lon="7.945366575825662"><ele>353.0</ele><time>2026-05-02T13:23:52Z</time></trkpt><trkpt lat="44.596961868059765" lon="7.945462889583041"><ele>353.0</ele><time>2026-05-02T13:23:53Z</time></trkpt><trkpt lat="44.59674077574521" lon="7.945568810175001"><ele>359.5</ele><time>2026-05-02T13:23:54Z</time></trkpt><trkpt lat="44.59649857710031" lon="7.945694118633315"><ele>366.0</ele><time>2026-05-02T13:23:55Z</time></trkpt><trkpt lat="44.596246096072456" lon="7.945820472874572"><ele>363.0</ele><time>2026-05-02T13:23:56Z</time></trkpt><trkpt lat="44.59598200490456" lon="7.94595020721009"><ele>360.0</ele><time>2026-05-02T13:23:57Z</time></trkpt><trkpt lat="44.59573099351799" lon="7.946073732497372"><ele>360.0</ele><time>2026-05-02T13:23:58Z</time></trkpt><trkpt lat="44.5955133774243" lon="7.946181027253683"><ele>360.0</ele><time>2026-05-02T13:23:59Z</time></trkpt><trkpt lat="44.595331164482616" lon="7.9462716827212665"><ele>360.0</ele><time>2026-05-02T13:24:00Z</time></trkpt><trkpt lat="44.595176939548224" lon="7.946358694184926"><ele>359.0</ele><time>2026-05-02T13:24:01Z</time></trkpt><trkpt lat="44.59504272001243" lon="7.946471304531045"><ele>358.0</ele><time>2026-05-02T13:24:02Z</time></trkpt><trkpt lat="44.594913295283696" lon="7.946634744758622"><ele>357.0</ele><time>2026-05-02T13:24:03Z</time></trkpt><trkpt lat="44.59479643830433" lon="7.946815021429068"><ele>357.0</ele><time>2026-05-02T13:24:04Z</time></trkpt><trkpt lat="44.59469347884486" lon="7.946967606659864"><ele>357.0</ele><time>2026-05-02T13:24:05Z</time></trkpt><trkpt lat="44.59457675371483" lon="7.947066717069881"><ele>357.0</ele><time>2026-05-02T13:24:06Z</time></trkpt><trkpt lat="44.59446176820144" lon="7.947138477881959"><ele>357.0</ele><time>2026-05-02T13:24:07Z</time></trkpt><trkpt lat="44.594326363898816" lon="7.947202637741052"><ele>360.6666666666667</ele><time>2026-05-02T13:24:08Z</time></trkpt><trkpt lat="44.59416461859261" lon="7.947170880673427"><ele>364.33333333333337</ele><time>2026-05-02T13:24:09Z</time></trkpt><trkpt lat="44.59399383577347" lon="7.947162763081985"><ele>368.0</ele><time>2026-05-02T13:24:10Z</time></trkpt><trkpt lat="44.59382649316072" lon="7.947179194249133"><ele>368.0</ele><time>2026-05-02T13:24:11Z</time></trkpt><trkpt lat="44.59368889408031" lon="7.947204925594018"><ele>368.0</ele><time>2026-05-02T13:24:12Z</time></trkpt><trkpt lat="44.59357170624695" lon="7.947263161418135"><ele>368.0</ele><time>2026-05-02T13:24:13Z</time></trkpt><trkpt lat="44.59346034074096" lon="7.94735973123593"><ele>368.0</ele><time>2026-05-02T13:24:14Z</time></trkpt><trkpt lat="44.593363821664724" lon="7.947510584200851"><ele>369.6666666666667</ele><time>2026-05-02T13:24:15Z</time></trkpt><trkpt lat="44.59328228952186" lon="7.947703732119319"><ele>371.3333333333333</ele><time>2026-05-02T13:24:16Z</time></trkpt><trkpt lat="44.59320874541163" lon="7.947913722952697"><ele>373.0</ele><time>2026-05-02T13:24:17Z</time></trkpt><trkpt lat="44.59312204687113" lon="7.948098188071668"><ele>373.0</ele><time>2026-05-02T13:24:18Z</time></trkpt><trkpt lat="44.5930609836707" lon="7.948255327600553"><ele>373.0</ele><time>2026-05-02T13:24:19Z</time></trkpt><trkpt lat="44.592998291510995" lon="7.948416658568187"><ele>373.0</ele><time>2026-05-02T13:24:20Z</time></trkpt><trkpt lat="44.59291950125677" lon="7.94861941679344"><ele>373.0</ele><time>2026-05-02T13:24:21Z</time></trkpt><trkpt lat="44.5928348105803" lon="7.948837358668671"><ele>373.66666666666663</ele><time>2026-05-02T13:24:22Z</time></trkpt><trkpt lat="44.5927481990052" lon="7.94906024374265"><ele>374.3333333333333</ele><time>2026-05-02T13:24:23Z</time></trkpt><trkpt lat="44.59266806625662" lon="7.949288103717323"><ele>375.0</ele><time>2026-05-02T13:24:24Z</time></trkpt><trkpt lat="44.59257934767413" lon="7.94953048795991"><ele>375.0</ele><time>2026-05-02T13:24:25Z</time></trkpt><trkpt lat="44.59247759892624" lon="7.949753080037603"><ele>375.0</ele><time>2026-05-02T13:24:26Z</time></trkpt><trkpt lat="44.59239936247233" lon="7.949981136176224"><ele>375.0</ele><time>2026-05-02T13:24:27Z</time></trkpt><trkpt lat="44.59231720374358" lon="7.950179841698052"><ele>374.3333333333333</ele><time>2026-05-02T13:24:28Z</time></trkpt><trkpt lat="44.59223703636467" lon="7.950384355015396"><ele>373.66666666666663</ele><time>2026-05-02T13:24:29Z</time></trkpt><trkpt lat="44.59214749899821" lon="7.950589658186386"><ele>373.0</ele><time>2026-05-02T13:24:30Z</time></trkpt><trkpt lat="44.592059224716884" lon="7.950816333417415"><ele>376.0</ele><time>2026-05-02T13:24:31Z</time></trkpt><trkpt lat="44.591964822963696" lon="7.951035982897848"><ele>379.0</ele><time>2026-05-02T13:24:32Z</time></trkpt><trkpt lat="44.591867650619335" lon="7.951242402264402"><ele>382.0</ele><time>2026-05-02T13:24:33Z</time></trkpt><trkpt lat="44.59176344462447" lon="7.95143007922372"><ele>382.0</ele><time>2026-05-02T13:24:34Z</time></trkpt><trkpt lat="44.591658820275924" lon="7.951602631182897"><ele>382.0</ele><time>2026-05-02T13:24:35Z</time></trkpt><trkpt lat="44.59156049564321" lon="7.951766964518945"><ele>382.0</ele><time>2026-05-02T13:24:36Z</time></trkpt><trkpt lat="44.59146596537911" lon="7.951925851861768"><ele>384.25</ele><time>2026-05-02T13:24:37Z</time></trkpt><trkpt lat="44.591378032864846" lon="7.952070375317187"><ele>386.5</ele><time>2026-05-02T13:24:38Z</time></trkpt><trkpt lat="44.59128117062878" lon="7.95217347554778"><ele>388.75</ele><time>2026-05-02T13:24:39Z</time></trkpt><trkpt lat="44.59118948934343" lon="7.952259210428546"><ele>391.0</ele><time>2026-05-02T13:24:40Z</time></trkpt><trkpt lat="44.59109914900168" lon="7.952304042837025"><ele>391.0</ele><time>2026-05-02T13:24:41Z</time></trkpt><trkpt lat="44.5909965352039" lon="7.952303803131282"><ele>391.0</ele><time>2026-05-02T13:24:42Z</time></trkpt><trkpt lat="44.59088179381413" lon="7.952251466480133"><ele>391.0</ele><time>2026-05-02T13:24:43Z</time></trkpt><trkpt lat="44.59078013092875" lon="7.952145496072366"><ele>391.0</ele><time>2026-05-02T13:24:44Z</time></trkpt><trkpt lat="44.59068163440503" lon="7.9520394633430485"><ele>391.0</ele><time>2026-05-02T13:24:45Z</time></trkpt><trkpt lat="44.590576635721966" lon="7.9519209384491925"><ele>391.0</ele><time>2026-05-02T13:24:46Z</time></trkpt><trkpt lat="44.590458693601164" lon="7.951821973797155"><ele>391.0</ele><time>2026-05-02T13:24:47Z</time></trkpt><trkpt lat="44.59032878062249" lon="7.95172888337016"><ele>391.0</ele><time>2026-05-02T13:24:48Z</time></trkpt><trkpt lat="44.590186767757785" lon="7.951663875254764"><ele>386.6666666666667</ele><time>2026-05-02T13:24:49Z</time></trkpt><trkpt lat="44.5900344311351" lon="7.951609556734392"><ele>382.33333333333337</ele><time>2026-05-02T13:24:50Z</time></trkpt><trkpt lat="44.58987951518821" lon="7.951563153000931"><ele>378.0</ele><time>2026-05-02T13:24:51Z</time></trkpt><trkpt lat="44.589731847891805" lon="7.951523786897229"><ele>378.0</ele><time>2026-05-02T13:24:52Z</time></trkpt><trkpt lat="44.58958577114192" lon="7.951504751116611"><ele>378.0</ele><time>2026-05-02T13:24:53Z</time></trkpt><trkpt lat="44.589425239901026" lon="7.951525099886167"><ele>378.0</ele><time>2026-05-02T13:24:54Z</time></trkpt><trkpt lat="44.589260944706076" lon="7.951596948169106"><ele>378.0</ele><time>2026-05-02T13:24:55Z</time></trkpt><trkpt lat="44.589088743296614" lon="7.95169785281402"><ele>378.0</ele><time>2026-05-02T13:24:56Z</time></trkpt><trkpt lat="44.588917445516174" lon="7.951791967662764"><ele>378.0</ele><time>2026-05-02T13:24:57Z</time></trkpt><trkpt lat="44.58876617007476" lon="7.95185849291458"><ele>378.5</ele><time>2026-05-02T13:24:58Z</time></trkpt><trkpt lat="44.58862220317155" lon="7.951882428735517"><ele>379.0</ele><time>2026-05-02T13:24:59Z</time></trkpt><trkpt lat="44.588488321715076" lon="7.951817554325566"><ele>379.5</ele><time>2026-05-02T13:25:00Z</time></trkpt><trkpt lat="44.58840350550126" lon="7.951640308199942"><ele>380.0</ele><time>2026-05-02T13:25:01Z</time></trkpt><trkpt lat="44.588292738599314" lon="7.951455373921514"><ele>380.0</ele><time>2026-05-02T13:25:02Z</time></trkpt><trkpt lat="44.58816548024999" lon="7.951267800823026"><ele>380.0</ele><time>2026-05-02T13:25:03Z</time></trkpt><trkpt lat="44.58803655920162" lon="7.951062213182844"><ele>380.0</ele><time>2026-05-02T13:25:04Z</time></trkpt><trkpt lat="44.58788729489473" lon="7.950846294112949"><ele>380.0</ele><time>2026-05-02T13:25:05Z</time></trkpt><trkpt lat="44.58774543649107" lon="7.950629975710022"><ele>380.0</ele><time>2026-05-02T13:25:06Z</time></trkpt><trkpt lat="44.58761488511935" lon="7.95042534976996"><ele>380.0</ele><time>2026-05-02T13:25:07Z</time></trkpt><trkpt lat="44.58748510288719" lon="7.9502198587550765"><ele>380.0</ele><time>2026-05-02T13:25:08Z</time></trkpt><trkpt lat="44.58736729364143" lon="7.950045592307114"><ele>380.0</ele><time>2026-05-02T13:25:09Z</time></trkpt><trkpt lat="44.58725583079953" lon="7.94987004477006"><ele>380.0</ele><time>2026-05-02T13:25:10Z</time></trkpt><trkpt lat="44.58715509553372" lon="7.94970218811998"><ele>380.5</ele><time>2026-05-02T13:25:11Z</time></trkpt><trkpt lat="44.58705679541737" lon="7.949542389015711"><ele>381.0</ele><time>2026-05-02T13:25:12Z</time></trkpt><trkpt lat="44.586964187399786" lon="7.9494101739019465"><ele>381.5</ele><time>2026-05-02T13:25:13Z</time></trkpt><trkpt lat="44.58686336133148" lon="7.949316039991144"><ele>382.0</ele><time>2026-05-02T13:25:14Z</time></trkpt><trkpt lat="44.58674687961588" lon="7.949265391014025"><ele>382.0</ele><time>2026-05-02T13:25:15Z</time></trkpt><trkpt lat="44.58661459031698" lon="7.949264789835107"><ele>382.0</ele><time>2026-05-02T13:25:16Z</time></trkpt><trkpt lat="44.58647145084635" lon="7.949335284828475"><ele>382.0</ele><time>2026-05-02T13:25:17Z</time></trkpt><trkpt lat="44.58633053918049" lon="7.949458105664286"><ele>382.0</ele><time>2026-05-02T13:25:18Z</time></trkpt><trkpt lat="44.58619891278212" lon="7.949587648152891"><ele>382.0</ele><time>2026-05-02T13:25:19Z</time></trkpt><trkpt lat="44.586061242762625" lon="7.949662504368589"><ele>382.0</ele><time>2026-05-02T13:25:20Z</time></trkpt><trkpt lat="44.58593583799896" lon="7.949731718436809"><ele>382.0</ele><time>2026-05-02T13:25:21Z</time></trkpt><trkpt lat="44.58581286772418" lon="7.949771875768051"><ele>379.6</ele><time>2026-05-02T13:25:22Z</time></trkpt><trkpt lat="44.585695277079736" lon="7.949778309566389"><ele>377.20000000000005</ele><time>2026-05-02T13:25:23Z</time></trkpt><trkpt lat="44.585585239489745" lon="7.9497758764176485"><ele>374.8</ele><time>2026-05-02T13:25:24Z</time></trkpt><trkpt lat="44.585477688248666" lon="7.949789752700513"><ele>372.4</ele><time>2026-05-02T13:25:25Z</time></trkpt><trkpt lat="44.58538121489458" lon="7.949772581905458"><ele>370.0</ele><time>2026-05-02T13:25:26Z</time></trkpt><trkpt lat="44.58530571863436" lon="7.9497513824167365"><ele>368.5</ele><time>2026-05-02T13:25:27Z</time></trkpt><trkpt lat="44.58523938586261" lon="7.949721518210102"><ele>367.0</ele><time>2026-05-02T13:25:28Z</time></trkpt><trkpt lat="44.58516709544018" lon="7.949703688833091"><ele>365.5</ele><time>2026-05-02T13:25:29Z</time></trkpt><trkpt lat="44.585103387834536" lon="7.949737097436757"><ele>364.0</ele><time>2026-05-02T13:25:30Z</time></trkpt><trkpt lat="44.58507812447682" lon="7.949898725475398"><ele>362.5</ele><time>2026-05-02T13:25:32Z</time></trkpt><trkpt lat="44.58512192268809" lon="7.949978171973967"><ele>361.0</ele><time>2026-05-02T13:25:33Z</time></trkpt><trkpt lat="44.58509941701613" lon="7.950100795907982"><ele>361.0</ele><time>2026-05-02T13:25:34Z</time></trkpt><trkpt lat="44.58511825794655" lon="7.950212478248165"><ele>361.0</ele><time>2026-05-02T13:25:35Z</time></trkpt><trkpt lat="44.58514520772565" lon="7.950335104939706"><ele>361.0</ele><time>2026-05-02T13:25:36Z</time></trkpt><trkpt lat="44.58517450270456" lon="7.950468957023502"><ele>361.0</ele><time>2026-05-02T13:25:37Z</time></trkpt><trkpt lat="44.58521555808757" lon="7.950626629023783"><ele>361.0</ele><time>2026-05-02T13:25:38Z</time></trkpt><trkpt lat="44.585276586386136" lon="7.950809257940513"><ele>371.66666666666663</ele><time>2026-05-02T13:25:39Z</time></trkpt><trkpt lat="44.58535360560914" lon="7.951036697672302"><ele>382.3333333333333</ele><time>2026-05-02T13:25:40Z</time></trkpt><trkpt lat="44.5854242766329" lon="7.951289311395999"><ele>393.0</ele><time>2026-05-02T13:25:41Z</time></trkpt><trkpt lat="44.585461481011336" lon="7.95155071276548"><ele>396.33333333333337</ele><time>2026-05-02T13:25:42Z</time></trkpt><trkpt lat="44.58544683624392" lon="7.951847414686429"><ele>399.6666666666667</ele><time>2026-05-02T13:25:43Z</time></trkpt><trkpt lat="44.585391757103324" lon="7.952170455197501"><ele>403.0</ele><time>2026-05-02T13:25:44Z</time></trkpt><trkpt lat="44.585310855550674" lon="7.952505521225145"><ele>400.33333333333337</ele><time>2026-05-02T13:25:45Z</time></trkpt><trkpt lat="44.585229846827026" lon="7.952815456974322"><ele>397.66666666666663</ele><time>2026-05-02T13:25:46Z</time></trkpt><trkpt lat="44.585150803618816" lon="7.95304986366342"><ele>395.0</ele><time>2026-05-02T13:25:47Z</time></trkpt><trkpt lat="44.58503924853884" lon="7.953232771937728"><ele>398.3333333333333</ele><time>2026-05-02T13:25:48Z</time></trkpt><trkpt lat="44.58488328493546" lon="7.953402829853411"><ele>401.66666666666663</ele><time>2026-05-02T13:25:49Z</time></trkpt><trkpt lat="44.584685336227324" lon="7.953523416939768"><ele>405.0</ele><time>2026-05-02T13:25:50Z</time></trkpt><trkpt lat="44.5844504971344" lon="7.9536065052116856"><ele>405.0</ele><time>2026-05-02T13:25:51Z</time></trkpt><trkpt lat="44.58423131047115" lon="7.953784714618914"><ele>405.0</ele><time>2026-05-02T13:25:52Z</time></trkpt><trkpt lat="44.583998708368895" lon="7.95394368302123"><ele>405.0</ele><time>2026-05-02T13:25:53Z</time></trkpt><trkpt lat="44.58380179685331" lon="7.954102815576545"><ele>405.0</ele><time>2026-05-02T13:25:54Z</time></trkpt><trkpt lat="44.58362535928552" lon="7.954268954363061"><ele>405.0</ele><time>2026-05-02T13:25:55Z</time></trkpt><trkpt lat="44.583424832385376" lon="7.954404766529856"><ele>408.0</ele><time>2026-05-02T13:25:56Z</time></trkpt><trkpt lat="44.58322269023458" lon="7.954494515146901"><ele>411.0</ele><time>2026-05-02T13:25:57Z</time></trkpt><trkpt lat="44.58305490912739" lon="7.954540021103777"><ele>414.0</ele><time>2026-05-02T13:25:58Z</time></trkpt><trkpt lat="44.58291686434173" lon="7.954587625222484"><ele>413.25</ele><time>2026-05-02T13:25:59Z</time></trkpt><trkpt lat="44.58280349166113" lon="7.954640044751343"><ele>412.5</ele><time>2026-05-02T13:26:00Z</time></trkpt><trkpt lat="44.58272919371443" lon="7.954750333572509"><ele>411.75</ele><time>2026-05-02T13:26:01Z</time></trkpt><trkpt lat="44.58267890162098" lon="7.954902020070836"><ele>411.0</ele><time>2026-05-02T13:26:02Z</time></trkpt><trkpt lat="44.58271660969205" lon="7.955120664422322"><ele>411.0</ele><time>2026-05-02T13:26:03Z</time></trkpt><trkpt lat="44.582743185710136" lon="7.9553364956938255"><ele>411.0</ele><time>2026-05-02T13:26:04Z</time></trkpt><trkpt lat="44.58276585451954" lon="7.955555645346394"><ele>411.0</ele><time>2026-05-02T13:26:05Z</time></trkpt><trkpt lat="44.582787221615554" lon="7.9557615637561305"><ele>410.25</ele><time>2026-05-02T13:26:06Z</time></trkpt><trkpt lat="44.582812721100375" lon="7.955938091286173"><ele>409.5</ele><time>2026-05-02T13:26:07Z</time></trkpt><trkpt lat="44.58283182237265" lon="7.956106825570074"><ele>408.75</ele><time>2026-05-02T13:26:08Z</time></trkpt><trkpt lat="44.58285257880431" lon="7.956300036646693"><ele>408.0</ele><time>2026-05-02T13:26:09Z</time></trkpt><trkpt lat="44.58287830180658" lon="7.956516357581169"><ele>410.5</ele><time>2026-05-02T13:26:10Z</time></trkpt><trkpt lat="44.58291597093614" lon="7.956720070450961"><ele>413.0</ele><time>2026-05-02T13:26:11Z</time></trkpt><trkpt lat="44.582962418543744" lon="7.9568950030947825"><ele>415.5</ele><time>2026-05-02T13:26:12Z</time></trkpt><trkpt lat="44.58300895957163" lon="7.957066338142224"><ele>418.0</ele><time>2026-05-02T13:26:13Z</time></trkpt><trkpt lat="44.58311973225634" lon="7.957192906961247"><ele>418.0</ele><time>2026-05-02T13:26:14Z</time></trkpt><trkpt lat="44.58325924850076" lon="7.957276506372124"><ele>418.0</ele><time>2026-05-02T13:26:15Z</time></trkpt><trkpt lat="44.58339872611752" lon="7.957354909023183"><ele>418.0</ele><time>2026-05-02T13:26:16Z</time></trkpt><trkpt lat="44.58354833154197" lon="7.95740204086099"><ele>421.33333333333337</ele><time>2026-05-02T13:26:17Z</time></trkpt><trkpt lat="44.58370375451788" lon="7.957400128663971"><ele>424.66666666666663</ele><time>2026-05-02T13:26:18Z</time></trkpt><trkpt lat="44.58386173737478" lon="7.9573576445941265"><ele>428.0</ele><time>2026-05-02T13:26:19Z</time></trkpt><trkpt lat="44.58402229250168" lon="7.957335062018533"><ele>428.0</ele><time>2026-05-02T13:26:20Z</time></trkpt><trkpt lat="44.584181122989115" lon="7.957353420192735"><ele>428.0</ele><time>2026-05-02T13:26:21Z</time></trkpt><trkpt lat="44.58434425174079" lon="7.957394602456431"><ele>428.0</ele><time>2026-05-02T13:26:22Z</time></trkpt><trkpt lat="44.58449861591926" lon="7.9574798186726134"><ele>428.3333333333333</ele><time>2026-05-02T13:26:23Z</time></trkpt><trkpt lat="44.584639717564194" lon="7.957603798783306"><ele>428.66666666666663</ele><time>2026-05-02T13:26:24Z</time></trkpt><trkpt lat="44.58476940121777" lon="7.95776311296211"><ele>429.0</ele><time>2026-05-02T13:26:25Z</time></trkpt><trkpt lat="44.58489203826245" lon="7.957927210955969"><ele>429.0</ele><time>2026-05-02T13:26:26Z</time></trkpt><trkpt lat="44.58499876214007" lon="7.958078887422254"><ele>429.0</ele><time>2026-05-02T13:26:27Z</time></trkpt><trkpt lat="44.585076939774886" lon="7.958264199047142"><ele>429.0</ele><time>2026-05-02T13:26:28Z</time></trkpt><trkpt lat="44.58512981867624" lon="7.958487996196586"><ele>430.33333333333337</ele><time>2026-05-02T13:26:29Z</time></trkpt><trkpt lat="44.58514196753968" lon="7.958713648781421"><ele>431.6666666666667</ele><time>2026-05-02T13:26:30Z</time></trkpt><trkpt lat="44.58511493725457" lon="7.958943847331016"><ele>433.0</ele><time>2026-05-02T13:26:31Z</time></trkpt><trkpt lat="44.5850632940828" lon="7.959173672074068"><ele>434.0</ele><time>2026-05-02T13:26:32Z</time></trkpt><trkpt lat="44.585014772146515" lon="7.9594053817712815"><ele>435.0</ele><time>2026-05-02T13:26:33Z</time></trkpt><trkpt lat="44.58497549100866" lon="7.959616593753096"><ele>436.0</ele><time>2026-05-02T13:26:34Z</time></trkpt><trkpt lat="44.584942927464596" lon="7.959816490055399"><ele>436.0</ele><time>2026-05-02T13:26:35Z</time></trkpt><trkpt lat="44.584934897996895" lon="7.960027596823597"><ele>436.0</ele><time>2026-05-02T13:26:36Z</time></trkpt><trkpt lat="44.58497202337009" lon="7.960255014525097"><ele>436.0</ele><time>2026-05-02T13:26:37Z</time></trkpt><trkpt lat="44.58504073102618" lon="7.960473892972969"><ele>434.0</ele><time>2026-05-02T13:26:38Z</time></trkpt><trkpt lat="44.58512475110485" lon="7.9606685438726394"><ele>432.0</ele><time>2026-05-02T13:26:39Z</time></trkpt><trkpt lat="44.58519655127508" lon="7.96084972863052"><ele>430.0</ele><time>2026-05-02T13:26:40Z</time></trkpt><trkpt lat="44.58526650142367" lon="7.9610260793023375"><ele>432.6666666666667</ele><time>2026-05-02T13:26:41Z</time></trkpt><trkpt lat="44.58534883300146" lon="7.961201845920651"><ele>435.33333333333337</ele><time>2026-05-02T13:26:42Z</time></trkpt><trkpt lat="44.58545935915758" lon="7.961371897670891"><ele>438.0</ele><time>2026-05-02T13:26:43Z</time></trkpt><trkpt lat="44.5855851290965" lon="7.961541241376641"><ele>438.0</ele><time>2026-05-02T13:26:44Z</time></trkpt><trkpt lat="44.585718996307655" lon="7.961696367459817"><ele>438.0</ele><time>2026-05-02T13:26:45Z</time></trkpt><trkpt lat="44.58584368414409" lon="7.961837416742392"><ele>438.0</ele><time>2026-05-02T13:26:46Z</time></trkpt><trkpt lat="44.58594832923042" lon="7.961972259597021"><ele>436.75</ele><time>2026-05-02T13:26:47Z</time></trkpt><trkpt lat="44.58603431860473" lon="7.962115930468645"><ele>435.5</ele><time>2026-05-02T13:26:48Z</time></trkpt><trkpt lat="44.58611008856677" lon="7.9622773842831185"><ele>434.25</ele><time>2026-05-02T13:26:49Z</time></trkpt><trkpt lat="44.58615647966012" lon="7.962445594421691"><ele>433.0</ele><time>2026-05-02T13:26:50Z</time></trkpt><trkpt lat="44.58617762339007" lon="7.962636531657104"><ele>433.0</ele><time>2026-05-02T13:26:51Z</time></trkpt><trkpt lat="44.58615350728034" lon="7.962835639831334"><ele>433.0</ele><time>2026-05-02T13:26:52Z</time></trkpt><trkpt lat="44.58613628660638" lon="7.963047486846147"><ele>433.0</ele><time>2026-05-02T13:26:53Z</time></trkpt><trkpt lat="44.58611253004991" lon="7.963267460599897"><ele>436.0</ele><time>2026-05-02T13:26:54Z</time></trkpt><trkpt lat="44.58601427701911" lon="7.963462659877385"><ele>439.0</ele><time>2026-05-02T13:26:55Z</time></trkpt><trkpt lat="44.58592157793685" lon="7.963687225040525"><ele>442.0</ele><time>2026-05-02T13:26:56Z</time></trkpt><trkpt lat="44.58583281280961" lon="7.963964986184871"><ele>449.0</ele><time>2026-05-02T13:26:57Z</time></trkpt><trkpt lat="44.58572161783796" lon="7.964273034558401"><ele>456.0</ele><time>2026-05-02T13:26:58Z</time></trkpt><trkpt lat="44.58561709748162" lon="7.964626901374395"><ele>456.0</ele><time>2026-05-02T13:26:59Z</time></trkpt><trkpt lat="44.58552684254076" lon="7.964947743046854"><ele>456.0</ele><time>2026-05-02T13:27:00Z</time></trkpt><trkpt lat="44.585431698101004" lon="7.965189465749814"><ele>456.0</ele><time>2026-05-02T13:27:01Z</time></trkpt><trkpt lat="44.58534359927031" lon="7.965397081770567"><ele>457.66666666666663</ele><time>2026-05-02T13:27:02Z</time></trkpt><trkpt lat="44.58523702717301" lon="7.9655562753864055"><ele>459.3333333333333</ele><time>2026-05-02T13:27:03Z</time></trkpt><trkpt lat="44.58512389587495" lon="7.9656821829215385"><ele>461.0</ele><time>2026-05-02T13:27:04Z</time></trkpt><trkpt lat="44.58499734295301" lon="7.96580694291384"><ele>461.0</ele><time>2026-05-02T13:27:05Z</time></trkpt><trkpt lat="44.58484509839397" lon="7.965859907268478"><ele>461.0</ele><time>2026-05-02T13:27:06Z</time></trkpt><trkpt lat="44.584709069069696" lon="7.965940984187011"><ele>461.0</ele><time>2026-05-02T13:27:07Z</time></trkpt><trkpt lat="44.58458184021908" lon="7.9660044786014526"><ele>461.0</ele><time>2026-05-02T13:27:08Z</time></trkpt><trkpt lat="44.58446941789284" lon="7.966103206980984"><ele>462.4</ele><time>2026-05-02T13:27:09Z</time></trkpt><trkpt lat="44.58437986394489" lon="7.966208412937172"><ele>463.8</ele><time>2026-05-02T13:27:10Z</time></trkpt><trkpt lat="44.58430435505109" lon="7.966306724365871"><ele>465.19999999999993</ele><time>2026-05-02T13:27:11Z</time></trkpt><trkpt lat="44.584222480729004" lon="7.966410095930217"><ele>466.59999999999997</ele><time>2026-05-02T13:27:12Z</time></trkpt><trkpt lat="44.584148889318705" lon="7.966500756750978"><ele>468.0</ele><time>2026-05-02T13:27:13Z</time></trkpt><trkpt lat="44.584074718377394" lon="7.966558368273758"><ele>468.0</ele><time>2026-05-02T13:27:14Z</time></trkpt><trkpt lat="44.58401999744045" lon="7.966622566943956"><ele>468.0</ele><time>2026-05-02T13:27:15Z</time></trkpt><trkpt lat="44.58395814854299" lon="7.9666952440187515"><ele>468.0</ele><time>2026-05-02T13:27:16Z</time></trkpt><trkpt lat="44.58389707134755" lon="7.966771124524076"><ele>468.0</ele><time>2026-05-02T13:27:17Z</time></trkpt><trkpt lat="44.583843022933806" lon="7.966838272683105"><ele>468.0</ele><time>2026-05-02T13:27:18Z</time></trkpt><trkpt lat="44.583793331307454" lon="7.966900008088302"><ele>468.0</ele><time>2026-05-02T13:27:19Z</time></trkpt><trkpt lat="44.583721001403084" lon="7.966989868634057"><ele>469.0</ele><time>2026-05-02T13:27:21Z</time></trkpt><trkpt lat="44.58365096771187" lon="7.9670762653438585"><ele>470.0</ele><time>2026-05-02T13:27:23Z</time></trkpt><trkpt lat="44.58360202899625" lon="7.967135955132176"><ele>471.0</ele><time>2026-05-02T13:27:24Z</time></trkpt><trkpt lat="44.583524533505866" lon="7.967230475183318"><ele>472.0</ele><time>2026-05-02T13:27:26Z</time></trkpt><trkpt lat="44.58346655346692" lon="7.967301192525798"><ele>473.0</ele><time>2026-05-02T13:27:28Z</time></trkpt><trkpt lat="44.58340923527258" lon="7.96737026118973"><ele>474.0</ele><time>2026-05-02T13:27:30Z</time></trkpt><trkpt lat="44.58334941475534" lon="7.967441425883285"><ele>474.0</ele><time>2026-05-02T13:27:32Z</time></trkpt><trkpt lat="44.58328855752203" lon="7.9675138238835785"><ele>474.0</ele><time>2026-05-02T13:27:35Z</time></trkpt><trkpt lat="44.58322742925685" lon="7.967585836148413"><ele>474.0</ele><time>2026-05-02T13:27:38Z</time></trkpt><trkpt lat="44.5831599164213" lon="7.967664052239555"><ele>474.0</ele><time>2026-05-02T13:27:41Z</time></trkpt><trkpt lat="44.58310528689307" lon="7.967741383308888"><ele>474.0</ele><time>2026-05-02T13:27:44Z</time></trkpt><trkpt lat="44.58304866391369" lon="7.96780403510306"><ele>474.0</ele><time>2026-05-02T13:27:46Z</time></trkpt><trkpt lat="44.582988922478954" lon="7.967834216871353"><ele>473.5714285714285</ele><time>2026-05-02T13:27:49Z</time></trkpt><trkpt lat="44.5829248419144" lon="7.967885924416819"><ele>473.1428571428571</ele><time>2026-05-02T13:27:53Z</time></trkpt><trkpt lat="44.58287928341149" lon="7.967972812891092"><ele>472.7142857142857</ele><time>2026-05-02T13:27:58Z</time></trkpt><trkpt lat="44.58281592401829" lon="7.968000006414545"><ele>472.2857142857143</ele><time>2026-05-02T13:28:00Z</time></trkpt><trkpt lat="44.58274201328144" lon="7.968019526295624"><ele>471.8571428571429</ele><time>2026-05-02T13:28:02Z</time></trkpt><trkpt lat="44.58267908240512" lon="7.968038839487267"><ele>471.4285714285715</ele><time>2026-05-02T13:28:04Z</time></trkpt><trkpt lat="44.58261108043703" lon="7.968063935760872"><ele>471.00000000000006</ele><time>2026-05-02T13:28:06Z</time></trkpt><trkpt lat="44.582537764311496" lon="7.968095281581547"><ele>471.00000000000006</ele><time>2026-05-02T13:28:08Z</time></trkpt><trkpt lat="44.58247322944562" lon="7.968121659260033"><ele>471.0</ele><time>2026-05-02T13:28:10Z</time></trkpt><trkpt lat="44.58240258442864" lon="7.968144883287"><ele>471.00000000000006</ele><time>2026-05-02T13:28:13Z</time></trkpt><trkpt lat="44.582320765088525" lon="7.9681724174757065"><ele>471.00000000000006</ele><time>2026-05-02T13:28:17Z</time></trkpt><trkpt lat="44.582251880717685" lon="7.968202732092977"><ele>471.0</ele><time>2026-05-02T13:28:21Z</time></trkpt><trkpt lat="44.582179665298085" lon="7.96822803831142"><ele>471.00000000000006</ele><time>2026-05-02T13:28:23Z</time></trkpt><trkpt lat="44.58210688752711" lon="7.968246702022265"><ele>471.00000000000006</ele><time>2026-05-02T13:28:24Z</time></trkpt><trkpt lat="44.58201623106863" lon="7.968288801473579"><ele>471.0</ele><time>2026-05-02T13:28:25Z</time></trkpt><trkpt lat="44.58190065219241" lon="7.96835100307189"><ele>471.0</ele><time>2026-05-02T13:28:26Z</time></trkpt><trkpt lat="44.58177623392639" lon="7.968400733799338"><ele>471.0</ele><time>2026-05-02T13:28:27Z</time></trkpt><trkpt lat="44.581636022945226" lon="7.9684014764261955"><ele>471.0</ele><time>2026-05-02T13:28:28Z</time></trkpt><trkpt lat="44.58151930696671" lon="7.968446823166735"><ele>469.75</ele><time>2026-05-02T13:28:29Z</time></trkpt><trkpt lat="44.58139971087321" lon="7.968493288899985"><ele>468.5</ele><time>2026-05-02T13:28:30Z</time></trkpt><trkpt lat="44.58126452579732" lon="7.9685458112930805"><ele>467.25</ele><time>2026-05-02T13:28:31Z</time></trkpt><trkpt lat="44.58110984555841" lon="7.968605575489613"><ele>466.0</ele><time>2026-05-02T13:28:32Z</time></trkpt><trkpt lat="44.58096255091401" lon="7.9686624697949995"><ele>464.0</ele><time>2026-05-02T13:28:33Z</time></trkpt><trkpt lat="44.580819348242834" lon="7.968717783530952"><ele>462.0</ele><time>2026-05-02T13:28:34Z</time></trkpt><trkpt lat="44.5806721663508" lon="7.968774200624049"><ele>460.0</ele><time>2026-05-02T13:28:35Z</time></trkpt><trkpt lat="44.58052568948425" lon="7.968825024904228"><ele>460.0</ele><time>2026-05-02T13:28:36Z</time></trkpt><trkpt lat="44.58038047554768" lon="7.968864792184308"><ele>460.0</ele><time>2026-05-02T13:28:37Z</time></trkpt><trkpt lat="44.5802260503288" lon="7.9688169636022765"><ele>460.0</ele><time>2026-05-02T13:28:38Z</time></trkpt><trkpt lat="44.58006029927828" lon="7.968778020291471"><ele>458.33333333333337</ele><time>2026-05-02T13:28:39Z</time></trkpt><trkpt lat="44.579875266717266" lon="7.968734546781606"><ele>456.66666666666663</ele><time>2026-05-02T13:28:40Z</time></trkpt><trkpt lat="44.57969054288412" lon="7.968691328775518"><ele>455.0</ele><time>2026-05-02T13:28:41Z</time></trkpt><trkpt lat="44.57952802890411" lon="7.96867096388369"><ele>452.66666666666663</ele><time>2026-05-02T13:28:42Z</time></trkpt><trkpt lat="44.5793807438766" lon="7.968640101685305"><ele>450.33333333333337</ele><time>2026-05-02T13:28:43Z</time></trkpt><trkpt lat="44.579235077763485" lon="7.968623440624891"><ele>448.0</ele><time>2026-05-02T13:28:44Z</time></trkpt><trkpt lat="44.57907766571343" lon="7.9686558946636"><ele>448.0</ele><time>2026-05-02T13:28:45Z</time></trkpt><trkpt lat="44.57891539850881" lon="7.968712302580419"><ele>448.0</ele><time>2026-05-02T13:28:46Z</time></trkpt><trkpt lat="44.57878508082199" lon="7.968847919776871"><ele>448.0</ele><time>2026-05-02T13:28:47Z</time></trkpt><trkpt lat="44.57866144241304" lon="7.96900474916024"><ele>446.6666666666667</ele><time>2026-05-02T13:28:48Z</time></trkpt><trkpt lat="44.57855045046501" lon="7.969215154204257"><ele>445.33333333333337</ele><time>2026-05-02T13:28:49Z</time></trkpt><trkpt lat="44.57845148081242" lon="7.9694411737476045"><ele>444.0</ele><time>2026-05-02T13:28:50Z</time></trkpt><trkpt lat="44.5783638631887" lon="7.969636372900794"><ele>444.0</ele><time>2026-05-02T13:28:51Z</time></trkpt><trkpt lat="44.5782659591138" lon="7.969813996417366"><ele>444.0</ele><time>2026-05-02T13:28:52Z</time></trkpt><trkpt lat="44.578184336741565" lon="7.969991240147099"><ele>444.0</ele><time>2026-05-02T13:28:53Z</time></trkpt><trkpt lat="44.57812205322466" lon="7.970160783343741"><ele>444.0</ele><time>2026-05-02T13:28:54Z</time></trkpt><trkpt lat="44.57804595933665" lon="7.970281885498108"><ele>441.4</ele><time>2026-05-02T13:28:55Z</time></trkpt><trkpt lat="44.57796237772895" lon="7.970370773101501"><ele>438.79999999999995</ele><time>2026-05-02T13:28:56Z</time></trkpt><trkpt lat="44.577863148015126" lon="7.970402603822453"><ele>436.20000000000005</ele><time>2026-05-02T13:28:57Z</time></trkpt><trkpt lat="44.57776144928728" lon="7.97037651291891"><ele>433.6</ele><time>2026-05-02T13:28:58Z</time></trkpt><trkpt lat="44.577645190013904" lon="7.970292177638429"><ele>431.0</ele><time>2026-05-02T13:28:59Z</time></trkpt><trkpt lat="44.57752808729419" lon="7.970195258398824"><ele>431.0</ele><time>2026-05-02T13:29:00Z</time></trkpt><trkpt lat="44.57743567151222" lon="7.970156490492087"><ele>431.0</ele><time>2026-05-02T13:29:01Z</time></trkpt><trkpt lat="44.577331441669024" lon="7.970084029889363"><ele>431.0</ele><time>2026-05-02T13:29:02Z</time></trkpt><trkpt lat="44.57721073510984" lon="7.970052357565611"><ele>431.0</ele><time>2026-05-02T13:29:03Z</time></trkpt><trkpt lat="44.5770398919993" lon="7.970061231783285"><ele>429.0</ele><time>2026-05-02T13:29:04Z</time></trkpt><trkpt lat="44.57684193089328" lon="7.970080508301743"><ele>427.0</ele><time>2026-05-02T13:29:05Z</time></trkpt><trkpt lat="44.576632449447914" lon="7.970133456801743"><ele>425.0</ele><time>2026-05-02T13:29:06Z</time></trkpt><trkpt lat="44.576415057518" lon="7.970237465499246"><ele>425.0</ele><time>2026-05-02T13:29:07Z</time></trkpt><trkpt lat="44.576217189129615" lon="7.97036690812963"><ele>425.0</ele><time>2026-05-02T13:29:08Z</time></trkpt><trkpt lat="44.576088764873205" lon="7.970480654545232"><ele>425.0</ele><time>2026-05-02T13:29:09Z</time></trkpt><trkpt lat="44.57595687196088" lon="7.970510752834315"><ele>424.66666666666663</ele><time>2026-05-02T13:29:10Z</time></trkpt><trkpt lat="44.57579905068704" lon="7.970511508767213"><ele>424.33333333333337</ele><time>2026-05-02T13:29:11Z</time></trkpt><trkpt lat="44.57562758272107" lon="7.970428545290357"><ele>424.0</ele><time>2026-05-02T13:29:12Z</time></trkpt><trkpt lat="44.57542185786652" lon="7.970341939508262"><ele>420.0</ele><time>2026-05-02T13:29:13Z</time></trkpt><trkpt lat="44.5751811472078" lon="7.9702417935889995"><ele>416.0</ele><time>2026-05-02T13:29:14Z</time></trkpt><trkpt lat="44.57492674921474" lon="7.970158456816311"><ele>416.0</ele><time>2026-05-02T13:29:15Z</time></trkpt><trkpt lat="44.57466481236834" lon="7.970041394263474"><ele>416.0</ele><time>2026-05-02T13:29:16Z</time></trkpt><trkpt lat="44.574408535032575" lon="7.969990139894"><ele>420.0</ele><time>2026-05-02T13:29:17Z</time></trkpt><trkpt lat="44.574176812052045" lon="7.969935525719008"><ele>424.0</ele><time>2026-05-02T13:29:18Z</time></trkpt><trkpt lat="44.573947971130096" lon="7.969837925220938"><ele>424.0</ele><time>2026-05-02T13:29:19Z</time></trkpt><trkpt lat="44.57375901616905" lon="7.969762919347987"><ele>424.0</ele><time>2026-05-02T13:29:20Z</time></trkpt><trkpt lat="44.573607389248025" lon="7.969700549468915"><ele>424.0</ele><time>2026-05-02T13:29:21Z</time></trkpt><trkpt lat="44.57347756568908" lon="7.969630325119138"><ele>424.25</ele><time>2026-05-02T13:29:22Z</time></trkpt><trkpt lat="44.573370747853524" lon="7.969533835005226"><ele>424.5</ele><time>2026-05-02T13:29:23Z</time></trkpt><trkpt lat="44.57328230446528" lon="7.969398664915878"><ele>424.75</ele><time>2026-05-02T13:29:24Z</time></trkpt><trkpt lat="44.57317672549742" lon="7.969213772346761"><ele>425.0</ele><time>2026-05-02T13:29:25Z</time></trkpt><trkpt lat="44.573062314974045" lon="7.969028666732058"><ele>425.0</ele><time>2026-05-02T13:29:26Z</time></trkpt><trkpt lat="44.57296258239623" lon="7.968874815594891"><ele>425.0</ele><time>2026-05-02T13:29:27Z</time></trkpt><trkpt lat="44.572851257639094" lon="7.968763560380952"><ele>425.0</ele><time>2026-05-02T13:29:28Z</time></trkpt><trkpt lat="44.572709871961976" lon="7.9686995512404115"><ele>425.0</ele><time>2026-05-02T13:29:29Z</time></trkpt><trkpt lat="44.57254738586828" lon="7.9686277119287565"><ele>422.66666666666663</ele><time>2026-05-02T13:29:30Z</time></trkpt><trkpt lat="44.57236000509158" lon="7.968496321107768"><ele>420.33333333333337</ele><time>2026-05-02T13:29:31Z</time></trkpt><trkpt lat="44.57215515302397" lon="7.96835993280655"><ele>418.0</ele><time>2026-05-02T13:29:32Z</time></trkpt><trkpt lat="44.57195654429762" lon="7.968241235028829"><ele>418.0</ele><time>2026-05-02T13:29:33Z</time></trkpt><trkpt lat="44.57178682290523" lon="7.968134508545955"><ele>418.0</ele><time>2026-05-02T13:29:34Z</time></trkpt><trkpt lat="44.57164987888312" lon="7.968047660713644"><ele>418.0</ele><time>2026-05-02T13:29:35Z</time></trkpt><trkpt lat="44.57153810047109" lon="7.967990701026478"><ele>418.0</ele><time>2026-05-02T13:29:36Z</time></trkpt><trkpt lat="44.57141386877043" lon="7.967976828501226"><ele>418.0</ele><time>2026-05-02T13:29:37Z</time></trkpt><trkpt lat="44.571258436774066" lon="7.968030969422196"><ele>418.0</ele><time>2026-05-02T13:29:38Z</time></trkpt><trkpt lat="44.57109305559387" lon="7.968142664326697"><ele>418.0</ele><time>2026-05-02T13:29:39Z</time></trkpt><trkpt lat="44.57090598608428" lon="7.968196559636564"><ele>418.0</ele><time>2026-05-02T13:29:40Z</time></trkpt><trkpt lat="44.570724998258655" lon="7.968222364760829"><ele>418.0</ele><time>2026-05-02T13:29:41Z</time></trkpt><trkpt lat="44.57053518050494" lon="7.968184902123749"><ele>415.0</ele><time>2026-05-02T13:29:42Z</time></trkpt><trkpt lat="44.57032042082059" lon="7.968161250822989"><ele>412.0</ele><time>2026-05-02T13:29:43Z</time></trkpt><trkpt lat="44.57009589977812" lon="7.968203845081908"><ele>409.0</ele><time>2026-05-02T13:29:44Z</time></trkpt><trkpt lat="44.56989097401458" lon="7.9682531514846024"><ele>409.0</ele><time>2026-05-02T13:29:45Z</time></trkpt><trkpt lat="44.569695851072225" lon="7.968217473426049"><ele>409.0</ele><time>2026-05-02T13:29:46Z</time></trkpt><trkpt lat="44.56947277276385" lon="7.968158363668412"><ele>409.0</ele><time>2026-05-02T13:29:47Z</time></trkpt><trkpt lat="44.569226872581886" lon="7.968098749366485"><ele>409.0</ele><time>2026-05-02T13:29:48Z</time></trkpt><trkpt lat="44.56897575889983" lon="7.968018831690437"><ele>409.0</ele><time>2026-05-02T13:29:49Z</time></trkpt><trkpt lat="44.56874925480813" lon="7.9679409986189995"><ele>411.6666666666667</ele><time>2026-05-02T13:29:50Z</time></trkpt><trkpt lat="44.56854034038347" lon="7.967873102345105"><ele>414.33333333333337</ele><time>2026-05-02T13:29:51Z</time></trkpt><trkpt lat="44.56835679281682" lon="7.967809840251117"><ele>417.0</ele><time>2026-05-02T13:29:52Z</time></trkpt><trkpt lat="44.5681911947115" lon="7.967778232873982"><ele>417.0</ele><time>2026-05-02T13:29:53Z</time></trkpt><trkpt lat="44.56803289726271" lon="7.967782825821439"><ele>417.0</ele><time>2026-05-02T13:29:54Z</time></trkpt><trkpt lat="44.567876527399584" lon="7.967821374450029"><ele>417.0</ele><time>2026-05-02T13:29:55Z</time></trkpt><trkpt lat="44.56771554334772" lon="7.967892907992922"><ele>415.33333333333337</ele><time>2026-05-02T13:29:56Z</time></trkpt><trkpt lat="44.567565510389706" lon="7.968006999886748"><ele>413.6666666666667</ele><time>2026-05-02T13:29:57Z</time></trkpt><trkpt lat="44.56741734014716" lon="7.968131886347992"><ele>412.0</ele><time>2026-05-02T13:29:58Z</time></trkpt><trkpt lat="44.56726434762235" lon="7.968240512275688"><ele>412.0</ele><time>2026-05-02T13:29:59Z</time></trkpt><trkpt lat="44.5671070514713" lon="7.9683186125654935"><ele>412.0</ele><time>2026-05-02T13:30:00Z</time></trkpt><trkpt lat="44.56696034077127" lon="7.968382217620654"><ele>412.0</ele><time>2026-05-02T13:30:01Z</time></trkpt><trkpt lat="44.5668252935513" lon="7.968434978776213"><ele>414.25</ele><time>2026-05-02T13:30:02Z</time></trkpt><trkpt lat="44.56669255597784" lon="7.968458850289736"><ele>416.5</ele><time>2026-05-02T13:30:03Z</time></trkpt><trkpt lat="44.56655667785794" lon="7.968496727453377"><ele>418.75</ele><time>2026-05-02T13:30:04Z</time></trkpt><trkpt lat="44.56642340784492" lon="7.9685214562708495"><ele>421.0</ele><time>2026-05-02T13:30:05Z</time></trkpt><trkpt lat="44.56628991070277" lon="7.968521941473962"><ele>422.0</ele><time>2026-05-02T13:30:06Z</time></trkpt><trkpt lat="44.56615789739589" lon="7.968484429372061"><ele>423.0</ele><time>2026-05-02T13:30:07Z</time></trkpt><trkpt lat="44.566021602536935" lon="7.968415214043558"><ele>424.0</ele><time>2026-05-02T13:30:08Z</time></trkpt><trkpt lat="44.56588244478423" lon="7.968335463292698"><ele>425.0</ele><time>2026-05-02T13:30:09Z</time></trkpt><trkpt lat="44.565749128173785" lon="7.9682590600955345"><ele>425.0</ele><time>2026-05-02T13:30:10Z</time></trkpt><trkpt lat="44.56561876413721" lon="7.968184349007339"><ele>425.0</ele><time>2026-05-02T13:30:11Z</time></trkpt><trkpt lat="44.565494445195796" lon="7.968098463910068"><ele>425.0</ele><time>2026-05-02T13:30:12Z</time></trkpt><trkpt lat="44.56537009603732" lon="7.9679946482299275"><ele>425.0</ele><time>2026-05-02T13:30:13Z</time></trkpt><trkpt lat="44.56525984247513" lon="7.967870297956862"><ele>425.0</ele><time>2026-05-02T13:30:14Z</time></trkpt><trkpt lat="44.56517245114087" lon="7.967726172677085"><ele>425.0</ele><time>2026-05-02T13:30:15Z</time></trkpt><trkpt lat="44.56509019679957" lon="7.9675697598199635"><ele>425.0</ele><time>2026-05-02T13:30:16Z</time></trkpt><trkpt lat="44.56507310842314" lon="7.967355772780997"><ele>425.0</ele><time>2026-05-02T13:30:17Z</time></trkpt><trkpt lat="44.56507144042295" lon="7.967129942154516"><ele>421.3333333333333</ele><time>2026-05-02T13:30:18Z</time></trkpt><trkpt lat="44.56505661154965" lon="7.966892619146412"><ele>417.66666666666663</ele><time>2026-05-02T13:30:19Z</time></trkpt><trkpt lat="44.56505721672813" lon="7.966675852215363"><ele>414.0</ele><time>2026-05-02T13:30:20Z</time></trkpt><trkpt lat="44.56505614899571" lon="7.9664734053545905"><ele>413.25</ele><time>2026-05-02T13:30:21Z</time></trkpt><trkpt lat="44.5650570740195" lon="7.96628347417904"><ele>412.5</ele><time>2026-05-02T13:30:22Z</time></trkpt><trkpt lat="44.565059054781166" lon="7.966115297207434"><ele>411.75</ele><time>2026-05-02T13:30:23Z</time></trkpt><trkpt lat="44.56504503800613" lon="7.965976893592014"><ele>411.0</ele><time>2026-05-02T13:30:24Z</time></trkpt><trkpt lat="44.56502131154945" lon="7.965843753930723"><ele>410.4</ele><time>2026-05-02T13:30:25Z</time></trkpt><trkpt lat="44.56493578999068" lon="7.965748721958465"><ele>409.8</ele><time>2026-05-02T13:30:26Z</time></trkpt><trkpt lat="44.56486082087395" lon="7.965652518679565"><ele>409.2</ele><time>2026-05-02T13:30:27Z</time></trkpt><trkpt lat="44.5647745444681" lon="7.965556865385254"><ele>408.59999999999997</ele><time>2026-05-02T13:30:28Z</time></trkpt><trkpt lat="44.56467886899643" lon="7.965457526091282"><ele>408.0</ele><time>2026-05-02T13:30:29Z</time></trkpt><trkpt lat="44.56458646819529" lon="7.965342963414608"><ele>409.0</ele><time>2026-05-02T13:30:30Z</time></trkpt><trkpt lat="44.56451991067922" lon="7.965216936639473"><ele>410.0</ele><time>2026-05-02T13:30:31Z</time></trkpt><trkpt lat="44.564444270997534" lon="7.965126589218808"><ele>411.0</ele><time>2026-05-02T13:30:32Z</time></trkpt><trkpt lat="44.56438816438908" lon="7.965025948106173"><ele>412.0</ele><time>2026-05-02T13:30:33Z</time></trkpt><trkpt lat="44.564338386831245" lon="7.96492994880789"><ele>413.0</ele><time>2026-05-02T13:30:34Z</time></trkpt><trkpt lat="44.564290543055385" lon="7.96484493073953"><ele>413.0</ele><time>2026-05-02T13:30:35Z</time></trkpt><trkpt lat="44.56422616989218" lon="7.9647773561059605"><ele>413.0</ele><time>2026-05-02T13:30:36Z</time></trkpt><trkpt lat="44.56415189045085" lon="7.964687299764491"><ele>413.0</ele><time>2026-05-02T13:30:37Z</time></trkpt><trkpt lat="44.56405656378726" lon="7.96465741727365"><ele>413.0</ele><time>2026-05-02T13:30:38Z</time></trkpt><trkpt lat="44.56396560043244" lon="7.9646116182502364"><ele>413.0</ele><time>2026-05-02T13:30:39Z</time></trkpt><trkpt lat="44.56387360982146" lon="7.964602595006961"><ele>413.0</ele><time>2026-05-02T13:30:40Z</time></trkpt><trkpt lat="44.563776825374994" lon="7.964624401695397"><ele>413.0</ele><time>2026-05-02T13:30:41Z</time></trkpt><trkpt lat="44.56367836615792" lon="7.964670099860271"><ele>413.0</ele><time>2026-05-02T13:30:42Z</time></trkpt><trkpt lat="44.563579947876036" lon="7.964738355799284"><ele>413.0</ele><time>2026-05-02T13:30:43Z</time></trkpt><trkpt lat="44.56349012722804" lon="7.964829167256865"><ele>413.0</ele><time>2026-05-02T13:30:44Z</time></trkpt><trkpt lat="44.563410572367864" lon="7.964934644622494"><ele>411.75</ele><time>2026-05-02T13:30:45Z</time></trkpt><trkpt lat="44.56333333475739" lon="7.965048855926739"><ele>410.5</ele><time>2026-05-02T13:30:46Z</time></trkpt><trkpt lat="44.5632500851096" lon="7.965160663785924"><ele>409.25</ele><time>2026-05-02T13:30:47Z</time></trkpt><trkpt lat="44.56316498997037" lon="7.965266436876198"><ele>408.0</ele><time>2026-05-02T13:30:48Z</time></trkpt><trkpt lat="44.563081367767644" lon="7.965368607737646"><ele>408.0</ele><time>2026-05-02T13:30:49Z</time></trkpt><trkpt lat="44.563003390029586" lon="7.965477682541457"><ele>408.0</ele><time>2026-05-02T13:30:50Z</time></trkpt><trkpt lat="44.56292550318264" lon="7.965587919950072"><ele>408.0</ele><time>2026-05-02T13:30:51Z</time></trkpt><trkpt lat="44.562826117704034" lon="7.965692960724397"><ele>408.0</ele><time>2026-05-02T13:30:52Z</time></trkpt><trkpt lat="44.562727552042496" lon="7.965821608477836"><ele>405.0</ele><time>2026-05-02T13:30:53Z</time></trkpt><trkpt lat="44.562622685574986" lon="7.965959566702652"><ele>402.0</ele><time>2026-05-02T13:30:54Z</time></trkpt><trkpt lat="44.5625111861292" lon="7.96610625081691"><ele>399.0</ele><time>2026-05-02T13:30:55Z</time></trkpt><trkpt lat="44.56239037342248" lon="7.966265187311709"><ele>399.0</ele><time>2026-05-02T13:30:56Z</time></trkpt><trkpt lat="44.56226809839909" lon="7.966426047537455"><ele>399.0</ele><time>2026-05-02T13:30:57Z</time></trkpt><trkpt lat="44.562142469083824" lon="7.96659848040995"><ele>399.0</ele><time>2026-05-02T13:30:58Z</time></trkpt><trkpt lat="44.562005462391596" lon="7.966786202850442"><ele>397.66666666666663</ele><time>2026-05-02T13:30:59Z</time></trkpt><trkpt lat="44.56186224988848" lon="7.9669863465122495"><ele>396.3333333333333</ele><time>2026-05-02T13:31:00Z</time></trkpt><trkpt lat="44.56170613916805" lon="7.967186424731763"><ele>395.0</ele><time>2026-05-02T13:31:01Z</time></trkpt><trkpt lat="44.56154230942148" lon="7.967395105386705"><ele>393.0</ele><time>2026-05-02T13:31:02Z</time></trkpt><trkpt lat="44.561377951210325" lon="7.9676122670876675"><ele>391.0</ele><time>2026-05-02T13:31:03Z</time></trkpt><trkpt lat="44.56120341724452" lon="7.967808365210091"><ele>389.0</ele><time>2026-05-02T13:31:04Z</time></trkpt><trkpt lat="44.56105329708421" lon="7.968035725225752"><ele>389.0</ele><time>2026-05-02T13:31:05Z</time></trkpt><trkpt lat="44.560888689572" lon="7.968259395577608"><ele>389.0</ele><time>2026-05-02T13:31:06Z</time></trkpt><trkpt lat="44.560731254341576" lon="7.968499694216805"><ele>390.5</ele><time>2026-05-02T13:31:07Z</time></trkpt><trkpt lat="44.560575022353596" lon="7.968754712388667"><ele>392.0</ele><time>2026-05-02T13:31:08Z</time></trkpt><trkpt lat="44.56042344489613" lon="7.969014435332045"><ele>387.3333333333333</ele><time>2026-05-02T13:31:09Z</time></trkpt><trkpt lat="44.560268633191555" lon="7.969242698536658"><ele>382.66666666666663</ele><time>2026-05-02T13:31:10Z</time></trkpt><trkpt lat="44.56013221786334" lon="7.969472714211914"><ele>378.0</ele><time>2026-05-02T13:31:11Z</time></trkpt><trkpt lat="44.559998480773054" lon="7.969696974021746"><ele>378.0</ele><time>2026-05-02T13:31:12Z</time></trkpt><trkpt lat="44.55986514112172" lon="7.969912526958952"><ele>378.0</ele><time>2026-05-02T13:31:13Z</time></trkpt><trkpt lat="44.55972391940138" lon="7.970112185351198"><ele>378.0</ele><time>2026-05-02T13:31:14Z</time></trkpt><trkpt lat="44.559568853525555" lon="7.970292862237497"><ele>375.5</ele><time>2026-05-02T13:31:15Z</time></trkpt><trkpt lat="44.559436219110275" lon="7.970445915120978"><ele>373.0</ele><time>2026-05-02T13:31:16Z</time></trkpt><trkpt lat="44.55932626323461" lon="7.970561800144436"><ele>370.5</ele><time>2026-05-02T13:31:17Z</time></trkpt><trkpt lat="44.559223229490634" lon="7.9706304471387694"><ele>368.0</ele><time>2026-05-02T13:31:18Z</time></trkpt><trkpt lat="44.55910518264338" lon="7.970661412047145"><ele>368.0</ele><time>2026-05-02T13:31:19Z</time></trkpt><trkpt lat="44.55899318271108" lon="7.9706250590863466"><ele>368.0</ele><time>2026-05-02T13:31:20Z</time></trkpt><trkpt lat="44.55888046804083" lon="7.970543509119082"><ele>368.0</ele><time>2026-05-02T13:31:21Z</time></trkpt><trkpt lat="44.55874436937044" lon="7.970456506164083"><ele>368.0</ele><time>2026-05-02T13:31:22Z</time></trkpt><trkpt lat="44.55860455433442" lon="7.970348575154447"><ele>367.6666666666667</ele><time>2026-05-02T13:31:23Z</time></trkpt><trkpt lat="44.55846241651558" lon="7.970234674958241"><ele>367.3333333333333</ele><time>2026-05-02T13:31:24Z</time></trkpt><trkpt lat="44.55833102816734" lon="7.970122863520953"><ele>367.0</ele><time>2026-05-02T13:31:25Z</time></trkpt><trkpt lat="44.558206224224584" lon="7.970021658173946"><ele>366.75</ele><time>2026-05-02T13:31:26Z</time></trkpt><trkpt lat="44.55808913077742" lon="7.969942119386102"><ele>366.5</ele><time>2026-05-02T13:31:27Z</time></trkpt><trkpt lat="44.55795977467574" lon="7.969909544610444"><ele>366.25</ele><time>2026-05-02T13:31:28Z</time></trkpt><trkpt lat="44.55779256879087" lon="7.969938419092772"><ele>366.0</ele><time>2026-05-02T13:31:29Z</time></trkpt><trkpt lat="44.557648206728565" lon="7.970035503042275"><ele>366.0</ele><time>2026-05-02T13:31:30Z</time></trkpt><trkpt lat="44.55750049154999" lon="7.970079877058014"><ele>366.0</ele><time>2026-05-02T13:31:31Z</time></trkpt><trkpt lat="44.557371955479326" lon="7.97007631453183"><ele>366.0</ele><time>2026-05-02T13:31:32Z</time></trkpt><trkpt lat="44.55717324558682" lon="7.97009437582061"><ele>365.6666666666667</ele><time>2026-05-02T13:31:33Z</time></trkpt><trkpt lat="44.55700851412678" lon="7.970108735611066"><ele>365.33333333333337</ele><time>2026-05-02T13:31:34Z</time></trkpt><trkpt lat="44.55685737140854" lon="7.9701217965341575"><ele>365.0</ele><time>2026-05-02T13:31:35Z</time></trkpt><trkpt lat="44.5567207244019" lon="7.97013360483225"><ele>365.0</ele><time>2026-05-02T13:31:36Z</time></trkpt><trkpt lat="44.55659723465275" lon="7.970144276144736"><ele>365.0</ele><time>2026-05-02T13:31:37Z</time></trkpt><trkpt lat="44.556479854429305" lon="7.970176539116516"><ele>365.0</ele><time>2026-05-02T13:31:38Z</time></trkpt><trkpt lat="44.55636568624478" lon="7.970179050271255"><ele>365.0</ele><time>2026-05-02T13:31:39Z</time></trkpt><trkpt lat="44.556241506069995" lon="7.970162210306243"><ele>365.6666666666667</ele><time>2026-05-02T13:31:40Z</time></trkpt><trkpt lat="44.556100364862985" lon="7.970132295018079"><ele>366.3333333333333</ele><time>2026-05-02T13:31:41Z</time></trkpt><trkpt lat="44.5559464075578" lon="7.9701054026308515"><ele>367.0</ele><time>2026-05-02T13:31:42Z</time></trkpt><trkpt lat="44.55578689184532" lon="7.969984066216689"><ele>366.3333333333333</ele><time>2026-05-02T13:31:43Z</time></trkpt><trkpt lat="44.55562905938985" lon="7.969868946323112"><ele>365.6666666666667</ele><time>2026-05-02T13:31:44Z</time></trkpt><trkpt lat="44.55548056160059" lon="7.969747194833433"><ele>365.0</ele><time>2026-05-02T13:31:45Z</time></trkpt><trkpt lat="44.55533849889789" lon="7.969635453661753"><ele>365.0</ele><time>2026-05-02T13:31:46Z</time></trkpt><trkpt lat="44.555199264271586" lon="7.969531310497549"><ele>365.0</ele><time>2026-05-02T13:31:47Z</time></trkpt><trkpt lat="44.555079553921836" lon="7.969432673680712"><ele>365.0</ele><time>2026-05-02T13:31:48Z</time></trkpt><trkpt lat="44.555035445670164" lon="7.969211831044559"><ele>363.75</ele><time>2026-05-02T13:31:49Z</time></trkpt><trkpt lat="44.55496463118421" lon="7.969109279347795"><ele>362.5</ele><time>2026-05-02T13:31:50Z</time></trkpt><trkpt lat="44.554879582252774" lon="7.968970076041008"><ele>361.25</ele><time>2026-05-02T13:31:51Z</time></trkpt><trkpt lat="44.554793941117694" lon="7.968846090037039"><ele>360.0</ele><time>2026-05-02T13:31:52Z</time></trkpt><trkpt lat="44.554667732690625" lon="7.968743300666189"><ele>359.3333333333333</ele><time>2026-05-02T13:31:53Z</time></trkpt><trkpt lat="44.55448992307079" lon="7.968756945343412"><ele>358.66666666666663</ele><time>2026-05-02T13:31:54Z</time></trkpt><trkpt lat="44.55433060400134" lon="7.968771575155825"><ele>358.0</ele><time>2026-05-02T13:31:55Z</time></trkpt><trkpt lat="44.55419068661059" lon="7.968808880978256"><ele>358.0</ele><time>2026-05-02T13:31:56Z</time></trkpt><trkpt lat="44.554063577893935" lon="7.968818896322805"><ele>358.0</ele><time>2026-05-02T13:31:57Z</time></trkpt><trkpt lat="44.55393526044814" lon="7.968789753773277"><ele>358.0</ele><time>2026-05-02T13:31:58Z</time></trkpt><trkpt lat="44.553810051640895" lon="7.9686990050296265"><ele>358.0</ele><time>2026-05-02T13:31:59Z</time></trkpt><trkpt lat="44.55368664694259" lon="7.968571499113881"><ele>358.5</ele><time>2026-05-02T13:32:00Z</time></trkpt><trkpt lat="44.55356368511056" lon="7.968451611478876"><ele>359.0</ele><time>2026-05-02T13:32:01Z</time></trkpt><trkpt lat="44.553432090564606" lon="7.968360148370116"><ele>359.5</ele><time>2026-05-02T13:32:02Z</time></trkpt><trkpt lat="44.55328875802197" lon="7.968315277100203"><ele>360.0</ele><time>2026-05-02T13:32:03Z</time></trkpt><trkpt lat="44.55314885736622" lon="7.968289611442145"><ele>360.0</ele><time>2026-05-02T13:32:04Z</time></trkpt><trkpt lat="44.553023056444694" lon="7.968215490223485"><ele>360.0</ele><time>2026-05-02T13:32:05Z</time></trkpt><trkpt lat="44.5528794176399" lon="7.9680718459074935"><ele>360.0</ele><time>2026-05-02T13:32:06Z</time></trkpt><trkpt lat="44.552707721281806" lon="7.967876231060792"><ele>359.5</ele><time>2026-05-02T13:32:07Z</time></trkpt><trkpt lat="44.55252424051113" lon="7.967636768049188"><ele>359.0</ele><time>2026-05-02T13:32:08Z</time></trkpt><trkpt lat="44.552326888088515" lon="7.967396574894552"><ele>359.0</ele><time>2026-05-02T13:32:09Z</time></trkpt><trkpt lat="44.55210687460764" lon="7.967166302951774"><ele>359.0</ele><time>2026-05-02T13:32:10Z</time></trkpt><trkpt lat="44.55191203211818" lon="7.966955858833334"><ele>359.0</ele><time>2026-05-02T13:32:11Z</time></trkpt><trkpt lat="44.55177112640608" lon="7.966794446967149"><ele>359.0</ele><time>2026-05-02T13:32:12Z</time></trkpt><trkpt lat="44.55166452623066" lon="7.966627281953893"><ele>359.0</ele><time>2026-05-02T13:32:13Z</time></trkpt><trkpt lat="44.551590329921744" lon="7.966415962626943"><ele>357.0</ele><time>2026-05-02T13:32:14Z</time></trkpt><trkpt lat="44.551563060671505" lon="7.966117125900286"><ele>355.0</ele><time>2026-05-02T13:32:15Z</time></trkpt><trkpt lat="44.55154650172176" lon="7.965838834742532"><ele>353.0</ele><time>2026-05-02T13:32:16Z</time></trkpt><trkpt lat="44.5514999271409" lon="7.965656970700182"><ele>353.0</ele><time>2026-05-02T13:32:17Z</time></trkpt><trkpt lat="44.55140009437603" lon="7.9655310350989375"><ele>353.0</ele><time>2026-05-02T13:32:18Z</time></trkpt><trkpt lat="44.55122022754954" lon="7.965461860812703"><ele>353.0</ele><time>2026-05-02T13:32:19Z</time></trkpt><trkpt lat="44.55102736914645" lon="7.965415736375678"><ele>350.33333333333337</ele><time>2026-05-02T13:32:20Z</time></trkpt><trkpt lat="44.550858238263196" lon="7.965272647412922"><ele>347.6666666666667</ele><time>2026-05-02T13:32:21Z</time></trkpt><trkpt lat="44.550700236428746" lon="7.965042155950905"><ele>345.0</ele><time>2026-05-02T13:32:22Z</time></trkpt><trkpt lat="44.5505887805616" lon="7.964837996383645"><ele>344.6666666666667</ele><time>2026-05-02T13:32:23Z</time></trkpt><trkpt lat="44.55047272973099" lon="7.964706763213003"><ele>344.33333333333337</ele><time>2026-05-02T13:32:24Z</time></trkpt><trkpt lat="44.5502873183912" lon="7.964646967713046"><ele>344.0</ele><time>2026-05-02T13:32:25Z</time></trkpt><trkpt lat="44.550040739806235" lon="7.964627116430373"><ele>344.5</ele><time>2026-05-02T13:32:26Z</time></trkpt><trkpt lat="44.5497822812367" lon="7.964590847113733"><ele>345.0</ele><time>2026-05-02T13:32:27Z</time></trkpt><trkpt lat="44.54950562694403" lon="7.964546277320063"><ele>345.0</ele><time>2026-05-02T13:32:28Z</time></trkpt><trkpt lat="44.549216783599284" lon="7.96449590957123"><ele>345.0</ele><time>2026-05-02T13:32:29Z</time></trkpt><trkpt lat="44.548929689962456" lon="7.964438027468969"><ele>343.0</ele><time>2026-05-02T13:32:30Z</time></trkpt><trkpt lat="44.54864837017302" lon="7.964394883958463"><ele>341.0</ele><time>2026-05-02T13:32:31Z</time></trkpt><trkpt lat="44.5483987344684" lon="7.9643462627810555"><ele>341.0</ele><time>2026-05-02T13:32:32Z</time></trkpt><trkpt lat="44.54816742391966" lon="7.964301307260572"><ele>341.0</ele><time>2026-05-02T13:32:33Z</time></trkpt><trkpt lat="44.54794617064963" lon="7.964260101569593"><ele>341.5</ele><time>2026-05-02T13:32:34Z</time></trkpt><trkpt lat="44.54772019510921" lon="7.9642167867024085"><ele>342.0</ele><time>2026-05-02T13:32:35Z</time></trkpt><trkpt lat="44.54746230132814" lon="7.964166363007033"><ele>342.5</ele><time>2026-05-02T13:32:36Z</time></trkpt><trkpt lat="44.54718933248927" lon="7.964109238938188"><ele>343.0</ele><time>2026-05-02T13:32:37Z</time></trkpt><trkpt lat="44.54690361754936" lon="7.964049256572743"><ele>340.0</ele><time>2026-05-02T13:32:38Z</time></trkpt><trkpt lat="44.54660930364685" lon="7.963988250271432"><ele>337.0</ele><time>2026-05-02T13:32:39Z</time></trkpt><trkpt lat="44.546349083709195" lon="7.963934190628611"><ele>337.3333333333333</ele><time>2026-05-02T13:32:40Z</time></trkpt><trkpt lat="44.54613362123431" lon="7.963891977246689"><ele>337.6666666666667</ele><time>2026-05-02T13:32:41Z</time></trkpt><trkpt lat="44.54596497659799" lon="7.96386423344978"><ele>338.0</ele><time>2026-05-02T13:32:42Z</time></trkpt><trkpt lat="44.54580143132949" lon="7.963873719599881"><ele>338.0</ele><time>2026-05-02T13:32:43Z</time></trkpt><trkpt lat="44.54560701804917" lon="7.963950174738227"><ele>338.0</ele><time>2026-05-02T13:32:44Z</time></trkpt><trkpt lat="44.54539938842739" lon="7.964102328923576"><ele>338.0</ele><time>2026-05-02T13:32:45Z</time></trkpt><trkpt lat="44.54518663938781" lon="7.9642916895046865"><ele>338.0</ele><time>2026-05-02T13:32:46Z</time></trkpt><trkpt lat="44.54494933247331" lon="7.964483511390406"><ele>338.0</ele><time>2026-05-02T13:32:47Z</time></trkpt><trkpt lat="44.54470024721211" lon="7.964666350671094"><ele>335.0</ele><time>2026-05-02T13:32:48Z</time></trkpt><trkpt lat="44.54446979519707" lon="7.96485124382274"><ele>332.0</ele><time>2026-05-02T13:32:49Z</time></trkpt><trkpt lat="44.54426044898752" lon="7.964999524202625"><ele>337.6666666666667</ele><time>2026-05-02T13:32:50Z</time></trkpt><trkpt lat="44.54406827692538" lon="7.965138893689729"><ele>343.3333333333333</ele><time>2026-05-02T13:32:51Z</time></trkpt><trkpt lat="44.54389623680934" lon="7.965267029929418"><ele>349.0</ele><time>2026-05-02T13:32:52Z</time></trkpt><trkpt lat="44.54374232046989" lon="7.965373326020124"><ele>345.66666666666663</ele><time>2026-05-02T13:32:53Z</time></trkpt><trkpt lat="44.543586022707345" lon="7.965441814841112"><ele>342.3333333333333</ele><time>2026-05-02T13:32:54Z</time></trkpt><trkpt lat="44.54341490590622" lon="7.965426945280572"><ele>339.0</ele><time>2026-05-02T13:32:55Z</time></trkpt><trkpt lat="44.54323091193746" lon="7.965364019751062"><ele>339.0</ele><time>2026-05-02T13:32:56Z</time></trkpt><trkpt lat="44.54303571310625" lon="7.965284856547991"><ele>339.0</ele><time>2026-05-02T13:32:57Z</time></trkpt><trkpt lat="44.54283750752525" lon="7.965205245081145"><ele>339.0</ele><time>2026-05-02T13:32:58Z</time></trkpt><trkpt lat="44.54262470929551" lon="7.965135439155248"><ele>336.6666666666667</ele><time>2026-05-02T13:32:59Z</time></trkpt><trkpt lat="44.542435627555896" lon="7.965073169536816"><ele>334.33333333333337</ele><time>2026-05-02T13:33:00Z</time></trkpt><trkpt lat="44.542292346668695" lon="7.965022640776037"><ele>332.0</ele><time>2026-05-02T13:33:01Z</time></trkpt><trkpt lat="44.5421823058701" lon="7.964967678288021"><ele>332.0</ele><time>2026-05-02T13:33:02Z</time></trkpt><trkpt lat="44.54208601554972" lon="7.9648623302171595"><ele>332.0</ele><time>2026-05-02T13:33:03Z</time></trkpt><trkpt lat="44.54199023126563" lon="7.9646931200570865"><ele>332.0</ele><time>2026-05-02T13:33:04Z</time></trkpt><trkpt lat="44.541922095211746" lon="7.964473474810184"><ele>332.0</ele><time>2026-05-02T13:33:05Z</time></trkpt><trkpt lat="44.54186154329282" lon="7.964234435199743"><ele>330.6666666666667</ele><time>2026-05-02T13:33:06Z</time></trkpt><trkpt lat="44.541789162341715" lon="7.963991544870896"><ele>329.3333333333333</ele><time>2026-05-02T13:33:07Z</time></trkpt><trkpt lat="44.54168481577346" lon="7.963780695047138"><ele>328.0</ele><time>2026-05-02T13:33:08Z</time></trkpt><trkpt lat="44.54155505974294" lon="7.963640048738936"><ele>328.0</ele><time>2026-05-02T13:33:09Z</time></trkpt><trkpt lat="44.54139380477366" lon="7.96355509228855"><ele>328.0</ele><time>2026-05-02T13:33:10Z</time></trkpt><trkpt lat="44.541200522886356" lon="7.963522630431955"><ele>328.0</ele><time>2026-05-02T13:33:11Z</time></trkpt><trkpt lat="44.54097907719952" lon="7.96351594100296"><ele>328.66666666666663</ele><time>2026-05-02T13:33:12Z</time></trkpt><trkpt lat="44.540772446314875" lon="7.9634984529311"><ele>329.3333333333333</ele><time>2026-05-02T13:33:13Z</time></trkpt><trkpt lat="44.54060490949837" lon="7.96347409269214"><ele>330.0</ele><time>2026-05-02T13:33:14Z</time></trkpt><trkpt lat="44.540487540346035" lon="7.963419811061412"><ele>329.25</ele><time>2026-05-02T13:33:15Z</time></trkpt><trkpt lat="44.5403873886342" lon="7.963313199184052"><ele>328.5</ele><time>2026-05-02T13:33:16Z</time></trkpt><trkpt lat="44.54030714179059" lon="7.963151832650115"><ele>327.75</ele><time>2026-05-02T13:33:17Z</time></trkpt><trkpt lat="44.540224865672755" lon="7.962986859929067"><ele>327.0</ele><time>2026-05-02T13:33:18Z</time></trkpt><trkpt lat="44.5400783164001" lon="7.962868510304577"><ele>327.0</ele><time>2026-05-02T13:33:19Z</time></trkpt><trkpt lat="44.53988091954233" lon="7.962816198834795"><ele>327.0</ele><time>2026-05-02T13:33:20Z</time></trkpt><trkpt lat="44.53965106068828" lon="7.962789406954225"><ele>327.0</ele><time>2026-05-02T13:33:21Z</time></trkpt><trkpt lat="44.5394393881879" lon="7.9627307292848375"><ele>329.6666666666667</ele><time>2026-05-02T13:33:22Z</time></trkpt><trkpt lat="44.53925202183863" lon="7.9626498982078315"><ele>332.33333333333337</ele><time>2026-05-02T13:33:23Z</time></trkpt><trkpt lat="44.539088197559394" lon="7.962534568671727"><ele>335.0</ele><time>2026-05-02T13:33:24Z</time></trkpt><trkpt lat="44.53895503203116" lon="7.962370216893512"><ele>329.0</ele><time>2026-05-02T13:33:25Z</time></trkpt><trkpt lat="44.538851291970325" lon="7.962155450937883"><ele>323.0</ele><time>2026-05-02T13:33:26Z</time></trkpt><trkpt lat="44.538750591814654" lon="7.961897877645058"><ele>317.0</ele><time>2026-05-02T13:33:27Z</time></trkpt><trkpt lat="44.53865283045977" lon="7.961594045472301"><ele>315.6666666666667</ele><time>2026-05-02T13:33:28Z</time></trkpt><trkpt lat="44.538554296828266" lon="7.961319724332109"><ele>314.3333333333333</ele><time>2026-05-02T13:33:29Z</time></trkpt><trkpt lat="44.53846109820435" lon="7.961115609007375"><ele>313.0</ele><time>2026-05-02T13:33:30Z</time></trkpt><trkpt lat="44.538353642271666" lon="7.960965933951677"><ele>313.0</ele><time>2026-05-02T13:33:31Z</time></trkpt><trkpt lat="44.53821099651758" lon="7.960887239263829"><ele>313.0</ele><time>2026-05-02T13:33:32Z</time></trkpt><trkpt lat="44.53802093720063" lon="7.9608707403402"><ele>313.0</ele><time>2026-05-02T13:33:33Z</time></trkpt><trkpt lat="44.5378278549596" lon="7.960889301517717"><ele>313.0</ele><time>2026-05-02T13:33:34Z</time></trkpt><trkpt lat="44.537665484710985" lon="7.960869848544921"><ele>313.0</ele><time>2026-05-02T13:33:35Z</time></trkpt><trkpt lat="44.537549018448935" lon="7.960816561030831"><ele>313.0</ele><time>2026-05-02T13:33:36Z</time></trkpt><trkpt lat="44.53744676870386" lon="7.96071414479979"><ele>313.0</ele><time>2026-05-02T13:33:37Z</time></trkpt><trkpt lat="44.53734904677812" lon="7.9605300107742805"><ele>313.0</ele><time>2026-05-02T13:33:38Z</time></trkpt><trkpt lat="44.537233332528515" lon="7.960297323920883"><ele>313.0</ele><time>2026-05-02T13:33:39Z</time></trkpt><trkpt lat="44.5371061575705" lon="7.960044652982887"><ele>313.0</ele><time>2026-05-02T13:33:40Z</time></trkpt><trkpt lat="44.53697700918227" lon="7.959772266122727"><ele>312.5</ele><time>2026-05-02T13:33:41Z</time></trkpt><trkpt lat="44.53683582087006" lon="7.959484148232689"><ele>312.0</ele><time>2026-05-02T13:33:42Z</time></trkpt><trkpt lat="44.536689042353075" lon="7.959182360107593"><ele>312.0</ele><time>2026-05-02T13:33:43Z</time></trkpt><trkpt lat="44.536549513447675" lon="7.958893439665109"><ele>312.0</ele><time>2026-05-02T13:33:44Z</time></trkpt><trkpt lat="44.53642107606639" lon="7.958623362228242"><ele>312.0</ele><time>2026-05-02T13:33:45Z</time></trkpt><trkpt lat="44.53629902471736" lon="7.958370491792007"><ele>312.0</ele><time>2026-05-02T13:33:46Z</time></trkpt><trkpt lat="44.536181350817884" lon="7.958125705240556"><ele>312.0</ele><time>2026-05-02T13:33:47Z</time></trkpt><trkpt lat="44.5360709143347" lon="7.957896867676438"><ele>311.3333333333333</ele><time>2026-05-02T13:33:48Z</time></trkpt><trkpt lat="44.53596113924884" lon="7.957677791635529"><ele>310.66666666666663</ele><time>2026-05-02T13:33:49Z</time></trkpt><trkpt lat="44.53585825708678" lon="7.957468084903435"><ele>310.0</ele><time>2026-05-02T13:33:50Z</time></trkpt><trkpt lat="44.535765549045614" lon="7.957268545637162"><ele>310.5</ele><time>2026-05-02T13:33:51Z</time></trkpt><trkpt lat="44.53568252405731" lon="7.957080880576425"><ele>311.0</ele><time>2026-05-02T13:33:52Z</time></trkpt><trkpt lat="44.53559942966052" lon="7.956907794639257"><ele>311.5</ele><time>2026-05-02T13:33:53Z</time></trkpt><trkpt lat="44.53552352531164" lon="7.956752881651372"><ele>312.0</ele><time>2026-05-02T13:33:54Z</time></trkpt><trkpt lat="44.53545303743268" lon="7.956621471023414"><ele>310.25</ele><time>2026-05-02T13:33:54.999Z</time></trkpt><trkpt lat="44.535372198163095" lon="7.956516228031927"><ele>308.5</ele><time>2026-05-02T13:33:55.999Z</time></trkpt><trkpt lat="44.5352698471615" lon="7.956429305860154"><ele>306.75</ele><time>2026-05-02T13:33:56.999Z</time></trkpt><trkpt lat="44.535142110265674" lon="7.956363139432421"><ele>305.0</ele><time>2026-05-02T13:33:57.999Z</time></trkpt><trkpt lat="44.53500993559113" lon="7.956310724022201"><ele>305.0</ele><time>2026-05-02T13:33:58.999Z</time></trkpt><trkpt lat="44.5349109942972" lon="7.9562119126934245"><ele>305.0</ele><time>2026-05-02T13:33:59.999Z</time></trkpt><trkpt lat="44.53481447525658" lon="7.956111487831909"><ele>305.0</ele><time>2026-05-02T13:34:01Z</time></trkpt><trkpt lat="44.53473098170253" lon="7.955963632756781"><ele>305.0</ele><time>2026-05-02T13:34:02Z</time></trkpt><trkpt lat="44.53463807261597" lon="7.955797624091936"><ele>303.0</ele><time>2026-05-02T13:34:03Z</time></trkpt><trkpt lat="44.534546576548294" lon="7.955619377096604"><ele>301.0</ele><time>2026-05-02T13:34:04Z</time></trkpt><trkpt lat="44.53445346240438" lon="7.955439599390996"><ele>299.0</ele><time>2026-05-02T13:34:05Z</time></trkpt><trkpt lat="44.534361023281036" lon="7.955255819869286"><ele>299.0</ele><time>2026-05-02T13:34:06Z</time></trkpt><trkpt lat="44.53427097099659" lon="7.955063046063123"><ele>299.0</ele><time>2026-05-02T13:34:07Z</time></trkpt><trkpt lat="44.534182998063194" lon="7.95486427316198"><ele>299.0</ele><time>2026-05-02T13:34:08Z</time></trkpt><trkpt lat="44.534091032632006" lon="7.9546686480023965"><ele>299.0</ele><time>2026-05-02T13:34:09Z</time></trkpt><trkpt lat="44.534002973940694" lon="7.954487914698461"><ele>299.0</ele><time>2026-05-02T13:34:10Z</time></trkpt><trkpt lat="44.533926453929595" lon="7.954325437430178"><ele>299.0</ele><time>2026-05-02T13:34:11Z</time></trkpt><trkpt lat="44.533854581308766" lon="7.954171569616809"><ele>299.0</ele><time>2026-05-02T13:34:12Z</time></trkpt><trkpt lat="44.53378364866098" lon="7.954045075238673"><ele>298.75</ele><time>2026-05-02T13:34:13Z</time></trkpt><trkpt lat="44.53369876310866" lon="7.9539530708765644"><ele>298.5</ele><time>2026-05-02T13:34:14Z</time></trkpt><trkpt lat="44.533596898225255" lon="7.953899789143098"><ele>298.25</ele><time>2026-05-02T13:34:15Z</time></trkpt><trkpt lat="44.533475343881584" lon="7.953911171596681"><ele>298.0</ele><time>2026-05-02T13:34:16Z</time></trkpt><trkpt lat="44.53335493644117" lon="7.953960611893902"><ele>298.0</ele><time>2026-05-02T13:34:17Z</time></trkpt><trkpt lat="44.53323791714021" lon="7.954036849395116"><ele>298.0</ele><time>2026-05-02T13:34:18Z</time></trkpt><trkpt lat="44.53312433557207" lon="7.954066224253225"><ele>298.0</ele><time>2026-05-02T13:34:19Z</time></trkpt><trkpt lat="44.53303070120034" lon="7.954123585058169"><ele>298.0</ele><time>2026-05-02T13:34:20Z</time></trkpt><trkpt lat="44.53295055127138" lon="7.954150851463208"><ele>298.0</ele><time>2026-05-02T13:34:21Z</time></trkpt><trkpt lat="44.532875239307955" lon="7.954164409293671"><ele>298.5</ele><time>2026-05-02T13:34:23Z</time></trkpt><trkpt lat="44.53283429591556" lon="7.954248124116083"><ele>299.0</ele><time>2026-05-02T13:34:28Z</time></trkpt><trkpt lat="44.53289323952556" lon="7.954508138887763"><ele>299.5</ele><time>2026-05-02T13:34:30Z</time></trkpt><trkpt lat="44.53293693121909" lon="7.954662207988347"><ele>300.0</ele><time>2026-05-02T13:34:31Z</time></trkpt><trkpt lat="44.53297741264194" lon="7.954832844324373"><ele>300.0</ele><time>2026-05-02T13:34:32Z</time></trkpt><trkpt lat="44.53300835682596" lon="7.955029587536057"><ele>300.0</ele><time>2026-05-02T13:34:33Z</time></trkpt><trkpt lat="44.53307809370103" lon="7.9552339178929135"><ele>300.0</ele><time>2026-05-02T13:34:34Z</time></trkpt><trkpt lat="44.533117004164055" lon="7.955441727028231"><ele>300.6666666666667</ele><time>2026-05-02T13:34:35Z</time></trkpt><trkpt lat="44.53317223776819" lon="7.955649566805041"><ele>301.33333333333337</ele><time>2026-05-02T13:34:36Z</time></trkpt><trkpt lat="44.53322308807765" lon="7.9558678736109085"><ele>302.0</ele><time>2026-05-02T13:34:37Z</time></trkpt><trkpt lat="44.533261957002345" lon="7.956077495503158"><ele>302.25</ele><time>2026-05-02T13:34:38Z</time></trkpt><trkpt lat="44.53330440486948" lon="7.956267190387835"><ele>302.5</ele><time>2026-05-02T13:34:39Z</time></trkpt><trkpt lat="44.53334598108275" lon="7.956451685588209"><ele>302.75</ele><time>2026-05-02T13:34:40Z</time></trkpt><trkpt lat="44.53338170158806" lon="7.956629313555701"><ele>303.0</ele><time>2026-05-02T13:34:41Z</time></trkpt><trkpt lat="44.53341922266672" lon="7.956796615690669"><ele>302.6</ele><time>2026-05-02T13:34:42Z</time></trkpt><trkpt lat="44.533451535977626" lon="7.956947717899675"><ele>302.20000000000005</ele><time>2026-05-02T13:34:43Z</time></trkpt><trkpt lat="44.533474635250954" lon="7.957079578665448"><ele>301.8</ele><time>2026-05-02T13:34:44Z</time></trkpt><trkpt lat="44.53349655969744" lon="7.957207652809817"><ele>301.40000000000003</ele><time>2026-05-02T13:34:45Z</time></trkpt><trkpt lat="44.5335116609475" lon="7.957350497527491"><ele>301.0</ele><time>2026-05-02T13:34:46Z</time></trkpt><trkpt lat="44.53352967566341" lon="7.9575057485815694"><ele>300.25</ele><time>2026-05-02T13:34:47Z</time></trkpt><trkpt lat="44.53354619158529" lon="7.957673666087394"><ele>299.5</ele><time>2026-05-02T13:34:48Z</time></trkpt><trkpt lat="44.53356156286164" lon="7.957849521749151"><ele>298.75</ele><time>2026-05-02T13:34:49Z</time></trkpt><trkpt lat="44.533575964474224" lon="7.958036620783737"><ele>298.0</ele><time>2026-05-02T13:34:50Z</time></trkpt><trkpt lat="44.53359268358241" lon="7.958222741768061"><ele>298.0</ele><time>2026-05-02T13:34:51Z</time></trkpt><trkpt lat="44.5336079020702" lon="7.958403928820699"><ele>298.0</ele><time>2026-05-02T13:34:52Z</time></trkpt><trkpt lat="44.533618058211644" lon="7.958584013607987"><ele>298.0</ele><time>2026-05-02T13:34:53Z</time></trkpt><trkpt lat="44.53363310434522" lon="7.958762713162414"><ele>298.0</ele><time>2026-05-02T13:34:54Z</time></trkpt><trkpt lat="44.53364327992048" lon="7.958936022888029"><ele>298.0</ele><time>2026-05-02T13:34:55Z</time></trkpt><trkpt lat="44.53364623519972" lon="7.959111243649682"><ele>298.0</ele><time>2026-05-02T13:34:56Z</time></trkpt><trkpt lat="44.53364976722235" lon="7.959289286834447"><ele>298.0</ele><time>2026-05-02T13:34:57Z</time></trkpt><trkpt lat="44.533659118161275" lon="7.959474566429927"><ele>298.0</ele><time>2026-05-02T13:34:58Z</time></trkpt><trkpt lat="44.53366106199715" lon="7.959667497297988"><ele>298.0</ele><time>2026-05-02T13:34:59Z</time></trkpt><trkpt lat="44.53365787473097" lon="7.959862441506328"><ele>298.0</ele><time>2026-05-02T13:35:00Z</time></trkpt><trkpt lat="44.533646265343634" lon="7.960068509661062"><ele>298.0</ele><time>2026-05-02T13:35:01Z</time></trkpt><trkpt lat="44.5336390217736" lon="7.960270860959572"><ele>298.0</ele><time>2026-05-02T13:35:02Z</time></trkpt><trkpt lat="44.533626713612406" lon="7.960483786587136"><ele>299.3333333333333</ele><time>2026-05-02T13:35:03Z</time></trkpt><trkpt lat="44.533614905991335" lon="7.960696540872425"><ele>300.6666666666667</ele><time>2026-05-02T13:35:04Z</time></trkpt><trkpt lat="44.533598923278795" lon="7.96090821209912"><ele>302.0</ele><time>2026-05-02T13:35:05Z</time></trkpt><trkpt lat="44.53358686593545" lon="7.961118357052055"><ele>302.5</ele><time>2026-05-02T13:35:06Z</time></trkpt><trkpt lat="44.533577397309806" lon="7.961328238523232"><ele>303.0</ele><time>2026-05-02T13:35:07Z</time></trkpt><trkpt lat="44.53356628768871" lon="7.9615344829022"><ele>303.5</ele><time>2026-05-02T13:35:08Z</time></trkpt><trkpt lat="44.533553391722144" lon="7.961722229632499"><ele>304.0</ele><time>2026-05-02T13:35:09Z</time></trkpt><trkpt lat="44.533545032988435" lon="7.96189183412869"><ele>304.5</ele><time>2026-05-02T13:35:10Z</time></trkpt><trkpt lat="44.533536151115136" lon="7.962058744287592"><ele>305.0</ele><time>2026-05-02T13:35:11Z</time></trkpt><trkpt lat="44.53351644230412" lon="7.962234387339579"><ele>305.5</ele><time>2026-05-02T13:35:12Z</time></trkpt><trkpt lat="44.53349362061231" lon="7.962418966712639"><ele>306.0</ele><time>2026-05-02T13:35:13Z</time></trkpt><trkpt lat="44.53346123017264" lon="7.962611146998601"><ele>306.5</ele><time>2026-05-02T13:35:14Z</time></trkpt><trkpt lat="44.53341396055376" lon="7.962803932392414"><ele>307.0</ele><time>2026-05-02T13:35:15Z</time></trkpt><trkpt lat="44.533362576208276" lon="7.962986812435812"><ele>307.5</ele><time>2026-05-02T13:35:16Z</time></trkpt><trkpt lat="44.533309031653026" lon="7.963180672753829"><ele>308.0</ele><time>2026-05-02T13:35:17Z</time></trkpt><trkpt lat="44.533255282698875" lon="7.963372115154467"><ele>308.6666666666667</ele><time>2026-05-02T13:35:18Z</time></trkpt><trkpt lat="44.533193320370565" lon="7.963567943698691"><ele>309.3333333333333</ele><time>2026-05-02T13:35:19Z</time></trkpt><trkpt lat="44.533128864274694" lon="7.963778961245066"><ele>310.0</ele><time>2026-05-02T13:35:20Z</time></trkpt><trkpt lat="44.53306390467969" lon="7.964001677876097"><ele>310.3333333333333</ele><time>2026-05-02T13:35:21Z</time></trkpt><trkpt lat="44.53299914705027" lon="7.964224661994171"><ele>310.6666666666667</ele><time>2026-05-02T13:35:22Z</time></trkpt><trkpt lat="44.53292790193945" lon="7.964436771791941"><ele>311.0</ele><time>2026-05-02T13:35:23Z</time></trkpt><trkpt lat="44.53285370850093" lon="7.9646552384921065"><ele>309.33333333333337</ele><time>2026-05-02T13:35:24Z</time></trkpt><trkpt lat="44.53277347992325" lon="7.9648609255095195"><ele>307.6666666666667</ele><time>2026-05-02T13:35:25Z</time></trkpt><trkpt lat="44.532695363497005" lon="7.965064755881249"><ele>306.0</ele><time>2026-05-02T13:35:26Z</time></trkpt><trkpt lat="44.53261504464388" lon="7.965266814876192"><ele>306.0</ele><time>2026-05-02T13:35:27Z</time></trkpt><trkpt lat="44.53253712293354" lon="7.965466304846493"><ele>306.0</ele><time>2026-05-02T13:35:28Z</time></trkpt><trkpt lat="44.53245901676723" lon="7.965659399699289"><ele>306.0</ele><time>2026-05-02T13:35:29Z</time></trkpt><trkpt lat="44.53237018093571" lon="7.965844947097853"><ele>306.0</ele><time>2026-05-02T13:35:30Z</time></trkpt><trkpt lat="44.53228083645672" lon="7.966036038217682"><ele>306.0</ele><time>2026-05-02T13:35:31Z</time></trkpt><trkpt lat="44.532172706997216" lon="7.966229345160177"><ele>306.0</ele><time>2026-05-02T13:35:32Z</time></trkpt><trkpt lat="44.53206041769225" lon="7.966431949684374"><ele>306.6666666666667</ele><time>2026-05-02T13:35:33Z</time></trkpt><trkpt lat="44.531921697418134" lon="7.966617961050346"><ele>307.33333333333337</ele><time>2026-05-02T13:35:34Z</time></trkpt><trkpt lat="44.53178326947235" lon="7.966810740352754"><ele>308.0</ele><time>2026-05-02T13:35:35Z</time></trkpt><trkpt lat="44.531645477369324" lon="7.967009348420988"><ele>310.0</ele><time>2026-05-02T13:35:36Z</time></trkpt><trkpt lat="44.53151942145031" lon="7.967239786952488"><ele>312.0</ele><time>2026-05-02T13:35:37Z</time></trkpt><trkpt lat="44.53141585043622" lon="7.967483289487249"><ele>314.0</ele><time>2026-05-02T13:35:38Z</time></trkpt><trkpt lat="44.53131274540082" lon="7.967743531564855"><ele>313.33333333333337</ele><time>2026-05-02T13:35:39Z</time></trkpt><trkpt lat="44.53120404171533" lon="7.968000726938888"><ele>312.6666666666667</ele><time>2026-05-02T13:35:40Z</time></trkpt><trkpt lat="44.53109331249008" lon="7.968254276060485"><ele>312.0</ele><time>2026-05-02T13:35:41Z</time></trkpt><trkpt lat="44.530980108321685" lon="7.968516301300035"><ele>314.5</ele><time>2026-05-02T13:35:42Z</time></trkpt><trkpt lat="44.53085979749117" lon="7.9687851981023865"><ele>317.0</ele><time>2026-05-02T13:35:43Z</time></trkpt><trkpt lat="44.53074524688825" lon="7.9690550729170635"><ele>323.0</ele><time>2026-05-02T13:35:44Z</time></trkpt><trkpt lat="44.53062913503698" lon="7.969335197651911"><ele>329.0</ele><time>2026-05-02T13:35:45Z</time></trkpt><trkpt lat="44.53049550114283" lon="7.969602825508171"><ele>327.0</ele><time>2026-05-02T13:35:46Z</time></trkpt><trkpt lat="44.53038037412229" lon="7.969895485612971"><ele>325.0</ele><time>2026-05-02T13:35:47Z</time></trkpt><trkpt lat="44.530251149033305" lon="7.970178869067993"><ele>325.0</ele><time>2026-05-02T13:35:48Z</time></trkpt><trkpt lat="44.530121827724805" lon="7.970460701816219"><ele>325.0</ele><time>2026-05-02T13:35:49Z</time></trkpt><trkpt lat="44.52999268278717" lon="7.970739392111021"><ele>330.5</ele><time>2026-05-02T13:35:50Z</time></trkpt><trkpt lat="44.529860271012886" lon="7.971024282354663"><ele>336.0</ele><time>2026-05-02T13:35:51Z</time></trkpt><trkpt lat="44.52973561245554" lon="7.9713015841092565"><ele>336.0</ele><time>2026-05-02T13:35:52Z</time></trkpt><trkpt lat="44.52961233456423" lon="7.97159166621293"><ele>336.0</ele><time>2026-05-02T13:35:53Z</time></trkpt><trkpt lat="44.529489691013104" lon="7.971881751332629"><ele>335.0</ele><time>2026-05-02T13:35:54Z</time></trkpt><trkpt lat="44.52935120033749" lon="7.972154986065906"><ele>334.0</ele><time>2026-05-02T13:35:55Z</time></trkpt><trkpt lat="44.529226630031104" lon="7.972435339566757"><ele>342.0</ele><time>2026-05-02T13:35:56Z</time></trkpt><trkpt lat="44.52909999665279" lon="7.972720336158894"><ele>350.0</ele><time>2026-05-02T13:35:57Z</time></trkpt><trkpt lat="44.528972788256745" lon="7.97300662684325"><ele>350.0</ele><time>2026-05-02T13:35:58Z</time></trkpt><trkpt lat="44.52884440883781" lon="7.973293202098574"><ele>350.0</ele><time>2026-05-02T13:35:59Z</time></trkpt><trkpt lat="44.528716506313685" lon="7.973577386967736"><ele>344.5</ele><time>2026-05-02T13:36:00Z</time></trkpt><trkpt lat="44.52858896586166" lon="7.973860635759063"><ele>339.0</ele><time>2026-05-02T13:36:01Z</time></trkpt><trkpt lat="44.52846356087605" lon="7.974136795212033"><ele>346.0</ele><time>2026-05-02T13:36:02Z</time></trkpt><trkpt lat="44.52833978564221" lon="7.974409364531695"><ele>353.0</ele><time>2026-05-02T13:36:03Z</time></trkpt><trkpt lat="44.52823270611811" lon="7.974682890408025"><ele>353.0</ele><time>2026-05-02T13:36:04Z</time></trkpt><trkpt lat="44.52812122910029" lon="7.9749118646876545"><ele>353.0</ele><time>2026-05-02T13:36:05Z</time></trkpt><trkpt lat="44.52801346149117" lon="7.975108299488841"><ele>353.0</ele><time>2026-05-02T13:36:06Z</time></trkpt><trkpt lat="44.52787487380957" lon="7.9752574397085025"><ele>350.33333333333337</ele><time>2026-05-02T13:36:07Z</time></trkpt><trkpt lat="44.52772025638535" lon="7.975435026087911"><ele>347.6666666666667</ele><time>2026-05-02T13:36:08Z</time></trkpt><trkpt lat="44.52756428037347" lon="7.975640879926995"><ele>345.0</ele><time>2026-05-02T13:36:09Z</time></trkpt><trkpt lat="44.52739236779061" lon="7.975837346239989"><ele>343.0</ele><time>2026-05-02T13:36:10Z</time></trkpt><trkpt lat="44.52722040036793" lon="7.976034797815274"><ele>341.0</ele><time>2026-05-02T13:36:11Z</time></trkpt><trkpt lat="44.527057709911084" lon="7.976215797722808"><ele>339.0</ele><time>2026-05-02T13:36:12Z</time></trkpt><trkpt lat="44.5269327227014" lon="7.976367098432622"><ele>339.0</ele><time>2026-05-02T13:36:13Z</time></trkpt><trkpt lat="44.52682743977133" lon="7.976484523595031"><ele>339.0</ele><time>2026-05-02T13:36:14Z</time></trkpt><trkpt lat="44.526736242101144" lon="7.976592275136206"><ele>339.0</ele><time>2026-05-02T13:36:15Z</time></trkpt><trkpt lat="44.52663393204595" lon="7.976724400122244"><ele>339.0</ele><time>2026-05-02T13:36:16Z</time></trkpt><trkpt lat="44.526471654564716" lon="7.9769082919980345"><ele>339.3333333333333</ele><time>2026-05-02T13:36:17Z</time></trkpt><trkpt lat="44.52630365761053" lon="7.977072619941805"><ele>339.66666666666663</ele><time>2026-05-02T13:36:18Z</time></trkpt><trkpt lat="44.52614368587905" lon="7.9772297258375"><ele>340.0</ele><time>2026-05-02T13:36:19Z</time></trkpt><trkpt lat="44.526009865073014" lon="7.977373324619009"><ele>340.0</ele><time>2026-05-02T13:36:20Z</time></trkpt><trkpt lat="44.52588390335251" lon="7.977512767388898"><ele>340.0</ele><time>2026-05-02T13:36:21Z</time></trkpt><trkpt lat="44.52576320379013" lon="7.977633368874318"><ele>340.0</ele><time>2026-05-02T13:36:22Z</time></trkpt><trkpt lat="44.52565569446777" lon="7.977773526269349"><ele>344.3333333333333</ele><time>2026-05-02T13:36:23Z</time></trkpt><trkpt lat="44.525577513112815" lon="7.977957907250701"><ele>348.6666666666667</ele><time>2026-05-02T13:36:24Z</time></trkpt><trkpt lat="44.525531032977945" lon="7.978169866513654"><ele>353.0</ele><time>2026-05-02T13:36:25Z</time></trkpt><trkpt lat="44.52552268294609" lon="7.978415101571419"><ele>354.6666666666667</ele><time>2026-05-02T13:36:26Z</time></trkpt><trkpt lat="44.52554843900763" lon="7.978669557027327"><ele>356.3333333333333</ele><time>2026-05-02T13:36:27Z</time></trkpt><trkpt lat="44.52558886226963" lon="7.9789283762872065"><ele>358.0</ele><time>2026-05-02T13:36:28Z</time></trkpt><trkpt lat="44.52561289995031" lon="7.979163570784669"><ele>358.5</ele><time>2026-05-02T13:36:29Z</time></trkpt><trkpt lat="44.52562947034935" lon="7.979372484369607"><ele>359.0</ele><time>2026-05-02T13:36:30Z</time></trkpt><trkpt lat="44.525647925052695" lon="7.979563547276993"><ele>359.5</ele><time>2026-05-02T13:36:31Z</time></trkpt><trkpt lat="44.52565446779779" lon="7.979733202347961"><ele>360.0</ele><time>2026-05-02T13:36:32Z</time></trkpt><trkpt lat="44.52561986435167" lon="7.979882977457334"><ele>360.0</ele><time>2026-05-02T13:36:33Z</time></trkpt><trkpt lat="44.525552469866724" lon="7.979976324662691"><ele>360.0</ele><time>2026-05-02T13:36:34Z</time></trkpt><trkpt lat="44.52546210449788" lon="7.9800201147313885"><ele>360.0</ele><time>2026-05-02T13:36:35Z</time></trkpt><trkpt lat="44.525363526511605" lon="7.980019681520482"><ele>360.0</ele><time>2026-05-02T13:36:36Z</time></trkpt><trkpt lat="44.525253683431096" lon="7.979965652365557"><ele>360.0</ele><time>2026-05-02T13:36:37Z</time></trkpt><trkpt lat="44.52513355382207" lon="7.979841559166232"><ele>355.6666666666667</ele><time>2026-05-02T13:36:38Z</time></trkpt><trkpt lat="44.52499805349132" lon="7.979708759748237"><ele>351.33333333333337</ele><time>2026-05-02T13:36:39Z</time></trkpt><trkpt lat="44.52484116946572" lon="7.979576940175972"><ele>347.0</ele><time>2026-05-02T13:36:40Z</time></trkpt><trkpt lat="44.52468727813822" lon="7.9794423055812524"><ele>353.25</ele><time>2026-05-02T13:36:41Z</time></trkpt><trkpt lat="44.52455946430724" lon="7.979326143065564"><ele>359.5</ele><time>2026-05-02T13:36:42Z</time></trkpt><trkpt lat="44.52444810073436" lon="7.979248582834984"><ele>365.75</ele><time>2026-05-02T13:36:43Z</time></trkpt><trkpt lat="44.524337960915446" lon="7.979234529903813"><ele>372.0</ele><time>2026-05-02T13:36:44Z</time></trkpt><trkpt lat="44.52420917285052" lon="7.979274467264785"><ele>372.0</ele><time>2026-05-02T13:36:45Z</time></trkpt><trkpt lat="44.5240520572567" lon="7.979390332170195"><ele>372.0</ele><time>2026-05-02T13:36:46Z</time></trkpt><trkpt lat="44.52388147206159" lon="7.979530841040227"><ele>372.0</ele><time>2026-05-02T13:36:47Z</time></trkpt><trkpt lat="44.52367907543639" lon="7.9796638480998325"><ele>366.6666666666667</ele><time>2026-05-02T13:36:48Z</time></trkpt><trkpt lat="44.52347886857071" lon="7.979778056587287"><ele>361.33333333333337</ele><time>2026-05-02T13:36:49Z</time></trkpt><trkpt lat="44.52331812506986" lon="7.979877269688804"><ele>356.0</ele><time>2026-05-02T13:36:50Z</time></trkpt><trkpt lat="44.523194157096896" lon="7.979992975340202"><ele>356.0</ele><time>2026-05-02T13:36:51Z</time></trkpt><trkpt lat="44.52308089906703" lon="7.98014011355968"><ele>356.0</ele><time>2026-05-02T13:36:52Z</time></trkpt><trkpt lat="44.52297431377246" lon="7.9803882196224825"><ele>356.0</ele><time>2026-05-02T13:36:53Z</time></trkpt><trkpt lat="44.52286119897652" lon="7.980623553526794"><ele>356.0</ele><time>2026-05-02T13:36:54Z</time></trkpt><trkpt lat="44.52274512206996" lon="7.980807589588122"><ele>356.0</ele><time>2026-05-02T13:36:55Z</time></trkpt><trkpt lat="44.52260663822248" lon="7.980938447691714"><ele>356.0</ele><time>2026-05-02T13:36:56Z</time></trkpt><trkpt lat="44.52246009305732" lon="7.981025282822808"><ele>365.0</ele><time>2026-05-02T13:36:57Z</time></trkpt><trkpt lat="44.52230849582105" lon="7.981056655107479"><ele>374.0</ele><time>2026-05-02T13:36:58Z</time></trkpt><trkpt lat="44.52214725141235" lon="7.981025942003859"><ele>383.0</ele><time>2026-05-02T13:36:59Z</time></trkpt><trkpt lat="44.521971192483925" lon="7.980941881540537"><ele>375.0</ele><time>2026-05-02T13:37:00Z</time></trkpt><trkpt lat="44.52179180375246" lon="7.980835363944118"><ele>367.0</ele><time>2026-05-02T13:37:01Z</time></trkpt><trkpt lat="44.52163344791991" lon="7.980741323474315"><ele>359.0</ele><time>2026-05-02T13:37:02Z</time></trkpt><trkpt lat="44.52150356286707" lon="7.9806841002186415"><ele>359.0</ele><time>2026-05-02T13:37:03Z</time></trkpt><trkpt lat="44.52136774462985" lon="7.980682371576151"><ele>359.0</ele><time>2026-05-02T13:37:04Z</time></trkpt><trkpt lat="44.52120740529613" lon="7.980737203814109"><ele>359.0</ele><time>2026-05-02T13:37:05Z</time></trkpt><trkpt lat="44.52103956760508" lon="7.980832412205706"><ele>364.0</ele><time>2026-05-02T13:37:06Z</time></trkpt><trkpt lat="44.52086962233153" lon="7.980920046793736"><ele>369.0</ele><time>2026-05-02T13:37:07Z</time></trkpt><trkpt lat="44.52073234013893" lon="7.981022140688424"><ele>374.0</ele><time>2026-05-02T13:37:08Z</time></trkpt><trkpt lat="44.520618933267954" lon="7.981189739299576"><ele>374.0</ele><time>2026-05-02T13:37:09Z</time></trkpt><trkpt lat="44.52050913572479" lon="7.981412660659446"><ele>374.0</ele><time>2026-05-02T13:37:10Z</time></trkpt><trkpt lat="44.52040851744512" lon="7.9816558776749815"><ele>374.0</ele><time>2026-05-02T13:37:11Z</time></trkpt><trkpt lat="44.52030786372776" lon="7.9819110015665045"><ele>371.0</ele><time>2026-05-02T13:37:12Z</time></trkpt><trkpt lat="44.52020586209473" lon="7.9821672779440105"><ele>368.0</ele><time>2026-05-02T13:37:13Z</time></trkpt><trkpt lat="44.52010274090723" lon="7.982399328439939"><ele>365.0</ele><time>2026-05-02T13:37:14Z</time></trkpt><trkpt lat="44.51998541599596" lon="7.982604570158094"><ele>372.33333333333337</ele><time>2026-05-02T13:37:15Z</time></trkpt><trkpt lat="44.519860006780625" lon="7.982815113613085"><ele>379.6666666666667</ele><time>2026-05-02T13:37:16Z</time></trkpt><trkpt lat="44.51974293947318" lon="7.983035956530102"><ele>387.0</ele><time>2026-05-02T13:37:17Z</time></trkpt><trkpt lat="44.51962879712462" lon="7.98329350431276"><ele>385.0</ele><time>2026-05-02T13:37:18Z</time></trkpt><trkpt lat="44.519500371054725" lon="7.983534775941216"><ele>383.0</ele><time>2026-05-02T13:37:19Z</time></trkpt><trkpt lat="44.51936889459427" lon="7.983772084421315"><ele>381.0</ele><time>2026-05-02T13:37:20Z</time></trkpt><trkpt lat="44.51924510147816" lon="7.984035077987191"><ele>390.66666666666663</ele><time>2026-05-02T13:37:21Z</time></trkpt><trkpt lat="44.519109706104985" lon="7.984284605948448"><ele>400.3333333333333</ele><time>2026-05-02T13:37:22Z</time></trkpt><trkpt lat="44.518968941231336" lon="7.984526343546884"><ele>410.0</ele><time>2026-05-02T13:37:23Z</time></trkpt><trkpt lat="44.51883793689054" lon="7.984760220664556"><ele>409.0</ele><time>2026-05-02T13:37:24Z</time></trkpt><trkpt lat="44.51872350312646" lon="7.9849484823849535"><ele>408.0</ele><time>2026-05-02T13:37:25Z</time></trkpt><trkpt lat="44.518607051646484" lon="7.985093106972456"><ele>407.0</ele><time>2026-05-02T13:37:26Z</time></trkpt><trkpt lat="44.51847838393814" lon="7.985197719404819"><ele>407.0</ele><time>2026-05-02T13:37:27Z</time></trkpt><trkpt lat="44.518344929087995" lon="7.985263259831127"><ele>407.0</ele><time>2026-05-02T13:37:28Z</time></trkpt><trkpt lat="44.51819073540696" lon="7.985358659497163"><ele>407.0</ele><time>2026-05-02T13:37:29Z</time></trkpt><trkpt lat="44.51804286018656" lon="7.985504445016311"><ele>407.0</ele><time>2026-05-02T13:37:30Z</time></trkpt><trkpt lat="44.5179276647939" lon="7.985662202501785"><ele>407.0</ele><time>2026-05-02T13:37:31Z</time></trkpt><trkpt lat="44.51784001015011" lon="7.985824845313244"><ele>407.0</ele><time>2026-05-02T13:37:32Z</time></trkpt><trkpt lat="44.5177848259714" lon="7.9860279094192315"><ele>405.0</ele><time>2026-05-02T13:37:33Z</time></trkpt><trkpt lat="44.51774871313858" lon="7.986240671634211"><ele>403.0</ele><time>2026-05-02T13:37:34Z</time></trkpt><trkpt lat="44.51768642929143" lon="7.986386621628839"><ele>401.0</ele><time>2026-05-02T13:37:35Z</time></trkpt><trkpt lat="44.517597637815115" lon="7.98648796701317"><ele>399.0</ele><time>2026-05-02T13:37:36Z</time></trkpt><trkpt lat="44.51749522678388" lon="7.986564732052755"><ele>399.0</ele><time>2026-05-02T13:37:37Z</time></trkpt><trkpt lat="44.517379592144145" lon="7.9866386972811165"><ele>399.0</ele><time>2026-05-02T13:37:38Z</time></trkpt><trkpt lat="44.51725830233186" lon="7.986740387175153"><ele>399.0</ele><time>2026-05-02T13:37:39Z</time></trkpt><trkpt lat="44.517123308057045" lon="7.986883077044178"><ele>399.0</ele><time>2026-05-02T13:37:40Z</time></trkpt><trkpt lat="44.51695694603605" lon="7.987037906986353"><ele>398.0</ele><time>2026-05-02T13:37:41Z</time></trkpt><trkpt lat="44.51677183804761" lon="7.987212480377195"><ele>397.0</ele><time>2026-05-02T13:37:42Z</time></trkpt><trkpt lat="44.51656996679354" lon="7.987411151654765"><ele>396.0</ele><time>2026-05-02T13:37:43Z</time></trkpt><trkpt lat="44.51635866226332" lon="7.987627276913622"><ele>395.0</ele><time>2026-05-02T13:37:44Z</time></trkpt><trkpt lat="44.51616299106409" lon="7.98782444991978"><ele>395.0</ele><time>2026-05-02T13:37:45Z</time></trkpt><trkpt lat="44.515985621542356" lon="7.988002754449411"><ele>395.0</ele><time>2026-05-02T13:37:46Z</time></trkpt><trkpt lat="44.515827210458184" lon="7.988162408891313"><ele>395.0</ele><time>2026-05-02T13:37:47Z</time></trkpt><trkpt lat="44.51568165428454" lon="7.988320488358217"><ele>392.0</ele><time>2026-05-02T13:37:48Z</time></trkpt><trkpt lat="44.51554787142683" lon="7.988510509237993"><ele>389.0</ele><time>2026-05-02T13:37:49Z</time></trkpt><trkpt lat="44.51542401383545" lon="7.988772363342773"><ele>386.0</ele><time>2026-05-02T13:37:50Z</time></trkpt><trkpt lat="44.51529193414132" lon="7.989060375491681"><ele>394.0</ele><time>2026-05-02T13:37:51Z</time></trkpt><trkpt lat="44.51514016537016" lon="7.989343093046623"><ele>402.0</ele><time>2026-05-02T13:37:52Z</time></trkpt><trkpt lat="44.51499060744121" lon="7.989623171101085"><ele>402.0</ele><time>2026-05-02T13:37:53Z</time></trkpt><trkpt lat="44.51485308495029" lon="7.989877410133953"><ele>402.0</ele><time>2026-05-02T13:37:54Z</time></trkpt><trkpt lat="44.514734064846245" lon="7.9900979235005645"><ele>402.0</ele><time>2026-05-02T13:37:55Z</time></trkpt><trkpt lat="44.51463520593491" lon="7.990284711322332"><ele>402.0</ele><time>2026-05-02T13:37:56Z</time></trkpt><trkpt lat="44.514550895370974" lon="7.990433646674991"><ele>402.0</ele><time>2026-05-02T13:37:57Z</time></trkpt><trkpt lat="44.51445066943333" lon="7.990562215699083"><ele>402.0</ele><time>2026-05-02T13:37:58Z</time></trkpt><trkpt lat="44.51430896177505" lon="7.990651683977019"><ele>402.0</ele><time>2026-05-02T13:37:59Z</time></trkpt><trkpt lat="44.51414571776536" lon="7.990684037363382"><ele>402.0</ele><time>2026-05-02T13:38:00Z</time></trkpt><trkpt lat="44.51397924397484" lon="7.990731130085587"><ele>402.0</ele><time>2026-05-02T13:38:01Z</time></trkpt><trkpt lat="44.51381752464566" lon="7.990880844614548"><ele>402.0</ele><time>2026-05-02T13:38:02Z</time></trkpt><trkpt lat="44.51368425893066" lon="7.991060189842343"><ele>400.0</ele><time>2026-05-02T13:38:03Z</time></trkpt><trkpt lat="44.51358018480039" lon="7.9912143469985715"><ele>398.0</ele><time>2026-05-02T13:38:04Z</time></trkpt><trkpt lat="44.5134885791995" lon="7.991364014482178"><ele>396.0</ele><time>2026-05-02T13:38:05Z</time></trkpt><trkpt lat="44.5134279422541" lon="7.991527491252879"><ele>394.0</ele><time>2026-05-02T13:38:06Z</time></trkpt><trkpt lat="44.513390836016676" lon="7.99173912450126"><ele>394.0</ele><time>2026-05-02T13:38:07Z</time></trkpt><trkpt lat="44.513398463898966" lon="7.991980183872746"><ele>394.0</ele><time>2026-05-02T13:38:08Z</time></trkpt><trkpt lat="44.51343386458043" lon="7.992225992886084"><ele>394.0</ele><time>2026-05-02T13:38:09Z</time></trkpt><trkpt lat="44.51344805777029" lon="7.99245314726766"><ele>396.33333333333337</ele><time>2026-05-02T13:38:10Z</time></trkpt><trkpt lat="44.513417961339876" lon="7.992665204507493"><ele>398.66666666666663</ele><time>2026-05-02T13:38:11Z</time></trkpt><trkpt lat="44.51334375794833" lon="7.992890424733098"><ele>401.0</ele><time>2026-05-02T13:38:12Z</time></trkpt><trkpt lat="44.513229098818734" lon="7.993108464621671"><ele>401.0</ele><time>2026-05-02T13:38:13Z</time></trkpt><trkpt lat="44.513113013990015" lon="7.993315901084555"><ele>401.0</ele><time>2026-05-02T13:38:14Z</time></trkpt><trkpt lat="44.51303284384171" lon="7.99354293785071"><ele>401.0</ele><time>2026-05-02T13:38:15Z</time></trkpt><trkpt lat="44.51297983038419" lon="7.993820174684753"><ele>403.66666666666663</ele><time>2026-05-02T13:38:16Z</time></trkpt><trkpt lat="44.512929461610554" lon="7.994115708096225"><ele>406.33333333333337</ele><time>2026-05-02T13:38:17Z</time></trkpt><trkpt lat="44.51287533767326" lon="7.994418710047946"><ele>409.0</ele><time>2026-05-02T13:38:18Z</time></trkpt><trkpt lat="44.51282583389996" lon="7.994677939203078"><ele>402.0</ele><time>2026-05-02T13:38:19Z</time></trkpt><trkpt lat="44.51279724773629" lon="7.9949014472466065"><ele>395.0</ele><time>2026-05-02T13:38:20Z</time></trkpt><trkpt lat="44.5128071471577" lon="7.99512791260811"><ele>388.0</ele><time>2026-05-02T13:38:21Z</time></trkpt><trkpt lat="44.512861206858105" lon="7.99538393983093"><ele>394.6666666666667</ele><time>2026-05-02T13:38:22Z</time></trkpt><trkpt lat="44.51294139600571" lon="7.995663351001073"><ele>401.33333333333337</ele><time>2026-05-02T13:38:23Z</time></trkpt><trkpt lat="44.513019838801355" lon="7.99597022378152"><ele>408.0</ele><time>2026-05-02T13:38:24Z</time></trkpt><trkpt lat="44.513096876381724" lon="7.996293864876699"><ele>408.0</ele><time>2026-05-02T13:38:25Z</time></trkpt><trkpt lat="44.51315527978459" lon="7.996616202654542"><ele>408.0</ele><time>2026-05-02T13:38:26Z</time></trkpt><trkpt lat="44.51318465391228" lon="7.99691080441359"><ele>408.0</ele><time>2026-05-02T13:38:27Z</time></trkpt><trkpt lat="44.513182840026836" lon="7.997213279480608"><ele>407.5</ele><time>2026-05-02T13:38:28Z</time></trkpt><trkpt lat="44.51316203335816" lon="7.997533810193696"><ele>407.0</ele><time>2026-05-02T13:38:29Z</time></trkpt><trkpt lat="44.51314282376326" lon="7.997853060485776"><ele>407.0</ele><time>2026-05-02T13:38:30Z</time></trkpt><trkpt lat="44.5131264921935" lon="7.998154626208901"><ele>407.0</ele><time>2026-05-02T13:38:31Z</time></trkpt><trkpt lat="44.51311200045457" lon="7.998431666802144"><ele>407.0</ele><time>2026-05-02T13:38:32Z</time></trkpt><trkpt lat="44.51309558664342" lon="7.998673956316268"><ele>409.66666666666663</ele><time>2026-05-02T13:38:33Z</time></trkpt><trkpt lat="44.51308616703774" lon="7.9988897385126485"><ele>412.33333333333337</ele><time>2026-05-02T13:38:34Z</time></trkpt><trkpt lat="44.51309673155244" lon="7.999092429154818"><ele>415.0</ele><time>2026-05-02T13:38:35Z</time></trkpt><trkpt lat="44.51315269485829" lon="7.9993073218421875"><ele>416.5</ele><time>2026-05-02T13:38:36Z</time></trkpt><trkpt lat="44.51323577946812" lon="7.999509820203276"><ele>418.0</ele><time>2026-05-02T13:38:37Z</time></trkpt><trkpt lat="44.51328801120049" lon="7.999697329586163"><ele>419.5</ele><time>2026-05-02T13:38:38Z</time></trkpt><trkpt lat="44.513302543899805" lon="7.999888462487614"><ele>421.0</ele><time>2026-05-02T13:38:39Z</time></trkpt><trkpt lat="44.51326551972954" lon="8.000101049839206"><ele>421.0</ele><time>2026-05-02T13:38:40Z</time></trkpt><trkpt lat="44.51319954561255" lon="8.000354000883076"><ele>421.0</ele><time>2026-05-02T13:38:41Z</time></trkpt><trkpt lat="44.513111517871444" lon="8.000618495153928"><ele>421.0</ele><time>2026-05-02T13:38:42Z</time></trkpt><trkpt lat="44.51304332213691" lon="8.000870063624687"><ele>423.33333333333337</ele><time>2026-05-02T13:38:43Z</time></trkpt><trkpt lat="44.51297521794438" lon="8.001086925688622"><ele>425.66666666666663</ele><time>2026-05-02T13:38:44Z</time></trkpt><trkpt lat="44.512933955304845" lon="8.001333195024086"><ele>428.0</ele><time>2026-05-02T13:38:45Z</time></trkpt><trkpt lat="44.51292385441234" lon="8.001611375414697"><ele>429.3333333333333</ele><time>2026-05-02T13:38:46Z</time></trkpt><trkpt lat="44.5129338061181" lon="8.001869508247237"><ele>430.66666666666663</ele><time>2026-05-02T13:38:47Z</time></trkpt><trkpt lat="44.51291696842969" lon="8.00207436029351"><ele>432.0</ele><time>2026-05-02T13:38:48Z</time></trkpt><trkpt lat="44.51284276267751" lon="8.00228982091011"><ele>423.33333333333337</ele><time>2026-05-02T13:38:49Z</time></trkpt><trkpt lat="44.51276084611964" lon="8.002519837336468"><ele>414.6666666666667</ele><time>2026-05-02T13:38:50Z</time></trkpt><trkpt lat="44.5126900394601" lon="8.002713879975301"><ele>406.0</ele><time>2026-05-02T13:38:51Z</time></trkpt><trkpt lat="44.51259305487994" lon="8.002873443108724"><ele>406.0</ele><time>2026-05-02T13:38:52Z</time></trkpt><trkpt lat="44.51246036766003" lon="8.003006284251482"><ele>406.0</ele><time>2026-05-02T13:38:53Z</time></trkpt><trkpt lat="44.51233858533288" lon="8.003127128120518"><ele>406.0</ele><time>2026-05-02T13:38:54Z</time></trkpt><trkpt lat="44.512266180473965" lon="8.003300779729553"><ele>410.0</ele><time>2026-05-02T13:38:55Z</time></trkpt><trkpt lat="44.512230202755035" lon="8.003534988800713"><ele>414.0</ele><time>2026-05-02T13:38:56Z</time></trkpt><trkpt lat="44.51223090473612" lon="8.003806464181833"><ele>418.0</ele><time>2026-05-02T13:38:57Z</time></trkpt><trkpt lat="44.51221983519681" lon="8.00409179810739"><ele>418.33333333333337</ele><time>2026-05-02T13:38:58Z</time></trkpt><trkpt lat="44.51216301182319" lon="8.004377990991983"><ele>418.66666666666663</ele><time>2026-05-02T13:38:59Z</time></trkpt><trkpt lat="44.5120781127722" lon="8.004650725304051"><ele>419.0</ele><time>2026-05-02T13:39:00Z</time></trkpt><trkpt lat="44.51199401166453" lon="8.004941898155097"><ele>418.3333333333333</ele><time>2026-05-02T13:39:01Z</time></trkpt><trkpt lat="44.51192680261678" lon="8.005245532621403"><ele>417.66666666666663</ele><time>2026-05-02T13:39:02Z</time></trkpt><trkpt lat="44.51188479306022" lon="8.005540385835102"><ele>417.0</ele><time>2026-05-02T13:39:03Z</time></trkpt><trkpt lat="44.51183353850576" lon="8.00580605611197"><ele>418.0</ele><time>2026-05-02T13:39:04Z</time></trkpt><trkpt lat="44.51175422854301" lon="8.006058740642427"><ele>419.0</ele><time>2026-05-02T13:39:05Z</time></trkpt><trkpt lat="44.511651976550176" lon="8.006323388289099"><ele>420.0</ele><time>2026-05-02T13:39:06Z</time></trkpt><trkpt lat="44.5115495362058" lon="8.006618473982918"><ele>425.5</ele><time>2026-05-02T13:39:07Z</time></trkpt><trkpt lat="44.5114647247715" lon="8.006935709119954"><ele>431.0</ele><time>2026-05-02T13:39:08Z</time></trkpt><trkpt lat="44.51140101001398" lon="8.007257640073403"><ele>431.3333333333333</ele><time>2026-05-02T13:39:09Z</time></trkpt><trkpt lat="44.51134298738487" lon="8.00754821615131"><ele>431.66666666666663</ele><time>2026-05-02T13:39:10Z</time></trkpt><trkpt lat="44.51128532932245" lon="8.007820062367172"><ele>432.0</ele><time>2026-05-02T13:39:11Z</time></trkpt><trkpt lat="44.5112301359042" lon="8.008070467121696"><ele>428.0</ele><time>2026-05-02T13:39:12Z</time></trkpt><trkpt lat="44.51117344985771" lon="8.008309305226906"><ele>424.0</ele><time>2026-05-02T13:39:13Z</time></trkpt><trkpt lat="44.51108884378208" lon="8.00853819797488"><ele>420.0</ele><time>2026-05-02T13:39:14Z</time></trkpt><trkpt lat="44.510941684422434" lon="8.008753682841483"><ele>420.0</ele><time>2026-05-02T13:39:15Z</time></trkpt><trkpt lat="44.510752366181" lon="8.008943027356075"><ele>420.0</ele><time>2026-05-02T13:39:16Z</time></trkpt><trkpt lat="44.510541097759" lon="8.009105143105577"><ele>420.33333333333337</ele><time>2026-05-02T13:39:17Z</time></trkpt><trkpt lat="44.510332638202556" lon="8.009277411944131"><ele>420.6666666666667</ele><time>2026-05-02T13:39:18Z</time></trkpt><trkpt lat="44.51015225692448" lon="8.009412087215567"><ele>421.0</ele><time>2026-05-02T13:39:19Z</time></trkpt><trkpt lat="44.51000855698157" lon="8.009529233801416"><ele>421.0</ele><time>2026-05-02T13:39:20Z</time></trkpt><trkpt lat="44.50988673487977" lon="8.009691386580192"><ele>421.0</ele><time>2026-05-02T13:39:21Z</time></trkpt><trkpt lat="44.50976035606748" lon="8.009966325622853"><ele>421.0</ele><time>2026-05-02T13:39:22Z</time></trkpt><trkpt lat="44.50963478974585" lon="8.010249603152884"><ele>422.5</ele><time>2026-05-02T13:39:23Z</time></trkpt><trkpt lat="44.50948309880191" lon="8.01052129426247"><ele>424.0</ele><time>2026-05-02T13:39:24Z</time></trkpt><trkpt lat="44.50931586659523" lon="8.010787584201344"><ele>432.5</ele><time>2026-05-02T13:39:25Z</time></trkpt><trkpt lat="44.509153145669416" lon="8.011031764556334"><ele>441.0</ele><time>2026-05-02T13:39:26Z</time></trkpt><trkpt lat="44.5090033711022" lon="8.011241819384248"><ele>441.0</ele><time>2026-05-02T13:39:27Z</time></trkpt><trkpt lat="44.5088325936157" lon="8.011432541806384"><ele>441.0</ele><time>2026-05-02T13:39:28Z</time></trkpt><trkpt lat="44.50863914466529" lon="8.011599323776903"><ele>441.0</ele><time>2026-05-02T13:39:29Z</time></trkpt><trkpt lat="44.50843761045522" lon="8.011743089346787"><ele>443.33333333333337</ele><time>2026-05-02T13:39:30Z</time></trkpt><trkpt lat="44.50825782146663" lon="8.011850845266501"><ele>445.6666666666667</ele><time>2026-05-02T13:39:31Z</time></trkpt><trkpt lat="44.50810007597519" lon="8.011966937434746"><ele>448.0</ele><time>2026-05-02T13:39:32Z</time></trkpt><trkpt lat="44.50796408890316" lon="8.012136532610297"><ele>452.6666666666667</ele><time>2026-05-02T13:39:33Z</time></trkpt><trkpt lat="44.50787271255165" lon="8.012342541834638"><ele>457.33333333333337</ele><time>2026-05-02T13:39:34Z</time></trkpt><trkpt lat="44.507779212317885" lon="8.012498740462398"><ele>462.0</ele><time>2026-05-02T13:39:35Z</time></trkpt><trkpt lat="44.507644417650816" lon="8.012573794361895"><ele>462.0</ele><time>2026-05-02T13:39:36Z</time></trkpt><trkpt lat="44.50746472878324" lon="8.012650356103991"><ele>462.0</ele><time>2026-05-02T13:39:37Z</time></trkpt><trkpt lat="44.50726785347035" lon="8.012709075368727"><ele>462.0</ele><time>2026-05-02T13:39:38Z</time></trkpt><trkpt lat="44.50708028704859" lon="8.012831272912772"><ele>456.0</ele><time>2026-05-02T13:39:39Z</time></trkpt><trkpt lat="44.50689745489422" lon="8.01298772378549"><ele>450.0</ele><time>2026-05-02T13:39:40Z</time></trkpt><trkpt lat="44.50670352915438" lon="8.013148233531487"><ele>444.0</ele><time>2026-05-02T13:39:41Z</time></trkpt><trkpt lat="44.50652478830961" lon="8.013267284262035"><ele>450.0</ele><time>2026-05-02T13:39:42Z</time></trkpt><trkpt lat="44.50635501101784" lon="8.013336255797794"><ele>456.0</ele><time>2026-05-02T13:39:43Z</time></trkpt><trkpt lat="44.50616803426142" lon="8.013383539751304"><ele>462.0</ele><time>2026-05-02T13:39:44Z</time></trkpt><trkpt lat="44.50598379356667" lon="8.013432615853858"><ele>462.0</ele><time>2026-05-02T13:39:45Z</time></trkpt><trkpt lat="44.50583228012498" lon="8.013525528964951"><ele>462.0</ele><time>2026-05-02T13:39:46Z</time></trkpt><trkpt lat="44.5056937701097" lon="8.013654818162983"><ele>462.0</ele><time>2026-05-02T13:39:47Z</time></trkpt><trkpt lat="44.50558004164498" lon="8.013878567411266"><ele>462.0</ele><time>2026-05-02T13:39:48Z</time></trkpt><trkpt lat="44.505446026010105" lon="8.014125868292039"><ele>462.0</ele><time>2026-05-02T13:39:49Z</time></trkpt><trkpt lat="44.505292685899825" lon="8.014331064098617"><ele>462.0</ele><time>2026-05-02T13:39:50Z</time></trkpt><trkpt lat="44.5051238679771" lon="8.01452758904334"><ele>463.66666666666663</ele><time>2026-05-02T13:39:51Z</time></trkpt><trkpt lat="44.504950505587566" lon="8.014697922007887"><ele>465.3333333333333</ele><time>2026-05-02T13:39:52Z</time></trkpt><trkpt lat="44.504801610147574" lon="8.014846107287951"><ele>467.0</ele><time>2026-05-02T13:39:53Z</time></trkpt><trkpt lat="44.504681932835155" lon="8.014979453144013"><ele>468.5</ele><time>2026-05-02T13:39:54Z</time></trkpt><trkpt lat="44.50458504871555" lon="8.015123900219969"><ele>470.0</ele><time>2026-05-02T13:39:55Z</time></trkpt><trkpt lat="44.504530897586754" lon="8.015293297161136"><ele>471.5</ele><time>2026-05-02T13:39:56Z</time></trkpt><trkpt lat="44.50451705855519" lon="8.015494765860453"><ele>473.0</ele><time>2026-05-02T13:39:57Z</time></trkpt><trkpt lat="44.50454198163638" lon="8.015697646796127"><ele>476.79999999999995</ele><time>2026-05-02T13:39:58Z</time></trkpt><trkpt lat="44.504565703357514" lon="8.015858084778236"><ele>480.59999999999997</ele><time>2026-05-02T13:39:59Z</time></trkpt><trkpt lat="44.5045607724759" lon="8.015970329554154"><ele>484.40000000000003</ele><time>2026-05-02T13:40:00Z</time></trkpt><trkpt lat="44.50451066226061" lon="8.016055545240377"><ele>488.20000000000005</ele><time>2026-05-02T13:40:01Z</time></trkpt><trkpt lat="44.50441885404307" lon="8.016087702266253"><ele>492.0</ele><time>2026-05-02T13:40:02Z</time></trkpt><trkpt lat="44.50429776330629" lon="8.016045318991978"><ele>492.0</ele><time>2026-05-02T13:40:03Z</time></trkpt><trkpt lat="44.504189824268586" lon="8.01596360532562"><ele>492.0</ele><time>2026-05-02T13:40:04Z</time></trkpt><trkpt lat="44.504083378814244" lon="8.015813331611511"><ele>492.0</ele><time>2026-05-02T13:40:05Z</time></trkpt><trkpt lat="44.503993423311705" lon="8.015725805761686"><ele>492.0</ele><time>2026-05-02T13:40:06Z</time></trkpt><trkpt lat="44.503929649932466" lon="8.015691438407114"><ele>492.0</ele><time>2026-05-02T13:40:07Z</time></trkpt><trkpt lat="44.503812427339255" lon="8.015758034794262"><ele>492.00000000000006</ele><time>2026-05-02T13:40:09Z</time></trkpt><trkpt lat="44.503781031792116" lon="8.015884844326777"><ele>492.00000000000006</ele><time>2026-05-02T13:40:10Z</time></trkpt><trkpt lat="44.50375961509529" lon="8.016030185049656"><ele>492.0</ele><time>2026-05-02T13:40:11Z</time></trkpt><trkpt lat="44.503727348025784" lon="8.016190840718354"><ele>492.0</ele><time>2026-05-02T13:40:12Z</time></trkpt><trkpt lat="44.50369140128864" lon="8.016357896633382"><ele>492.75</ele><time>2026-05-02T13:40:13Z</time></trkpt><trkpt lat="44.503661780765846" lon="8.016538553516156"><ele>493.5</ele><time>2026-05-02T13:40:13.999Z</time></trkpt><trkpt lat="44.50360525397204" lon="8.016719938176864"><ele>494.25</ele><time>2026-05-02T13:40:14.999Z</time></trkpt><trkpt lat="44.50351516240188" lon="8.01687520532097"><ele>495.0</ele><time>2026-05-02T13:40:15.999Z</time></trkpt><trkpt lat="44.50340224462919" lon="8.017020176467454"><ele>495.0</ele><time>2026-05-02T13:40:16.999Z</time></trkpt><trkpt lat="44.503281145683765" lon="8.017183349186125"><ele>495.0</ele><time>2026-05-02T13:40:17.999Z</time></trkpt><trkpt lat="44.50316068565081" lon="8.017348863260022"><ele>495.0</ele><time>2026-05-02T13:40:18.999Z</time></trkpt><trkpt lat="44.503058928551724" lon="8.017480495694736"><ele>497.75</ele><time>2026-05-02T13:40:19.999Z</time></trkpt><trkpt lat="44.50298235563177" lon="8.017605482307786"><ele>500.5</ele><time>2026-05-02T13:40:20.999Z</time></trkpt><trkpt lat="44.502935679569035" lon="8.017750622004142"><ele>503.25</ele><time>2026-05-02T13:40:21.999Z</time></trkpt><trkpt lat="44.5029246835304" lon="8.017930763534048"><ele>506.0</ele><time>2026-05-02T13:40:22.999Z</time></trkpt><trkpt lat="44.5029530115227" lon="8.018153961932304"><ele>509.0</ele><time>2026-05-02T13:40:23.999Z</time></trkpt><trkpt lat="44.502989701255004" lon="8.018398831831774"><ele>512.0</ele><time>2026-05-02T13:40:24.999Z</time></trkpt><trkpt lat="44.50301540123075" lon="8.018662393441488"><ele>515.0</ele><time>2026-05-02T13:40:25.999Z</time></trkpt><trkpt lat="44.50304333114318" lon="8.018945059507498"><ele>517.3333333333333</ele><time>2026-05-02T13:40:27Z</time></trkpt><trkpt lat="44.50305100144632" lon="8.019196929010532"><ele>519.6666666666666</ele><time>2026-05-02T13:40:28Z</time></trkpt><trkpt lat="44.503058504458984" lon="8.019414560419982"><ele>522.0</ele><time>2026-05-02T13:40:29Z</time></trkpt><trkpt lat="44.50302483351573" lon="8.019628757220877"><ele>522.0</ele><time>2026-05-02T13:40:30Z</time></trkpt><trkpt lat="44.50296297443666" lon="8.019882008256028"><ele>522.0</ele><time>2026-05-02T13:40:31Z</time></trkpt><trkpt lat="44.502900051928926" lon="8.020166241269443"><ele>522.0</ele><time>2026-05-02T13:40:32Z</time></trkpt><trkpt lat="44.502824172989804" lon="8.020461574440938"><ele>519.3333333333334</ele><time>2026-05-02T13:40:33Z</time></trkpt><trkpt lat="44.5027389102699" lon="8.020731282422503"><ele>516.6666666666667</ele><time>2026-05-02T13:40:34Z</time></trkpt><trkpt lat="44.502699587645644" lon="8.020960138516516"><ele>514.0</ele><time>2026-05-02T13:40:35Z</time></trkpt><trkpt lat="44.502667277145704" lon="8.021116805328358"><ele>514.0</ele><time>2026-05-02T13:40:36Z</time></trkpt><trkpt lat="44.502657792936056" lon="8.021264337639025"><ele>514.0</ele><time>2026-05-02T13:40:37Z</time></trkpt><trkpt lat="44.50272635014583" lon="8.021419479397073"><ele>514.0</ele><time>2026-05-02T13:40:38Z</time></trkpt><trkpt lat="44.50284336505202" lon="8.021553601839553"><ele>514.0</ele><time>2026-05-02T13:40:39Z</time></trkpt><trkpt lat="44.502979017766584" lon="8.02169851078591"><ele>523.4</ele><time>2026-05-02T13:40:40Z</time></trkpt><trkpt lat="44.50309412173102" lon="8.021823078604998"><ele>532.8</ele><time>2026-05-02T13:40:41Z</time></trkpt><trkpt lat="44.5031586625192" lon="8.021927725227647"><ele>542.2</ele><time>2026-05-02T13:40:42Z</time></trkpt><trkpt lat="44.503183602026645" lon="8.022014170927502"><ele>551.6</ele><time>2026-05-02T13:40:43Z</time></trkpt><trkpt lat="44.50317100629418" lon="8.022111234436077"><ele>561.0</ele><time>2026-05-02T13:40:44Z</time></trkpt><trkpt lat="44.50310295784656" lon="8.022186965963012"><ele>561.0</ele><time>2026-05-02T13:40:45Z</time></trkpt><trkpt lat="44.503007505763726" lon="8.022206128384958"><ele>561.0</ele><time>2026-05-02T13:40:46Z</time></trkpt><trkpt lat="44.502898835963435" lon="8.02226419763453"><ele>561.0</ele><time>2026-05-02T13:40:47Z</time></trkpt><trkpt lat="44.5027888554947" lon="8.022309233550656"><ele>561.0</ele><time>2026-05-02T13:40:48Z</time></trkpt><trkpt lat="44.502677003602706" lon="8.02244160807865"><ele>552.3333333333334</ele><time>2026-05-02T13:40:49Z</time></trkpt><trkpt lat="44.502591812825656" lon="8.02268714508453"><ele>543.6666666666667</ele><time>2026-05-02T13:40:50Z</time></trkpt><trkpt lat="44.50251354930639" lon="8.022948822595547"><ele>535.0</ele><time>2026-05-02T13:40:51Z</time></trkpt><trkpt lat="44.502434113430645" lon="8.023196649043468"><ele>541.3333333333334</ele><time>2026-05-02T13:40:52Z</time></trkpt><trkpt lat="44.50235102752064" lon="8.02348556792752"><ele>547.6666666666666</ele><time>2026-05-02T13:40:53Z</time></trkpt><trkpt lat="44.502242138088896" lon="8.023703559822765"><ele>554.0</ele><time>2026-05-02T13:40:54Z</time></trkpt><trkpt lat="44.50214704128062" lon="8.023905781264311"><ele>549.3333333333333</ele><time>2026-05-02T13:40:55Z</time></trkpt><trkpt lat="44.502030342275674" lon="8.024093740601245"><ele>544.6666666666666</ele><time>2026-05-02T13:40:56Z</time></trkpt><trkpt lat="44.50194405990246" lon="8.024323772497446"><ele>540.0</ele><time>2026-05-02T13:40:57Z</time></trkpt><trkpt lat="44.50186607567527" lon="8.024596062188508"><ele>540.0</ele><time>2026-05-02T13:40:58Z</time></trkpt><trkpt lat="44.50180052984767" lon="8.024899075025857"><ele>540.0</ele><time>2026-05-02T13:40:59Z</time></trkpt><trkpt lat="44.50173723454848" lon="8.025155632539285"><ele>540.0</ele><time>2026-05-02T13:41:00Z</time></trkpt><trkpt lat="44.501688024542744" lon="8.025386416719597"><ele>543.0</ele><time>2026-05-02T13:41:01Z</time></trkpt><trkpt lat="44.501697795152076" lon="8.02552217343825"><ele>546.0</ele><time>2026-05-02T13:41:02Z</time></trkpt><trkpt lat="44.50175288217194" lon="8.025712005859"><ele>549.0</ele><time>2026-05-02T13:41:03Z</time></trkpt><trkpt lat="44.50183184622836" lon="8.025873011310773"><ele>552.0</ele><time>2026-05-02T13:41:04Z</time></trkpt><trkpt lat="44.501846198858395" lon="8.026022422720269"><ele>553.8000000000001</ele><time>2026-05-02T13:41:05Z</time></trkpt><trkpt lat="44.501798800580026" lon="8.02612396021411"><ele>555.6</ele><time>2026-05-02T13:41:06Z</time></trkpt><trkpt lat="44.50171020163234" lon="8.026159531753864"><ele>557.4000000000001</ele><time>2026-05-02T13:41:07Z</time></trkpt><trkpt lat="44.50159396018299" lon="8.026174322723648"><ele>559.2</ele><time>2026-05-02T13:41:08Z</time></trkpt><trkpt lat="44.50147867243277" lon="8.026263948029165"><ele>561.0</ele><time>2026-05-02T13:41:09Z</time></trkpt><trkpt lat="44.50136340649291" lon="8.026378623546599"><ele>561.0</ele><time>2026-05-02T13:41:10Z</time></trkpt><trkpt lat="44.50127960414785" lon="8.026621829231875"><ele>561.0</ele><time>2026-05-02T13:41:11Z</time></trkpt><trkpt lat="44.501194931977885" lon="8.026891453263215"><ele>561.0</ele><time>2026-05-02T13:41:12Z</time></trkpt><trkpt lat="44.501092865914664" lon="8.027182888219222"><ele>563.0</ele><time>2026-05-02T13:41:13Z</time></trkpt><trkpt lat="44.50098099995646" lon="8.027484917964378"><ele>565.0</ele><time>2026-05-02T13:41:14Z</time></trkpt><trkpt lat="44.5008469357348" lon="8.027787079211182"><ele>565.0</ele><time>2026-05-02T13:41:15Z</time></trkpt><trkpt lat="44.500717941803465" lon="8.02810461000811"><ele>565.0</ele><time>2026-05-02T13:41:16Z</time></trkpt><trkpt lat="44.500580418196726" lon="8.028410888744471"><ele>559.0</ele><time>2026-05-02T13:41:17Z</time></trkpt><trkpt lat="44.500436424425125" lon="8.028701641924147"><ele>553.0</ele><time>2026-05-02T13:41:18Z</time></trkpt><trkpt lat="44.50032843850109" lon="8.028973664257128"><ele>559.0</ele><time>2026-05-02T13:41:19Z</time></trkpt><trkpt lat="44.500195874249826" lon="8.029250802028788"><ele>565.0</ele><time>2026-05-02T13:41:20Z</time></trkpt><trkpt lat="44.50007532166245" lon="8.029550865456075"><ele>565.0</ele><time>2026-05-02T13:41:21Z</time></trkpt><trkpt lat="44.49995576169764" lon="8.029842123872966"><ele>565.0</ele><time>2026-05-02T13:41:22Z</time></trkpt><trkpt lat="44.4998342933394" lon="8.030136898626685"><ele>564.0</ele><time>2026-05-02T13:41:23Z</time></trkpt><trkpt lat="44.499727380997385" lon="8.030403633992092"><ele>563.0</ele><time>2026-05-02T13:41:24Z</time></trkpt><trkpt lat="44.49963765116926" lon="8.030632120280499"><ele>562.0</ele><time>2026-05-02T13:41:25Z</time></trkpt><trkpt lat="44.49956731390056" lon="8.030830504295965"><ele>562.0</ele><time>2026-05-02T13:41:26Z</time></trkpt><trkpt lat="44.49951333692951" lon="8.031004287289917"><ele>562.0</ele><time>2026-05-02T13:41:27Z</time></trkpt><trkpt lat="44.499518224576846" lon="8.03119352651752"><ele>562.0</ele><time>2026-05-02T13:41:28Z</time></trkpt><trkpt lat="44.49955442101178" lon="8.031413980411301"><ele>562.0</ele><time>2026-05-02T13:41:29Z</time></trkpt><trkpt lat="44.49961510921782" lon="8.031661177657462"><ele>575.3333333333334</ele><time>2026-05-02T13:41:30Z</time></trkpt><trkpt lat="44.499648756630144" lon="8.031923707145687"><ele>588.6666666666666</ele><time>2026-05-02T13:41:31Z</time></trkpt><trkpt lat="44.49971346213959" lon="8.032154990329202"><ele>602.0</ele><time>2026-05-02T13:41:32Z</time></trkpt><trkpt lat="44.49977267688892" lon="8.032362091515212"><ele>601.3333333333333</ele><time>2026-05-02T13:41:33Z</time></trkpt><trkpt lat="44.49986612679134" lon="8.032540284964515"><ele>600.6666666666666</ele><time>2026-05-02T13:41:34Z</time></trkpt><trkpt lat="44.49999762403218" lon="8.03272585964498"><ele>600.0</ele><time>2026-05-02T13:41:35Z</time></trkpt><trkpt lat="44.50012067862476" lon="8.032966337058893"><ele>600.0</ele><time>2026-05-02T13:41:36Z</time></trkpt><trkpt lat="44.50024150044784" lon="8.033144418306213"><ele>600.0</ele><time>2026-05-02T13:41:37Z</time></trkpt><trkpt lat="44.50031726492331" lon="8.03328991507381"><ele>600.0</ele><time>2026-05-02T13:41:38Z</time></trkpt><trkpt lat="44.500373629644386" lon="8.033392202911205"><ele>600.0</ele><time>2026-05-02T13:41:39Z</time></trkpt><trkpt lat="44.5003842579291" lon="8.033489981905785"><ele>600.8</ele><time>2026-05-02T13:41:40Z</time></trkpt><trkpt lat="44.5003294549578" lon="8.033569893228012"><ele>601.6</ele><time>2026-05-02T13:41:41Z</time></trkpt><trkpt lat="44.500243014096256" lon="8.033557318336571"><ele>602.4</ele><time>2026-05-02T13:41:42Z</time></trkpt><trkpt lat="44.50017656903314" lon="8.033510557502717"><ele>603.2</ele><time>2026-05-02T13:41:43Z</time></trkpt><trkpt lat="44.50008619519856" lon="8.033459781625824"><ele>604.0</ele><time>2026-05-02T13:41:44Z</time></trkpt><trkpt lat="44.499985986166564" lon="8.033373666699521"><ele>604.0</ele><time>2026-05-02T13:41:45Z</time></trkpt><trkpt lat="44.49986119699106" lon="8.033321116804167"><ele>604.0</ele><time>2026-05-02T13:41:46Z</time></trkpt><trkpt lat="44.499704506371295" lon="8.033307712304927"><ele>604.0</ele><time>2026-05-02T13:41:47Z</time></trkpt><trkpt lat="44.499527614257055" lon="8.033340819924927"><ele>603.0</ele><time>2026-05-02T13:41:48Z</time></trkpt><trkpt lat="44.49932705604689" lon="8.033382827248865"><ele>602.0</ele><time>2026-05-02T13:41:49Z</time></trkpt><trkpt lat="44.49911646098095" lon="8.033450220068381"><ele>601.0</ele><time>2026-05-02T13:41:50Z</time></trkpt><trkpt lat="44.498903656537216" lon="8.033519752057463"><ele>598.3333333333334</ele><time>2026-05-02T13:41:51Z</time></trkpt><trkpt lat="44.49871319968946" lon="8.03357181757851"><ele>595.6666666666666</ele><time>2026-05-02T13:41:52Z</time></trkpt><trkpt lat="44.49857336317241" lon="8.033616893369565"><ele>593.0</ele><time>2026-05-02T13:41:53Z</time></trkpt><trkpt lat="44.49845895924861" lon="8.03366988878756"><ele>593.0</ele><time>2026-05-02T13:41:54Z</time></trkpt><trkpt lat="44.498356679781516" lon="8.033785485384128"><ele>593.0</ele><time>2026-05-02T13:41:55Z</time></trkpt><trkpt lat="44.498275326698234" lon="8.03398249465364"><ele>593.0</ele><time>2026-05-02T13:41:56Z</time></trkpt><trkpt lat="44.4981985402513" lon="8.034219776453028"><ele>598.6666666666666</ele><time>2026-05-02T13:41:57Z</time></trkpt><trkpt lat="44.49812813499342" lon="8.034443952925509"><ele>604.3333333333334</ele><time>2026-05-02T13:41:58Z</time></trkpt><trkpt lat="44.49810573776729" lon="8.034674519871583"><ele>610.0</ele><time>2026-05-02T13:41:59Z</time></trkpt><trkpt lat="44.49814825852446" lon="8.034936531496777"><ele>612.5</ele><time>2026-05-02T13:42:00Z</time></trkpt><trkpt lat="44.49819924979513" lon="8.035177993310992"><ele>615.0</ele><time>2026-05-02T13:42:01Z</time></trkpt><trkpt lat="44.49819392372066" lon="8.03536661295071"><ele>617.5</ele><time>2026-05-02T13:42:02Z</time></trkpt><trkpt lat="44.498161686302055" lon="8.03553279627401"><ele>620.0</ele><time>2026-05-02T13:42:03Z</time></trkpt><trkpt lat="44.498061051717755" lon="8.035644317872245"><ele>619.6666666666666</ele><time>2026-05-02T13:42:04Z</time></trkpt><trkpt lat="44.49791726650329" lon="8.03573185559738"><ele>619.3333333333334</ele><time>2026-05-02T13:42:05Z</time></trkpt><trkpt lat="44.49774816992888" lon="8.03584928372115"><ele>619.0</ele><time>2026-05-02T13:42:06Z</time></trkpt><trkpt lat="44.49757738874319" lon="8.03596504580417"><ele>619.0</ele><time>2026-05-02T13:42:07Z</time></trkpt><trkpt lat="44.49740014191261" lon="8.03611762047296"><ele>619.0</ele><time>2026-05-02T13:42:08Z</time></trkpt><trkpt lat="44.497236273214504" lon="8.036263847725508"><ele>619.0</ele><time>2026-05-02T13:42:09Z</time></trkpt><trkpt lat="44.49709075614224" lon="8.03637915456856"><ele>619.75</ele><time>2026-05-02T13:42:10Z</time></trkpt><trkpt lat="44.49696832568784" lon="8.036480032720503"><ele>620.5</ele><time>2026-05-02T13:42:11Z</time></trkpt><trkpt lat="44.49686650748501" lon="8.03660150544905"><ele>621.25</ele><time>2026-05-02T13:42:12Z</time></trkpt><trkpt lat="44.49677804128523" lon="8.03678940343437"><ele>622.0</ele><time>2026-05-02T13:42:13Z</time></trkpt><trkpt lat="44.496709992826624" lon="8.037067681381215"><ele>622.0</ele><time>2026-05-02T13:42:14Z</time></trkpt><trkpt lat="44.49663864337098" lon="8.037361084723411"><ele>622.0</ele><time>2026-05-02T13:42:15Z</time></trkpt><trkpt lat="44.49655351265296" lon="8.03765374937712"><ele>622.0</ele><time>2026-05-02T13:42:16Z</time></trkpt><trkpt lat="44.4964584389725" lon="8.037931358628901"><ele>624.25</ele><time>2026-05-02T13:42:17Z</time></trkpt><trkpt lat="44.49639341932511" lon="8.038175070376406"><ele>626.5</ele><time>2026-05-02T13:42:18Z</time></trkpt><trkpt lat="44.496332344627135" lon="8.038346053486777"><ele>628.75</ele><time>2026-05-02T13:42:19Z</time></trkpt><trkpt lat="44.49625300216648" lon="8.038462375928034"><ele>631.0</ele><time>2026-05-02T13:42:20Z</time></trkpt><trkpt lat="44.49612615933962" lon="8.038507248930582"><ele>631.3333333333334</ele><time>2026-05-02T13:42:21Z</time></trkpt><trkpt lat="44.495953193267546" lon="8.038481372121582"><ele>631.6666666666666</ele><time>2026-05-02T13:42:22Z</time></trkpt><trkpt lat="44.495800190773586" lon="8.038517071091182"><ele>632.0</ele><time>2026-05-02T13:42:23Z</time></trkpt><trkpt lat="44.49568456003235" lon="8.03861131319301"><ele>632.0</ele><time>2026-05-02T13:42:24Z</time></trkpt><trkpt lat="44.49554144218776" lon="8.038824071391646"><ele>632.0</ele><time>2026-05-02T13:42:25Z</time></trkpt><trkpt lat="44.49542374548836" lon="8.039097704117514"><ele>632.0</ele><time>2026-05-02T13:42:26Z</time></trkpt><trkpt lat="44.495293471720125" lon="8.03935905188442"><ele>634.3333333333333</ele><time>2026-05-02T13:42:27Z</time></trkpt><trkpt lat="44.49516652934169" lon="8.039583136909132"><ele>636.6666666666666</ele><time>2026-05-02T13:42:28Z</time></trkpt><trkpt lat="44.49506864275666" lon="8.03973518914251"><ele>639.0</ele><time>2026-05-02T13:42:29Z</time></trkpt><trkpt lat="44.49497234506558" lon="8.039828571674667"><ele>639.0</ele><time>2026-05-02T13:42:30Z</time></trkpt><trkpt lat="44.494843045021476" lon="8.039831099160862"><ele>639.0</ele><time>2026-05-02T13:42:31Z</time></trkpt><trkpt lat="44.49471584899514" lon="8.039788070012923"><ele>639.0</ele><time>2026-05-02T13:42:32Z</time></trkpt><trkpt lat="44.494575645209906" lon="8.039712541082219"><ele>639.0</ele><time>2026-05-02T13:42:33Z</time></trkpt><trkpt lat="44.494443335415994" lon="8.039661153149716"><ele>639.0</ele><time>2026-05-02T13:42:34Z</time></trkpt><trkpt lat="44.494325844579315" lon="8.039643447654962"><ele>639.0</ele><time>2026-05-02T13:42:35Z</time></trkpt><trkpt lat="44.49420605177404" lon="8.039693734273346"><ele>639.0</ele><time>2026-05-02T13:42:35.999Z</time></trkpt><trkpt lat="44.494086535161216" lon="8.039795714922331"><ele>639.0</ele><time>2026-05-02T13:42:36.999Z</time></trkpt><trkpt lat="44.493973743704615" lon="8.039940267940077"><ele>641.3333333333334</ele><time>2026-05-02T13:42:37.999Z</time></trkpt><trkpt lat="44.49386285848739" lon="8.040120315592928"><ele>643.6666666666667</ele><time>2026-05-02T13:42:38.999Z</time></trkpt><trkpt lat="44.49375970611984" lon="8.04033923280654"><ele>646.0</ele><time>2026-05-02T13:42:39.999Z</time></trkpt><trkpt lat="44.49366087288801" lon="8.040575443404997"><ele>648.6666666666667</ele><time>2026-05-02T13:42:40.999Z</time></trkpt><trkpt lat="44.493557653041584" lon="8.040807048919055"><ele>651.3333333333334</ele><time>2026-05-02T13:42:41.999Z</time></trkpt><trkpt lat="44.493449868507604" lon="8.040986648265095"><ele>654.0</ele><time>2026-05-02T13:42:42.999Z</time></trkpt><trkpt lat="44.49336802277257" lon="8.041160268633963"><ele>654.0</ele><time>2026-05-02T13:42:43.999Z</time></trkpt><trkpt lat="44.49330166375197" lon="8.041308193895633"><ele>654.0</ele><time>2026-05-02T13:42:44.999Z</time></trkpt><trkpt lat="44.49326733024666" lon="8.041442567988241"><ele>654.0</ele><time>2026-05-02T13:42:45.999Z</time></trkpt><trkpt lat="44.49323173148999" lon="8.041526436601536"><ele>654.0</ele><time>2026-05-02T13:42:46.999Z</time></trkpt><trkpt lat="44.49325297525887" lon="8.041638038407331"><ele>654.0</ele><time>2026-05-02T13:42:47.999Z</time></trkpt><trkpt lat="44.49334631521443" lon="8.041714968918646"><ele>654.0</ele><time>2026-05-02T13:42:48.999Z</time></trkpt><trkpt lat="44.493447232271166" lon="8.04173343936094"><ele>654.0</ele><time>2026-05-02T13:42:49.999Z</time></trkpt><trkpt lat="44.49355075828832" lon="8.041660693240196"><ele>654.0</ele><time>2026-05-02T13:42:50.999Z</time></trkpt><trkpt lat="44.49363915400318" lon="8.041560468354884"><ele>654.0</ele><time>2026-05-02T13:42:51.999Z</time></trkpt><trkpt lat="44.49371388250784" lon="8.041438558982266"><ele>654.0</ele><time>2026-05-02T13:42:52.999Z</time></trkpt><trkpt lat="44.49381092286502" lon="8.041342298913086"><ele>656.0</ele><time>2026-05-02T13:42:53.999Z</time></trkpt><trkpt lat="44.493913303558536" lon="8.041248058076146"><ele>658.0</ele><time>2026-05-02T13:42:54.999Z</time></trkpt><trkpt lat="44.494014712231845" lon="8.0411393866143"><ele>660.0</ele><time>2026-05-02T13:42:55.999Z</time></trkpt><trkpt lat="44.49412088809086" lon="8.041043800100725"><ele>662.0</ele><time>2026-05-02T13:42:56.999Z</time></trkpt><trkpt lat="44.494230846472554" lon="8.040970985932427"><ele>662.0</ele><time>2026-05-02T13:42:57.999Z</time></trkpt><trkpt lat="44.49436516116731" lon="8.040956414345244"><ele>662.0</ele><time>2026-05-02T13:42:58.999Z</time></trkpt><trkpt lat="44.49450933426556" lon="8.04096891411793"><ele>662.0</ele><time>2026-05-02T13:42:59.999Z</time></trkpt><trkpt lat="44.49467155358561" lon="8.040965831083447"><ele>662.0</ele><time>2026-05-02T13:43:00.999Z</time></trkpt><trkpt lat="44.49483331406082" lon="8.04099071751086"><ele>664.6666666666666</ele><time>2026-05-02T13:43:01.999Z</time></trkpt><trkpt lat="44.49499593473474" lon="8.041016743627853"><ele>667.3333333333334</ele><time>2026-05-02T13:43:02.999Z</time></trkpt><trkpt lat="44.49515752185589" lon="8.041028274434142"><ele>670.0</ele><time>2026-05-02T13:43:03.999Z</time></trkpt><trkpt lat="44.49531744983194" lon="8.041008025577737"><ele>669.5</ele><time>2026-05-02T13:43:04.999Z</time></trkpt><trkpt lat="44.495465337601644" lon="8.04094230612853"><ele>669.0</ele><time>2026-05-02T13:43:05.999Z</time></trkpt><trkpt lat="44.49559543128342" lon="8.04085062639841"><ele>668.5</ele><time>2026-05-02T13:43:06.999Z</time></trkpt><trkpt lat="44.49570942123941" lon="8.040742238661272"><ele>668.0</ele><time>2026-05-02T13:43:07.999Z</time></trkpt><trkpt lat="44.49581139207582" lon="8.040627531237382"><ele>668.0</ele><time>2026-05-02T13:43:08.999Z</time></trkpt><trkpt lat="44.49588843511417" lon="8.04050945241282"><ele>668.0</ele><time>2026-05-02T13:43:09.999Z</time></trkpt><trkpt lat="44.49596291249281" lon="8.040425125627152"><ele>668.0</ele><time>2026-05-02T13:43:10.999Z</time></trkpt><trkpt lat="44.49603363013633" lon="8.040344909475271"><ele>668.0</ele><time>2026-05-02T13:43:11.999Z</time></trkpt><trkpt lat="44.49609458056127" lon="8.040316687021326"><ele>668.0</ele><time>2026-05-02T13:43:12.999Z</time></trkpt><trkpt lat="44.496200699080546" lon="8.040387333570598"><ele>668.0</ele><time>2026-05-02T13:43:14.999Z</time></trkpt><trkpt lat="44.49623523603899" lon="8.04047968865803"><ele>668.0</ele><time>2026-05-02T13:43:15.999Z</time></trkpt><trkpt lat="44.49623444073453" lon="8.040584331314925"><ele>668.0</ele><time>2026-05-02T13:43:16.999Z</time></trkpt><trkpt lat="44.496191646056516" lon="8.040674936825791"><ele>668.0</ele><time>2026-05-02T13:43:17.999Z</time></trkpt><trkpt lat="44.49611624516751" lon="8.040715388585758"><ele>668.0</ele><time>2026-05-02T13:43:18.999Z</time></trkpt><trkpt lat="44.496022291332" lon="8.040704319572228"><ele>668.0</ele><time>2026-05-02T13:43:19.999Z</time></trkpt><trkpt lat="44.495909952941155" lon="8.04076392682456"><ele>674.6666666666666</ele><time>2026-05-02T13:43:20.999Z</time></trkpt><trkpt lat="44.49580540918526" lon="8.040907484283213"><ele>681.3333333333334</ele><time>2026-05-02T13:43:21.999Z</time></trkpt><trkpt lat="44.49569665713228" lon="8.041066721094696"><ele>688.0</ele><time>2026-05-02T13:43:22.999Z</time></trkpt><trkpt lat="44.495573962719405" lon="8.041238173056522"><ele>688.0</ele><time>2026-05-02T13:43:23.999Z</time></trkpt><trkpt lat="44.49544117554085" lon="8.041439873167493"><ele>688.0</ele><time>2026-05-02T13:43:24.999Z</time></trkpt><trkpt lat="44.49532005136457" lon="8.04162214684612"><ele>688.0</ele><time>2026-05-02T13:43:25.999Z</time></trkpt><trkpt lat="44.495225228108005" lon="8.041785925061086"><ele>687.5</ele><time>2026-05-02T13:43:26.999Z</time></trkpt><trkpt lat="44.49512870211295" lon="8.041928193822404"><ele>687.0</ele><time>2026-05-02T13:43:27.999Z</time></trkpt><trkpt lat="44.495026888638954" lon="8.042056896764485"><ele>686.5</ele><time>2026-05-02T13:43:28.999Z</time></trkpt><trkpt lat="44.494924309568205" lon="8.042195734430805"><ele>686.0</ele><time>2026-05-02T13:43:29.999Z</time></trkpt><trkpt lat="44.494829537109034" lon="8.042351245816617"><ele>686.75</ele><time>2026-05-02T13:43:30.999Z</time></trkpt><trkpt lat="44.49474091387119" lon="8.04247045934371"><ele>687.5</ele><time>2026-05-02T13:43:31.999Z</time></trkpt><trkpt lat="44.494649817987174" lon="8.042604545411097"><ele>688.25</ele><time>2026-05-02T13:43:32.999Z</time></trkpt><trkpt lat="44.494553785059864" lon="8.042744109149627"><ele>689.0</ele><time>2026-05-02T13:43:33.999Z</time></trkpt><trkpt lat="44.494461416694726" lon="8.042888223108669"><ele>689.0</ele><time>2026-05-02T13:43:34.999Z</time></trkpt><trkpt lat="44.49433601501755" lon="8.043004661889846"><ele>689.0</ele><time>2026-05-02T13:43:35.999Z</time></trkpt><trkpt lat="44.494195231533205" lon="8.043115773496464"><ele>689.0</ele><time>2026-05-02T13:43:36.999Z</time></trkpt><trkpt lat="44.49404149172558" lon="8.043220827108943"><ele>689.0</ele><time>2026-05-02T13:43:37.999Z</time></trkpt><trkpt lat="44.49386855514849" lon="8.043292696854785"><ele>689.0</ele><time>2026-05-02T13:43:38.999Z</time></trkpt><trkpt lat="44.493711872232346" lon="8.04338292691717"><ele>689.0</ele><time>2026-05-02T13:43:39.999Z</time></trkpt><trkpt lat="44.49355594342089" lon="8.043474001065675"><ele>693.0</ele><time>2026-05-02T13:43:40.999Z</time></trkpt><trkpt lat="44.49340912252326" lon="8.043561928549945"><ele>697.0</ele><time>2026-05-02T13:43:41.999Z</time></trkpt><trkpt lat="44.49326960326606" lon="8.043643983083193"><ele>701.0</ele><time>2026-05-02T13:43:42.999Z</time></trkpt><trkpt lat="44.49314788728579" lon="8.043709191137166"><ele>705.0</ele><time>2026-05-02T13:43:43.999Z</time></trkpt><trkpt lat="44.493035677153635" lon="8.043759901972846"><ele>705.0</ele><time>2026-05-02T13:43:44.999Z</time></trkpt><trkpt lat="44.492934122206925" lon="8.043791124949147"><ele>705.0</ele><time>2026-05-02T13:43:45.999Z</time></trkpt><trkpt lat="44.49284713567272" lon="8.043814544425361"><ele>705.0</ele><time>2026-05-02T13:43:46.999Z</time></trkpt><trkpt lat="44.492776998276135" lon="8.043850385516944"><ele>705.0</ele><time>2026-05-02T13:43:47.999Z</time></trkpt><trkpt lat="44.4926957861791" lon="8.04387510044188"><ele>705.0</ele><time>2026-05-02T13:43:48.999Z</time></trkpt><trkpt lat="44.492581947221396" lon="8.043894856136076"><ele>705.75</ele><time>2026-05-02T13:43:49.999Z</time></trkpt><trkpt lat="44.49245880041993" lon="8.04389954047303"><ele>706.5</ele><time>2026-05-02T13:43:50.999Z</time></trkpt><trkpt lat="44.49232721412021" lon="8.04394611355355"><ele>707.25</ele><time>2026-05-02T13:43:51.999Z</time></trkpt><trkpt lat="44.49217853206429" lon="8.044016855413041"><ele>708.0</ele><time>2026-05-02T13:43:52.999Z</time></trkpt><trkpt lat="44.49200700525092" lon="8.044115729598278"><ele>712.0</ele><time>2026-05-02T13:43:53.999Z</time></trkpt><trkpt lat="44.491816222713865" lon="8.044212925937776"><ele>716.0</ele><time>2026-05-02T13:43:54.999Z</time></trkpt><trkpt lat="44.491630006241024" lon="8.04435119707713"><ele>720.0</ele><time>2026-05-02T13:43:55.999Z</time></trkpt><trkpt lat="44.49142162821568" lon="8.044464701952027"><ele>723.3333333333334</ele><time>2026-05-02T13:43:56.999Z</time></trkpt><trkpt lat="44.49120809401757" lon="8.044575550796221"><ele>726.6666666666667</ele><time>2026-05-02T13:43:57.999Z</time></trkpt><trkpt lat="44.49102272684239" lon="8.04466871282278"><ele>730.0</ele><time>2026-05-02T13:43:58.999Z</time></trkpt><trkpt lat="44.490857515984544" lon="8.04477801532947"><ele>730.0</ele><time>2026-05-02T13:43:59.999Z</time></trkpt><trkpt lat="44.4907278184088" lon="8.044943242700738"><ele>730.0</ele><time>2026-05-02T13:44:00.999Z</time></trkpt><trkpt lat="44.490620315103186" lon="8.04518663561277"><ele>730.0</ele><time>2026-05-02T13:44:01.999Z</time></trkpt><trkpt lat="44.49054054926602" lon="8.04548922995692"><ele>726.3333333333334</ele><time>2026-05-02T13:44:02.999Z</time></trkpt><trkpt lat="44.49043254387005" lon="8.045800349435885"><ele>722.6666666666666</ele><time>2026-05-02T13:44:03.999Z</time></trkpt><trkpt lat="44.49033131087317" lon="8.046022475750583"><ele>719.0</ele><time>2026-05-02T13:44:04.999Z</time></trkpt><trkpt lat="44.49021540290082" lon="8.046189304771016"><ele>729.3333333333333</ele><time>2026-05-02T13:44:05.999Z</time></trkpt><trkpt lat="44.490060046394674" lon="8.046356317244392"><ele>739.6666666666666</ele><time>2026-05-02T13:44:06.999Z</time></trkpt><trkpt lat="44.48989415896036" lon="8.046538611576578"><ele>750.0</ele><time>2026-05-02T13:44:07.999Z</time></trkpt><trkpt lat="44.489754806663015" lon="8.046605286060688"><ele>750.0</ele><time>2026-05-02T13:44:08.999Z</time></trkpt><trkpt lat="44.48960702487933" lon="8.046607947650354"><ele>750.0</ele><time>2026-05-02T13:44:09.999Z</time></trkpt><trkpt lat="44.489498260349734" lon="8.046528120256017"><ele>750.0</ele><time>2026-05-02T13:44:10.999Z</time></trkpt><trkpt lat="44.489382178685354" lon="8.046402485141085"><ele>750.0</ele><time>2026-05-02T13:44:11.999Z</time></trkpt><trkpt lat="44.48924502662072" lon="8.046255678079266"><ele>751.3333333333334</ele><time>2026-05-02T13:44:12.999Z</time></trkpt><trkpt lat="44.48912128154949" lon="8.046016947413271"><ele>752.6666666666667</ele><time>2026-05-02T13:44:13.999Z</time></trkpt><trkpt lat="44.48900478311058" lon="8.045814427561197"><ele>754.0</ele><time>2026-05-02T13:44:14.999Z</time></trkpt><trkpt lat="44.48888767645638" lon="8.045686699005344"><ele>754.3333333333334</ele><time>2026-05-02T13:44:15.999Z</time></trkpt><trkpt lat="44.48873222298165" lon="8.045652943516417"><ele>754.6666666666666</ele><time>2026-05-02T13:44:16.999Z</time></trkpt><trkpt lat="44.48854818320115" lon="8.04568495499528"><ele>755.0</ele><time>2026-05-02T13:44:17.999Z</time></trkpt><trkpt lat="44.48838213820185" lon="8.045696685850267"><ele>755.0</ele><time>2026-05-02T13:44:18.999Z</time></trkpt><trkpt lat="44.488237020553946" lon="8.045628842607522"><ele>755.0</ele><time>2026-05-02T13:44:19.999Z</time></trkpt><trkpt lat="44.48813248611647" lon="8.045522649122299"><ele>755.0</ele><time>2026-05-02T13:44:20.999Z</time></trkpt><trkpt lat="44.48801934467078" lon="8.04535343023301"><ele>755.0</ele><time>2026-05-02T13:44:21.999Z</time></trkpt><trkpt lat="44.487921063451324" lon="8.04511595845543"><ele>760.0</ele><time>2026-05-02T13:44:22.999Z</time></trkpt><trkpt lat="44.48782304474893" lon="8.04489881757675"><ele>765.0</ele><time>2026-05-02T13:44:23.999Z</time></trkpt><trkpt lat="44.48766798732049" lon="8.044778994769386"><ele>770.0</ele><time>2026-05-02T13:44:24.999Z</time></trkpt><trkpt lat="44.48753335491698" lon="8.044728274819587"><ele>770.0</ele><time>2026-05-02T13:44:25.999Z</time></trkpt><trkpt lat="44.48736826724959" lon="8.044761455590148"><ele>770.0</ele><time>2026-05-02T13:44:26.999Z</time></trkpt><trkpt lat="44.487220996649846" lon="8.044878554295797"><ele>770.0</ele><time>2026-05-02T13:44:27.999Z</time></trkpt><trkpt lat="44.487094097417796" lon="8.044990596724316"><ele>765.3333333333334</ele><time>2026-05-02T13:44:28.999Z</time></trkpt><trkpt lat="44.486941488072716" lon="8.04506873045729"><ele>760.6666666666667</ele><time>2026-05-02T13:44:29.999Z</time></trkpt><trkpt lat="44.48680178030955" lon="8.04505587694536"><ele>756.0</ele><time>2026-05-02T13:44:30.999Z</time></trkpt><trkpt lat="44.48663791429287" lon="8.04496748253432"><ele>762.0</ele><time>2026-05-02T13:44:31.999Z</time></trkpt><trkpt lat="44.48643678235846" lon="8.044910772359676"><ele>768.0</ele><time>2026-05-02T13:44:32.999Z</time></trkpt><trkpt lat="44.48623494898459" lon="8.044869950196544"><ele>774.0</ele><time>2026-05-02T13:44:33.999Z</time></trkpt><trkpt lat="44.486044962457065" lon="8.04485038409728"><ele>774.0</ele><time>2026-05-02T13:44:34.999Z</time></trkpt><trkpt lat="44.48584340182363" lon="8.04475231300746"><ele>774.0</ele><time>2026-05-02T13:44:35.999Z</time></trkpt><trkpt lat="44.485677035531914" lon="8.044733633243728"><ele>774.0</ele><time>2026-05-02T13:44:36.999Z</time></trkpt><trkpt lat="44.48552170695045" lon="8.044802326753802"><ele>773.0</ele><time>2026-05-02T13:44:37.999Z</time></trkpt><trkpt lat="44.48530774181648" lon="8.04486098624793"><ele>772.0</ele><time>2026-05-02T13:44:39Z</time></trkpt><trkpt lat="44.48511249669143" lon="8.0449248154984"><ele>771.0</ele><time>2026-05-02T13:44:40Z</time></trkpt><trkpt lat="44.484991080867886" lon="8.045002249524508"><ele>768.3333333333334</ele><time>2026-05-02T13:44:41Z</time></trkpt><trkpt lat="44.48489996195246" lon="8.045093989819001"><ele>765.6666666666667</ele><time>2026-05-02T13:44:42Z</time></trkpt><trkpt lat="44.48479544755651" lon="8.045295721390533"><ele>763.0</ele><time>2026-05-02T13:44:43Z</time></trkpt><trkpt lat="44.484676425297636" lon="8.045525761276973"><ele>762.75</ele><time>2026-05-02T13:44:44Z</time></trkpt><trkpt lat="44.484588382710726" lon="8.045691495574037"><ele>762.5</ele><time>2026-05-02T13:44:45Z</time></trkpt><trkpt lat="44.48448759727482" lon="8.04578182426625"><ele>762.25</ele><time>2026-05-02T13:44:46Z</time></trkpt><trkpt lat="44.48437962312313" lon="8.04580463699473"><ele>762.0</ele><time>2026-05-02T13:44:47Z</time></trkpt><trkpt lat="44.48427151117682" lon="8.04575898059428"><ele>764.6666666666667</ele><time>2026-05-02T13:44:48Z</time></trkpt><trkpt lat="44.484136888256685" lon="8.04567359393806"><ele>767.3333333333334</ele><time>2026-05-02T13:44:49Z</time></trkpt><trkpt lat="44.48397106368596" lon="8.04559235115485"><ele>770.0</ele><time>2026-05-02T13:44:50Z</time></trkpt><trkpt lat="44.48381315876071" lon="8.045488272246612"><ele>767.75</ele><time>2026-05-02T13:44:51Z</time></trkpt><trkpt lat="44.483666609892325" lon="8.045412224058925"><ele>765.5</ele><time>2026-05-02T13:44:52Z</time></trkpt><trkpt lat="44.483527338308484" lon="8.045369838268249"><ele>763.25</ele><time>2026-05-02T13:44:53Z</time></trkpt><trkpt lat="44.48337745084627" lon="8.04537936889563"><ele>761.0</ele><time>2026-05-02T13:44:54Z</time></trkpt><trkpt lat="44.48322247413283" lon="8.045466215670539"><ele>761.0</ele><time>2026-05-02T13:44:55Z</time></trkpt><trkpt lat="44.48306785427529" lon="8.045590541767107"><ele>761.0</ele><time>2026-05-02T13:44:56Z</time></trkpt><trkpt lat="44.48290824848066" lon="8.04572339973645"><ele>761.0</ele><time>2026-05-02T13:44:57Z</time></trkpt><trkpt lat="44.482732684765075" lon="8.045865253059745"><ele>759.3333333333333</ele><time>2026-05-02T13:44:58Z</time></trkpt><trkpt lat="44.482543445911524" lon="8.046009545744358"><ele>757.6666666666666</ele><time>2026-05-02T13:44:59Z</time></trkpt><trkpt lat="44.48234459165255" lon="8.046158520391703"><ele>756.0</ele><time>2026-05-02T13:45:00Z</time></trkpt><trkpt lat="44.4821415370703" lon="8.046310712467696"><ele>754.6666666666666</ele><time>2026-05-02T13:45:01Z</time></trkpt><trkpt lat="44.48196897575626" lon="8.04643402063331"><ele>753.3333333333333</ele><time>2026-05-02T13:45:02Z</time></trkpt><trkpt lat="44.48180873280079" lon="8.04650313450364"><ele>752.0</ele><time>2026-05-02T13:45:03Z</time></trkpt><trkpt lat="44.48162476372042" lon="8.04649584941253"><ele>752.0</ele><time>2026-05-02T13:45:04Z</time></trkpt><trkpt lat="44.48144303867099" lon="8.04634307451619"><ele>752.0</ele><time>2026-05-02T13:45:05Z</time></trkpt><trkpt lat="44.48122906710857" lon="8.046231832463745"><ele>752.0</ele><time>2026-05-02T13:45:06Z</time></trkpt><trkpt lat="44.481036028535165" lon="8.046084455537944"><ele>752.3333333333333</ele><time>2026-05-02T13:45:07Z</time></trkpt><trkpt lat="44.48083837460119" lon="8.045995007739112"><ele>752.6666666666666</ele><time>2026-05-02T13:45:08Z</time></trkpt><trkpt lat="44.48060998752821" lon="8.045993029040968"><ele>753.0</ele><time>2026-05-02T13:45:09Z</time></trkpt><trkpt lat="44.480354368459096" lon="8.046034934093255"><ele>753.0</ele><time>2026-05-02T13:45:10Z</time></trkpt><trkpt lat="44.480085902645655" lon="8.046064624924334"><ele>753.0</ele><time>2026-05-02T13:45:11Z</time></trkpt><trkpt lat="44.47980641283471" lon="8.04608062869978"><ele>752.5</ele><time>2026-05-02T13:45:12Z</time></trkpt><trkpt lat="44.47952239843705" lon="8.046103244737733"><ele>752.0</ele><time>2026-05-02T13:45:13Z</time></trkpt><trkpt lat="44.47924745543076" lon="8.04610890611675"><ele>752.0</ele><time>2026-05-02T13:45:14Z</time></trkpt><trkpt lat="44.47900983546843" lon="8.046125681681676"><ele>752.0</ele><time>2026-05-02T13:45:15Z</time></trkpt><trkpt lat="44.47879638072792" lon="8.04613408581507"><ele>753.3333333333333</ele><time>2026-05-02T13:45:16Z</time></trkpt><trkpt lat="44.478612153813316" lon="8.04608237891272"><ele>754.6666666666666</ele><time>2026-05-02T13:45:17Z</time></trkpt><trkpt lat="44.478412379930106" lon="8.045964944827206"><ele>756.0</ele><time>2026-05-02T13:45:18Z</time></trkpt><trkpt lat="44.478188712941375" lon="8.045831347548171"><ele>752.5</ele><time>2026-05-02T13:45:19Z</time></trkpt><trkpt lat="44.477952397178086" lon="8.045689761647363"><ele>749.0</ele><time>2026-05-02T13:45:20Z</time></trkpt><trkpt lat="44.47770095003213" lon="8.045563203578602"><ele>749.0</ele><time>2026-05-02T13:45:21Z</time></trkpt><trkpt lat="44.477450351641785" lon="8.04540865259616"><ele>749.0</ele><time>2026-05-02T13:45:22Z</time></trkpt><trkpt lat="44.47719421297592" lon="8.045244247815063"><ele>750.5</ele><time>2026-05-02T13:45:23Z</time></trkpt><trkpt lat="44.47695365652082" lon="8.04502879691671"><ele>752.0</ele><time>2026-05-02T13:45:24Z</time></trkpt><trkpt lat="44.47671272921333" lon="8.044804334586273"><ele>752.0</ele><time>2026-05-02T13:45:25Z</time></trkpt><trkpt lat="44.47647078647862" lon="8.04457334930265"><ele>752.0</ele><time>2026-05-02T13:45:26Z</time></trkpt><trkpt lat="44.476219558474725" lon="8.04435725262549"><ele>749.5</ele><time>2026-05-02T13:45:27Z</time></trkpt><trkpt lat="44.476002931590344" lon="8.044074724667661"><ele>747.0</ele><time>2026-05-02T13:45:28Z</time></trkpt><trkpt lat="44.47578796331972" lon="8.043787285359222"><ele>747.0</ele><time>2026-05-02T13:45:29Z</time></trkpt><trkpt lat="44.47557078089184" lon="8.043492112372308"><ele>747.0</ele><time>2026-05-02T13:45:30Z</time></trkpt><trkpt lat="44.4753600686537" lon="8.043226630056303"><ele>750.5</ele><time>2026-05-02T13:45:31Z</time></trkpt><trkpt lat="44.47517611979187" lon="8.042968153856808"><ele>754.0</ele><time>2026-05-02T13:45:32Z</time></trkpt><trkpt lat="44.47499903286754" lon="8.04272619074046"><ele>754.0</ele><time>2026-05-02T13:45:33Z</time></trkpt><trkpt lat="44.47483208314792" lon="8.042501572627168"><ele>754.0</ele><time>2026-05-02T13:45:34Z</time></trkpt><trkpt lat="44.474674718629636" lon="8.042288367028092"><ele>754.0</ele><time>2026-05-02T13:45:35Z</time></trkpt><trkpt lat="44.47451126921537" lon="8.042072041122358"><ele>754.0</ele><time>2026-05-02T13:45:36Z</time></trkpt><trkpt lat="44.47432493286148" lon="8.041860110416817"><ele>754.0</ele><time>2026-05-02T13:45:37Z</time></trkpt><trkpt lat="44.4741208847402" lon="8.041636895486494"><ele>754.0</ele><time>2026-05-02T13:45:38Z</time></trkpt><trkpt lat="44.47390750579347" lon="8.04141553173436"><ele>755.0</ele><time>2026-05-02T13:45:39Z</time></trkpt><trkpt lat="44.47360926440446" lon="8.041374853939594"><ele>756.0</ele><time>2026-05-02T13:45:40Z</time></trkpt><trkpt lat="44.47340892168099" lon="8.041236243048415"><ele>756.0</ele><time>2026-05-02T13:45:41Z</time></trkpt><trkpt lat="44.47325331168488" lon="8.041110405351251"><ele>756.0</ele><time>2026-05-02T13:45:42Z</time></trkpt><trkpt lat="44.473135093832944" lon="8.040969161446498"><ele>756.0</ele><time>2026-05-02T13:45:43Z</time></trkpt><trkpt lat="44.4730556186121" lon="8.040819806240753"><ele>756.5</ele><time>2026-05-02T13:45:44Z</time></trkpt><trkpt lat="44.47300766181838" lon="8.040669937051527"><ele>757.0</ele><time>2026-05-02T13:45:45Z</time></trkpt><trkpt lat="44.472981976583704" lon="8.040519390209518"><ele>757.5</ele><time>2026-05-02T13:45:46Z</time></trkpt><trkpt lat="44.47293454020439" lon="8.040370445103296"><ele>758.0</ele><time>2026-05-02T13:45:47Z</time></trkpt><trkpt lat="44.4728464212129" lon="8.040237424494105"><ele>758.0</ele><time>2026-05-02T13:45:48Z</time></trkpt><trkpt lat="44.47273426909152" lon="8.040109024845725"><ele>758.0</ele><time>2026-05-02T13:45:49Z</time></trkpt><trkpt lat="44.47262619655807" lon="8.039977175854407"><ele>758.0</ele><time>2026-05-02T13:45:50Z</time></trkpt><trkpt lat="44.47252753225764" lon="8.03984368506323"><ele>758.0</ele><time>2026-05-02T13:45:51Z</time></trkpt><trkpt lat="44.47243211122523" lon="8.039693109865821"><ele>756.25</ele><time>2026-05-02T13:45:52Z</time></trkpt><trkpt lat="44.47235568364192" lon="8.039540319208962"><ele>754.5</ele><time>2026-05-02T13:45:53Z</time></trkpt><trkpt lat="44.47227925001654" lon="8.039389092425143"><ele>752.75</ele><time>2026-05-02T13:45:54Z</time></trkpt><trkpt lat="44.47219740801535" lon="8.03923627193935"><ele>751.0</ele><time>2026-05-02T13:45:55Z</time></trkpt><trkpt lat="44.47210304844861" lon="8.03907484377652"><ele>751.0</ele><time>2026-05-02T13:45:56Z</time></trkpt><trkpt lat="44.47200521320205" lon="8.038903207529561"><ele>751.0</ele><time>2026-05-02T13:45:57Z</time></trkpt><trkpt lat="44.47190973022238" lon="8.038731389986996"><ele>751.0</ele><time>2026-05-02T13:45:58Z</time></trkpt><trkpt lat="44.47181032672115" lon="8.038540411267153"><ele>751.0</ele><time>2026-05-02T13:45:59Z</time></trkpt><trkpt lat="44.4717068674069" lon="8.038347107131987"><ele>751.0</ele><time>2026-05-02T13:46:00Z</time></trkpt><trkpt lat="44.4715927166877" lon="8.03813746610143"><ele>751.0</ele><time>2026-05-02T13:46:01Z</time></trkpt><trkpt lat="44.47147914236638" lon="8.037936196178299"><ele>749.6666666666667</ele><time>2026-05-02T13:46:02Z</time></trkpt><trkpt lat="44.471379371126986" lon="8.037745972117332"><ele>748.3333333333334</ele><time>2026-05-02T13:46:03Z</time></trkpt><trkpt lat="44.47130703055094" lon="8.037554054371022"><ele>747.0</ele><time>2026-05-02T13:46:04Z</time></trkpt><trkpt lat="44.47124303192121" lon="8.037308708158287"><ele>747.0</ele><time>2026-05-02T13:46:05Z</time></trkpt><trkpt lat="44.47118584854766" lon="8.037032517174257"><ele>747.0</ele><time>2026-05-02T13:46:06Z</time></trkpt><trkpt lat="44.471124345753054" lon="8.036750078385245"><ele>747.0</ele><time>2026-05-02T13:46:07Z</time></trkpt><trkpt lat="44.47106644578299" lon="8.036494948146872"><ele>745.3333333333334</ele><time>2026-05-02T13:46:08Z</time></trkpt><trkpt lat="44.47101330432866" lon="8.036277878014221"><ele>743.6666666666667</ele><time>2026-05-02T13:46:09Z</time></trkpt><trkpt lat="44.4709713421543" lon="8.036070037570282"><ele>742.0</ele><time>2026-05-02T13:46:10Z</time></trkpt><trkpt lat="44.470964707492556" lon="8.035848637026772"><ele>741.6666666666667</ele><time>2026-05-02T13:46:11Z</time></trkpt><trkpt lat="44.47101371891116" lon="8.035604981555272"><ele>741.3333333333334</ele><time>2026-05-02T13:46:12Z</time></trkpt><trkpt lat="44.471085137564614" lon="8.035346912795355"><ele>741.0</ele><time>2026-05-02T13:46:13Z</time></trkpt><trkpt lat="44.4711267939372" lon="8.035098780948283"><ele>738.5</ele><time>2026-05-02T13:46:14Z</time></trkpt><trkpt lat="44.47113151065352" lon="8.03480674664245"><ele>736.0</ele><time>2026-05-02T13:46:15Z</time></trkpt><trkpt lat="44.471110278962655" lon="8.034469247074023"><ele>734.0</ele><time>2026-05-02T13:46:16Z</time></trkpt><trkpt lat="44.47107709712316" lon="8.034108179782644"><ele>732.0</ele><time>2026-05-02T13:46:17Z</time></trkpt><trkpt lat="44.47103934162392" lon="8.033735981698346"><ele>732.0</ele><time>2026-05-02T13:46:18Z</time></trkpt><trkpt lat="44.471001066795516" lon="8.03336532692713"><ele>732.0</ele><time>2026-05-02T13:46:19Z</time></trkpt><trkpt lat="44.47096451486886" lon="8.033046132987643"><ele>732.3333333333334</ele><time>2026-05-02T13:46:20Z</time></trkpt><trkpt lat="44.470954839949464" lon="8.032787813592027"><ele>732.6666666666667</ele><time>2026-05-02T13:46:21Z</time></trkpt><trkpt lat="44.47097691696242" lon="8.032555710893659"><ele>733.0</ele><time>2026-05-02T13:46:22Z</time></trkpt><trkpt lat="44.471004153543106" lon="8.032333746902083"><ele>733.3333333333334</ele><time>2026-05-02T13:46:23Z</time></trkpt><trkpt lat="44.47101185077865" lon="8.032116842163338"><ele>733.6666666666666</ele><time>2026-05-02T13:46:24Z</time></trkpt><trkpt lat="44.47098299151504" lon="8.031890300459153"><ele>734.0</ele><time>2026-05-02T13:46:25Z</time></trkpt><trkpt lat="44.47094367101327" lon="8.03167838773076"><ele>735.5</ele><time>2026-05-02T13:46:26Z</time></trkpt><trkpt lat="44.470947971614706" lon="8.031510528458307"><ele>737.0</ele><time>2026-05-02T13:46:27Z</time></trkpt><trkpt lat="44.47103574286889" lon="8.031391586881169"><ele>738.5</ele><time>2026-05-02T13:46:28Z</time></trkpt><trkpt lat="44.47114518934498" lon="8.031296389670718"><ele>740.0</ele><time>2026-05-02T13:46:29Z</time></trkpt><trkpt lat="44.47128494849359" lon="8.031180775723278"><ele>734.0</ele><time>2026-05-02T13:46:30Z</time></trkpt><trkpt lat="44.471440335278906" lon="8.031034597909581"><ele>728.0</ele><time>2026-05-02T13:46:31Z</time></trkpt><trkpt lat="44.47161907458694" lon="8.030877932616058"><ele>722.0</ele><time>2026-05-02T13:46:32Z</time></trkpt><trkpt lat="44.471793774630314" lon="8.030708800422396"><ele>722.0</ele><time>2026-05-02T13:46:33Z</time></trkpt><trkpt lat="44.47193608187808" lon="8.030560687064602"><ele>722.0</ele><time>2026-05-02T13:46:34Z</time></trkpt><trkpt lat="44.47204118717725" lon="8.030449735077795"><ele>722.0</ele><time>2026-05-02T13:46:35Z</time></trkpt><trkpt lat="44.4721160489403" lon="8.030356020037097"><ele>722.0</ele><time>2026-05-02T13:46:36Z</time></trkpt><trkpt lat="44.47214310621976" lon="8.030243542948195"><ele>722.0</ele><time>2026-05-02T13:46:37Z</time></trkpt><trkpt lat="44.47212641051142" lon="8.030122481354569"><ele>722.0</ele><time>2026-05-02T13:46:38Z</time></trkpt><trkpt lat="44.47205718551675" lon="8.030007948076287"><ele>722.0</ele><time>2026-05-02T13:46:39Z</time></trkpt><trkpt lat="44.47194534214006" lon="8.029922216493384"><ele>722.0</ele><time>2026-05-02T13:46:40Z</time></trkpt><trkpt lat="44.47180623509704" lon="8.02986228057636"><ele>719.5</ele><time>2026-05-02T13:46:41Z</time></trkpt><trkpt lat="44.471663215176946" lon="8.029785012457499"><ele>717.0</ele><time>2026-05-02T13:46:42Z</time></trkpt><trkpt lat="44.47153978106106" lon="8.029689628458906"><ele>714.5</ele><time>2026-05-02T13:46:43Z</time></trkpt><trkpt lat="44.47146038345616" lon="8.029551072996348"><ele>712.0</ele><time>2026-05-02T13:46:44Z</time></trkpt><trkpt lat="44.47140894860941" lon="8.029405530494541"><ele>712.0</ele><time>2026-05-02T13:46:45Z</time></trkpt><trkpt lat="44.47136385133524" lon="8.02921734164062"><ele>712.0</ele><time>2026-05-02T13:46:46Z</time></trkpt><trkpt lat="44.47131675497021" lon="8.028997873001936"><ele>712.0</ele><time>2026-05-02T13:46:47Z</time></trkpt><trkpt lat="44.47125414169808" lon="8.0287676580035"><ele>712.3333333333334</ele><time>2026-05-02T13:46:48Z</time></trkpt><trkpt lat="44.47120192402786" lon="8.028529566696887"><ele>712.6666666666666</ele><time>2026-05-02T13:46:49Z</time></trkpt><trkpt lat="44.47114844720725" lon="8.028279254185398"><ele>713.0</ele><time>2026-05-02T13:46:50Z</time></trkpt><trkpt lat="44.471094056972596" lon="8.02802058653075"><ele>713.0</ele><time>2026-05-02T13:46:51Z</time></trkpt><trkpt lat="44.471042619140235" lon="8.027767132880467"><ele>713.0</ele><time>2026-05-02T13:46:52Z</time></trkpt><trkpt lat="44.47098716590536" lon="8.027538845141082"><ele>713.0</ele><time>2026-05-02T13:46:53Z</time></trkpt><trkpt lat="44.470940184825295" lon="8.02732349974623"><ele>711.6666666666666</ele><time>2026-05-02T13:46:54Z</time></trkpt><trkpt lat="44.47089228277365" lon="8.027111185568765"><ele>710.3333333333334</ele><time>2026-05-02T13:46:55Z</time></trkpt><trkpt lat="44.47084412252522" lon="8.02689766809652"><ele>709.0</ele><time>2026-05-02T13:46:56Z</time></trkpt><trkpt lat="44.47079767498379" lon="8.026666041360938"><ele>708.0</ele><time>2026-05-02T13:46:57Z</time></trkpt><trkpt lat="44.470745252244555" lon="8.026433568999561"><ele>707.0</ele><time>2026-05-02T13:46:58Z</time></trkpt><trkpt lat="44.47069160298667" lon="8.026222645195157"><ele>706.0</ele><time>2026-05-02T13:46:59Z</time></trkpt><trkpt lat="44.47065038884087" lon="8.026034856213426"><ele>706.0</ele><time>2026-05-02T13:47:00Z</time></trkpt><trkpt lat="44.47062072489675" lon="8.025903721703008"><ele>706.0</ele><time>2026-05-02T13:47:01Z</time></trkpt><trkpt lat="44.470596869395706" lon="8.025808138164841"><ele>706.0</ele><time>2026-05-02T13:47:02Z</time></trkpt><trkpt lat="44.47056980855177" lon="8.025714992353304"><ele>706.0</ele><time>2026-05-02T13:47:03Z</time></trkpt><trkpt lat="44.470512596706556" lon="8.025660339147562"><ele>706.0</ele><time>2026-05-02T13:47:04Z</time></trkpt><trkpt lat="44.470468215143285" lon="8.025593819800983"><ele>706.0</ele><time>2026-05-02T13:47:05Z</time></trkpt><trkpt lat="44.47042433798114" lon="8.02553004023274"><ele>706.0</ele><time>2026-05-02T13:47:06Z</time></trkpt><trkpt lat="44.47035563384327" lon="8.025470558523741"><ele>704.75</ele><time>2026-05-02T13:47:08Z</time></trkpt><trkpt lat="44.47025851239567" lon="8.025629414828675"><ele>703.5</ele><time>2026-05-02T13:47:11Z</time></trkpt><trkpt lat="44.470221366976645" lon="8.0257476529126"><ele>702.25</ele><time>2026-05-02T13:47:12Z</time></trkpt><trkpt lat="44.470168278596006" lon="8.02589056301445"><ele>701.0</ele><time>2026-05-02T13:47:13Z</time></trkpt><trkpt lat="44.47010225733067" lon="8.02603897085141"><ele>701.0</ele><time>2026-05-02T13:47:14Z</time></trkpt><trkpt lat="44.47001726638002" lon="8.026181427012725"><ele>701.0</ele><time>2026-05-02T13:47:15Z</time></trkpt><trkpt lat="44.46991297900483" lon="8.0263158682045"><ele>701.0</ele><time>2026-05-02T13:47:16Z</time></trkpt><trkpt lat="44.46979290219454" lon="8.026453119695498"><ele>701.0</ele><time>2026-05-02T13:47:17Z</time></trkpt><trkpt lat="44.46966232821303" lon="8.026598698452768"><ele>702.0</ele><time>2026-05-02T13:47:18Z</time></trkpt><trkpt lat="44.46953764095768" lon="8.026765279593134"><ele>703.0</ele><time>2026-05-02T13:47:19Z</time></trkpt><trkpt lat="44.469424649346145" lon="8.026946780910729"><ele>704.0</ele><time>2026-05-02T13:47:20Z</time></trkpt><trkpt lat="44.46932578855709" lon="8.027153253835504"><ele>704.0</ele><time>2026-05-02T13:47:21Z</time></trkpt><trkpt lat="44.46925131665993" lon="8.027378693347982"><ele>704.0</ele><time>2026-05-02T13:47:22Z</time></trkpt><trkpt lat="44.46921191085907" lon="8.027639811206056"><ele>704.0</ele><time>2026-05-02T13:47:23Z</time></trkpt><trkpt lat="44.469157762804564" lon="8.027896338088185"><ele>707.6666666666666</ele><time>2026-05-02T13:47:24Z</time></trkpt><trkpt lat="44.46915314012705" lon="8.028160929081231"><ele>711.3333333333334</ele><time>2026-05-02T13:47:25Z</time></trkpt><trkpt lat="44.46913089350987" lon="8.02838368580531"><ele>715.0</ele><time>2026-05-02T13:47:26Z</time></trkpt><trkpt lat="44.46909184996853" lon="8.028562313920165"><ele>715.75</ele><time>2026-05-02T13:47:27Z</time></trkpt><trkpt lat="44.46900214613091" lon="8.02869424782024"><ele>716.5</ele><time>2026-05-02T13:47:28Z</time></trkpt><trkpt lat="44.46887100804314" lon="8.028782815183767"><ele>717.25</ele><time>2026-05-02T13:47:29Z</time></trkpt><trkpt lat="44.46872718251857" lon="8.028759097002593"><ele>718.0</ele><time>2026-05-02T13:47:30Z</time></trkpt><trkpt lat="44.46856935269322" lon="8.028745979519293"><ele>718.0</ele><time>2026-05-02T13:47:31Z</time></trkpt><trkpt lat="44.46842024006578" lon="8.028720778469463"><ele>718.0</ele><time>2026-05-02T13:47:32Z</time></trkpt><trkpt lat="44.4682618630718" lon="8.028778189831405"><ele>718.0</ele><time>2026-05-02T13:47:33Z</time></trkpt><trkpt lat="44.46810834800665" lon="8.028884738415606"><ele>718.0</ele><time>2026-05-02T13:47:34Z</time></trkpt><trkpt lat="44.46796555099955" lon="8.029026819126813"><ele>718.0</ele><time>2026-05-02T13:47:35Z</time></trkpt><trkpt lat="44.46783999183135" lon="8.029227191811213"><ele>718.0</ele><time>2026-05-02T13:47:36Z</time></trkpt><trkpt lat="44.46773622041434" lon="8.029417059517073"><ele>721.0</ele><time>2026-05-02T13:47:37Z</time></trkpt><trkpt lat="44.467626823125435" lon="8.029585797741962"><ele>724.0</ele><time>2026-05-02T13:47:38Z</time></trkpt><trkpt lat="44.46748741686076" lon="8.029700297761464"><ele>727.0</ele><time>2026-05-02T13:47:39Z</time></trkpt><trkpt lat="44.46731799857193" lon="8.029765260565904"><ele>727.0</ele><time>2026-05-02T13:47:40Z</time></trkpt><trkpt lat="44.46711799684719" lon="8.029760686387997"><ele>727.0</ele><time>2026-05-02T13:47:41Z</time></trkpt><trkpt lat="44.46691774298874" lon="8.029767291412222"><ele>727.0</ele><time>2026-05-02T13:47:42Z</time></trkpt><trkpt lat="44.46672523211686" lon="8.029788438941921"><ele>728.0</ele><time>2026-05-02T13:47:43Z</time></trkpt><trkpt lat="44.466553283812715" lon="8.029805304706514"><ele>729.0</ele><time>2026-05-02T13:47:44Z</time></trkpt><trkpt lat="44.466400592940666" lon="8.029872085135064"><ele>730.0</ele><time>2026-05-02T13:47:45Z</time></trkpt><trkpt lat="44.46626840478848" lon="8.029972959922938"><ele>731.0</ele><time>2026-05-02T13:47:46Z</time></trkpt><trkpt lat="44.466168204718485" lon="8.030119757529151"><ele>732.0</ele><time>2026-05-02T13:47:47Z</time></trkpt><trkpt lat="44.46611549272252" lon="8.030310489116607"><ele>733.0</ele><time>2026-05-02T13:47:48Z</time></trkpt><trkpt lat="44.46611658616437" lon="8.030524509630183"><ele>734.0</ele><time>2026-05-02T13:47:49Z</time></trkpt><trkpt lat="44.46616173626146" lon="8.030751476310602"><ele>733.6666666666666</ele><time>2026-05-02T13:47:50Z</time></trkpt><trkpt lat="44.46622299429148" lon="8.030992070121217"><ele>733.3333333333334</ele><time>2026-05-02T13:47:51Z</time></trkpt><trkpt lat="44.46628249474993" lon="8.031227163969275"><ele>733.0</ele><time>2026-05-02T13:47:52Z</time></trkpt><trkpt lat="44.466362397628394" lon="8.031484276421658"><ele>743.0</ele><time>2026-05-02T13:47:53Z</time></trkpt><trkpt lat="44.466416958398945" lon="8.031723548184116"><ele>753.0</ele><time>2026-05-02T13:47:54Z</time></trkpt><trkpt lat="44.466452978873534" lon="8.03194016372061"><ele>763.0</ele><time>2026-05-02T13:47:55Z</time></trkpt><trkpt lat="44.466451825361005" lon="8.032150492421435"><ele>763.0</ele><time>2026-05-02T13:47:56Z</time></trkpt><trkpt lat="44.46640293599418" lon="8.032370478343275"><ele>763.0</ele><time>2026-05-02T13:47:57Z</time></trkpt><trkpt lat="44.46628880042502" lon="8.03253517463106"><ele>763.0</ele><time>2026-05-02T13:47:58Z</time></trkpt><trkpt lat="44.46614343105711" lon="8.032668140398874"><ele>759.0</ele><time>2026-05-02T13:47:59Z</time></trkpt><trkpt lat="44.46598748706266" lon="8.03280687110517"><ele>755.0</ele><time>2026-05-02T13:48:00Z</time></trkpt><trkpt lat="44.465841189600965" lon="8.032963294704896"><ele>751.0</ele><time>2026-05-02T13:48:01Z</time></trkpt><trkpt lat="44.465716418301795" lon="8.03320317019993"><ele>749.0</ele><time>2026-05-02T13:48:02Z</time></trkpt><trkpt lat="44.4655918185229" lon="8.033452663988918"><ele>747.0</ele><time>2026-05-02T13:48:03Z</time></trkpt><trkpt lat="44.46547016084041" lon="8.03367737300418"><ele>745.0</ele><time>2026-05-02T13:48:04Z</time></trkpt><trkpt lat="44.46533126104144" lon="8.033892615837054"><ele>745.0</ele><time>2026-05-02T13:48:05Z</time></trkpt><trkpt lat="44.46516593644469" lon="8.034085715110365"><ele>745.0</ele><time>2026-05-02T13:48:06Z</time></trkpt><trkpt lat="44.46500043808464" lon="8.034272076660452"><ele>745.0</ele><time>2026-05-02T13:48:07Z</time></trkpt><trkpt lat="44.46483238562534" lon="8.034465764938068"><ele>746.3333333333334</ele><time>2026-05-02T13:48:08Z</time></trkpt><trkpt lat="44.464639506515155" lon="8.034616440798592"><ele>747.6666666666666</ele><time>2026-05-02T13:48:09Z</time></trkpt><trkpt lat="44.4644506861527" lon="8.03479031695096"><ele>749.0</ele><time>2026-05-02T13:48:10Z</time></trkpt><trkpt lat="44.46426596064094" lon="8.034987758848343"><ele>753.3333333333333</ele><time>2026-05-02T13:48:11Z</time></trkpt><trkpt lat="44.46407734683923" lon="8.035133995833776"><ele>757.6666666666666</ele><time>2026-05-02T13:48:12Z</time></trkpt><trkpt lat="44.46391836147281" lon="8.035286047339666"><ele>762.0</ele><time>2026-05-02T13:48:13Z</time></trkpt><trkpt lat="44.463779480988656" lon="8.035446984913614"><ele>762.0</ele><time>2026-05-02T13:48:14Z</time></trkpt><trkpt lat="44.463605201367955" lon="8.035577301536426"><ele>762.0</ele><time>2026-05-02T13:48:15Z</time></trkpt><trkpt lat="44.46343031499104" lon="8.035706516809077"><ele>762.0</ele><time>2026-05-02T13:48:16Z</time></trkpt><trkpt lat="44.46322143503234" lon="8.035746848315682"><ele>762.0</ele><time>2026-05-02T13:48:17Z</time></trkpt><trkpt lat="44.46300772131756" lon="8.03576456238049"><ele>762.0</ele><time>2026-05-02T13:48:18Z</time></trkpt><trkpt lat="44.46279290486741" lon="8.035811658924807"><ele>762.0</ele><time>2026-05-02T13:48:19Z</time></trkpt><trkpt lat="44.462580466683214" lon="8.035873420936355"><ele>768.6666666666667</ele><time>2026-05-02T13:48:20Z</time></trkpt><trkpt lat="44.46237779428926" lon="8.035978442473791"><ele>775.3333333333334</ele><time>2026-05-02T13:48:21Z</time></trkpt><trkpt lat="44.462173021677785" lon="8.036089521363872"><ele>782.0</ele><time>2026-05-02T13:48:22Z</time></trkpt><trkpt lat="44.461966822776894" lon="8.036190523133296"><ele>782.0</ele><time>2026-05-02T13:48:23Z</time></trkpt><trkpt lat="44.4617457339573" lon="8.036292648732617"><ele>782.0</ele><time>2026-05-02T13:48:24Z</time></trkpt><trkpt lat="44.46151377172383" lon="8.036363551984785"><ele>782.0</ele><time>2026-05-02T13:48:25Z</time></trkpt><trkpt lat="44.461306804348126" lon="8.03644002615724"><ele>782.0</ele><time>2026-05-02T13:48:26Z</time></trkpt><trkpt lat="44.46114157091911" lon="8.0365237889586"><ele>782.0</ele><time>2026-05-02T13:48:27Z</time></trkpt><trkpt lat="44.46099824129728" lon="8.03658470228192"><ele>786.3333333333334</ele><time>2026-05-02T13:48:28Z</time></trkpt><trkpt lat="44.46087211154564" lon="8.036688728107709"><ele>790.6666666666667</ele><time>2026-05-02T13:48:29Z</time></trkpt><trkpt lat="44.460766839386935" lon="8.03686549685374"><ele>795.0</ele><time>2026-05-02T13:48:30Z</time></trkpt><trkpt lat="44.46067969814623" lon="8.03710214482113"><ele>795.0</ele><time>2026-05-02T13:48:31Z</time></trkpt><trkpt lat="44.46056439670074" lon="8.037354275510253"><ele>795.0</ele><time>2026-05-02T13:48:32Z</time></trkpt><trkpt lat="44.46038826379271" lon="8.037588835924032"><ele>792.0</ele><time>2026-05-02T13:48:33Z</time></trkpt><trkpt lat="44.460166439476055" lon="8.037792328721626"><ele>789.0</ele><time>2026-05-02T13:48:34Z</time></trkpt><trkpt lat="44.45993436752957" lon="8.037957177195572"><ele>789.0</ele><time>2026-05-02T13:48:35Z</time></trkpt><trkpt lat="44.459672626599485" lon="8.038063706198994"><ele>789.0</ele><time>2026-05-02T13:48:36Z</time></trkpt><trkpt lat="44.45940225332022" lon="8.0381138859245"><ele>786.0</ele><time>2026-05-02T13:48:37Z</time></trkpt><trkpt lat="44.45916393632803" lon="8.038133524743229"><ele>783.0</ele><time>2026-05-02T13:48:38Z</time></trkpt><trkpt lat="44.45898437706126" lon="8.038124801353831"><ele>780.0</ele><time>2026-05-02T13:48:39Z</time></trkpt><trkpt lat="44.45877371067688" lon="8.038068553466577"><ele>779.3333333333333</ele><time>2026-05-02T13:48:40Z</time></trkpt><trkpt lat="44.45858326257825" lon="8.038017703857838"><ele>778.6666666666666</ele><time>2026-05-02T13:48:41Z</time></trkpt><trkpt lat="44.45842234554675" lon="8.03797473903804"><ele>778.0</ele><time>2026-05-02T13:48:42Z</time></trkpt><trkpt lat="44.45826563113253" lon="8.038084295417773"><ele>778.0</ele><time>2026-05-02T13:48:43Z</time></trkpt><trkpt lat="44.458136258126345" lon="8.038197342472031"><ele>778.0</ele><time>2026-05-02T13:48:44Z</time></trkpt><trkpt lat="44.4580381948665" lon="8.038377089997484"><ele>778.0</ele><time>2026-05-02T13:48:45Z</time></trkpt><trkpt lat="44.457992038546735" lon="8.038603571565739"><ele>781.6666666666666</ele><time>2026-05-02T13:48:46Z</time></trkpt><trkpt lat="44.45801062388322" lon="8.038845301029614"><ele>785.3333333333333</ele><time>2026-05-02T13:48:47Z</time></trkpt><trkpt lat="44.45809323511587" lon="8.039108756343182"><ele>789.0</ele><time>2026-05-02T13:48:48Z</time></trkpt><trkpt lat="44.45821957850148" lon="8.039376404974359"><ele>789.0</ele><time>2026-05-02T13:48:49Z</time></trkpt><trkpt lat="44.458322575126026" lon="8.039663735408654"><ele>789.0</ele><time>2026-05-02T13:48:50Z</time></trkpt><trkpt lat="44.4584003918056" lon="8.039940395117608"><ele>789.0</ele><time>2026-05-02T13:48:51Z</time></trkpt><trkpt lat="44.45843713475426" lon="8.040207826430926"><ele>786.0</ele><time>2026-05-02T13:48:52Z</time></trkpt><trkpt lat="44.45842841081962" lon="8.040504018689413"><ele>783.0</ele><time>2026-05-02T13:48:53Z</time></trkpt><trkpt lat="44.45838133042142" lon="8.040812600917176"><ele>780.0</ele><time>2026-05-02T13:48:54Z</time></trkpt><trkpt lat="44.45833081028092" lon="8.041083113117917"><ele>779.0</ele><time>2026-05-02T13:48:55Z</time></trkpt><trkpt lat="44.458279086147265" lon="8.041334307559522"><ele>778.0</ele><time>2026-05-02T13:48:56Z</time></trkpt><trkpt lat="44.45818710764718" lon="8.041581930802401"><ele>777.0</ele><time>2026-05-02T13:48:57Z</time></trkpt><trkpt lat="44.4580600864918" lon="8.041828533924892"><ele>771.0</ele><time>2026-05-02T13:48:58Z</time></trkpt><trkpt lat="44.45793454649638" lon="8.042033804452776"><ele>765.0</ele><time>2026-05-02T13:48:59Z</time></trkpt><trkpt lat="44.45781155440206" lon="8.042206381483995"><ele>759.0</ele><time>2026-05-02T13:49:00Z</time></trkpt><trkpt lat="44.45767711921982" lon="8.04235198203904"><ele>761.6666666666666</ele><time>2026-05-02T13:49:01Z</time></trkpt><trkpt lat="44.45754345266506" lon="8.042483497654224"><ele>764.3333333333333</ele><time>2026-05-02T13:49:02Z</time></trkpt><trkpt lat="44.45741615980324" lon="8.042625240661843"><ele>767.0</ele><time>2026-05-02T13:49:03Z</time></trkpt><trkpt lat="44.4572929357292" lon="8.042778129711376"><ele>767.0</ele><time>2026-05-02T13:49:04Z</time></trkpt><trkpt lat="44.45716866730035" lon="8.042944516074462"><ele>767.0</ele><time>2026-05-02T13:49:05Z</time></trkpt><trkpt lat="44.45705076808048" lon="8.043128935869477"><ele>767.0</ele><time>2026-05-02T13:49:06Z</time></trkpt><trkpt lat="44.45694638875353" lon="8.043351332712898"><ele>765.3333333333333</ele><time>2026-05-02T13:49:07Z</time></trkpt><trkpt lat="44.45686728797011" lon="8.043631466167984"><ele>763.6666666666666</ele><time>2026-05-02T13:49:08Z</time></trkpt><trkpt lat="44.45681452060468" lon="8.043936363060768"><ele>762.0</ele><time>2026-05-02T13:49:09Z</time></trkpt><trkpt lat="44.45675230095946" lon="8.044230307329844"><ele>762.0</ele><time>2026-05-02T13:49:10Z</time></trkpt><trkpt lat="44.45662967430645" lon="8.04449351253411"><ele>762.0</ele><time>2026-05-02T13:49:11Z</time></trkpt><trkpt lat="44.45647182770608" lon="8.044747487231142"><ele>765.0</ele><time>2026-05-02T13:49:12Z</time></trkpt><trkpt lat="44.45630210230666" lon="8.045016285898274"><ele>768.0</ele><time>2026-05-02T13:49:13Z</time></trkpt><trkpt lat="44.456141599996464" lon="8.04530838655975"><ele>763.5</ele><time>2026-05-02T13:49:14Z</time></trkpt><trkpt lat="44.45599282535878" lon="8.045608397208246"><ele>759.0</ele><time>2026-05-02T13:49:15Z</time></trkpt><trkpt lat="44.45586603469251" lon="8.04589857467389"><ele>759.0</ele><time>2026-05-02T13:49:16Z</time></trkpt><trkpt lat="44.45574635685974" lon="8.04614669404117"><ele>759.0</ele><time>2026-05-02T13:49:17Z</time></trkpt><trkpt lat="44.45562937341528" lon="8.046317216173918"><ele>759.0</ele><time>2026-05-02T13:49:18Z</time></trkpt><trkpt lat="44.45546940261141" lon="8.04643487031486"><ele>759.0</ele><time>2026-05-02T13:49:19Z</time></trkpt><trkpt lat="44.45529552963428" lon="8.046544279686705"><ele>759.0</ele><time>2026-05-02T13:49:20Z</time></trkpt><trkpt lat="44.45516079774896" lon="8.046644101591653"><ele>759.0</ele><time>2026-05-02T13:49:21Z</time></trkpt><trkpt lat="44.45506638395033" lon="8.046818703657113"><ele>759.0</ele><time>2026-05-02T13:49:22Z</time></trkpt><trkpt lat="44.4549927205032" lon="8.047080929740375"><ele>759.0</ele><time>2026-05-02T13:49:23Z</time></trkpt><trkpt lat="44.45495349151075" lon="8.047383360805405"><ele>759.0</ele><time>2026-05-02T13:49:24Z</time></trkpt><trkpt lat="44.45491897343277" lon="8.047712597257215"><ele>762.0</ele><time>2026-05-02T13:49:25Z</time></trkpt><trkpt lat="44.454823350798456" lon="8.048030578023393"><ele>765.0</ele><time>2026-05-02T13:49:26Z</time></trkpt><trkpt lat="44.45471239619166" lon="8.048348082963319"><ele>758.5</ele><time>2026-05-02T13:49:27Z</time></trkpt><trkpt lat="44.45456472374378" lon="8.048638229740003"><ele>752.0</ele><time>2026-05-02T13:49:28Z</time></trkpt><trkpt lat="44.45444739438331" lon="8.048930377687155"><ele>758.0</ele><time>2026-05-02T13:49:29Z</time></trkpt><trkpt lat="44.45433091549578" lon="8.049217732720251"><ele>764.0</ele><time>2026-05-02T13:49:30Z</time></trkpt><trkpt lat="44.454237139981295" lon="8.049521628428232"><ele>764.0</ele><time>2026-05-02T13:49:31Z</time></trkpt><trkpt lat="44.4541323283061" lon="8.049819797128784"><ele>764.0</ele><time>2026-05-02T13:49:32Z</time></trkpt><trkpt lat="44.45401377752856" lon="8.050053379280522"><ele>764.0</ele><time>2026-05-02T13:49:33Z</time></trkpt><trkpt lat="44.45390129299806" lon="8.050249921175183"><ele>762.3333333333333</ele><time>2026-05-02T13:49:34Z</time></trkpt><trkpt lat="44.453772848155104" lon="8.050432728195794"><ele>760.6666666666666</ele><time>2026-05-02T13:49:35Z</time></trkpt><trkpt lat="44.453608038918304" lon="8.050587112384312"><ele>759.0</ele><time>2026-05-02T13:49:36Z</time></trkpt><trkpt lat="44.45340864978011" lon="8.050724217308835"><ele>761.3333333333334</ele><time>2026-05-02T13:49:37Z</time></trkpt><trkpt lat="44.453200212456906" lon="8.050850496937537"><ele>763.6666666666667</ele><time>2026-05-02T13:49:38Z</time></trkpt><trkpt lat="44.453014180666706" lon="8.050912653953072"><ele>766.0</ele><time>2026-05-02T13:49:39Z</time></trkpt><trkpt lat="44.45282236252294" lon="8.050926940398496"><ele>766.0</ele><time>2026-05-02T13:49:40Z</time></trkpt><trkpt lat="44.45260472951604" lon="8.050943638517197"><ele>766.0</ele><time>2026-05-02T13:49:41Z</time></trkpt><trkpt lat="44.45240497350406" lon="8.050998868199878"><ele>766.0</ele><time>2026-05-02T13:49:42Z</time></trkpt><trkpt lat="44.45223251231596" lon="8.05107805314055"><ele>763.3333333333334</ele><time>2026-05-02T13:49:43Z</time></trkpt><trkpt lat="44.452093574814256" lon="8.051220897372767"><ele>760.6666666666666</ele><time>2026-05-02T13:49:44Z</time></trkpt><trkpt lat="44.45197465923512" lon="8.051426634639057"><ele>758.0</ele><time>2026-05-02T13:49:45Z</time></trkpt><trkpt lat="44.45188326057514" lon="8.051698586948293"><ele>758.0</ele><time>2026-05-02T13:49:46Z</time></trkpt><trkpt lat="44.45181828145465" lon="8.052016955832807"><ele>758.0</ele><time>2026-05-02T13:49:47Z</time></trkpt><trkpt lat="44.45173283662894" lon="8.052352408364946"><ele>763.0</ele><time>2026-05-02T13:49:48Z</time></trkpt><trkpt lat="44.451584785453335" lon="8.052654929562921"><ele>768.0</ele><time>2026-05-02T13:49:49Z</time></trkpt><trkpt lat="44.45142528010226" lon="8.052949939763783"><ele>768.0</ele><time>2026-05-02T13:49:50Z</time></trkpt><trkpt lat="44.45129179125742" lon="8.053202332300282"><ele>768.0</ele><time>2026-05-02T13:49:51Z</time></trkpt><trkpt lat="44.45119165426153" lon="8.053426448570791"><ele>768.0</ele><time>2026-05-02T13:49:52Z</time></trkpt><trkpt lat="44.45113219177156" lon="8.053671934297771"><ele>761.0</ele><time>2026-05-02T13:49:53Z</time></trkpt><trkpt lat="44.45110263707889" lon="8.053991272643087"><ele>754.0</ele><time>2026-05-02T13:49:54Z</time></trkpt><trkpt lat="44.4510351912483" lon="8.054337371870878"><ele>754.0</ele><time>2026-05-02T13:49:55Z</time></trkpt><trkpt lat="44.450943443493564" lon="8.054690899461265"><ele>754.0</ele><time>2026-05-02T13:49:56Z</time></trkpt><trkpt lat="44.45081518197975" lon="8.055018115645444"><ele>756.0</ele><time>2026-05-02T13:49:57Z</time></trkpt><trkpt lat="44.45066705153883" lon="8.055283943408217"><ele>758.0</ele><time>2026-05-02T13:49:58Z</time></trkpt><trkpt lat="44.4504928894231" lon="8.05553358096211"><ele>759.0</ele><time>2026-05-02T13:49:59Z</time></trkpt><trkpt lat="44.45027944084919" lon="8.055754971643989"><ele>760.0</ele><time>2026-05-02T13:50:00Z</time></trkpt><trkpt lat="44.45003445359115" lon="8.055908077511022"><ele>760.0</ele><time>2026-05-02T13:50:01Z</time></trkpt><trkpt lat="44.44975770498367" lon="8.056069090990281"><ele>760.0</ele><time>2026-05-02T13:50:02Z</time></trkpt><trkpt lat="44.44950253548118" lon="8.056226035407395"><ele>758.5</ele><time>2026-05-02T13:50:03Z</time></trkpt><trkpt lat="44.44926064272453" lon="8.05634981952289"><ele>757.0</ele><time>2026-05-02T13:50:04Z</time></trkpt><trkpt lat="44.44902480117107" lon="8.056400440303873"><ele>757.0</ele><time>2026-05-02T13:50:05Z</time></trkpt><trkpt lat="44.44882572810713" lon="8.05648850875984"><ele>757.0</ele><time>2026-05-02T13:50:06Z</time></trkpt><trkpt lat="44.448625115457226" lon="8.056591148219178"><ele>757.0</ele><time>2026-05-02T13:50:07Z</time></trkpt><trkpt lat="44.448423201185335" lon="8.05676268809462"><ele>762.5</ele><time>2026-05-02T13:50:08Z</time></trkpt><trkpt lat="44.4482254249234" lon="8.056968533616951"><ele>768.0</ele><time>2026-05-02T13:50:09Z</time></trkpt><trkpt lat="44.448030734723666" lon="8.057206707548799"><ele>765.5</ele><time>2026-05-02T13:50:10Z</time></trkpt><trkpt lat="44.44786237765523" lon="8.057440610314863"><ele>763.0</ele><time>2026-05-02T13:50:11Z</time></trkpt><trkpt lat="44.447696185839874" lon="8.057653148645596"><ele>770.5</ele><time>2026-05-02T13:50:12Z</time></trkpt><trkpt lat="44.44750065907449" lon="8.057843232346539"><ele>778.0</ele><time>2026-05-02T13:50:13Z</time></trkpt><trkpt lat="44.44731357504962" lon="8.05805181816614"><ele>779.6666666666666</ele><time>2026-05-02T13:50:14Z</time></trkpt><trkpt lat="44.44712619821379" lon="8.058234013693145"><ele>781.3333333333333</ele><time>2026-05-02T13:50:15Z</time></trkpt><trkpt lat="44.44696904240754" lon="8.058391238273346"><ele>783.0</ele><time>2026-05-02T13:50:16Z</time></trkpt><trkpt lat="44.44683682962707" lon="8.058553062129592"><ele>785.3333333333333</ele><time>2026-05-02T13:50:17Z</time></trkpt><trkpt lat="44.44676006368115" lon="8.058743911348584"><ele>787.6666666666666</ele><time>2026-05-02T13:50:18Z</time></trkpt><trkpt lat="44.446720528009784" lon="8.05896485892275"><ele>790.0</ele><time>2026-05-02T13:50:19Z</time></trkpt><trkpt lat="44.44670107286517" lon="8.059220330646466"><ele>790.6666666666666</ele><time>2026-05-02T13:50:20Z</time></trkpt><trkpt lat="44.44672501922235" lon="8.05950800898631"><ele>791.3333333333333</ele><time>2026-05-02T13:50:21Z</time></trkpt><trkpt lat="44.44676456528171" lon="8.059815468132019"><ele>792.0</ele><time>2026-05-02T13:50:22Z</time></trkpt><trkpt lat="44.4467981662719" lon="8.060116568718243"><ele>790.3333333333333</ele><time>2026-05-02T13:50:23Z</time></trkpt><trkpt lat="44.44683145051298" lon="8.060387339511378"><ele>788.6666666666666</ele><time>2026-05-02T13:50:24Z</time></trkpt><trkpt lat="44.44689142945152" lon="8.060650741613342"><ele>787.0</ele><time>2026-05-02T13:50:25Z</time></trkpt><trkpt lat="44.4470074583593" lon="8.060907204061662"><ele>789.3333333333333</ele><time>2026-05-02T13:50:26Z</time></trkpt><trkpt lat="44.44714771424623" lon="8.061119923483265"><ele>791.6666666666667</ele><time>2026-05-02T13:50:27Z</time></trkpt><trkpt lat="44.447206822116215" lon="8.061332073442555"><ele>794.0</ele><time>2026-05-02T13:50:28Z</time></trkpt><trkpt lat="44.447210086164965" lon="8.061571082073495"><ele>789.5</ele><time>2026-05-02T13:50:29Z</time></trkpt><trkpt lat="44.44718983985961" lon="8.061875870754704"><ele>785.0</ele><time>2026-05-02T13:50:30Z</time></trkpt><trkpt lat="44.44717731134096" lon="8.062224399212015"><ele>784.0</ele><time>2026-05-02T13:50:31Z</time></trkpt><trkpt lat="44.44714855505919" lon="8.062604530082444"><ele>783.0</ele><time>2026-05-02T13:50:32Z</time></trkpt><trkpt lat="44.44712419648283" lon="8.063001874368181"><ele>775.0</ele><time>2026-05-02T13:50:33Z</time></trkpt><trkpt lat="44.44710371122732" lon="8.063383497191936"><ele>767.0</ele><time>2026-05-02T13:50:34Z</time></trkpt><trkpt lat="44.44708459872166" lon="8.063724324982886"><ele>767.0</ele><time>2026-05-02T13:50:35Z</time></trkpt><trkpt lat="44.447064155607215" lon="8.064036707998435"><ele>767.0</ele><time>2026-05-02T13:50:36Z</time></trkpt><trkpt lat="44.44703973708813" lon="8.06432138675027"><ele>767.0</ele><time>2026-05-02T13:50:37Z</time></trkpt><trkpt lat="44.44699307026876" lon="8.064561315137581"><ele>768.6666666666666</ele><time>2026-05-02T13:50:38Z</time></trkpt><trkpt lat="44.446883908226674" lon="8.06479885430369"><ele>770.3333333333333</ele><time>2026-05-02T13:50:39Z</time></trkpt><trkpt lat="44.446742168933355" lon="8.065019180843011"><ele>772.0</ele><time>2026-05-02T13:50:40Z</time></trkpt><trkpt lat="44.44664614632702" lon="8.065272709547282"><ele>775.5</ele><time>2026-05-02T13:50:41Z</time></trkpt><trkpt lat="44.44659823794043" lon="8.065593119130238"><ele>779.0</ele><time>2026-05-02T13:50:42Z</time></trkpt><trkpt lat="44.446588846401234" lon="8.065959953934547"><ele>778.0</ele><time>2026-05-02T13:50:43Z</time></trkpt><trkpt lat="44.4466122789865" lon="8.066342941602148"><ele>777.0</ele><time>2026-05-02T13:50:44Z</time></trkpt><trkpt lat="44.44663703043766" lon="8.066727609337248"><ele>777.0</ele><time>2026-05-02T13:50:45Z</time></trkpt><trkpt lat="44.44663474794048" lon="8.06707003123009"><ele>777.0</ele><time>2026-05-02T13:50:46Z</time></trkpt><trkpt lat="44.44660050035567" lon="8.067376228351355"><ele>779.0</ele><time>2026-05-02T13:50:47Z</time></trkpt><trkpt lat="44.44651983025133" lon="8.06768573927618"><ele>781.0</ele><time>2026-05-02T13:50:48Z</time></trkpt><trkpt lat="44.44639521666716" lon="8.067995295424561"><ele>776.0</ele><time>2026-05-02T13:50:49Z</time></trkpt><trkpt lat="44.446278076589714" lon="8.068259902851466"><ele>771.0</ele><time>2026-05-02T13:50:50Z</time></trkpt><trkpt lat="44.4461974618871" lon="8.068502245159866"><ele>766.0</ele><time>2026-05-02T13:50:51Z</time></trkpt><trkpt lat="44.44617773108926" lon="8.068767022758257"><ele>766.0</ele><time>2026-05-02T13:50:52Z</time></trkpt><trkpt lat="44.44621129840468" lon="8.06908116529433"><ele>766.0</ele><time>2026-05-02T13:50:53Z</time></trkpt><trkpt lat="44.44626514154748" lon="8.069446050520634"><ele>774.0</ele><time>2026-05-02T13:50:54Z</time></trkpt><trkpt lat="44.44631735310303" lon="8.069829254211486"><ele>782.0</ele><time>2026-05-02T13:50:55Z</time></trkpt><trkpt lat="44.446365909788966" lon="8.070208508709152"><ele>782.0</ele><time>2026-05-02T13:50:56Z</time></trkpt><trkpt lat="44.44641513613613" lon="8.070558879610669"><ele>782.0</ele><time>2026-05-02T13:50:57Z</time></trkpt><trkpt lat="44.44646531364223" lon="8.070895790986572"><ele>782.0</ele><time>2026-05-02T13:50:58Z</time></trkpt><trkpt lat="44.446509149671606" lon="8.071229220020568"><ele>782.0</ele><time>2026-05-02T13:50:59Z</time></trkpt><trkpt lat="44.44656104625678" lon="8.071542633871932"><ele>780.0</ele><time>2026-05-02T13:51:00Z</time></trkpt><trkpt lat="44.44662732450342" lon="8.071878199031097"><ele>778.0</ele><time>2026-05-02T13:51:01Z</time></trkpt><trkpt lat="44.44671440209033" lon="8.072230188354707"><ele>776.5</ele><time>2026-05-02T13:51:02Z</time></trkpt><trkpt lat="44.44680720563954" lon="8.072585584438912"><ele>775.0</ele><time>2026-05-02T13:51:03Z</time></trkpt><trkpt lat="44.44688303279284" lon="8.07295439832893"><ele>771.5</ele><time>2026-05-02T13:51:04Z</time></trkpt><trkpt lat="44.44693404679812" lon="8.073327076266077"><ele>768.0</ele><time>2026-05-02T13:51:05Z</time></trkpt><trkpt lat="44.44698053679794" lon="8.073713372330962"><ele>768.0</ele><time>2026-05-02T13:51:06Z</time></trkpt><trkpt lat="44.447025421579156" lon="8.074088050848342"><ele>768.0</ele><time>2026-05-02T13:51:07Z</time></trkpt><trkpt lat="44.4470706063165" lon="8.07441861348566"><ele>767.3333333333334</ele><time>2026-05-02T13:51:08Z</time></trkpt><trkpt lat="44.44710134196262" lon="8.074683959604922"><ele>766.6666666666667</ele><time>2026-05-02T13:51:09Z</time></trkpt><trkpt lat="44.447105773667424" lon="8.07492923464648"><ele>766.0</ele><time>2026-05-02T13:51:10Z</time></trkpt><trkpt lat="44.44704986828681" lon="8.075202732873702"><ele>766.0</ele><time>2026-05-02T13:51:11Z</time></trkpt><trkpt lat="44.44692964736111" lon="8.075486515951628"><ele>766.0</ele><time>2026-05-02T13:51:12Z</time></trkpt><trkpt lat="44.44675709538329" lon="8.075741837936253"><ele>769.0</ele><time>2026-05-02T13:51:13Z</time></trkpt><trkpt lat="44.4466377079116" lon="8.076027282944066"><ele>772.0</ele><time>2026-05-02T13:51:14Z</time></trkpt><trkpt lat="44.446563598192206" lon="8.076288127312399"><ele>775.0</ele><time>2026-05-02T13:51:15Z</time></trkpt><trkpt lat="44.44653826534288" lon="8.076610725294547"><ele>779.0</ele><time>2026-05-02T13:51:16Z</time></trkpt><trkpt lat="44.446498672684555" lon="8.076952579011138"><ele>783.0</ele><time>2026-05-02T13:51:17Z</time></trkpt><trkpt lat="44.44643294632959" lon="8.077307294063392"><ele>787.5</ele><time>2026-05-02T13:51:18Z</time></trkpt><trkpt lat="44.44640448790564" lon="8.077674557828068"><ele>792.0</ele><time>2026-05-02T13:51:19Z</time></trkpt><trkpt lat="44.44639051915531" lon="8.078040319983504"><ele>792.5</ele><time>2026-05-02T13:51:20Z</time></trkpt><trkpt lat="44.44635721569426" lon="8.078384923565984"><ele>793.0</ele><time>2026-05-02T13:51:21Z</time></trkpt><trkpt lat="44.44633478643689" lon="8.078675438925487"><ele>784.6666666666666</ele><time>2026-05-02T13:51:22Z</time></trkpt><trkpt lat="44.446289493792506" lon="8.078918303516474"><ele>776.3333333333333</ele><time>2026-05-02T13:51:23Z</time></trkpt><trkpt lat="44.44621044074703" lon="8.079142397465045"><ele>768.0</ele><time>2026-05-02T13:51:24Z</time></trkpt><trkpt lat="44.446114491097894" lon="8.079378667759748"><ele>768.0</ele><time>2026-05-02T13:51:25Z</time></trkpt><trkpt lat="44.44601606202831" lon="8.079621480252484"><ele>768.0</ele><time>2026-05-02T13:51:26Z</time></trkpt><trkpt lat="44.445921340379456" lon="8.079855146596918"><ele>768.0</ele><time>2026-05-02T13:51:27Z</time></trkpt><trkpt lat="44.44583534089559" lon="8.080066755957183"><ele>771.3333333333333</ele><time>2026-05-02T13:51:28Z</time></trkpt><trkpt lat="44.445769701729446" lon="8.080272883375647"><ele>774.6666666666666</ele><time>2026-05-02T13:51:29Z</time></trkpt><trkpt lat="44.445686504714935" lon="8.080459695631951"><ele>778.0</ele><time>2026-05-02T13:51:30Z</time></trkpt><trkpt lat="44.4455975146896" lon="8.08063141926249"><ele>781.3333333333333</ele><time>2026-05-02T13:51:31Z</time></trkpt><trkpt lat="44.445505949354825" lon="8.080841510513366"><ele>784.6666666666667</ele><time>2026-05-02T13:51:32Z</time></trkpt><trkpt lat="44.445420405777284" lon="8.081076084270558"><ele>788.0</ele><time>2026-05-02T13:51:33Z</time></trkpt><trkpt lat="44.44532160889363" lon="8.0813046910131"><ele>781.6666666666667</ele><time>2026-05-02T13:51:34Z</time></trkpt><trkpt lat="44.445235899543405" lon="8.081524450285485"><ele>775.3333333333333</ele><time>2026-05-02T13:51:35Z</time></trkpt><trkpt lat="44.445171749301785" lon="8.08174785033769"><ele>769.0</ele><time>2026-05-02T13:51:36Z</time></trkpt><trkpt lat="44.44513531547992" lon="8.082011180811032"><ele>769.0</ele><time>2026-05-02T13:51:37Z</time></trkpt><trkpt lat="44.44509105504332" lon="8.082300139515576"><ele>769.0</ele><time>2026-05-02T13:51:38Z</time></trkpt><trkpt lat="44.44506294617259" lon="8.082601233849402"><ele>769.0</ele><time>2026-05-02T13:51:39Z</time></trkpt><trkpt lat="44.44505255589146" lon="8.082913271470373"><ele>770.6666666666666</ele><time>2026-05-02T13:51:40Z</time></trkpt><trkpt lat="44.44502828603287" lon="8.083210961672288"><ele>772.3333333333333</ele><time>2026-05-02T13:51:41Z</time></trkpt><trkpt lat="44.44499059924323" lon="8.083476823049903"><ele>774.0</ele><time>2026-05-02T13:51:42Z</time></trkpt><trkpt lat="44.444966536043005" lon="8.083713035568508"><ele>775.0</ele><time>2026-05-02T13:51:43Z</time></trkpt><trkpt lat="44.44493001317596" lon="8.083922361362172"><ele>776.0</ele><time>2026-05-02T13:51:44Z</time></trkpt><trkpt lat="44.4448583380759" lon="8.084107525695183"><ele>777.0</ele><time>2026-05-02T13:51:45Z</time></trkpt><trkpt lat="44.44473733666361" lon="8.084272734940853"><ele>771.6666666666666</ele><time>2026-05-02T13:51:46Z</time></trkpt><trkpt lat="44.44458749550154" lon="8.084441523826127"><ele>766.3333333333333</ele><time>2026-05-02T13:51:47Z</time></trkpt><trkpt lat="44.4444285293196" lon="8.084608394653499"><ele>761.0</ele><time>2026-05-02T13:51:48Z</time></trkpt><trkpt lat="44.44427515355985" lon="8.084822077299107"><ele>765.6666666666666</ele><time>2026-05-02T13:51:49Z</time></trkpt><trkpt lat="44.44411224143833" lon="8.085027243709899"><ele>770.3333333333333</ele><time>2026-05-02T13:51:50Z</time></trkpt><trkpt lat="44.44398056301656" lon="8.085202793983537"><ele>775.0</ele><time>2026-05-02T13:51:51Z</time></trkpt><trkpt lat="44.44384759307769" lon="8.085340595852557"><ele>770.0</ele><time>2026-05-02T13:51:52Z</time></trkpt><trkpt lat="44.44365883030358" lon="8.085398849696038"><ele>765.0</ele><time>2026-05-02T13:51:53Z</time></trkpt><trkpt lat="44.44343674449401" lon="8.085388167736834"><ele>760.0</ele><time>2026-05-02T13:51:54Z</time></trkpt><trkpt lat="44.44321994133695" lon="8.085420942582198"><ele>760.0</ele><time>2026-05-02T13:51:55Z</time></trkpt><trkpt lat="44.44299820707985" lon="8.085453270186415"><ele>760.0</ele><time>2026-05-02T13:51:56Z</time></trkpt><trkpt lat="44.44275870254085" lon="8.085527150103246"><ele>763.5</ele><time>2026-05-02T13:51:57Z</time></trkpt><trkpt lat="44.44251262226055" lon="8.08564593792306"><ele>767.0</ele><time>2026-05-02T13:51:58Z</time></trkpt><trkpt lat="44.44226790613516" lon="8.085767183124695"><ele>763.6666666666666</ele><time>2026-05-02T13:51:59Z</time></trkpt><trkpt lat="44.44207751517686" lon="8.085851878117529"><ele>760.3333333333334</ele><time>2026-05-02T13:52:00Z</time></trkpt><trkpt lat="44.44192564652115" lon="8.085925281644657"><ele>757.0</ele><time>2026-05-02T13:52:01Z</time></trkpt><trkpt lat="44.44179266423617" lon="8.086057253269601"><ele>757.0</ele><time>2026-05-02T13:52:02Z</time></trkpt><trkpt lat="44.441667063269215" lon="8.086289278254844"><ele>757.0</ele><time>2026-05-02T13:52:03Z</time></trkpt><trkpt lat="44.441561665337375" lon="8.08659729426887"><ele>762.0</ele><time>2026-05-02T13:52:04Z</time></trkpt><trkpt lat="44.44144143719903" lon="8.086924437055606"><ele>767.0</ele><time>2026-05-02T13:52:05Z</time></trkpt><trkpt lat="44.441324241788514" lon="8.087256589455794"><ele>756.5</ele><time>2026-05-02T13:52:06Z</time></trkpt><trkpt lat="44.441192555683365" lon="8.087581961217143"><ele>746.0</ele><time>2026-05-02T13:52:07Z</time></trkpt><trkpt lat="44.44106854598449" lon="8.087897424407174"><ele>749.0</ele><time>2026-05-02T13:52:08Z</time></trkpt><trkpt lat="44.4409925750504" lon="8.088263624630995"><ele>752.0</ele><time>2026-05-02T13:52:09Z</time></trkpt><trkpt lat="44.44089420398406" lon="8.08864021947193"><ele>752.0</ele><time>2026-05-02T13:52:10Z</time></trkpt><trkpt lat="44.44077536354712" lon="8.089021969996688"><ele>752.0</ele><time>2026-05-02T13:52:11Z</time></trkpt><trkpt lat="44.440644297983255" lon="8.08937855805837"><ele>754.0</ele><time>2026-05-02T13:52:12Z</time></trkpt><trkpt lat="44.44055775814947" lon="8.089708237058353"><ele>756.0</ele><time>2026-05-02T13:52:13Z</time></trkpt><trkpt lat="44.440435051007704" lon="8.089984913998702"><ele>749.5</ele><time>2026-05-02T13:52:14Z</time></trkpt><trkpt lat="44.44028638169845" lon="8.090245076471836"><ele>743.0</ele><time>2026-05-02T13:52:15Z</time></trkpt><trkpt lat="44.44013485642884" lon="8.09047901296136"><ele>743.0</ele><time>2026-05-02T13:52:16Z</time></trkpt><trkpt lat="44.440037865842534" lon="8.090685996405117"><ele>743.0</ele><time>2026-05-02T13:52:17Z</time></trkpt><trkpt lat="44.43997158657613" lon="8.090900508933641"><ele>743.0</ele><time>2026-05-02T13:52:18Z</time></trkpt><trkpt lat="44.4399487048632" lon="8.091194945399707"><ele>745.5</ele><time>2026-05-02T13:52:19Z</time></trkpt><trkpt lat="44.43996120464712" lon="8.091563723576265"><ele>748.0</ele><time>2026-05-02T13:52:20Z</time></trkpt><trkpt lat="44.439959431055115" lon="8.091922656010826"><ele>748.0</ele><time>2026-05-02T13:52:21Z</time></trkpt><trkpt lat="44.43992188251874" lon="8.092211785942746"><ele>748.0</ele><time>2026-05-02T13:52:22Z</time></trkpt><trkpt lat="44.43987207128493" lon="8.092468734670208"><ele>748.0</ele><time>2026-05-02T13:52:23Z</time></trkpt><trkpt lat="44.43975975461464" lon="8.09272364255582"><ele>742.5</ele><time>2026-05-02T13:52:24Z</time></trkpt><trkpt lat="44.439612912871524" lon="8.093016430513352"><ele>737.0</ele><time>2026-05-02T13:52:25Z</time></trkpt><trkpt lat="44.43945645251993" lon="8.093301004832128"><ele>737.0</ele><time>2026-05-02T13:52:26Z</time></trkpt><trkpt lat="44.43926256740411" lon="8.0935472952905"><ele>737.0</ele><time>2026-05-02T13:52:27Z</time></trkpt><trkpt lat="44.43903947583194" lon="8.09379420458314"><ele>737.0</ele><time>2026-05-02T13:52:28Z</time></trkpt><trkpt lat="44.43881572975289" lon="8.09404183825275"><ele>737.0</ele><time>2026-05-02T13:52:29Z</time></trkpt><trkpt lat="44.4386154381646" lon="8.094263513384224"><ele>737.3333333333333</ele><time>2026-05-02T13:52:30Z</time></trkpt><trkpt lat="44.43844430108492" lon="8.094436035894166"><ele>737.6666666666666</ele><time>2026-05-02T13:52:31Z</time></trkpt><trkpt lat="44.43827073992048" lon="8.094551086242227"><ele>738.0</ele><time>2026-05-02T13:52:32Z</time></trkpt><trkpt lat="44.43807030859547" lon="8.094621492299398"><ele>734.5</ele><time>2026-05-02T13:52:33Z</time></trkpt><trkpt lat="44.43783775392108" lon="8.094619065513399"><ele>731.0</ele><time>2026-05-02T13:52:34Z</time></trkpt><trkpt lat="44.4375779997438" lon="8.094607008693727"><ele>731.0</ele><time>2026-05-02T13:52:35Z</time></trkpt><trkpt lat="44.437321935404285" lon="8.09461017379499"><ele>731.0</ele><time>2026-05-02T13:52:36Z</time></trkpt><trkpt lat="44.437087499817494" lon="8.094586710319742"><ele>730.5</ele><time>2026-05-02T13:52:37Z</time></trkpt><trkpt lat="44.43684022890643" lon="8.094547976229208"><ele>730.0</ele><time>2026-05-02T13:52:38Z</time></trkpt><trkpt lat="44.43660909113712" lon="8.094477638423651"><ele>730.0</ele><time>2026-05-02T13:52:39Z</time></trkpt><trkpt lat="44.43643537568303" lon="8.094402198914695"><ele>730.0</ele><time>2026-05-02T13:52:40Z</time></trkpt><trkpt lat="44.43628911712381" lon="8.09437097863536"><ele>730.0</ele><time>2026-05-02T13:52:41Z</time></trkpt><trkpt lat="44.43613682343845" lon="8.09440259640756"><ele>728.6666666666667</ele><time>2026-05-02T13:52:42Z</time></trkpt><trkpt lat="44.43598120862277" lon="8.094536479945111"><ele>727.3333333333334</ele><time>2026-05-02T13:52:43Z</time></trkpt><trkpt lat="44.43582812260327" lon="8.094810369363353"><ele>726.0</ele><time>2026-05-02T13:52:44Z</time></trkpt><trkpt lat="44.435714061753025" lon="8.095111660367523"><ele>724.0</ele><time>2026-05-02T13:52:45Z</time></trkpt><trkpt lat="44.435593879223596" lon="8.095381270449403"><ele>722.0</ele><time>2026-05-02T13:52:46Z</time></trkpt><trkpt lat="44.435452855430285" lon="8.095560692350915"><ele>720.0</ele><time>2026-05-02T13:52:47Z</time></trkpt><trkpt lat="44.43523494271594" lon="8.095637451113692"><ele>720.0</ele><time>2026-05-02T13:52:48Z</time></trkpt><trkpt lat="44.43502086368325" lon="8.095704131792246"><ele>720.0</ele><time>2026-05-02T13:52:49Z</time></trkpt><trkpt lat="44.43482798895497" lon="8.095776148336993"><ele>720.0</ele><time>2026-05-02T13:52:50Z</time></trkpt><trkpt lat="44.434645240848525" lon="8.095925039395658"><ele>720.0</ele><time>2026-05-02T13:52:51Z</time></trkpt><trkpt lat="44.43449187179653" lon="8.096176233619296"><ele>720.0</ele><time>2026-05-02T13:52:52Z</time></trkpt><trkpt lat="44.43434567060019" lon="8.09646212403762"><ele>725.5</ele><time>2026-05-02T13:52:53Z</time></trkpt><trkpt lat="44.43420969515023" lon="8.096751066361527"><ele>731.0</ele><time>2026-05-02T13:52:54Z</time></trkpt><trkpt lat="44.434074710600406" lon="8.09699347423994"><ele>731.0</ele><time>2026-05-02T13:52:55Z</time></trkpt><trkpt lat="44.43395221738273" lon="8.097207291050006"><ele>731.0</ele><time>2026-05-02T13:52:56Z</time></trkpt><trkpt lat="44.433843125622175" lon="8.097399868007644"><ele>731.0</ele><time>2026-05-02T13:52:57Z</time></trkpt><trkpt lat="44.4337287390316" lon="8.097563916260166"><ele>729.0</ele><time>2026-05-02T13:52:58Z</time></trkpt><trkpt lat="44.433570488360985" lon="8.097691441924121"><ele>727.0</ele><time>2026-05-02T13:52:59Z</time></trkpt><trkpt lat="44.433376315524036" lon="8.097780920035786"><ele>725.0</ele><time>2026-05-02T13:53:00Z</time></trkpt><trkpt lat="44.433179357088164" lon="8.09785394118552"><ele>725.0</ele><time>2026-05-02T13:53:01Z</time></trkpt><trkpt lat="44.432974931207205" lon="8.097891877638228"><ele>725.0</ele><time>2026-05-02T13:53:02Z</time></trkpt><trkpt lat="44.43275423119824" lon="8.097854889785832"><ele>725.0</ele><time>2026-05-02T13:53:03Z</time></trkpt><trkpt lat="44.432562886806416" lon="8.0977742717095"><ele>724.0</ele><time>2026-05-02T13:53:04Z</time></trkpt><trkpt lat="44.43238792544378" lon="8.097751011019376"><ele>723.0</ele><time>2026-05-02T13:53:05Z</time></trkpt><trkpt lat="44.432191674799526" lon="8.097811858711255"><ele>722.0</ele><time>2026-05-02T13:53:06Z</time></trkpt><trkpt lat="44.43198631396573" lon="8.097955821130961"><ele>725.5</ele><time>2026-05-02T13:53:07Z</time></trkpt><trkpt lat="44.43179365937805" lon="8.098140651968844"><ele>729.0</ele><time>2026-05-02T13:53:08Z</time></trkpt><trkpt lat="44.43160954612406" lon="8.098304375175395"><ele>729.0</ele><time>2026-05-02T13:53:09Z</time></trkpt><trkpt lat="44.43144494374552" lon="8.09844782160198"><ele>729.0</ele><time>2026-05-02T13:53:10Z</time></trkpt><trkpt lat="44.43128447011169" lon="8.098579603315548"><ele>729.0</ele><time>2026-05-02T13:53:11Z</time></trkpt><trkpt lat="44.43113136001185" lon="8.098703135263118"><ele>727.3333333333334</ele><time>2026-05-02T13:53:12Z</time></trkpt><trkpt lat="44.43098148248173" lon="8.098805438067009"><ele>725.6666666666667</ele><time>2026-05-02T13:53:13Z</time></trkpt><trkpt lat="44.43082532455001" lon="8.098847135090171"><ele>724.0</ele><time>2026-05-02T13:53:14Z</time></trkpt><trkpt lat="44.43066062349276" lon="8.098807467976338"><ele>724.0</ele><time>2026-05-02T13:53:15Z</time></trkpt><trkpt lat="44.43049697227286" lon="8.098756494719568"><ele>724.0</ele><time>2026-05-02T13:53:16Z</time></trkpt><trkpt lat="44.430333252185356" lon="8.098721017249002"><ele>724.0</ele><time>2026-05-02T13:53:17Z</time></trkpt><trkpt lat="44.43017396680132" lon="8.098703115440719"><ele>725.3333333333334</ele><time>2026-05-02T13:53:18Z</time></trkpt><trkpt lat="44.430009548338944" lon="8.098695548542155"><ele>726.6666666666666</ele><time>2026-05-02T13:53:19Z</time></trkpt><trkpt lat="44.42983323659931" lon="8.09871826721097"><ele>728.0</ele><time>2026-05-02T13:53:20Z</time></trkpt><trkpt lat="44.429656524406774" lon="8.09877472473887"><ele>727.6666666666666</ele><time>2026-05-02T13:53:21Z</time></trkpt><trkpt lat="44.42947831594527" lon="8.098826087314121"><ele>727.3333333333334</ele><time>2026-05-02T13:53:22Z</time></trkpt><trkpt lat="44.42928842068353" lon="8.098806786906525"><ele>727.0</ele><time>2026-05-02T13:53:23Z</time></trkpt><trkpt lat="44.42909391094014" lon="8.098719202238247"><ele>727.0</ele><time>2026-05-02T13:53:24Z</time></trkpt><trkpt lat="44.4289121486314" lon="8.098567051351464"><ele>727.0</ele><time>2026-05-02T13:53:25Z</time></trkpt><trkpt lat="44.428743478759195" lon="8.09839486383291"><ele>727.0</ele><time>2026-05-02T13:53:26Z</time></trkpt><trkpt lat="44.42859403704252" lon="8.0982390349033"><ele>727.3333333333334</ele><time>2026-05-02T13:53:27Z</time></trkpt><trkpt lat="44.42846622745181" lon="8.098076409416208"><ele>727.6666666666666</ele><time>2026-05-02T13:53:28Z</time></trkpt><trkpt lat="44.428337824750166" lon="8.097912124131001"><ele>728.0</ele><time>2026-05-02T13:53:29Z</time></trkpt><trkpt lat="44.42821820398391" lon="8.09776005764345"><ele>728.0</ele><time>2026-05-02T13:53:30Z</time></trkpt><trkpt lat="44.42810404451538" lon="8.097619832721913"><ele>728.0</ele><time>2026-05-02T13:53:31Z</time></trkpt><trkpt lat="44.427995143031666" lon="8.097493881934444"><ele>728.0</ele><time>2026-05-02T13:53:32Z</time></trkpt><trkpt lat="44.42788658096253" lon="8.097389075128032"><ele>728.0</ele><time>2026-05-02T13:53:33Z</time></trkpt><trkpt lat="44.427764077792425" lon="8.09730315326578"><ele>728.0</ele><time>2026-05-02T13:53:34Z</time></trkpt><trkpt lat="44.4276116252734" lon="8.097235334281153"><ele>728.0</ele><time>2026-05-02T13:53:35Z</time></trkpt><trkpt lat="44.42741413809887" lon="8.09718671148815"><ele>728.0</ele><time>2026-05-02T13:53:36Z</time></trkpt><trkpt lat="44.42719161357924" lon="8.097137264756281"><ele>730.0</ele><time>2026-05-02T13:53:37Z</time></trkpt><trkpt lat="44.42694595821963" lon="8.097098152712796"><ele>732.0</ele><time>2026-05-02T13:53:38Z</time></trkpt><trkpt lat="44.42669944607965" lon="8.097060327274242"><ele>732.0</ele><time>2026-05-02T13:53:39Z</time></trkpt><trkpt lat="44.42648214239416" lon="8.097005694861613"><ele>732.0</ele><time>2026-05-02T13:53:40Z</time></trkpt><trkpt lat="44.426281025943304" lon="8.09692267856437"><ele>732.0</ele><time>2026-05-02T13:53:41Z</time></trkpt><trkpt lat="44.426098579653505" lon="8.096781978773823"><ele>732.6666666666666</ele><time>2026-05-02T13:53:42Z</time></trkpt><trkpt lat="44.42592321089455" lon="8.096642522211948"><ele>733.3333333333333</ele><time>2026-05-02T13:53:43Z</time></trkpt><trkpt lat="44.42575752199131" lon="8.096532509113105"><ele>734.0</ele><time>2026-05-02T13:53:44Z</time></trkpt><trkpt lat="44.425626402166394" lon="8.096408388026754"><ele>734.25</ele><time>2026-05-02T13:53:45Z</time></trkpt><trkpt lat="44.42552210572155" lon="8.096302878601211"><ele>734.5</ele><time>2026-05-02T13:53:46Z</time></trkpt><trkpt lat="44.42544286762503" lon="8.096192018884528"><ele>734.75</ele><time>2026-05-02T13:53:47Z</time></trkpt><trkpt lat="44.425377788021144" lon="8.096070148776455"><ele>735.0</ele><time>2026-05-02T13:53:48Z</time></trkpt><trkpt lat="44.425310477756334" lon="8.095965545869412"><ele>734.5</ele><time>2026-05-02T13:53:49Z</time></trkpt><trkpt lat="44.425197658397586" lon="8.09592215139945"><ele>734.0</ele><time>2026-05-02T13:53:50Z</time></trkpt><trkpt lat="44.42503762939469" lon="8.095898451046308"><ele>733.5</ele><time>2026-05-02T13:53:51Z</time></trkpt><trkpt lat="44.42490296202493" lon="8.095840459955333"><ele>733.0</ele><time>2026-05-02T13:53:52Z</time></trkpt><trkpt lat="44.424780568712706" lon="8.095782995023118"><ele>732.0</ele><time>2026-05-02T13:53:53Z</time></trkpt><trkpt lat="44.42466953483491" lon="8.095731871471605"><ele>731.0</ele><time>2026-05-02T13:53:54Z</time></trkpt><trkpt lat="44.42457043057643" lon="8.095685631618005"><ele>730.0</ele><time>2026-05-02T13:53:55Z</time></trkpt><trkpt lat="44.424478674580726" lon="8.095614689924934"><ele>729.0</ele><time>2026-05-02T13:53:56Z</time></trkpt><trkpt lat="44.42440257015743" lon="8.095573900864336"><ele>728.0</ele><time>2026-05-02T13:53:57Z</time></trkpt><trkpt lat="44.42434267897079" lon="8.0955369796038"><ele>728.0</ele><time>2026-05-02T13:53:58Z</time></trkpt><trkpt lat="44.424260315906956" lon="8.095484775870236"><ele>728.0</ele><time>2026-05-02T13:54:00Z</time></trkpt><trkpt lat="44.42418809625543" lon="8.095593448352165"><ele>728.0</ele><time>2026-05-02T13:54:01Z</time></trkpt><trkpt lat="44.424113710761326" lon="8.09562233167529"><ele>728.0</ele><time>2026-05-02T13:54:04Z</time></trkpt><trkpt lat="44.42414267691997" lon="8.095406694582591"><ele>728.0</ele><time>2026-05-02T13:54:34.999Z</time></trkpt><trkpt lat="44.42408954008807" lon="8.095596571028887"><ele>728.0</ele><time>2026-05-02T13:56:11Z</time></trkpt><trkpt lat="44.42415211945134" lon="8.095412961922008"><ele>728.0</ele><time>2026-05-02T13:56:17Z</time></trkpt><trkpt lat="44.42409780787634" lon="8.095590063388698"><ele>728.0</ele><time>2026-05-02T13:56:45Z</time></trkpt><trkpt lat="44.42403585200538" lon="8.09550383869722"><ele>728.0</ele><time>2026-05-02T13:57:10Z</time></trkpt><trkpt lat="44.423976846536036" lon="8.095444679649376"><ele>728.0</ele><time>2026-05-02T13:57:12Z</time></trkpt><trkpt lat="44.423945104869354" lon="8.095366799630211"><ele>728.0</ele><time>2026-05-02T13:57:16Z</time></trkpt><trkpt lat="44.42394892654253" lon="8.095241972273154"><ele>728.0</ele><time>2026-05-02T13:57:22Z</time></trkpt><trkpt lat="44.423823673789585" lon="8.095177149227277"><ele>728.0</ele><time>2026-05-02T13:57:24Z</time></trkpt><trkpt lat="44.423743142384474" lon="8.095108027065116"><ele>728.0</ele><time>2026-05-02T13:57:25Z</time></trkpt><trkpt lat="44.42365728425667" lon="8.09503104225618"><ele>728.0</ele><time>2026-05-02T13:57:26Z</time></trkpt><trkpt lat="44.423578757550146" lon="8.094920234552788"><ele>727.75</ele><time>2026-05-02T13:57:27Z</time></trkpt><trkpt lat="44.42347970043479" lon="8.094836425069518"><ele>727.5</ele><time>2026-05-02T13:57:28Z</time></trkpt><trkpt lat="44.42338791790862" lon="8.09472742725751"><ele>727.25</ele><time>2026-05-02T13:57:29Z</time></trkpt><trkpt lat="44.42329413530861" lon="8.094593450387801"><ele>727.0</ele><time>2026-05-02T13:57:30Z</time></trkpt><trkpt lat="44.42319418842208" lon="8.094439182502473"><ele>727.0</ele><time>2026-05-02T13:57:31Z</time></trkpt><trkpt lat="44.423079048546974" lon="8.094246701274656"><ele>727.0</ele><time>2026-05-02T13:57:32Z</time></trkpt><trkpt lat="44.422971605038185" lon="8.094056185565202"><ele>727.0</ele><time>2026-05-02T13:57:33Z</time></trkpt><trkpt lat="44.422855823630314" lon="8.093875204783481"><ele>726.6666666666667</ele><time>2026-05-02T13:57:34Z</time></trkpt><trkpt lat="44.422735018423644" lon="8.093696485073554"><ele>726.3333333333334</ele><time>2026-05-02T13:57:35Z</time></trkpt><trkpt lat="44.42254971701907" lon="8.093568215699523"><ele>726.0</ele><time>2026-05-02T13:57:36Z</time></trkpt><trkpt lat="44.4223292413644" lon="8.093499935305053"><ele>728.5</ele><time>2026-05-02T13:57:37Z</time></trkpt><trkpt lat="44.42209089734034" lon="8.093439513356437"><ele>731.0</ele><time>2026-05-02T13:57:38Z</time></trkpt><trkpt lat="44.42186167941921" lon="8.093376701134996"><ele>731.0</ele><time>2026-05-02T13:57:39Z</time></trkpt><trkpt lat="44.421682316119295" lon="8.09330179969545"><ele>731.0</ele><time>2026-05-02T13:57:40Z</time></trkpt><trkpt lat="44.42153253237813" lon="8.093165486446415"><ele>731.0</ele><time>2026-05-02T13:57:41Z</time></trkpt><trkpt lat="44.42140475897686" lon="8.0929730354596"><ele>729.6666666666666</ele><time>2026-05-02T13:57:42Z</time></trkpt><trkpt lat="44.421298771612086" lon="8.092744252665018"><ele>728.3333333333334</ele><time>2026-05-02T13:57:43Z</time></trkpt><trkpt lat="44.42124020495061" lon="8.092451709165243"><ele>727.0</ele><time>2026-05-02T13:57:44Z</time></trkpt><trkpt lat="44.42119521784471" lon="8.092198045189656"><ele>727.0</ele><time>2026-05-02T13:57:45Z</time></trkpt><trkpt lat="44.42113855471991" lon="8.092009367441001"><ele>727.0</ele><time>2026-05-02T13:57:46Z</time></trkpt><trkpt lat="44.421041278514885" lon="8.0918470481259"><ele>727.0</ele><time>2026-05-02T13:57:47Z</time></trkpt><trkpt lat="44.42087930217576" lon="8.091781677766448"><ele>727.0</ele><time>2026-05-02T13:57:48Z</time></trkpt><trkpt lat="44.420710252004284" lon="8.091792272402573"><ele>727.0</ele><time>2026-05-02T13:57:49Z</time></trkpt><trkpt lat="44.42050822316748" lon="8.091876269920546"><ele>727.0</ele><time>2026-05-02T13:57:50Z</time></trkpt><trkpt lat="44.42026437416387" lon="8.091972842135384"><ele>723.0</ele><time>2026-05-02T13:57:51Z</time></trkpt><trkpt lat="44.42002561658094" lon="8.09207694089169"><ele>719.0</ele><time>2026-05-02T13:57:52Z</time></trkpt><trkpt lat="44.41982802417416" lon="8.092180142754318"><ele>719.0</ele><time>2026-05-02T13:57:53Z</time></trkpt><trkpt lat="44.41965484278367" lon="8.092230401765468"><ele>719.0</ele><time>2026-05-02T13:57:54Z</time></trkpt><trkpt lat="44.4194605341231" lon="8.092235568559301"><ele>719.0</ele><time>2026-05-02T13:57:55Z</time></trkpt><trkpt lat="44.4192367807646" lon="8.092164769749695"><ele>719.0</ele><time>2026-05-02T13:57:56Z</time></trkpt><trkpt lat="44.419014833612934" lon="8.092061835687561"><ele>719.0</ele><time>2026-05-02T13:57:57Z</time></trkpt><trkpt lat="44.41879282888885" lon="8.091924313642046"><ele>721.0</ele><time>2026-05-02T13:57:58Z</time></trkpt><trkpt lat="44.41861003869492" lon="8.091751842849938"><ele>723.0</ele><time>2026-05-02T13:57:59Z</time></trkpt><trkpt lat="44.41846096142063" lon="8.091508046598758"><ele>723.0</ele><time>2026-05-02T13:58:00Z</time></trkpt><trkpt lat="44.418328634144274" lon="8.09126249378806"><ele>723.0</ele><time>2026-05-02T13:58:01Z</time></trkpt><trkpt lat="44.418229854126956" lon="8.091054578042389"><ele>723.0</ele><time>2026-05-02T13:58:02Z</time></trkpt><trkpt lat="44.41815272682777" lon="8.090851794468904"><ele>721.6666666666666</ele><time>2026-05-02T13:58:03Z</time></trkpt><trkpt lat="44.41812605145915" lon="8.090613725358184"><ele>720.3333333333333</ele><time>2026-05-02T13:58:04Z</time></trkpt><trkpt lat="44.418136210173685" lon="8.090328596289178"><ele>719.0</ele><time>2026-05-02T13:58:05Z</time></trkpt><trkpt lat="44.41814185439876" lon="8.090003939426667"><ele>716.3333333333333</ele><time>2026-05-02T13:58:06Z</time></trkpt><trkpt lat="44.41814321343732" lon="8.089761019440175"><ele>713.6666666666666</ele><time>2026-05-02T13:58:07Z</time></trkpt><trkpt lat="44.418095483688376" lon="8.089573050093602"><ele>711.0</ele><time>2026-05-02T13:58:08Z</time></trkpt><trkpt lat="44.41799347743618" lon="8.089394814267878"><ele>712.0</ele><time>2026-05-02T13:58:09Z</time></trkpt><trkpt lat="44.41783284048394" lon="8.089227371519934"><ele>713.0</ele><time>2026-05-02T13:58:10Z</time></trkpt><trkpt lat="44.417627917368385" lon="8.089060696938944"><ele>714.0</ele><time>2026-05-02T13:58:11Z</time></trkpt><trkpt lat="44.41746547140807" lon="8.088836293819652"><ele>714.0</ele><time>2026-05-02T13:58:12Z</time></trkpt><trkpt lat="44.417324716032425" lon="8.088631826425708"><ele>714.0</ele><time>2026-05-02T13:58:13Z</time></trkpt><trkpt lat="44.417212023841074" lon="8.088457531032862"><ele>714.0</ele><time>2026-05-02T13:58:14Z</time></trkpt><trkpt lat="44.41707780703494" lon="8.088343065387424"><ele>714.6666666666666</ele><time>2026-05-02T13:58:15Z</time></trkpt><trkpt lat="44.41692551808107" lon="8.08829895995121"><ele>715.3333333333333</ele><time>2026-05-02T13:58:16Z</time></trkpt><trkpt lat="44.416775914838674" lon="8.088340681574731"><ele>716.0</ele><time>2026-05-02T13:58:17Z</time></trkpt><trkpt lat="44.41663087424194" lon="8.088470664209005"><ele>716.0</ele><time>2026-05-02T13:58:18Z</time></trkpt><trkpt lat="44.41648991575097" lon="8.088667587945377"><ele>716.0</ele><time>2026-05-02T13:58:19Z</time></trkpt><trkpt lat="44.41630322091117" lon="8.088810278435677"><ele>716.0</ele><time>2026-05-02T13:58:20Z</time></trkpt><trkpt lat="44.41614147550561" lon="8.088980884954623"><ele>716.0</ele><time>2026-05-02T13:58:21Z</time></trkpt><trkpt lat="44.41598237411858" lon="8.08915276650719"><ele>716.0</ele><time>2026-05-02T13:58:22Z</time></trkpt><trkpt lat="44.41585693687154" lon="8.08929873136027"><ele>716.0</ele><time>2026-05-02T13:58:23Z</time></trkpt><trkpt lat="44.41572481992149" lon="8.089421385389072"><ele>716.0</ele><time>2026-05-02T13:58:24Z</time></trkpt><trkpt lat="44.41552023324846" lon="8.089554539866143"><ele>716.0</ele><time>2026-05-02T13:58:25Z</time></trkpt><trkpt lat="44.41533778180208" lon="8.089625700975754"><ele>716.0</ele><time>2026-05-02T13:58:26Z</time></trkpt><trkpt lat="44.415109432339555" lon="8.089692374609555"><ele>712.6666666666666</ele><time>2026-05-02T13:58:27Z</time></trkpt><trkpt lat="44.4148838674136" lon="8.08974258217082"><ele>709.3333333333334</ele><time>2026-05-02T13:58:28Z</time></trkpt><trkpt lat="44.41469520930054" lon="8.089807296771518"><ele>706.0</ele><time>2026-05-02T13:58:29Z</time></trkpt><trkpt lat="44.41453740676062" lon="8.089930364867236"><ele>706.0</ele><time>2026-05-02T13:58:30Z</time></trkpt><trkpt lat="44.41438741015571" lon="8.090141494152288"><ele>706.0</ele><time>2026-05-02T13:58:31Z</time></trkpt><trkpt lat="44.41424265774579" lon="8.090388243816317"><ele>706.0</ele><time>2026-05-02T13:58:32Z</time></trkpt><trkpt lat="44.414033691004846" lon="8.090530558064852"><ele>708.5</ele><time>2026-05-02T13:58:33Z</time></trkpt><trkpt lat="44.41379492918033" lon="8.090657894912816"><ele>711.0</ele><time>2026-05-02T13:58:34Z</time></trkpt><trkpt lat="44.413582009859674" lon="8.090799017957162"><ele>711.0</ele><time>2026-05-02T13:58:35Z</time></trkpt><trkpt lat="44.41336654180443" lon="8.090950664247629"><ele>711.0</ele><time>2026-05-02T13:58:36Z</time></trkpt><trkpt lat="44.41318096276756" lon="8.09119466747776"><ele>711.0</ele><time>2026-05-02T13:58:37Z</time></trkpt><trkpt lat="44.413014050534485" lon="8.091449499451532"><ele>711.0</ele><time>2026-05-02T13:58:38Z</time></trkpt><trkpt lat="44.41282461563967" lon="8.091568791395098"><ele>710.5</ele><time>2026-05-02T13:58:39Z</time></trkpt><trkpt lat="44.41260363292769" lon="8.091652284022238"><ele>710.0</ele><time>2026-05-02T13:58:40Z</time></trkpt><trkpt lat="44.41235735901818" lon="8.091739397934024"><ele>701.0</ele><time>2026-05-02T13:58:41Z</time></trkpt><trkpt lat="44.412119425446804" lon="8.091861388197483"><ele>692.0</ele><time>2026-05-02T13:58:42Z</time></trkpt><trkpt lat="44.41191896168121" lon="8.091967124149239"><ele>692.0</ele><time>2026-05-02T13:58:43Z</time></trkpt><trkpt lat="44.41176546802766" lon="8.092098607263813"><ele>692.0</ele><time>2026-05-02T13:58:44Z</time></trkpt><trkpt lat="44.411647733202216" lon="8.09227709170296"><ele>692.0</ele><time>2026-05-02T13:58:45Z</time></trkpt><trkpt lat="44.41154912995437" lon="8.092512307673708"><ele>699.0</ele><time>2026-05-02T13:58:46Z</time></trkpt><trkpt lat="44.41148522241002" lon="8.092829559062865"><ele>706.0</ele><time>2026-05-02T13:58:47Z</time></trkpt><trkpt lat="44.41141625726338" lon="8.09318892846727"><ele>699.0</ele><time>2026-05-02T13:58:48Z</time></trkpt><trkpt lat="44.411264673641185" lon="8.093517772618931"><ele>692.0</ele><time>2026-05-02T13:58:49Z</time></trkpt><trkpt lat="44.41109608379941" lon="8.093849148886992"><ele>696.0</ele><time>2026-05-02T13:58:50Z</time></trkpt><trkpt lat="44.4109312757491" lon="8.094211992330429"><ele>700.0</ele><time>2026-05-02T13:58:51Z</time></trkpt><trkpt lat="44.4107470804204" lon="8.094566786972843"><ele>701.0</ele><time>2026-05-02T13:58:52Z</time></trkpt><trkpt lat="44.4105616477485" lon="8.094927073473585"><ele>702.0</ele><time>2026-05-02T13:58:53Z</time></trkpt><trkpt lat="44.41038564800841" lon="8.095267391273351"><ele>702.0</ele><time>2026-05-02T13:58:54Z</time></trkpt><trkpt lat="44.41023586939523" lon="8.095574676078796"><ele>702.0</ele><time>2026-05-02T13:58:55Z</time></trkpt><trkpt lat="44.41012768656177" lon="8.095843586918262"><ele>707.5</ele><time>2026-05-02T13:58:56Z</time></trkpt><trkpt lat="44.41004142274578" lon="8.096159841486154"><ele>713.0</ele><time>2026-05-02T13:58:57Z</time></trkpt><trkpt lat="44.409969024514034" lon="8.09646425032503"><ele>715.6666666666666</ele><time>2026-05-02T13:58:58Z</time></trkpt><trkpt lat="44.40992110838291" lon="8.096734131111592"><ele>718.3333333333334</ele><time>2026-05-02T13:58:59Z</time></trkpt><trkpt lat="44.409915806636036" lon="8.097019612403557"><ele>721.0</ele><time>2026-05-02T13:59:00Z</time></trkpt><trkpt lat="44.409969275834975" lon="8.097323885878323"><ele>723.0</ele><time>2026-05-02T13:59:01Z</time></trkpt><trkpt lat="44.41006766682315" lon="8.097637372902597"><ele>725.0</ele><time>2026-05-02T13:59:02Z</time></trkpt><trkpt lat="44.41017981659301" lon="8.097946562806861"><ele>724.5</ele><time>2026-05-02T13:59:03Z</time></trkpt><trkpt lat="44.41030161224929" lon="8.098263047293207"><ele>724.0</ele><time>2026-05-02T13:59:04Z</time></trkpt><trkpt lat="44.41042004409176" lon="8.098549116372673"><ele>725.0</ele><time>2026-05-02T13:59:05Z</time></trkpt><trkpt lat="44.41053110888298" lon="8.098795926176802"><ele>726.0</ele><time>2026-05-02T13:59:06Z</time></trkpt><trkpt lat="44.41059404284036" lon="8.099030241979714"><ele>727.0</ele><time>2026-05-02T13:59:07Z</time></trkpt><trkpt lat="44.41062065788066" lon="8.099237162286808"><ele>727.0</ele><time>2026-05-02T13:59:08Z</time></trkpt><trkpt lat="44.41059316932713" lon="8.099468557004501"><ele>727.0</ele><time>2026-05-02T13:59:09Z</time></trkpt><trkpt lat="44.41053100463973" lon="8.099709725690607"><ele>727.0</ele><time>2026-05-02T13:59:10Z</time></trkpt><trkpt lat="44.410447609558574" lon="8.099976015958603"><ele>725.3333333333334</ele><time>2026-05-02T13:59:11Z</time></trkpt><trkpt lat="44.41036699159796" lon="8.100273880710878"><ele>723.6666666666666</ele><time>2026-05-02T13:59:12Z</time></trkpt><trkpt lat="44.410273114805655" lon="8.100547810335618"><ele>722.0</ele><time>2026-05-02T13:59:13Z</time></trkpt><trkpt lat="44.41016903327455" lon="8.100767730861577"><ele>722.0</ele><time>2026-05-02T13:59:14Z</time></trkpt><trkpt lat="44.41006500953241" lon="8.100969278014203"><ele>722.0</ele><time>2026-05-02T13:59:15Z</time></trkpt><trkpt lat="44.40996641820321" lon="8.101186638751832"><ele>722.0</ele><time>2026-05-02T13:59:16Z</time></trkpt><trkpt lat="44.4098511843338" lon="8.10142356335"><ele>722.3333333333333</ele><time>2026-05-02T13:59:17Z</time></trkpt><trkpt lat="44.40977256039666" lon="8.101695893678324"><ele>722.6666666666666</ele><time>2026-05-02T13:59:18Z</time></trkpt><trkpt lat="44.4097190625093" lon="8.101967220401352"><ele>723.0</ele><time>2026-05-02T13:59:19Z</time></trkpt><trkpt lat="44.409686605598324" lon="8.102213374195161"><ele>719.25</ele><time>2026-05-02T13:59:20Z</time></trkpt><trkpt lat="44.40963608448336" lon="8.102430508441014"><ele>715.5</ele><time>2026-05-02T13:59:21Z</time></trkpt><trkpt lat="44.40960806867041" lon="8.102627908369302"><ele>711.75</ele><time>2026-05-02T13:59:22Z</time></trkpt><trkpt lat="44.409602701290595" lon="8.102818635726145"><ele>708.0</ele><time>2026-05-02T13:59:23Z</time></trkpt><trkpt lat="44.40958458470633" lon="8.103000313480354"><ele>708.0</ele><time>2026-05-02T13:59:24Z</time></trkpt><trkpt lat="44.40956404851311" lon="8.103169175272088"><ele>708.0</ele><time>2026-05-02T13:59:25Z</time></trkpt><trkpt lat="44.40953383899603" lon="8.103332299586196"><ele>708.0</ele><time>2026-05-02T13:59:26Z</time></trkpt><trkpt lat="44.40950328227999" lon="8.103491118949215"><ele>708.0</ele><time>2026-05-02T13:59:27Z</time></trkpt><trkpt lat="44.40947498929722" lon="8.103640328084495"><ele>708.5999999999999</ele><time>2026-05-02T13:59:28Z</time></trkpt><trkpt lat="44.409450429330604" lon="8.103782200842463"><ele>709.1999999999999</ele><time>2026-05-02T13:59:29Z</time></trkpt><trkpt lat="44.40944601699235" lon="8.103924920035295"><ele>709.8</ele><time>2026-05-02T13:59:30Z</time></trkpt><trkpt lat="44.40944675692378" lon="8.1040661580207"><ele>710.4</ele><time>2026-05-02T13:59:31Z</time></trkpt><trkpt lat="44.40942802702361" lon="8.104209860345707"><ele>711.0</ele><time>2026-05-02T13:59:32Z</time></trkpt><trkpt lat="44.40941896357917" lon="8.10435609324423"><ele>712.0</ele><time>2026-05-02T13:59:33Z</time></trkpt><trkpt lat="44.40939833073076" lon="8.104507102108279"><ele>713.0</ele><time>2026-05-02T13:59:34Z</time></trkpt><trkpt lat="44.40936903175892" lon="8.10465629816696"><ele>714.0</ele><time>2026-05-02T13:59:35Z</time></trkpt><trkpt lat="44.409334658453375" lon="8.104804798315005"><ele>715.0</ele><time>2026-05-02T13:59:36Z</time></trkpt><trkpt lat="44.4092923268352" lon="8.104942910684544"><ele>716.0</ele><time>2026-05-02T13:59:37Z</time></trkpt><trkpt lat="44.409226355171754" lon="8.105063772879388"><ele>716.8</ele><time>2026-05-02T13:59:38Z</time></trkpt><trkpt lat="44.4091485488403" lon="8.105176703067688"><ele>717.5999999999999</ele><time>2026-05-02T13:59:39Z</time></trkpt><trkpt lat="44.40908983472554" lon="8.105307475286374"><ele>718.4</ele><time>2026-05-02T13:59:40Z</time></trkpt><trkpt lat="44.40904035769548" lon="8.105440307071675"><ele>719.2</ele><time>2026-05-02T13:59:41Z</time></trkpt><trkpt lat="44.40899215642179" lon="8.105569144573469"><ele>720.0</ele><time>2026-05-02T13:59:42Z</time></trkpt><trkpt lat="44.408938761677376" lon="8.105687681949313"><ele>718.6</ele><time>2026-05-02T13:59:43Z</time></trkpt><trkpt lat="44.40887719814794" lon="8.105800685168916"><ele>717.2</ele><time>2026-05-02T13:59:44Z</time></trkpt><trkpt lat="44.40880897253815" lon="8.105903604413152"><ele>715.8</ele><time>2026-05-02T13:59:45Z</time></trkpt><trkpt lat="44.40870470926953" lon="8.105972739165193"><ele>714.4</ele><time>2026-05-02T13:59:46Z</time></trkpt><trkpt lat="44.40857895364987" lon="8.106012603133218"><ele>713.0</ele><time>2026-05-02T13:59:47Z</time></trkpt><trkpt lat="44.40845241788239" lon="8.106048019977063"><ele>713.0</ele><time>2026-05-02T13:59:48Z</time></trkpt><trkpt lat="44.40832792258804" lon="8.106114853541037"><ele>713.0</ele><time>2026-05-02T13:59:49Z</time></trkpt><trkpt lat="44.408210035578065" lon="8.106224125571053"><ele>713.0</ele><time>2026-05-02T13:59:50Z</time></trkpt><trkpt lat="44.408101712270295" lon="8.106382877473356"><ele>713.0</ele><time>2026-05-02T13:59:51Z</time></trkpt><trkpt lat="44.40799514046173" lon="8.1065597839978"><ele>712.0</ele><time>2026-05-02T13:59:52Z</time></trkpt><trkpt lat="44.40787167450257" lon="8.106730139687928"><ele>711.0</ele><time>2026-05-02T13:59:53Z</time></trkpt><trkpt lat="44.407710220744654" lon="8.106868181150965"><ele>710.0</ele><time>2026-05-02T13:59:54Z</time></trkpt><trkpt lat="44.40753081035149" lon="8.10698069494306"><ele>710.0</ele><time>2026-05-02T13:59:55Z</time></trkpt><trkpt lat="44.40733728232392" lon="8.107079239685499"><ele>710.0</ele><time>2026-05-02T13:59:56Z</time></trkpt><trkpt lat="44.40715283989488" lon="8.107193963001324"><ele>710.0</ele><time>2026-05-02T13:59:57Z</time></trkpt><trkpt lat="44.40698499122935" lon="8.107343547266472"><ele>710.3333333333333</ele><time>2026-05-02T13:59:58Z</time></trkpt><trkpt lat="44.40682930712881" lon="8.10755273485631"><ele>710.6666666666666</ele><time>2026-05-02T13:59:59Z</time></trkpt><trkpt lat="44.40668394529698" lon="8.107804864823692"><ele>711.0</ele><time>2026-05-02T14:00:00Z</time></trkpt><trkpt lat="44.40653340990212" lon="8.108081495668198"><ele>711.5</ele><time>2026-05-02T14:00:01Z</time></trkpt><trkpt lat="44.406367762747635" lon="8.10836756116643"><ele>712.0</ele><time>2026-05-02T14:00:02Z</time></trkpt><trkpt lat="44.40618871718692" lon="8.10865177565976"><ele>712.0</ele><time>2026-05-02T14:00:03Z</time></trkpt><trkpt lat="44.405992041941076" lon="8.108928608416338"><ele>712.0</ele><time>2026-05-02T14:00:04Z</time></trkpt><trkpt lat="44.4057821837532" lon="8.109198808209097"><ele>712.0</ele><time>2026-05-02T14:00:05Z</time></trkpt><trkpt lat="44.405583476785935" lon="8.109435395829113"><ele>712.0</ele><time>2026-05-02T14:00:06Z</time></trkpt><trkpt lat="44.40539911311862" lon="8.109643636514377"><ele>710.6666666666667</ele><time>2026-05-02T14:00:07Z</time></trkpt><trkpt lat="44.405237943844035" lon="8.109834654060096"><ele>709.3333333333334</ele><time>2026-05-02T14:00:08Z</time></trkpt><trkpt lat="44.40509824164661" lon="8.11005547948479"><ele>708.0</ele><time>2026-05-02T14:00:09Z</time></trkpt><trkpt lat="44.40498642114179" lon="8.110344092816307"><ele>708.0</ele><time>2026-05-02T14:00:10Z</time></trkpt><trkpt lat="44.40488018940228" lon="8.110677199830878"><ele>708.0</ele><time>2026-05-02T14:00:11Z</time></trkpt><trkpt lat="44.4047447681986" lon="8.110996738427087"><ele>701.0</ele><time>2026-05-02T14:00:12Z</time></trkpt><trkpt lat="44.404584104877046" lon="8.1112891006754"><ele>694.0</ele><time>2026-05-02T14:00:13Z</time></trkpt><trkpt lat="44.40442689136418" lon="8.111549855056584"><ele>698.5</ele><time>2026-05-02T14:00:14Z</time></trkpt><trkpt lat="44.404275126744956" lon="8.111794998762763"><ele>703.0</ele><time>2026-05-02T14:00:15Z</time></trkpt><trkpt lat="44.404098911644354" lon="8.112072554498114"><ele>703.0</ele><time>2026-05-02T14:00:16Z</time></trkpt><trkpt lat="44.40392460613883" lon="8.112319540922153"><ele>703.0</ele><time>2026-05-02T14:00:17Z</time></trkpt><trkpt lat="44.40376730431824" lon="8.112523300554662"><ele>702.3333333333334</ele><time>2026-05-02T14:00:18Z</time></trkpt><trkpt lat="44.40364450858785" lon="8.112713970075172"><ele>701.6666666666666</ele><time>2026-05-02T14:00:19Z</time></trkpt><trkpt lat="44.40355974622782" lon="8.11295521055101"><ele>701.0</ele><time>2026-05-02T14:00:20Z</time></trkpt><trkpt lat="44.403503554881574" lon="8.113317830051102"><ele>701.0</ele><time>2026-05-02T14:00:21Z</time></trkpt><trkpt lat="44.4034463474779" lon="8.113719423276738"><ele>701.0</ele><time>2026-05-02T14:00:22Z</time></trkpt><trkpt lat="44.40340092929719" lon="8.114118369905398"><ele>700.0</ele><time>2026-05-02T14:00:23Z</time></trkpt><trkpt lat="44.40337227698224" lon="8.114486671351164"><ele>699.0</ele><time>2026-05-02T14:00:24Z</time></trkpt><trkpt lat="44.403352820483676" lon="8.11478443895551"><ele>699.0</ele><time>2026-05-02T14:00:25Z</time></trkpt><trkpt lat="44.40331727470597" lon="8.115036075576427"><ele>699.0</ele><time>2026-05-02T14:00:26Z</time></trkpt><trkpt lat="44.40324225579187" lon="8.115269832556836"><ele>699.0</ele><time>2026-05-02T14:00:27Z</time></trkpt><trkpt lat="44.40306729649463" lon="8.115445118466166"><ele>698.0</ele><time>2026-05-02T14:00:28Z</time></trkpt><trkpt lat="44.40288506172943" lon="8.115647935723537"><ele>697.0</ele><time>2026-05-02T14:00:29Z</time></trkpt><trkpt lat="44.40270764415356" lon="8.115874538928358"><ele>697.0</ele><time>2026-05-02T14:00:30Z</time></trkpt><trkpt lat="44.40255877799989" lon="8.116148716433596"><ele>697.0</ele><time>2026-05-02T14:00:31Z</time></trkpt><trkpt lat="44.402424188109194" lon="8.116437077372794"><ele>697.6666666666667</ele><time>2026-05-02T14:00:32Z</time></trkpt><trkpt lat="44.402271772343234" lon="8.116655935701036"><ele>698.3333333333334</ele><time>2026-05-02T14:00:33Z</time></trkpt><trkpt lat="44.402127988393055" lon="8.11685359084049"><ele>699.0</ele><time>2026-05-02T14:00:34Z</time></trkpt><trkpt lat="44.40199071328148" lon="8.117018672814561"><ele>698.0</ele><time>2026-05-02T14:00:35Z</time></trkpt><trkpt lat="44.401877736994024" lon="8.11717428307962"><ele>697.0</ele><time>2026-05-02T14:00:36Z</time></trkpt><trkpt lat="44.40176869237816" lon="8.117275102955086"><ele>696.0</ele><time>2026-05-02T14:00:37Z</time></trkpt><trkpt lat="44.401659410298265" lon="8.117343679020017"><ele>695.0</ele><time>2026-05-02T14:00:38Z</time></trkpt><trkpt lat="44.40153849284879" lon="8.1173818649791"><ele>696.75</ele><time>2026-05-02T14:00:39Z</time></trkpt><trkpt lat="44.40142208638121" lon="8.11742851029209"><ele>698.5</ele><time>2026-05-02T14:00:40Z</time></trkpt><trkpt lat="44.40133603130065" lon="8.11760482723788"><ele>700.25</ele><time>2026-05-02T14:00:41Z</time></trkpt><trkpt lat="44.40121959071487" lon="8.117763373753897"><ele>702.0</ele><time>2026-05-02T14:00:42Z</time></trkpt><trkpt lat="44.4010603571323" lon="8.117865233834769"><ele>701.6666666666666</ele><time>2026-05-02T14:00:43Z</time></trkpt><trkpt lat="44.40091656750716" lon="8.118040371466702"><ele>701.3333333333333</ele><time>2026-05-02T14:00:44Z</time></trkpt><trkpt lat="44.40076257834465" lon="8.118240973033727"><ele>701.0</ele><time>2026-05-02T14:00:45Z</time></trkpt><trkpt lat="44.40062613773195" lon="8.118468579326814"><ele>701.0</ele><time>2026-05-02T14:00:46Z</time></trkpt><trkpt lat="44.400505322443415" lon="8.118712460596035"><ele>701.0</ele><time>2026-05-02T14:00:47Z</time></trkpt><trkpt lat="44.40039913256736" lon="8.118984596633558"><ele>701.0</ele><time>2026-05-02T14:00:48Z</time></trkpt><trkpt lat="44.400318077737275" lon="8.119283822028745"><ele>706.5</ele><time>2026-05-02T14:00:49Z</time></trkpt><trkpt lat="44.400250224741725" lon="8.119614772742603"><ele>712.0</ele><time>2026-05-02T14:00:50Z</time></trkpt><trkpt lat="44.40018572837171" lon="8.119954318979051"><ele>712.0</ele><time>2026-05-02T14:00:51Z</time></trkpt><trkpt lat="44.40010599208247" lon="8.120253406122758"><ele>712.0</ele><time>2026-05-02T14:00:52Z</time></trkpt><trkpt lat="44.4000473355515" lon="8.120509975679646"><ele>712.0</ele><time>2026-05-02T14:00:53Z</time></trkpt><trkpt lat="44.39997927559723" lon="8.120721171621744"><ele>712.0</ele><time>2026-05-02T14:00:54Z</time></trkpt><trkpt lat="44.3998635139051" lon="8.120915180037892"><ele>712.0</ele><time>2026-05-02T14:00:55Z</time></trkpt><trkpt lat="44.3997158676781" lon="8.121126108702162"><ele>712.0</ele><time>2026-05-02T14:00:56Z</time></trkpt><trkpt lat="44.39955675820012" lon="8.121352770234582"><ele>710.6666666666667</ele><time>2026-05-02T14:00:57Z</time></trkpt><trkpt lat="44.39940171878123" lon="8.121577241433364"><ele>709.3333333333334</ele><time>2026-05-02T14:00:58Z</time></trkpt><trkpt lat="44.399251123455066" lon="8.121773150912764"><ele>708.0</ele><time>2026-05-02T14:00:59Z</time></trkpt><trkpt lat="44.39910185587156" lon="8.121927440008278"><ele>708.0</ele><time>2026-05-02T14:01:00Z</time></trkpt><trkpt lat="44.398958473832" lon="8.122061457191258"><ele>708.0</ele><time>2026-05-02T14:01:01Z</time></trkpt><trkpt lat="44.39881933970776" lon="8.122189227592909"><ele>708.0</ele><time>2026-05-02T14:01:02Z</time></trkpt><trkpt lat="44.398676940886666" lon="8.122319398609024"><ele>705.3333333333334</ele><time>2026-05-02T14:01:03Z</time></trkpt><trkpt lat="44.39851626519672" lon="8.122466277550876"><ele>702.6666666666667</ele><time>2026-05-02T14:01:04Z</time></trkpt><trkpt lat="44.398327811411896" lon="8.122637397774849"><ele>700.0</ele><time>2026-05-02T14:01:05Z</time></trkpt><trkpt lat="44.398161800220805" lon="8.122788375981253"><ele>700.0</ele><time>2026-05-02T14:01:06Z</time></trkpt><trkpt lat="44.39802124917486" lon="8.122939517077892"><ele>700.0</ele><time>2026-05-02T14:01:07Z</time></trkpt><trkpt lat="44.3978952943092" lon="8.123066918494734"><ele>700.0</ele><time>2026-05-02T14:01:08Z</time></trkpt><trkpt lat="44.397775948567336" lon="8.123220205707929"><ele>697.0</ele><time>2026-05-02T14:01:09Z</time></trkpt><trkpt lat="44.39770777841929" lon="8.12346965384043"><ele>694.0</ele><time>2026-05-02T14:01:10Z</time></trkpt><trkpt lat="44.39769743074806" lon="8.123736987628115"><ele>691.0</ele><time>2026-05-02T14:01:11Z</time></trkpt><trkpt lat="44.39771173645645" lon="8.12400453512253"><ele>690.0</ele><time>2026-05-02T14:01:12Z</time></trkpt><trkpt lat="44.39768297145655" lon="8.124244829345308"><ele>689.0</ele><time>2026-05-02T14:01:13Z</time></trkpt><trkpt lat="44.3976317996846" lon="8.124439849043899"><ele>688.0</ele><time>2026-05-02T14:01:14Z</time></trkpt><trkpt lat="44.39752148525113" lon="8.124640424280546"><ele>688.0</ele><time>2026-05-02T14:01:15Z</time></trkpt><trkpt lat="44.397357200528894" lon="8.12481967803862"><ele>688.0</ele><time>2026-05-02T14:01:16Z</time></trkpt><trkpt lat="44.39716854653661" lon="8.125012257484556"><ele>688.0</ele><time>2026-05-02T14:01:17Z</time></trkpt><trkpt lat="44.396963374319185" lon="8.125183008239485"><ele>686.0</ele><time>2026-05-02T14:01:18Z</time></trkpt><trkpt lat="44.396780525724175" lon="8.125340919050545"><ele>684.0</ele><time>2026-05-02T14:01:19Z</time></trkpt><trkpt lat="44.39662422444618" lon="8.125500411745524"><ele>682.0</ele><time>2026-05-02T14:01:20Z</time></trkpt><trkpt lat="44.396502868362575" lon="8.125695498822365"><ele>680.5</ele><time>2026-05-02T14:01:21Z</time></trkpt><trkpt lat="44.39638746541028" lon="8.12594176386048"><ele>679.0</ele><time>2026-05-02T14:01:22Z</time></trkpt><trkpt lat="44.39632458103819" lon="8.12627387447183"><ele>680.0</ele><time>2026-05-02T14:01:23Z</time></trkpt><trkpt lat="44.39628330441083" lon="8.126613616576345"><ele>681.0</ele><time>2026-05-02T14:01:24Z</time></trkpt><trkpt lat="44.39623451010213" lon="8.126903000282917"><ele>681.0</ele><time>2026-05-02T14:01:25Z</time></trkpt><trkpt lat="44.39616888619491" lon="8.12717542113905"><ele>681.0</ele><time>2026-05-02T14:01:26Z</time></trkpt><trkpt lat="44.39608336398834" lon="8.127421299813138"><ele>681.0</ele><time>2026-05-02T14:01:27Z</time></trkpt><trkpt lat="44.395950423497446" lon="8.127666797915383"><ele>679.5</ele><time>2026-05-02T14:01:28Z</time></trkpt><trkpt lat="44.395784209548054" lon="8.1279079286437"><ele>678.0</ele><time>2026-05-02T14:01:29Z</time></trkpt><trkpt lat="44.39557696698412" lon="8.128118595319187"><ele>672.5</ele><time>2026-05-02T14:01:30Z</time></trkpt><trkpt lat="44.395348209077675" lon="8.128294904126587"><ele>667.0</ele><time>2026-05-02T14:01:31Z</time></trkpt><trkpt lat="44.39508841623998" lon="8.128443325668615"><ele>667.0</ele><time>2026-05-02T14:01:32Z</time></trkpt><trkpt lat="44.39481960005617" lon="8.128585274252297"><ele>667.0</ele><time>2026-05-02T14:01:33Z</time></trkpt><trkpt lat="44.39457968993713" lon="8.128643377895811"><ele>668.5</ele><time>2026-05-02T14:01:34Z</time></trkpt><trkpt lat="44.39433754361914" lon="8.128674242393194"><ele>670.0</ele><time>2026-05-02T14:01:35Z</time></trkpt><trkpt lat="44.39413012095333" lon="8.128704431819632"><ele>670.0</ele><time>2026-05-02T14:01:36Z</time></trkpt><trkpt lat="44.393947301011316" lon="8.128770276374922"><ele>670.0</ele><time>2026-05-02T14:01:37Z</time></trkpt><trkpt lat="44.393768847339594" lon="8.12885439862159"><ele>670.0</ele><time>2026-05-02T14:01:38Z</time></trkpt><trkpt lat="44.393576490284474" lon="8.129015771072627"><ele>673.0</ele><time>2026-05-02T14:01:39Z</time></trkpt><trkpt lat="44.39338044458861" lon="8.1292039004224"><ele>676.0</ele><time>2026-05-02T14:01:40Z</time></trkpt><trkpt lat="44.393210448546306" lon="8.129427559929908"><ele>676.0</ele><time>2026-05-02T14:01:41Z</time></trkpt><trkpt lat="44.393064620701104" lon="8.129698628566928"><ele>676.0</ele><time>2026-05-02T14:01:42Z</time></trkpt><trkpt lat="44.392867045876244" lon="8.129898917812831"><ele>681.0</ele><time>2026-05-02T14:01:43Z</time></trkpt><trkpt lat="44.39265560825781" lon="8.13008705466265"><ele>686.0</ele><time>2026-05-02T14:01:44Z</time></trkpt><trkpt lat="44.39243811465261" lon="8.130254194580553"><ele>686.0</ele><time>2026-05-02T14:01:45Z</time></trkpt><trkpt lat="44.39224284888824" lon="8.130382738923844"><ele>686.0</ele><time>2026-05-02T14:01:46Z</time></trkpt><trkpt lat="44.392073417090025" lon="8.130428215252095"><ele>686.0</ele><time>2026-05-02T14:01:47Z</time></trkpt><trkpt lat="44.39191311727409" lon="8.130417058472325"><ele>688.3333333333333</ele><time>2026-05-02T14:01:48Z</time></trkpt><trkpt lat="44.39174092072207" lon="8.130347583292954"><ele>690.6666666666666</ele><time>2026-05-02T14:01:49Z</time></trkpt><trkpt lat="44.3915547550651" lon="8.13022488231382"><ele>693.0</ele><time>2026-05-02T14:01:50Z</time></trkpt><trkpt lat="44.39136352020239" lon="8.130099815100593"><ele>694.3333333333334</ele><time>2026-05-02T14:01:51Z</time></trkpt><trkpt lat="44.391208560012075" lon="8.130009965418079"><ele>695.6666666666667</ele><time>2026-05-02T14:01:52Z</time></trkpt><trkpt lat="44.391062819690454" lon="8.129960735192922"><ele>697.0</ele><time>2026-05-02T14:01:53Z</time></trkpt><trkpt lat="44.39089233477107" lon="8.130015061476108"><ele>697.0</ele><time>2026-05-02T14:01:54Z</time></trkpt><trkpt lat="44.39073314356236" lon="8.130153486985483"><ele>697.0</ele><time>2026-05-02T14:01:55Z</time></trkpt><trkpt lat="44.39061917112206" lon="8.130394512315492"><ele>697.0</ele><time>2026-05-02T14:01:56Z</time></trkpt><trkpt lat="44.39055511266688" lon="8.130636975630843"><ele>698.3333333333334</ele><time>2026-05-02T14:01:57Z</time></trkpt><trkpt lat="44.390433332813416" lon="8.130867329604671"><ele>699.6666666666666</ele><time>2026-05-02T14:01:58Z</time></trkpt><trkpt lat="44.39027591879255" lon="8.131037892564663"><ele>701.0</ele><time>2026-05-02T14:01:59Z</time></trkpt><trkpt lat="44.39012682368916" lon="8.131182085948574"><ele>701.0</ele><time>2026-05-02T14:02:00Z</time></trkpt><trkpt lat="44.38998050817113" lon="8.131350403512052"><ele>701.0</ele><time>2026-05-02T14:02:01Z</time></trkpt><trkpt lat="44.389808553366535" lon="8.131498806518103"><ele>701.0</ele><time>2026-05-02T14:02:02Z</time></trkpt><trkpt lat="44.38965724179864" lon="8.131600940460066"><ele>703.3333333333333</ele><time>2026-05-02T14:02:03Z</time></trkpt><trkpt lat="44.389506355807384" lon="8.13168416148759"><ele>705.6666666666666</ele><time>2026-05-02T14:02:04Z</time></trkpt><trkpt lat="44.38936133099957" lon="8.131758508739734"><ele>708.0</ele><time>2026-05-02T14:02:05Z</time></trkpt><trkpt lat="44.38920074373632" lon="8.131841255287817"><ele>708.0</ele><time>2026-05-02T14:02:06Z</time></trkpt><trkpt lat="44.38903425339336" lon="8.131929046766116"><ele>708.0</ele><time>2026-05-02T14:02:07Z</time></trkpt><trkpt lat="44.388872071286904" lon="8.132014566621777"><ele>708.0</ele><time>2026-05-02T14:02:08Z</time></trkpt><trkpt lat="44.388723453472885" lon="8.13208933233556"><ele>710.25</ele><time>2026-05-02T14:02:09Z</time></trkpt><trkpt lat="44.38858785328829" lon="8.132151669370323"><ele>712.5</ele><time>2026-05-02T14:02:10Z</time></trkpt><trkpt lat="44.38845822282194" lon="8.132198122366743"><ele>714.75</ele><time>2026-05-02T14:02:11Z</time></trkpt><trkpt lat="44.388340315751066" lon="8.132204084786228"><ele>717.0</ele><time>2026-05-02T14:02:12Z</time></trkpt><trkpt lat="44.38821968134439" lon="8.132173499263724"><ele>717.0</ele><time>2026-05-02T14:02:13Z</time></trkpt><trkpt lat="44.38808889954603" lon="8.13212087691598"><ele>717.0</ele><time>2026-05-02T14:02:14Z</time></trkpt><trkpt lat="44.387948918025934" lon="8.132077119928233"><ele>717.0</ele><time>2026-05-02T14:02:15Z</time></trkpt><trkpt lat="44.38781383625018" lon="8.132011895936268"><ele>717.0</ele><time>2026-05-02T14:02:16Z</time></trkpt><trkpt lat="44.38767152626313" lon="8.1319482372453"><ele>718.0</ele><time>2026-05-02T14:02:17Z</time></trkpt><trkpt lat="44.38751962872023" lon="8.131903424353128"><ele>719.0</ele><time>2026-05-02T14:02:18Z</time></trkpt><trkpt lat="44.387364959028076" lon="8.131874439666339"><ele>720.0</ele><time>2026-05-02T14:02:19Z</time></trkpt><trkpt lat="44.387209744054886" lon="8.131829115240919"><ele>719.25</ele><time>2026-05-02T14:02:20Z</time></trkpt><trkpt lat="44.38706243598801" lon="8.131823565868016"><ele>718.5</ele><time>2026-05-02T14:02:21Z</time></trkpt><trkpt lat="44.38693291018935" lon="8.13179226318743"><ele>717.75</ele><time>2026-05-02T14:02:22Z</time></trkpt><trkpt lat="44.386800622428304" lon="8.131746580674157"><ele>717.0</ele><time>2026-05-02T14:02:23Z</time></trkpt><trkpt lat="44.386662088808" lon="8.131668710030715"><ele>716.6666666666666</ele><time>2026-05-02T14:02:24Z</time></trkpt><trkpt lat="44.3865411231738" lon="8.13153440131565"><ele>716.3333333333333</ele><time>2026-05-02T14:02:25Z</time></trkpt><trkpt lat="44.38641101048986" lon="8.131418833471585"><ele>716.0</ele><time>2026-05-02T14:02:26Z</time></trkpt><trkpt lat="44.38627405016338" lon="8.13132315877093"><ele>717.6666666666666</ele><time>2026-05-02T14:02:27Z</time></trkpt><trkpt lat="44.38611251626718" lon="8.131262659576983"><ele>719.3333333333334</ele><time>2026-05-02T14:02:28Z</time></trkpt><trkpt lat="44.3859343276269" lon="8.131246355757218"><ele>721.0</ele><time>2026-05-02T14:02:29Z</time></trkpt><trkpt lat="44.38574842979763" lon="8.131265437266348"><ele>721.0</ele><time>2026-05-02T14:02:30Z</time></trkpt><trkpt lat="44.38555905361462" lon="8.131261624265452"><ele>721.0</ele><time>2026-05-02T14:02:31Z</time></trkpt><trkpt lat="44.38537669593181" lon="8.1312931685195"><ele>721.0</ele><time>2026-05-02T14:02:32Z</time></trkpt><trkpt lat="44.38517981622677" lon="8.131306959611845"><ele>726.0</ele><time>2026-05-02T14:02:33Z</time></trkpt><trkpt lat="44.38495831355798" lon="8.131335976855109"><ele>731.0</ele><time>2026-05-02T14:02:34Z</time></trkpt><trkpt lat="44.38473232825035" lon="8.13140162504465"><ele>732.6666666666666</ele><time>2026-05-02T14:02:35Z</time></trkpt><trkpt lat="44.38451447941658" lon="8.13142444403923"><ele>734.3333333333334</ele><time>2026-05-02T14:02:36Z</time></trkpt><trkpt lat="44.3842878324801" lon="8.131476696824611"><ele>736.0</ele><time>2026-05-02T14:02:37Z</time></trkpt><trkpt lat="44.384061711351606" lon="8.131546595406114"><ele>733.6666666666667</ele><time>2026-05-02T14:02:38Z</time></trkpt><trkpt lat="44.383854791333086" lon="8.131635824482899"><ele>731.3333333333334</ele><time>2026-05-02T14:02:39Z</time></trkpt><trkpt lat="44.38367438595314" lon="8.13174700630835"><ele>729.0</ele><time>2026-05-02T14:02:40Z</time></trkpt><trkpt lat="44.38351066096747" lon="8.131840713975578"><ele>729.0</ele><time>2026-05-02T14:02:41Z</time></trkpt><trkpt lat="44.38334837359053" lon="8.131901865093461"><ele>729.0</ele><time>2026-05-02T14:02:42Z</time></trkpt><trkpt lat="44.38320046044388" lon="8.131947640244826"><ele>729.0</ele><time>2026-05-02T14:02:43Z</time></trkpt><trkpt lat="44.38305993976421" lon="8.1320121327284"><ele>729.0</ele><time>2026-05-02T14:02:44Z</time></trkpt><trkpt lat="44.38292965516947" lon="8.13212060237596"><ele>729.0</ele><time>2026-05-02T14:02:45Z</time></trkpt><trkpt lat="44.382810229315155" lon="8.13223800639089"><ele>729.0</ele><time>2026-05-02T14:02:46Z</time></trkpt><trkpt lat="44.382704529529256" lon="8.132324237446749"><ele>729.0</ele><time>2026-05-02T14:02:47Z</time></trkpt><trkpt lat="44.382625909213985" lon="8.132442274954895"><ele>729.0</ele><time>2026-05-02T14:02:48Z</time></trkpt><trkpt lat="44.382542432808975" lon="8.132538004923106"><ele>729.0</ele><time>2026-05-02T14:02:49Z</time></trkpt><trkpt lat="44.382470617963364" lon="8.132653848590637"><ele>729.0</ele><time>2026-05-02T14:02:50Z</time></trkpt><trkpt lat="44.38240078152866" lon="8.132792855849443"><ele>729.0</ele><time>2026-05-02T14:02:51Z</time></trkpt><trkpt lat="44.38231796255078" lon="8.132917959361032"><ele>729.0</ele><time>2026-05-02T14:02:52Z</time></trkpt><trkpt lat="44.38223976932746" lon="8.13304509796227"><ele>729.0</ele><time>2026-05-02T14:02:53Z</time></trkpt><trkpt lat="44.38215447296628" lon="8.133167128095046"><ele>729.0</ele><time>2026-05-02T14:02:54Z</time></trkpt><trkpt lat="44.38206623314831" lon="8.133290590247295"><ele>729.0</ele><time>2026-05-02T14:02:55Z</time></trkpt><trkpt lat="44.38197681083059" lon="8.13341570724767"><ele>727.75</ele><time>2026-05-02T14:02:56Z</time></trkpt><trkpt lat="44.38188841646771" lon="8.133546078991317"><ele>726.5</ele><time>2026-05-02T14:02:57Z</time></trkpt><trkpt lat="44.381797509547226" lon="8.133678816207153"><ele>725.25</ele><time>2026-05-02T14:02:58Z</time></trkpt><trkpt lat="44.381707292098746" lon="8.133808969044924"><ele>724.0</ele><time>2026-05-02T14:02:59Z</time></trkpt><trkpt lat="44.38161050339546" lon="8.133914891766274"><ele>724.0</ele><time>2026-05-02T14:03:00Z</time></trkpt><trkpt lat="44.38150664612857" lon="8.134009349339822"><ele>724.0</ele><time>2026-05-02T14:03:01Z</time></trkpt><trkpt lat="44.38139617566946" lon="8.134110354630035"><ele>724.0</ele><time>2026-05-02T14:03:02Z</time></trkpt><trkpt lat="44.38128579904076" lon="8.134212170766"><ele>724.0</ele><time>2026-05-02T14:03:03Z</time></trkpt><trkpt lat="44.381178601581894" lon="8.13431214638002"><ele>723.75</ele><time>2026-05-02T14:03:04Z</time></trkpt><trkpt lat="44.38107341843338" lon="8.134416336177178"><ele>723.5</ele><time>2026-05-02T14:03:05Z</time></trkpt><trkpt lat="44.380985690111416" lon="8.134547352327017"><ele>723.25</ele><time>2026-05-02T14:03:06Z</time></trkpt><trkpt lat="44.38089403364781" lon="8.134682145391588"><ele>723.0</ele><time>2026-05-02T14:03:07Z</time></trkpt><trkpt lat="44.38081535333594" lon="8.134832761974039"><ele>725.5</ele><time>2026-05-02T14:03:08Z</time></trkpt><trkpt lat="44.38075180716079" lon="8.135000502165566"><ele>728.0</ele><time>2026-05-02T14:03:09Z</time></trkpt><trkpt lat="44.38070267082479" lon="8.135179485666876"><ele>730.5</ele><time>2026-05-02T14:03:10Z</time></trkpt><trkpt lat="44.38067191352566" lon="8.13537100380678"><ele>733.0</ele><time>2026-05-02T14:03:11Z</time></trkpt><trkpt lat="44.38065533124769" lon="8.135567005824196"><ele>735.0</ele><time>2026-05-02T14:03:12Z</time></trkpt><trkpt lat="44.38064735889263" lon="8.135772568983452"><ele>737.0</ele><time>2026-05-02T14:03:13Z</time></trkpt><trkpt lat="44.38062319728911" lon="8.13597971880335"><ele>739.0</ele><time>2026-05-02T14:03:14Z</time></trkpt><trkpt lat="44.380610295549694" lon="8.136186520593524"><ele>741.0</ele><time>2026-05-02T14:03:15Z</time></trkpt><trkpt lat="44.380590383080545" lon="8.136385679629997"><ele>745.0</ele><time>2026-05-02T14:03:16Z</time></trkpt><trkpt lat="44.3805618056792" lon="8.13658809531229"><ele>749.0</ele><time>2026-05-02T14:03:17Z</time></trkpt><trkpt lat="44.380493239231306" lon="8.136794279773719"><ele>753.0</ele><time>2026-05-02T14:03:18Z</time></trkpt><trkpt lat="44.38038751864464" lon="8.13700915023915"><ele>746.0</ele><time>2026-05-02T14:03:19Z</time></trkpt><trkpt lat="44.38030312751622" lon="8.137268154565415"><ele>739.0</ele><time>2026-05-02T14:03:20Z</time></trkpt><trkpt lat="44.380227799767" lon="8.137540340726643"><ele>732.0</ele><time>2026-05-02T14:03:21Z</time></trkpt><trkpt lat="44.38016502400749" lon="8.137794910368815"><ele>732.0</ele><time>2026-05-02T14:03:22Z</time></trkpt><trkpt lat="44.380091369747674" lon="8.138014071820772"><ele>732.0</ele><time>2026-05-02T14:03:23Z</time></trkpt><trkpt lat="44.37997677996294" lon="8.138188629590127"><ele>732.0</ele><time>2026-05-02T14:03:24Z</time></trkpt><trkpt lat="44.37983742061455" lon="8.138344286641068"><ele>731.3333333333334</ele><time>2026-05-02T14:03:25Z</time></trkpt><trkpt lat="44.379655264921865" lon="8.138449525820471"><ele>730.6666666666667</ele><time>2026-05-02T14:03:26Z</time></trkpt><trkpt lat="44.37945327531216" lon="8.138534608567205"><ele>730.0</ele><time>2026-05-02T14:03:27Z</time></trkpt><trkpt lat="44.37927674743039" lon="8.138617640011105"><ele>730.0</ele><time>2026-05-02T14:03:28Z</time></trkpt><trkpt lat="44.379126061125525" lon="8.13871100874162"><ele>730.0</ele><time>2026-05-02T14:03:29Z</time></trkpt><trkpt lat="44.37899478191303" lon="8.13890358886963"><ele>730.0</ele><time>2026-05-02T14:03:30Z</time></trkpt><trkpt lat="44.378874540892326" lon="8.139155545934095"><ele>727.5</ele><time>2026-05-02T14:03:31Z</time></trkpt><trkpt lat="44.37877780130547" lon="8.139455379939285"><ele>725.0</ele><time>2026-05-02T14:03:32Z</time></trkpt><trkpt lat="44.3787075183474" lon="8.139772560731753"><ele>726.6666666666666</ele><time>2026-05-02T14:03:33Z</time></trkpt><trkpt lat="44.378673246574834" lon="8.140075567480817"><ele>728.3333333333334</ele><time>2026-05-02T14:03:34Z</time></trkpt><trkpt lat="44.37863627496053" lon="8.140340793820055"><ele>730.0</ele><time>2026-05-02T14:03:35Z</time></trkpt><trkpt lat="44.37858593802821" lon="8.140583349671683"><ele>733.0</ele><time>2026-05-02T14:03:36Z</time></trkpt><trkpt lat="44.37851678678263" lon="8.140799185504463"><ele>736.0</ele><time>2026-05-02T14:03:37Z</time></trkpt><trkpt lat="44.3784358215928" lon="8.14097903814262"><ele>739.0</ele><time>2026-05-02T14:03:38Z</time></trkpt><trkpt lat="44.37832971119595" lon="8.141103545948255"><ele>739.0</ele><time>2026-05-02T14:03:39Z</time></trkpt><trkpt lat="44.37826161178579" lon="8.14123490276712"><ele>739.0</ele><time>2026-05-02T14:03:40Z</time></trkpt><trkpt lat="44.378199220471934" lon="8.141331478993953"><ele>739.0</ele><time>2026-05-02T14:03:41Z</time></trkpt><trkpt lat="44.37813986131902" lon="8.141399506148849"><ele>739.0</ele><time>2026-05-02T14:03:42Z</time></trkpt><trkpt lat="44.37806470925757" lon="8.141428820121353"><ele>739.0</ele><time>2026-05-02T14:03:43Z</time></trkpt><trkpt lat="44.37796240825878" lon="8.141447331604791"><ele>737.5</ele><time>2026-05-02T14:03:44Z</time></trkpt><trkpt lat="44.377842111391985" lon="8.141446315239683"><ele>736.0</ele><time>2026-05-02T14:03:45Z</time></trkpt><trkpt lat="44.377719480304094" lon="8.14146299205988"><ele>734.5</ele><time>2026-05-02T14:03:46Z</time></trkpt><trkpt lat="44.37760224052774" lon="8.14147779693426"><ele>733.0</ele><time>2026-05-02T14:03:47Z</time></trkpt><trkpt lat="44.37749049574216" lon="8.14150262725854"><ele>733.0</ele><time>2026-05-02T14:03:48Z</time></trkpt><trkpt lat="44.37738734489409" lon="8.141512060416101"><ele>733.0</ele><time>2026-05-02T14:03:49Z</time></trkpt><trkpt lat="44.37728192688815" lon="8.141491982621814"><ele>733.0</ele><time>2026-05-02T14:03:50Z</time></trkpt><trkpt lat="44.377169698732" lon="8.141417240088725"><ele>733.0</ele><time>2026-05-02T14:03:51Z</time></trkpt><trkpt lat="44.3770283455045" lon="8.14136314188955"><ele>733.3333333333334</ele><time>2026-05-02T14:03:52Z</time></trkpt><trkpt lat="44.376876973889985" lon="8.141268601791188"><ele>733.6666666666666</ele><time>2026-05-02T14:03:53Z</time></trkpt><trkpt lat="44.37670776408496" lon="8.141190838255028"><ele>734.0</ele><time>2026-05-02T14:03:54Z</time></trkpt><trkpt lat="44.376540245625904" lon="8.14110046390922"><ele>734.0</ele><time>2026-05-02T14:03:55Z</time></trkpt><trkpt lat="44.37637508807262" lon="8.141006706925948"><ele>734.0</ele><time>2026-05-02T14:03:56Z</time></trkpt><trkpt lat="44.37623622228871" lon="8.140889272151536"><ele>734.0</ele><time>2026-05-02T14:03:57Z</time></trkpt><trkpt lat="44.37609787536378" lon="8.140768246849746"><ele>733.6666666666666</ele><time>2026-05-02T14:03:58Z</time></trkpt><trkpt lat="44.3759468613144" lon="8.140608419430901"><ele>733.3333333333334</ele><time>2026-05-02T14:03:59Z</time></trkpt><trkpt lat="44.3757680269909" lon="8.140452682874349"><ele>733.0</ele><time>2026-05-02T14:04:00Z</time></trkpt><trkpt lat="44.37559873883505" lon="8.140286645798863"><ele>732.5</ele><time>2026-05-02T14:04:01Z</time></trkpt><trkpt lat="44.37545615145692" lon="8.140152938938787"><ele>732.0</ele><time>2026-05-02T14:04:02Z</time></trkpt><trkpt lat="44.37534798102266" lon="8.140045459931798"><ele>731.5</ele><time>2026-05-02T14:04:03Z</time></trkpt><trkpt lat="44.37525807404937" lon="8.139946176073174"><ele>731.0</ele><time>2026-05-02T14:04:04Z</time></trkpt><trkpt lat="44.37517925896102" lon="8.139849121569585"><ele>730.3333333333333</ele><time>2026-05-02T14:04:05Z</time></trkpt><trkpt lat="44.375124748405604" lon="8.139751901321628"><ele>729.6666666666666</ele><time>2026-05-02T14:04:06Z</time></trkpt><trkpt lat="44.3750975434789" lon="8.139651092323515"><ele>729.0</ele><time>2026-05-02T14:04:07Z</time></trkpt><trkpt lat="44.375076897730345" lon="8.139527095420725"><ele>728.3333333333334</ele><time>2026-05-02T14:04:09Z</time></trkpt><trkpt lat="44.374999643401374" lon="8.13948071976239"><ele>727.6666666666667</ele><time>2026-05-02T14:04:11Z</time></trkpt><trkpt lat="44.37494373270695" lon="8.13953167562031"><ele>727.0</ele><time>2026-05-02T14:04:13Z</time></trkpt><trkpt lat="44.374892408477045" lon="8.139639050572532"><ele>727.0</ele><time>2026-05-02T14:04:19Z</time></trkpt><trkpt lat="44.374867001276286" lon="8.13973680518286"><ele>727.0</ele><time>2026-05-02T14:04:21Z</time></trkpt><trkpt lat="44.374824557227534" lon="8.139804120759715"><ele>727.0</ele><time>2026-05-02T14:04:23Z</time></trkpt><trkpt lat="44.37477457556923" lon="8.139891966339782"><ele>727.0</ele><time>2026-05-02T14:04:26Z</time></trkpt><trkpt lat="44.37470320286471" lon="8.139945307827887"><ele>727.0</ele><time>2026-05-02T14:04:30Z</time></trkpt><trkpt lat="44.37464671205817" lon="8.139873158283867"><ele>727.0</ele><time>2026-05-02T14:04:31Z</time></trkpt><trkpt lat="44.37455738910513" lon="8.139886366031115"><ele>727.0</ele><time>2026-05-02T14:04:33Z</time></trkpt><trkpt lat="44.37449112434672" lon="8.139917585318926"><ele>727.0</ele><time>2026-05-02T14:04:37Z</time></trkpt><trkpt lat="44.37456648100291" lon="8.139860136415578"><ele>727.0</ele><time>2026-05-02T14:05:00Z</time></trkpt><trkpt lat="44.374664875325195" lon="8.13987532453282"><ele>727.0</ele><time>2026-05-02T14:05:03Z</time></trkpt><trkpt lat="44.37473049782791" lon="8.13988468259105"><ele>727.0</ele><time>2026-05-02T14:05:05Z</time></trkpt><trkpt lat="44.374800592817266" lon="8.13990669623132"><ele>727.0</ele><time>2026-05-02T14:07:01.999Z</time></trkpt><trkpt lat="44.37481866955923" lon="8.139820725929738"><ele>727.0</ele><time>2026-05-02T14:09:24.999Z</time></trkpt><trkpt lat="44.37480922086242" lon="8.13968510237396"><ele>727.0</ele><time>2026-05-02T14:10:40Z</time></trkpt><trkpt lat="44.37475146978009" lon="8.139730023506203"><ele>727.0</ele><time>2026-05-02T14:18:35Z</time></trkpt><trkpt lat="44.37477281550583" lon="8.139608413476013"><ele>727.0</ele><time>2026-05-02T14:23:42.999Z</time></trkpt><trkpt lat="44.374840999690534" lon="8.139603942885257"><ele>727.0</ele><time>2026-05-02T14:23:47.999Z</time></trkpt><trkpt lat="44.37486344204193" lon="8.139515981421017"><ele>727.0</ele><time>2026-05-02T14:23:57.999Z</time></trkpt><trkpt lat="44.37490931223564" lon="8.139444324912418"><ele>727.0</ele><time>2026-05-02T14:24:03.999Z</time></trkpt><trkpt lat="44.37496627563567" lon="8.139393073876514"><ele>727.0</ele><time>2026-05-02T14:24:12.999Z</time></trkpt><trkpt lat="44.3749126002552" lon="8.139446568699448"><ele>727.0</ele><time>2026-05-02T14:28:14.999Z</time></trkpt><trkpt lat="44.374890795851094" lon="8.139532147369545"><ele>727.0</ele><time>2026-05-02T14:28:22.999Z</time></trkpt><trkpt lat="44.374871951968146" lon="8.139616406005892"><ele>727.0</ele><time>2026-05-02T14:28:30.999Z</time></trkpt><trkpt lat="44.37486636450598" lon="8.139706271164414"><ele>727.0</ele><time>2026-05-02T14:28:39Z</time></trkpt><trkpt lat="44.374826689862836" lon="8.1397829984766"><ele>727.0</ele><time>2026-05-02T14:28:50Z</time></trkpt><trkpt lat="44.37480748418433" lon="8.139876134617358"><ele>727.0</ele><time>2026-05-02T14:39:58Z</time></trkpt><trkpt lat="44.37485977434203" lon="8.139963076057112"><ele>727.0</ele><time>2026-05-02T14:43:10.999Z</time></trkpt><trkpt lat="44.37494706007567" lon="8.139948659477186"><ele>727.0</ele><time>2026-05-02T14:43:12.999Z</time></trkpt><trkpt lat="44.37506172531666" lon="8.139864391494601"><ele>727.0</ele><time>2026-05-02T14:43:14.999Z</time></trkpt><trkpt lat="44.375150897865026" lon="8.139895070328462"><ele>727.0</ele><time>2026-05-02T14:43:15.999Z</time></trkpt><trkpt lat="44.37524922679804" lon="8.139973059942655"><ele>727.8</ele><time>2026-05-02T14:43:16.999Z</time></trkpt><trkpt lat="44.37536512840161" lon="8.140089154585672"><ele>728.6</ele><time>2026-05-02T14:43:17.999Z</time></trkpt><trkpt lat="44.375453110023344" lon="8.140164919090921"><ele>729.4</ele><time>2026-05-02T14:43:19Z</time></trkpt><trkpt lat="44.37552421392403" lon="8.140237302414329"><ele>730.1999999999999</ele><time>2026-05-02T14:43:20Z</time></trkpt><trkpt lat="44.37557403467392" lon="8.140316537071302"><ele>731.0</ele><time>2026-05-02T14:43:21Z</time></trkpt><trkpt lat="44.37561207481482" lon="8.140391662753288"><ele>733.0</ele><time>2026-05-02T14:43:22Z</time></trkpt><trkpt lat="44.37568423408852" lon="8.140481420713844"><ele>733.0</ele><time>2026-05-02T14:43:24Z</time></trkpt><trkpt lat="44.37574108493047" lon="8.140537363645672"><ele>733.0</ele><time>2026-05-02T14:43:26Z</time></trkpt><trkpt lat="44.37579942984298" lon="8.140589690246104"><ele>733.0</ele><time>2026-05-02T14:43:29Z</time></trkpt></trkseg></trk></gpx>